# Wetter Temperatur Luftdruck Luftfeuchtigkeit Sichtweite Windgeschwindigkeit Windrichtung Zeit
1 Clear 15 1020 67 10000 2.1 330 21:42 28.01.2020
2 Clear 15 1020 67 10000 2.1 330 21:20 28.01.2020
3 Clear 15 1020 67 10000 2.1 320 20:57 28.01.2020
4 Clear 15 1021 67 10000 2.6 320 20:39 28.01.2020
5 Clear 15 1021 67 10000 2.6 320 20:21 28.01.2020
6 Clear 16 1021 67 10000 3.1 320 19:39 28.01.2020
7 Clear 16 1021 67 10000 3.1 320 19:20 28.01.2020
8 Clear 16 1021 67 10000 3.1 330 18:58 28.01.2020
9 Clear 17 1021 63 10000 3.6 330 18:39 28.01.2020
10 Clear 16 1021 63 10000 3.6 330 18:21 28.01.2020
11 Clear 17 1021 63 10000 3.6 330 17:57 28.01.2020
12 Clear 17 1020 59 10000 4.1 330 17:37 28.01.2020
13 Clear 17 1020 59 10000 4.1 330 17:19 28.01.2020
14 Clear 17 1020 59 10000 4.1 330 17:19 28.01.2020
15 Clear 17 1020 59 10000 4.1 330 17:19 28.01.2020
16 Clear 17 1020 77 10000 1.5 340 16:46 28.01.2020
17 Clear 18 1020 68 10000 2.1 10 16:27 28.01.2020
18 Clear 18 1020 68 10000 2.6 20 15:59 28.01.2020
19 Clear 19 1020 63 10000 3.6 10 15:41 28.01.2020
20 Clear 19 1020 63 10000 3.6 10 15:18 28.01.2020
21 Clear 19 1020 59 10000 4.1 10 14:45 28.01.2020
22 Clouds 20 1020 59 10000 4.1 10 14:20 28.01.2020
23 Clouds 21 1019 56 10000 4.1 20 13:57 28.01.2020
24 Clouds 21 1019 52 10000 4.6 20 13:38 28.01.2020
25 Clouds 20 1019 52 10000 4.6 20 13:19 28.01.2020
26 Clouds 21 1020 49 10000 6.2 350 12:42 28.01.2020
27 Clouds 21 1020 49 10000 6.2 350 12:22 28.01.2020
28 Clouds 21 1020 49 10000 5.7 360 11:48 28.01.2020
29 Clouds 20 1021 49 10000 3.6 340 11:23 28.01.2020
30 Clouds 21 1021 46 10000 4.6 340 10:58 28.01.2020
31 Clouds 20 1022 52 10000 4.6 340 10:39 28.01.2020
32 Clouds 20 1022 52 10000 4.6 340 10:20 28.01.2020
33 Clear 21 1022 55 10000 4.1 320 09:42 28.01.2020
34 Clear 20 1022 55 10000 4.1 320 09:21 28.01.2020
35 Clear 19 1023 55 10000 4.6 310 08:56 28.01.2020
36 Clear 18 1023 59 10000 5.1 300 08:38 28.01.2020
37 Clear 17 1023 59 10000 5.1 300 08:18 28.01.2020
38 Clear 17 1023 59 10000 4.1 300 07:36 28.01.2020
39 Clear 16 1023 63 10000 2.1 270 06:49 28.01.2020
40 Clear 15 1023 67 10000 2.6 270 06:25 28.01.2020
41 Clear 15 1022 67 10000 1.5 250 05:53 28.01.2020
42 Clear 14 1022 71 10000 1 0 05:25 28.01.2020
43 Clear 12 1021 71 10000 2.1 240 03:57 28.01.2020
44 Clear 12 1021 66 10000 2.6 280 02:58 28.01.2020
45 Clear 12 1021 66 10000 1.5 260 02:25 28.01.2020
46 Clear 12 1021 66 10000 2.1 270 01:57 28.01.2020
47 Clear 12 1021 66 10000 1 0 01:23 28.01.2020
48 Clear 12 1021 66 10000 2.1 280 00:45 28.01.2020
49 Clear 13 1021 62 10000 2.1 280 00:24 28.01.2020
50 Clear 13 1021 62 10000 2.6 280 23:48 27.01.2020
51 Clear 13 1022 58 10000 2.1 280 23:29 27.01.2020
52 Clear 13 1022 58 10000 3.1 300 22:54 27.01.2020
53 Clear 13 1022 54 10000 3.6 310 22:36 27.01.2020
54 Clear 13 1022 54 10000 3.6 310 22:18 27.01.2020
55 Clear 13 1022 58 10000 3.1 310 21:40 27.01.2020
56 Clear 13 1022 58 10000 3.1 310 21:19 27.01.2020
57 Clear 15 1022 62 10000 3.6 310 20:59 27.01.2020
58 Clear 15 1022 62 10000 3.6 310 20:40 27.01.2020
59 Clear 15 1022 62 10000 3.6 310 20:21 27.01.2020
60 Clear 15 1022 62 10000 3.6 310 20:21 27.01.2020
61 Clear 14 1022 62 10000 4.6 300 19:59 27.01.2020
62 Clear 14 1022 62 10000 4.6 300 19:40 27.01.2020
63 Clear 14 1022 67 10000 3.1 300 19:21 27.01.2020
64 Clear 15 1022 62 10000 3.6 300 18:56 27.01.2020
65 Clear 15 1022 67 10000 3.6 310 18:37 27.01.2020
66 Clear 15 1022 67 10000 3.6 310 18:37 27.01.2020
67 Clear 15 1022 67 10000 3.6 310 18:19 27.01.2020
68 Clear 15 1022 67 10000 3.6 310 18:19 27.01.2020
69 Clouds 16 1022 63 10000 5.7 310 17:39 27.01.2020
70 Clouds 16 1022 63 10000 5.7 310 17:39 27.01.2020
71 Clouds 16 1022 63 10000 5.7 310 17:19 27.01.2020
72 Clouds 16 1022 63 10000 5.7 310 16:57 27.01.2020
73 Clouds 16 1022 59 10000 6.2 310 16:39 27.01.2020
74 Clouds 16 1022 59 10000 6.2 310 16:21 27.01.2020
75 Clouds 17 1022 55 10000 5.7 320 15:55 27.01.2020
76 Clouds 17 1021 55 10000 5.7 320 15:36 27.01.2020
77 Clouds 17 1021 55 10000 5.7 320 15:18 27.01.2020
78 Clouds 18 1021 48 10000 5.7 310 14:41 27.01.2020
79 Clouds 18 1021 48 10000 5.7 310 14:22 27.01.2020
80 Clouds 19 1021 45 10000 6.2 320 13:54 27.01.2020
81 Clouds 19 1021 45 10000 7.2 320 13:36 27.01.2020
82 Clouds 19 1021 45 10000 7.2 320 13:18 27.01.2020
83 Clouds 19 1021 45 10000 6.7 320 12:42 27.01.2020
84 Clouds 19 1021 45 10000 6.2 310 12:22 27.01.2020
85 Clouds 19 1021 45 10000 7.2 320 11:55 27.01.2020
86 Clouds 19 1022 45 10000 6.7 310 11:36 27.01.2020
87 Clouds 19 1022 45 10000 6.7 310 11:18 27.01.2020
88 Clouds 19 1023 45 10000 6.2 300 10:42 27.01.2020
89 Clouds 19 1023 45 10000 6.2 300 10:23 27.01.2020
90 Clouds 19 1024 48 10000 6.7 310 09:40 27.01.2020
91 Clouds 18 1024 48 10000 6.7 310 09:19 27.01.2020
92 Clouds 18 1024 48 10000 6.2 310 08:58 27.01.2020
93 Clear 18 1024 52 10000 6.2 300 08:40 27.01.2020
94 Clear 17 1024 52 10000 6.2 300 08:19 27.01.2020
95 Clear 16 1025 51 10000 5.7 290 07:50 27.01.2020
96 Clear 17 1025 59 10000 5.1 300 07:32 27.01.2020
97 Clear 16 1024 58 10000 6.2 290 06:39 27.01.2020
98 Clear 15 1024 58 10000 6.2 300 05:51 27.01.2020
99 Clear 14 1023 62 10000 6.2 300 05:18 27.01.2020
100 Clear 14 1022 67 10000 5.1 300 03:35 27.01.2020
101 Clear 14 1022 67 10000 5.7 290 01:57 27.01.2020
102 Clear 14 1022 62 10000 4.1 290 01:28 27.01.2020
103 Clear 14 1022 67 10000 4.6 290 00:42 27.01.2020
104 Clear 14 1022 67 10000 4.6 290 00:22 27.01.2020
105 Clear 14 1022 67 10000 4.1 290 23:46 26.01.2020
106 Clear 14 1022 67 10000 3.6 290 23:27 26.01.2020
107 Clear 14 1022 67 10000 3.6 280 22:59 26.01.2020
108 Clear 14 1022 62 10000 3.6 290 22:39 26.01.2020
109 Clear 14 1022 62 10000 3.6 290 22:20 26.01.2020
110 Clear 14 1022 62 10000 4.1 290 21:58 26.01.2020
111 Clear 14 1022 62 10000 4.6 300 21:40 26.01.2020
112 Clear 15 1022 62 10000 4.6 300 21:21 26.01.2020
113 Clear 15 1023 62 10000 5.1 300 20:58 26.01.2020
114 Clear 15 1023 62 10000 6.2 300 20:38 26.01.2020
115 Clear 15 1023 62 10000 6.2 300 20:19 26.01.2020
116 Clear 15 1023 62 10000 5.7 300 19:59 26.01.2020
117 Clear 15 1023 62 10000 5.7 300 19:59 26.01.2020
118 Clear 15 1023 62 10000 5.7 300 19:59 26.01.2020
119 Clear 15 1023 67 10000 6.7 300 19:39 26.01.2020
120 Clear 15 1023 67 10000 6.7 300 19:21 26.01.2020
121 Clear 15 1023 67 10000 5.7 300 18:58 26.01.2020
122 Clear 15 1022 63 10000 6.2 310 18:39 26.01.2020
123 Clear 15 1022 63 10000 6.2 310 18:21 26.01.2020
124 Clear 16 1022 63 10000 6.2 300 17:55 26.01.2020
125 Clear 16 1022 59 10000 6.2 300 17:37 26.01.2020
126 Clear 16 1022 59 10000 6.2 300 17:18 26.01.2020
127 Clear 16 1022 55 10000 6.2 310 16:56 26.01.2020
128 Clear 16 1022 55 10000 6.7 300 16:38 26.01.2020
129 Clear 16 1022 55 10000 6.7 300 16:19 26.01.2020
130 Clear 16 1022 55 10000 6.7 300 16:19 26.01.2020
131 Clear 16 1023 56 0 5.36 334 15:43 26.01.2020
132 Clear 17 1023 53 0 5.36 88 15:22 26.01.2020
133 Clear 15 1022 71 0 9.97 312 14:58 26.01.2020
134 Clear 15 1022 71 0 9.97 312 14:38 26.01.2020
135 Clear 18 1022 42 0 7.15 335 14:19 26.01.2020
136 Clear 19 1022 40 0 6.26 12 13:40 26.01.2020
137 Clear 19 1022 40 0 4.47 275 13:19 26.01.2020
138 Clear 19 1022 40 0 5.81 292 12:56 26.01.2020
139 Clear 19 1022 39 0 6.26 309 12:37 26.01.2020
140 Clear 19 1022 38 0 6.26 23 12:19 26.01.2020
141 Clear 19 1022 40 0 7.15 323 11:57 26.01.2020
142 Clear 19 1022 40 0 7.15 341 11:36 26.01.2020
143 Clear 16 1022 44 10000 7.7 290 11:18 26.01.2020
144 Clear 16 1022 44 10000 7.7 290 10:55 26.01.2020
145 Clear 16 1022 44 10000 7.7 290 10:37 26.01.2020
146 Clear 16 1022 44 10000 7.7 290 10:18 26.01.2020
147 Clear 16 1023 47 9000 7.2 300 09:41 26.01.2020
148 Clear 16 1023 47 9000 7.2 300 09:23 26.01.2020
149 Clear 15 1023 50 9000 7.7 300 08:59 26.01.2020
150 Clear 15 1023 50 9000 7.7 300 08:41 26.01.2020
151 Clouds 14 1024 50 9000 6.7 310 08:21 26.01.2020
152 Clouds 14 1024 50 8000 6.2 300 07:50 26.01.2020
153 Clouds 13 1024 54 6000 6.2 300 07:26 26.01.2020
154 Clear 13 1023 50 6000 7.7 310 06:40 26.01.2020
155 Clear 13 1023 50 6000 7.7 310 06:22 26.01.2020
156 Dust 13 1022 47 3000 6.2 290 05:27 26.01.2020
157 Dust 14 1021 30 3000 4.6 290 03:23 26.01.2020
158 Clear 14 1020 28 6000 5.1 300 02:38 26.01.2020
159 Clear 14 1021 24 10000 5.7 290 01:43 26.01.2020
160 Clear 13 1021 24 10000 5.7 300 01:22 26.01.2020
161 Clear 14 1020 26 10000 5.1 300 00:42 26.01.2020
162 Clear 14 1021 26 10000 6.2 300 00:23 26.01.2020
163 Clear 14 1022 30 0 3.13 357 23:39 25.01.2020
164 Clear 15 1022 28 0 4.47 10 23:20 25.01.2020
165 Clear 15 1022 31 0 4.47 338 22:56 25.01.2020
166 Clear 15 1022 32 0 3.58 36 22:36 25.01.2020
167 Clear 15 1022 34 0 3.13 56 22:18 25.01.2020
168 Clear 16 1022 40 0 4.02 338 21:41 25.01.2020
169 Clear 16 1022 41 0 4.47 327 21:23 25.01.2020
170 Clear 17 1022 42 0 3.13 56 20:56 25.01.2020
171 Clear 15 1020 60 0 9.18 312 20:38 25.01.2020
172 Clear 17 1022 42 0 2.68 4 20:19 25.01.2020
173 Clear 17 1022 44 0 4.02 17 19:43 25.01.2020
174 Clear 17 1022 45 0 3.58 278 19:20 25.01.2020
175 Clear 18 1021 42 0 3.13 339 18:57 25.01.2020
176 Clear 18 1021 42 0 3.13 339 18:57 25.01.2020
177 Clear 18 1021 42 0 3.13 339 18:38 25.01.2020
178 Clear 18 1022 41 0 3.13 337 18:20 25.01.2020
179 Clear 18 1021 41 0 1.79 106 17:40 25.01.2020
180 Clear 19 1021 37 0 2.24 336 17:19 25.01.2020
181 Clear 19 1021 37 0 1.79 54 16:57 25.01.2020
182 Clear 19 1020 37 0 2.68 331 16:38 25.01.2020
183 Clear 19 1020 52 0 0.89 13 16:19 25.01.2020
184 Clear 19 1020 51 0 1.34 76 15:47 25.01.2020
185 Clear 19 1019 50 0 1.34 63 15:25 25.01.2020
186 Clear 18 1018 51 0 3.78 63 14:57 25.01.2020
187 Clear 18 1018 51 0 3.78 63 14:39 25.01.2020
188 Clear 26 1019 23 0 1.34 353 14:18 25.01.2020
189 Clear 26 1019 25 0 1.34 309 13:42 25.01.2020
190 Clear 26 1019 25 0 2.68 335 13:23 25.01.2020
191 Clear 24 1019 46 10000 3.6 360 12:45 25.01.2020
192 Clear 23 1019 46 10000 3.6 360 12:25 25.01.2020
193 Clear 23 1019 33 10000 2.1 50 11:45 25.01.2020
194 Clear 22 1019 33 10000 2.1 50 11:22 25.01.2020
195 Clear 22 1019 33 10000 2.1 50 11:22 25.01.2020
196 Clear 21 1019 35 10000 2.6 10 10:59 25.01.2020
197 Clear 21 1020 35 10000 2.1 210 10:40 25.01.2020
198 Clear 21 1020 35 10000 2.1 210 10:20 25.01.2020
199 Clear 22 1021 43 10000 1.5 0 09:41 25.01.2020
200 Clear 22 1021 43 10000 1.5 0 09:22 25.01.2020
201 Clear 21 1021 45 10000 2.1 170 08:47 25.01.2020
202 Clear 19 1021 42 10000 2.1 160 08:28 25.01.2020
203 Clear 18 1021 48 10000 1.5 200 07:50 25.01.2020
204 Clear 15 1021 63 10000 1.5 340 06:54 25.01.2020
205 Clear 17 1021 63 10000 1 340 06:28 25.01.2020
206 Clear 16 1021 59 10000 0.5 0 05:48 25.01.2020
207 Clear 13 1020 71 10000 1.05 177 05:23 25.01.2020
208 Clear 13 1020 71 10000 1 0 03:53 25.01.2020
209 Clear 13 1020 71 10000 1 0 03:22 25.01.2020
210 Clear 13 1019 71 10000 1 0 02:22 25.01.2020
211 Clear 14 1020 67 10000 2.6 310 01:52 25.01.2020
212 Clear 14 1020 67 10000 3.1 310 00:44 25.01.2020
213 Clear 14 1020 67 10000 2.6 310 00:26 25.01.2020
214 Clear 14 1020 67 10000 2.1 310 23:59 24.01.2020
215 Clear 15 1020 67 10000 2.6 310 23:40 24.01.2020
216 Clear 14 1020 67 10000 2.6 310 23:22 24.01.2020
217 Clear 14 1020 67 10000 2.6 310 22:45 24.01.2020
218 Clear 14 1020 63 10000 2.1 310 22:25 24.01.2020
219 Clear 15 1020 63 10000 2.1 310 21:56 24.01.2020
220 Clear 15 1020 63 10000 2.1 310 21:37 24.01.2020
221 Clear 15 1020 63 10000 2.1 310 21:18 24.01.2020
222 Clear 15 1020 63 10000 2.1 330 20:42 24.01.2020
223 Clear 15 1020 63 10000 2.1 330 20:21 24.01.2020
224 Clear 15 1021 59 10000 3.1 340 19:57 24.01.2020
225 Clear 15 1021 59 10000 3.6 340 19:38 24.01.2020
226 Clear 15 1021 59 10000 3.6 340 19:20 24.01.2020
227 Clear 16 1020 59 10000 3.1 340 18:43 24.01.2020
228 Clear 16 1020 55 10000 3.1 340 18:24 24.01.2020
229 Clear 17 1020 55 10000 3.6 340 17:56 24.01.2020
230 Clear 17 1019 48 10000 3.6 330 17:38 24.01.2020
231 Clear 17 1019 48 10000 3.6 330 17:18 24.01.2020
232 Clear 17 1019 48 10000 3.1 330 16:39 24.01.2020
233 Clear 17 1019 48 10000 3.1 330 16:20 24.01.2020
234 Clear 18 1018 42 10000 3.1 330 15:43 24.01.2020
235 Clear 18 1018 39 10000 3.1 320 15:23 24.01.2020
236 Clear 19 1018 37 10000 3.1 310 14:58 24.01.2020
237 Clear 19 1018 34 10000 3.6 320 14:40 24.01.2020
238 Clear 20 1018 34 10000 3.6 320 14:21 24.01.2020
239 Clear 20 1018 45 10000 4.1 20 13:43 24.01.2020
240 Clear 19 1018 45 10000 4.1 10 13:23 24.01.2020
241 Clear 20 1018 45 10000 3.6 30 12:45 24.01.2020
242 Clear 20 1018 45 10000 3.6 30 12:45 24.01.2020
243 Clear 19 1019 40 10000 3.6 320 12:23 24.01.2020
244 Clear 19 1019 42 10000 4.1 350 11:57 24.01.2020
245 Clear 19 1019 42 10000 4.1 360 11:39 24.01.2020
246 Clear 19 1019 42 10000 4.1 360 11:18 24.01.2020
247 Clear 19 1020 45 10000 4.1 340 10:42 24.01.2020
248 Clear 19 1020 45 10000 4.1 340 10:21 24.01.2020
249 Clear 20 1020 45 10000 3.6 330 09:54 24.01.2020
250 Clear 20 1021 45 10000 3.6 320 09:36 24.01.2020
251 Clear 19 1021 45 10000 3.6 320 09:18 24.01.2020
252 Clear 19 1021 48 10000 4.1 300 08:39 24.01.2020
253 Clear 19 1021 48 10000 4.1 300 08:39 24.01.2020
254 Clear 17 1021 48 10000 4.1 300 08:19 24.01.2020
255 Clear 16 1021 51 10000 4.1 310 07:47 24.01.2020
256 Clear 16 1021 55 10000 4.6 310 07:22 24.01.2020
257 Clear 15 1021 62 10000 3.1 300 06:45 24.01.2020
258 Clear 16 1021 62 10000 3.1 300 06:24 24.01.2020
259 Clear 14 1020 67 10000 4.1 300 05:33 24.01.2020
260 Clouds 14 1019 58 10000 4.6 320 03:36 24.01.2020
261 Clouds 15 1018 58 10000 4.6 320 02:40 24.01.2020
262 Clouds 15 1018 62 10000 5.1 310 02:21 24.01.2020
263 Clouds 15 1018 62 10000 5.7 310 01:39 24.01.2020
264 Clouds 15 1018 63 10000 5.1 310 00:49 24.01.2020
265 Clouds 15 1019 63 10000 4.6 310 00:19 24.01.2020
266 Clouds 15 1019 67 10000 4.6 310 23:42 23.01.2020
267 Clouds 15 1019 67 10000 4.6 310 23:23 23.01.2020
268 Clouds 15 1019 67 10000 4.6 310 22:58 23.01.2020
269 Clouds 15 1019 67 10000 3.6 300 22:37 23.01.2020
270 Clouds 15 1019 67 10000 3.6 300 22:37 23.01.2020
271 Clouds 15 1019 67 10000 3.6 300 22:18 23.01.2020
272 Clouds 15 1019 67 10000 4.6 310 21:55 23.01.2020
273 Clouds 16 1019 67 10000 4.1 300 21:37 23.01.2020
274 Clouds 16 1019 67 10000 4.1 300 21:19 23.01.2020
275 Clouds 16 1019 67 10000 4.1 300 21:19 23.01.2020
276 Clouds 16 1019 67 10000 4.1 300 20:55 23.01.2020
277 Rain 16 1019 67 10000 3.6 300 20:37 23.01.2020
278 Rain 16 1019 67 10000 3.6 300 20:18 23.01.2020
279 Rain 16 1019 67 10000 3.6 310 19:42 23.01.2020
280 Clouds 16 1019 67 10000 4.6 310 19:23 23.01.2020
281 Rain 16 1019 67 10000 4.1 310 18:58 23.01.2020
282 Rain 16 1019 67 10000 4.1 310 18:38 23.01.2020
283 Rain 16 1019 67 10000 4.1 310 18:20 23.01.2020
284 Rain 15 1019 63 10000 4.1 320 17:55 23.01.2020
285 Rain 15 1019 72 10000 4.1 320 17:37 23.01.2020
286 Rain 15 1019 72 10000 4.1 320 17:18 23.01.2020
287 Clouds 15 1018 72 10000 4.6 330 16:39 23.01.2020
288 Clouds 15 1018 72 10000 4.6 330 16:20 23.01.2020
289 Clouds 15 1018 72 10000 4.6 330 16:20 23.01.2020
290 Rain 15 1018 77 9000 4.6 330 15:58 23.01.2020
291 Clouds 15 1018 67 10000 5.7 330 15:39 23.01.2020
292 Clouds 15 1018 67 10000 5.7 330 15:19 23.01.2020
293 Clouds 15 1018 62 10000 5.7 320 14:58 23.01.2020
294 Clouds 15 1017 58 10000 7.7 320 14:40 23.01.2020
295 Clouds 15 1017 58 10000 7.7 320 14:22 23.01.2020
296 Clouds 16 1017 63 10000 7.2 330 13:55 23.01.2020
297 Clouds 16 1017 59 10000 7.2 330 13:37 23.01.2020
298 Clouds 16 1017 59 10000 7.2 330 13:18 23.01.2020
299 Clouds 17 1017 59 10000 7.2 320 12:42 23.01.2020
300 Clouds 17 1017 59 10000 7.2 320 12:24 23.01.2020
301 Clouds 17 1017 63 10000 7.2 320 11:56 23.01.2020
302 Clouds 17 1017 63 10000 7.7 320 11:37 23.01.2020
303 Clouds 17 1017 63 10000 7.7 320 11:18 23.01.2020
304 Clouds 17 1018 63 10000 6.2 320 10:42 23.01.2020
305 Clouds 17 1018 55 10000 7.7 320 10:19 23.01.2020
306 Clouds 17 1019 67 10000 7.7 320 09:42 23.01.2020
307 Clouds 17 1019 67 10000 7.7 320 09:24 23.01.2020
308 Clouds 18 1019 63 10000 7.2 320 08:58 23.01.2020
309 Clouds 18 1019 68 10000 7.2 310 08:40 23.01.2020
310 Clouds 18 1019 68 10000 7.2 310 08:21 23.01.2020
311 Clouds 19 1019 63 10000 6.7 320 07:44 23.01.2020
312 Clouds 18 1018 68 10000 6.2 320 07:24 23.01.2020
313 Clouds 18 1018 77 10000 5.7 320 06:51 23.01.2020
314 Clouds 18 1018 77 10000 5.7 320 06:51 23.01.2020
315 Clouds 18 1018 72 10000 6.7 330 06:20 23.01.2020
316 Clouds 19 1016 82 10000 4.6 330 05:37 23.01.2020
317 Rain 19 1016 72 10000 3.1 310 04:22 23.01.2020
318 Rain 19 1014 77 10000 5.1 270 02:33 23.01.2020
319 Clouds 20 1014 82 10000 5.7 120 00:58 23.01.2020
320 Clouds 20 1014 77 10000 5.7 120 00:27 23.01.2020
321 Clouds 20 1014 82 10000 6.2 120 23:47 22.01.2020
322 Clouds 20 1015 82 10000 5.1 110 23:29 22.01.2020
323 Clouds 20 1015 77 10000 3.6 120 22:58 22.01.2020
324 Clouds 21 1015 77 10000 4.6 100 22:39 22.01.2020
325 Clouds 20 1015 77 10000 4.6 100 22:21 22.01.2020
326 Clouds 20 1015 77 10000 3.1 100 21:39 22.01.2020
327 Clouds 20 1015 77 10000 3.1 100 21:21 22.01.2020
328 Clouds 20 1015 72 10000 2.6 100 20:56 22.01.2020
329 Clouds 20 1015 77 10000 2.6 90 20:37 22.01.2020
330 Clouds 20 1015 77 10000 2.6 90 20:18 22.01.2020
331 Clouds 20 1015 77 10000 3.1 110 19:55 22.01.2020
332 Clouds 20 1015 72 10000 3.6 110 19:37 22.01.2020
333 Clouds 20 1015 72 10000 3.6 110 19:18 22.01.2020
334 Clouds 20 1015 72 10000 4.6 110 18:56 22.01.2020
335 Clouds 20 1015 72 10000 5.7 110 18:37 22.01.2020
336 Clouds 20 1015 72 10000 5.7 110 18:18 22.01.2020
337 Clouds 20 1015 72 10000 5.1 90 17:40 22.01.2020
338 Clouds 20 1015 72 10000 5.1 90 17:21 22.01.2020
339 Clouds 20 1015 72 10000 5.1 90 16:58 22.01.2020
340 Clouds 20 1015 72 10000 5.1 90 16:58 22.01.2020
341 Clouds 20 1015 72 10000 4.6 80 16:39 22.01.2020
342 Clouds 20 1015 72 10000 4.6 80 16:21 22.01.2020
343 Clouds 20 1015 72 10000 4.6 70 15:56 22.01.2020
344 Clouds 21 1015 68 10000 5.1 70 15:38 22.01.2020
345 Clouds 21 1015 68 10000 5.1 70 15:18 22.01.2020
346 Clouds 22 1014 68 10000 4.1 90 14:39 22.01.2020
347 Clear 22 1014 68 10000 4.1 90 14:20 22.01.2020
348 Clear 23 1014 60 10000 4.6 100 13:58 22.01.2020
349 Clear 23 1014 53 10000 6.2 120 13:38 22.01.2020
350 Clear 23 1014 53 10000 6.2 120 13:19 22.01.2020
351 Clear 23 1014 53 10000 7.7 130 12:57 22.01.2020
352 Clear 23 1014 49 10000 8.2 130 12:39 22.01.2020
353 Clear 23 1014 49 10000 8.2 130 12:19 22.01.2020
354 Clear 23 1014 49 10000 8.2 130 11:58 22.01.2020
355 Clear 23 1015 46 10000 8.2 130 11:39 22.01.2020
356 Clear 23 1015 46 10000 8.2 130 11:19 22.01.2020
357 Clear 23 1015 46 10000 8.2 130 11:19 22.01.2020
358 Clear 23 1015 49 10000 8.7 130 10:54 22.01.2020
359 Clear 23 1015 49 10000 8.7 140 10:36 22.01.2020
360 Clear 23 1015 49 10000 8.7 140 10:18 22.01.2020
361 Clear 22 1017 56 10000 8.2 140 09:41 22.01.2020
362 Clear 22 1017 56 10000 8.2 140 09:23 22.01.2020
363 Clear 22 1017 56 10000 8.2 140 08:57 22.01.2020
364 Clear 22 1017 60 10000 8.2 140 08:38 22.01.2020
365 Clear 22 1017 60 10000 8.2 140 08:20 22.01.2020
366 Clear 21 1018 64 10000 7.2 140 07:46 22.01.2020
367 Clear 20 1018 68 10000 4.1 170 07:27 22.01.2020
368 Clear 19 1017 68 10000 3.1 160 06:38 22.01.2020
369 Clear 19 1017 68 10000 3.1 160 06:20 22.01.2020
370 Clear 15 1017 72 10000 1 130 05:19 22.01.2020
371 Clear 16 1015 67 10000 2.1 180 03:29 22.01.2020
372 Clear 16 1015 67 10000 1.5 180 02:49 22.01.2020
373 Clear 16 1015 63 10000 1.5 170 01:42 22.01.2020
374 Clear 16 1015 67 10000 1 170 00:43 22.01.2020
375 Clear 16 1016 63 10000 0.5 0 00:25 22.01.2020
376 Clear 16 1016 63 10000 1 0 23:38 21.01.2020
377 Clear 16 1016 63 10000 1 0 23:38 21.01.2020
378 Clear 16 1016 63 10000 1 0 23:20 21.01.2020
379 Clear 17 1017 63 10000 1 230 22:55 21.01.2020
380 Clear 17 1017 63 10000 1 0 22:36 21.01.2020
381 Clear 17 1017 63 10000 1 0 22:18 21.01.2020
382 Clear 17 1017 63 10000 1 0 21:55 21.01.2020
383 Clear 17 1017 63 10000 0.5 0 21:36 21.01.2020
384 Clear 17 1017 63 10000 0.5 0 21:18 21.01.2020
385 Clear 17 1018 63 10000 1.95 289 20:39 21.01.2020
386 Clear 17 1018 63 10000 1.79 12 20:20 21.01.2020
387 Clear 18 1017 63 10000 1 0 19:58 21.01.2020
388 Clear 18 1017 63 10000 1 0 19:58 21.01.2020
389 Clear 18 1017 63 10000 1.5 10 19:40 21.01.2020
390 Clear 18 1017 63 10000 1.5 10 19:21 21.01.2020
391 Clear 19 1017 63 10000 2.1 10 18:57 21.01.2020
392 Clear 19 1017 59 10000 2.1 20 18:39 21.01.2020
393 Clear 19 1017 59 10000 2.1 20 18:21 21.01.2020
394 Clear 19 1017 59 10000 1.5 30 17:58 21.01.2020
395 Clear 19 1017 59 10000 1.5 40 17:40 21.01.2020
396 Clear 19 1017 59 10000 1.5 40 17:18 21.01.2020
397 Clear 20 1016 52 10000 4.6 20 16:38 21.01.2020
398 Clear 20 1016 52 10000 4.6 20 16:20 21.01.2020
399 Clear 21 1016 52 10000 4.6 20 15:59 21.01.2020
400 Clear 21 1016 56 10000 4.1 20 15:39 21.01.2020
401 Clear 21 1016 56 10000 4.1 20 15:19 21.01.2020
402 Clear 21 1016 56 10000 4.1 20 15:19 21.01.2020
403 Clear 21 1016 49 10000 5.1 10 14:40 21.01.2020
404 Clear 22 1016 49 10000 5.1 10 14:22 21.01.2020
405 Clear 22 1016 52 10000 5.7 20 13:58 21.01.2020
406 Clear 23 1016 46 10000 6.2 20 13:38 21.01.2020
407 Clear 23 1016 46 10000 6.2 20 13:18 21.01.2020
408 Clear 23 1016 43 10000 6.7 20 12:42 21.01.2020
409 Clear 23 1016 43 10000 6.7 20 12:24 21.01.2020
410 Clear 22 1016 43 10000 5.7 10 11:56 21.01.2020
411 Clear 22 1017 43 10000 4.6 20 11:38 21.01.2020
412 Clear 23 1017 43 10000 4.6 20 11:19 21.01.2020
413 Clear 22 1017 40 10000 5.7 20 10:43 21.01.2020
414 Clear 23 1018 43 10000 5.7 10 10:23 21.01.2020
415 Clear 22 1018 40 10000 6.2 340 09:56 21.01.2020
416 Clear 22 1018 40 10000 6.2 340 09:56 21.01.2020
417 Clear 23 1018 40 10000 6.2 340 09:38 21.01.2020
418 Clear 23 1018 40 10000 6.2 340 09:20 21.01.2020
419 Clear 22 1019 37 10000 6.7 340 08:44 21.01.2020
420 Clear 22 1019 43 10000 6.2 340 08:26 21.01.2020
421 Clear 20 1019 43 10000 5.7 330 07:43 21.01.2020
422 Clear 20 1019 49 10000 5.1 330 07:24 21.01.2020
423 Clear 19 1019 52 10000 4.6 330 06:57 21.01.2020
424 Clear 19 1019 63 10000 3.1 330 06:38 21.01.2020
425 Clear 18 1018 72 10000 2.6 310 05:55 21.01.2020
426 Clear 17 1018 82 10000 3.1 300 05:32 21.01.2020
427 Clear 16 1018 77 9000 4.6 300 04:38 21.01.2020
428 Clear 16 1017 77 10000 4.1 300 02:27 21.01.2020
429 Clear 16 1017 72 10000 3.6 310 01:36 21.01.2020
430 Clear 16 1017 72 10000 3.6 310 00:51 21.01.2020
431 Clear 16 1017 72 10000 4.1 310 00:28 21.01.2020
432 Clear 16 1018 72 10000 4.1 310 23:56 20.01.2020
433 Clear 17 1018 72 10000 3.6 310 23:36 20.01.2020
434 Clear 17 1018 72 10000 3.6 310 23:18 20.01.2020
435 Clear 17 1018 68 10000 3.6 310 22:40 20.01.2020
436 Clear 17 1018 68 10000 3.6 310 22:21 20.01.2020
437 Clear 17 1018 68 10000 3.6 310 21:58 20.01.2020
438 Clear 17 1019 68 10000 3.6 310 21:38 20.01.2020
439 Clear 17 1019 68 10000 3.6 310 21:20 20.01.2020
440 Clear 18 1019 63 10000 3.6 320 20:59 20.01.2020
441 Clear 18 1019 63 10000 3.6 320 20:41 20.01.2020
442 Clear 18 1019 63 10000 3.6 320 20:20 20.01.2020
443 Clear 18 1019 63 10000 4.1 320 19:58 20.01.2020
444 Clear 18 1019 63 10000 4.6 320 19:40 20.01.2020
445 Clear 18 1019 63 10000 4.6 320 19:19 20.01.2020
446 Clear 19 1019 59 10000 4.6 320 18:55 20.01.2020
447 Clear 19 1019 56 10000 4.6 320 18:37 20.01.2020
448 Clear 19 1019 56 10000 4.6 320 18:19 20.01.2020
449 Clear 19 1019 56 10000 5.1 330 17:38 20.01.2020
450 Clear 19 1019 56 10000 5.1 330 17:19 20.01.2020
451 Clear 20 1019 52 10000 5.7 330 16:46 20.01.2020
452 Clear 20 1018 49 10000 5.1 330 16:26 20.01.2020
453 Clear 21 1018 49 10000 5.7 350 15:59 20.01.2020
454 Clear 21 1018 52 10000 7.2 350 15:40 20.01.2020
455 Clear 21 1018 52 10000 7.2 350 15:22 20.01.2020
456 Clear 22 1017 46 10000 7.7 350 14:56 20.01.2020
457 Clear 22 1017 37 10000 8.7 350 14:37 20.01.2020
458 Clear 22 1017 37 10000 8.7 350 14:37 20.01.2020
459 Clear 23 1017 37 10000 8.7 350 14:19 20.01.2020
460 Clear 24 1017 40 10000 7.7 360 13:42 20.01.2020
461 Clear 24 1017 38 10000 8.2 360 13:24 20.01.2020
462 Clouds 24 1017 40 10000 8.2 350 12:58 20.01.2020
463 Clouds 23 1017 49 10000 7.2 360 12:40 20.01.2020
464 Clouds 23 1017 49 10000 7.2 360 12:21 20.01.2020
465 Clouds 23 1017 47 10000 9.3 350 11:43 20.01.2020
466 Clouds 23 1017 53 10000 8.7 350 11:24 20.01.2020
467 Clouds 24 1018 53 10000 8.7 350 10:58 20.01.2020
468 Clouds 25 1018 57 10000 9.3 350 10:40 20.01.2020
469 Clouds 24 1018 57 10000 9.3 350 10:20 20.01.2020
470 Clouds 24 1018 57 10000 9.8 350 09:41 20.01.2020
471 Clouds 24 1019 60 10000 7.7 330 09:22 20.01.2020
472 Clouds 23 1019 64 10000 6.7 320 08:54 20.01.2020
473 Clouds 23 1019 56 10000 6.2 320 08:31 20.01.2020
474 Clear 21 1019 56 10000 5.7 320 07:55 20.01.2020
475 Clear 21 1019 64 10000 4.6 310 07:36 20.01.2020
476 Clear 20 1019 64 10000 4.6 310 07:18 20.01.2020
477 Clear 19 1018 72 7000 3.1 300 06:36 20.01.2020
478 Clear 18 1018 77 7000 2.1 290 05:56 20.01.2020
479 Clear 18 1018 82 6000 1.5 280 05:37 20.01.2020
480 Clear 17 1018 82 6000 1.5 280 05:18 20.01.2020
481 Clear 17 1017 82 8000 2.1 270 03:47 20.01.2020
482 Clear 17 1016 82 10000 2.6 240 01:58 20.01.2020
483 Clear 17 1016 82 10000 2.1 230 01:39 20.01.2020
484 Clear 18 1016 77 10000 2.6 240 00:55 20.01.2020
485 Clear 18 1016 77 10000 3.6 240 00:28 20.01.2020
486 Clear 19 1016 77 10000 2.1 180 23:56 19.01.2020
487 Clear 19 1016 82 10000 2.1 150 23:37 19.01.2020
488 Clear 19 1016 82 10000 2.1 150 23:18 19.01.2020
489 Clear 19 1016 82 10000 2.1 150 23:18 19.01.2020
490 Clear 19 1016 82 10000 1.5 160 22:55 19.01.2020
491 Clear 19 1016 82 10000 2.6 140 22:36 19.01.2020
492 Clear 19 1016 82 10000 2.6 140 22:18 19.01.2020
493 Clear 19 1016 77 10000 2.6 140 21:55 19.01.2020
494 Clear 19 1016 77 10000 2.6 140 21:55 19.01.2020
495 Clear 19 1016 82 10000 2.6 140 21:37 19.01.2020
496 Clear 19 1016 82 10000 2.6 140 21:19 19.01.2020
497 Clear 19 1016 82 10000 2.6 140 20:55 19.01.2020
498 Clear 19 1016 82 10000 2.6 140 20:55 19.01.2020
499 Clear 19 1017 77 10000 2.6 150 20:37 19.01.2020
500 Clouds 19 1017 77 10000 2.6 150 20:18 19.01.2020
501 Clouds 20 1016 82 10000 2.1 140 19:54 19.01.2020
502 Clouds 20 1016 82 10000 1.5 130 19:36 19.01.2020
503 Clouds 20 1016 82 10000 1.5 130 19:18 19.01.2020
504 Clouds 20 1016 82 10000 2.6 130 18:54 19.01.2020
505 Clouds 20 1016 72 10000 2.1 120 18:36 19.01.2020
506 Clouds 20 1016 72 10000 2.1 120 18:18 19.01.2020
507 Clouds 21 1016 72 10000 1.5 120 17:56 19.01.2020
508 Clouds 21 1016 72 10000 2.1 120 17:38 19.01.2020
509 Clouds 21 1016 72 10000 2.1 120 17:18 19.01.2020
510 Clouds 21 1016 72 10000 2.6 120 16:55 19.01.2020
511 Clouds 21 1015 72 10000 2.6 120 16:36 19.01.2020
512 Clouds 21 1015 72 10000 2.6 120 16:18 19.01.2020
513 Clouds 22 1015 64 10000 3.1 120 15:54 19.01.2020
514 Clouds 22 1015 60 10000 4.1 120 15:36 19.01.2020
515 Clouds 22 1015 60 10000 4.1 120 15:18 19.01.2020
516 Clouds 23 1015 53 10000 4.6 120 14:40 19.01.2020
517 Clouds 24 1015 53 10000 4.6 120 14:20 19.01.2020
518 Clouds 25 1014 46 10000 5.1 130 13:59 19.01.2020
519 Clouds 25 1014 46 10000 5.7 120 13:40 19.01.2020
520 Clouds 25 1014 46 10000 5.7 120 13:21 19.01.2020
521 Clouds 25 1015 46 10000 5.7 120 12:59 19.01.2020
522 Clouds 25 1015 46 10000 5.7 120 12:40 19.01.2020
523 Clouds 25 1015 47 10000 6.2 120 12:21 19.01.2020
524 Clouds 25 1015 50 10000 5.7 120 11:57 19.01.2020
525 Clouds 25 1015 47 10000 6.2 120 11:38 19.01.2020
526 Clouds 24 1015 47 10000 6.2 120 11:18 19.01.2020
527 Clouds 23 1017 56 10000 6.2 120 10:40 19.01.2020
528 Clouds 23 1017 56 10000 6.2 120 10:21 19.01.2020
529 Clouds 23 1017 56 10000 5.1 110 09:57 19.01.2020
530 Clouds 25 1018 49 10000 4.6 130 09:38 19.01.2020
531 Clouds 24 1018 49 10000 4.6 130 09:20 19.01.2020
532 Clouds 24 1018 46 10000 5.1 130 08:55 19.01.2020
533 Clear 23 1018 60 10000 4.6 130 08:33 19.01.2020
534 Clouds 22 1019 60 10000 4.1 130 07:55 19.01.2020
535 Clouds 22 1018 77 10000 4.1 130 07:29 19.01.2020
536 Clouds 21 1018 77 10000 3.1 130 06:55 19.01.2020
537 Clouds 21 1018 82 10000 0.5 0 06:22 19.01.2020
538 Clouds 16 1016 88 10000 2.6 130 03:58 19.01.2020
539 Clouds 16 1015 93 10000 3.6 140 02:34 19.01.2020
540 Clouds 16 1015 87 10000 2.6 130 01:42 19.01.2020
541 Clear 17 1016 88 10000 1 110 01:20 19.01.2020
542 Clear 17 1016 93 10000 0.5 160 00:44 19.01.2020
543 Clear 17 1016 88 10000 3.1 150 00:21 19.01.2020
544 Clear 17 1016 88 10000 3.1 150 23:54 18.01.2020
545 Clear 17 1016 82 10000 2.6 140 23:36 18.01.2020
546 Clear 17 1016 82 10000 2.6 140 23:18 18.01.2020
547 Clear 17 1016 82 10000 3.1 150 22:41 18.01.2020
548 Clear 18 1016 82 10000 2.1 140 22:23 18.01.2020
549 Clear 18 1016 82 10000 2.6 140 21:58 18.01.2020
550 Clear 18 1016 82 10000 2.1 130 21:39 18.01.2020
551 Clear 18 1016 82 10000 2.1 130 21:20 18.01.2020
552 Clear 18 1017 82 10000 1.5 120 20:57 18.01.2020
553 Clear 18 1017 82 10000 1.5 120 20:57 18.01.2020
554 Clear 19 1017 77 10000 1.5 120 20:39 18.01.2020
555 Clear 19 1017 77 10000 1.5 120 20:39 18.01.2020
556 Clouds 19 1017 77 10000 1.5 120 20:19 18.01.2020
557 Clouds 18 1017 77 10000 1.5 100 19:43 18.01.2020
558 Clouds 19 1017 72 10000 1.5 100 19:24 18.01.2020
559 Clouds 19 1017 72 10000 2.1 110 18:43 18.01.2020
560 Clouds 19 1017 72 10000 2.6 100 18:25 18.01.2020
561 Clouds 21 1017 72 10000 3.1 110 17:59 18.01.2020
562 Clouds 21 1017 72 10000 3.6 120 17:40 18.01.2020
563 Clouds 22 1017 72 10000 3.6 120 17:20 18.01.2020
564 Clouds 19 1017 72 10000 3.1 120 16:57 18.01.2020
565 Clouds 19 1016 68 10000 3.6 110 16:38 18.01.2020
566 Clouds 19 1016 68 10000 3.6 110 16:38 18.01.2020
567 Clouds 19 1016 68 10000 3.6 110 16:38 18.01.2020
568 Clouds 20 1016 68 10000 3.6 110 16:19 18.01.2020
569 Clouds 20 1016 64 10000 3.6 110 15:47 18.01.2020
570 Clouds 21 1016 60 10000 4.1 110 15:26 18.01.2020
571 Clouds 22 1016 49 10000 4.1 120 14:59 18.01.2020
572 Clouds 22 1016 46 10000 4.6 150 14:40 18.01.2020
573 Clouds 23 1016 46 10000 4.6 150 14:19 18.01.2020
574 Clouds 23 1016 46 10000 5.1 160 13:56 18.01.2020
575 Clouds 23 1016 46 10000 5.7 150 13:36 18.01.2020
576 Clouds 23 1016 46 10000 5.7 150 13:18 18.01.2020
577 Clouds 23 1016 46 10000 5.7 150 13:18 18.01.2020
578 Clouds 24 1016 49 10000 7.2 160 12:41 18.01.2020
579 Clouds 24 1016 49 10000 7.2 160 12:21 18.01.2020
580 Clouds 23 1016 46 10000 6.7 150 11:56 18.01.2020
581 Clouds 23 1016 49 10000 6.2 140 11:38 18.01.2020
582 Clouds 23 1016 49 10000 6.2 140 11:19 18.01.2020
583 Clouds 23 1017 60 10000 6.2 150 10:42 18.01.2020
584 Clouds 23 1017 60 10000 6.2 150 10:20 18.01.2020
585 Clouds 22 1018 56 10000 6.7 150 09:54 18.01.2020
586 Clouds 22 1018 60 10000 6.7 140 09:36 18.01.2020
587 Clouds 22 1019 60 10000 6.7 140 08:59 18.01.2020
588 Clouds 22 1019 64 10000 5.7 160 08:41 18.01.2020
589 Clouds 21 1019 64 10000 5.7 160 08:20 18.01.2020
590 Clouds 21 1019 64 10000 5.7 150 07:52 18.01.2020
591 Clouds 20 1020 68 10000 3.1 160 07:34 18.01.2020
592 Clouds 20 1020 68 10000 2.1 190 06:48 18.01.2020
593 Clouds 19 1020 72 10000 1.5 210 06:19 18.01.2020
594 Clouds 19 1020 72 10000 1.5 210 06:19 18.01.2020
595 Clouds 17 1019 82 10000 1 0 05:31 18.01.2020
596 Clouds 16 1018 82 10000 0.5 0 03:46 18.01.2020
597 Clear 17 1018 87 10000 0.5 180 02:20 18.01.2020
598 Clear 17 1018 82 10000 1.5 150 01:36 18.01.2020
599 Clear 17 1018 82 10000 1.5 140 00:38 18.01.2020
600 Clear 17 1018 82 10000 1.5 140 00:19 18.01.2020
601 Clear 18 1018 82 10000 1.5 120 23:44 17.01.2020
602 Clear 18 1019 87 10000 0.5 130 23:21 17.01.2020
603 Clear 18 1019 82 10000 1.5 130 22:59 17.01.2020
604 Clear 18 1019 88 10000 1.5 140 22:40 17.01.2020
605 Clear 18 1019 88 10000 1.5 140 22:19 17.01.2020
606 Clear 17 1019 88 10000 2.1 120 21:42 17.01.2020
607 Clear 17 1019 88 10000 1.5 120 21:24 17.01.2020
608 Clear 17 1020 82 10000 1 120 20:59 17.01.2020
609 Clear 17 1020 82 10000 0.5 140 20:41 17.01.2020
610 Clear 17 1020 82 10000 0.5 140 20:20 17.01.2020
611 Clear 18 1020 77 10000 1 130 19:57 17.01.2020
612 Clear 18 1020 77 10000 1 140 19:38 17.01.2020
613 Clear 18 1020 77 10000 1 140 19:19 17.01.2020
614 Clear 18 1020 77 10000 1 110 18:57 17.01.2020
615 Clear 19 1020 77 10000 1 100 18:37 17.01.2020
616 Clear 19 1020 77 10000 1 100 18:19 17.01.2020
617 Clear 19 1020 72 10000 1 100 17:40 17.01.2020
618 Clear 19 1020 72 10000 1 100 17:40 17.01.2020
619 Clear 19 1020 72 10000 1 100 17:21 17.01.2020
620 Clear 19 1020 72 10000 1.5 90 16:55 17.01.2020
621 Clear 19 1020 72 10000 1.5 80 16:36 17.01.2020
622 Clear 19 1020 72 10000 1.5 80 16:18 17.01.2020
623 Clear 20 1020 72 10000 2.1 90 15:43 17.01.2020
624 Clear 20 1020 68 10000 2.6 90 15:25 17.01.2020
625 Clear 21 1020 68 10000 2.6 80 14:44 17.01.2020
626 Clear 21 1019 64 10000 3.1 90 14:25 17.01.2020
627 Clouds 22 1020 60 10000 3.1 90 13:47 17.01.2020
628 Clouds 22 1020 60 10000 3.1 110 13:23 17.01.2020
629 Clouds 22 1020 56 10000 3.1 100 12:56 17.01.2020
630 Clouds 23 1020 53 10000 2.6 90 12:37 17.01.2020
631 Clouds 23 1020 53 10000 2.6 90 12:18 17.01.2020
632 Clouds 22 1021 53 10000 2.6 120 11:38 17.01.2020
633 Clouds 23 1021 53 10000 2.6 120 11:18 17.01.2020
634 Clear 22 1021 49 10000 3.1 100 10:42 17.01.2020
635 Clear 22 1021 49 10000 3.1 100 10:22 17.01.2020
636 Clear 21 1022 49 10000 2.1 90 09:57 17.01.2020
637 Clear 22 1022 53 10000 1.5 0 09:37 17.01.2020
638 Clear 23 1022 53 10000 1.5 0 09:18 17.01.2020
639 Clear 22 1023 52 10000 2.1 360 08:42 17.01.2020
640 Clear 21 1023 56 10000 1.5 360 08:24 17.01.2020
641 Clear 20 1023 52 10000 1 0 07:53 17.01.2020
642 Clear 19 1023 60 10000 1 0 07:31 17.01.2020
643 Clear 20 1023 63 9000 1 0 06:57 17.01.2020
644 Clear 20 1023 63 8000 1 0 06:38 17.01.2020
645 Clear 16 1022 77 7000 1 0 05:28 17.01.2020
646 Clear 15 1023 81 0 2.16 314 03:39 17.01.2020
647 Clear 15 1023 80 0 2.16 314 02:44 17.01.2020
648 Clear 15 1023 77 0 0.45 145 01:46 17.01.2020
649 Clear 15 1023 75 0 3.57 318 01:27 17.01.2020
650 Clear 16 1023 73 0 0.45 337 00:44 17.01.2020
651 Clear 16 1023 63 10000 1 0 00:20 17.01.2020
652 Clear 16 1023 63 10000 1 0 23:42 16.01.2020
653 Clear 16 1023 63 10000 1 0 23:24 16.01.2020
654 Clear 16 1023 63 10000 1.5 290 22:43 16.01.2020
655 Clear 16 1023 63 10000 1.5 290 22:22 16.01.2020
656 Clear 16 1023 63 10000 1.5 290 21:57 16.01.2020
657 Clear 16 1023 63 10000 1 320 21:39 16.01.2020
658 Clear 16 1023 63 10000 1 320 21:19 16.01.2020
659 Clear 17 1023 63 10000 1.5 340 20:59 16.01.2020
660 Clear 16 1023 67 10000 1 340 20:40 16.01.2020
661 Clear 16 1023 67 10000 1 340 20:20 16.01.2020
662 Clear 17 1023 67 10000 2.1 340 19:57 16.01.2020
663 Clear 17 1023 59 10000 3.1 330 19:39 16.01.2020
664 Clear 17 1023 59 10000 3.1 330 19:20 16.01.2020
665 Clear 17 1023 63 10000 3.6 330 18:56 16.01.2020
666 Clear 17 1023 63 10000 3.1 340 18:37 16.01.2020
667 Clear 17 1023 63 10000 3.1 340 18:18 16.01.2020
668 Clear 17 1023 63 10000 3.1 340 18:18 16.01.2020
669 Clear 19 1023 63 10000 2.6 330 17:55 16.01.2020
670 Clear 19 1023 63 10000 2.1 340 17:37 16.01.2020
671 Clear 19 1023 63 10000 2.1 340 17:18 16.01.2020
672 Clear 19 1023 52 10000 3.6 310 16:40 16.01.2020
673 Clear 19 1023 52 10000 3.6 310 16:21 16.01.2020
674 Clear 20 1022 52 10000 3.6 330 15:55 16.01.2020
675 Clear 20 1022 52 10000 3.1 350 15:37 16.01.2020
676 Clear 20 1022 52 10000 3.1 350 15:18 16.01.2020
677 Clouds 21 1022 49 10000 3.1 360 14:41 16.01.2020
678 Clouds 21 1022 49 10000 3.1 360 14:23 16.01.2020
679 Clouds 22 1022 49 10000 3.1 360 13:47 16.01.2020
680 Clouds 22 1022 46 10000 3.1 10 13:28 16.01.2020
681 Clouds 21 1022 46 10000 3.1 10 12:57 16.01.2020
682 Clouds 21 1022 46 10000 2.6 30 12:39 16.01.2020
683 Clouds 22 1022 46 10000 2.6 30 12:20 16.01.2020
684 Clouds 23 1022 49 10000 3.6 20 11:42 16.01.2020
685 Clouds 23 1022 49 10000 3.6 20 11:42 16.01.2020
686 Clouds 23 1022 49 10000 3.6 20 11:24 16.01.2020
687 Clouds 22 1023 46 10000 3.1 360 10:56 16.01.2020
688 Clouds 22 1023 46 10000 2.6 360 10:37 16.01.2020
689 Clouds 22 1023 46 10000 2.6 360 10:19 16.01.2020
690 Clouds 23 1024 49 10000 3.1 360 09:43 16.01.2020
691 Clouds 22 1024 49 10000 2.1 330 09:24 16.01.2020
692 Clouds 22 1025 49 10000 2.1 290 08:58 16.01.2020
693 Clouds 22 1025 49 10000 2.6 300 08:40 16.01.2020
694 Clouds 20 1025 49 10000 2.6 300 08:20 16.01.2020
695 Clear 19 1025 56 9000 2.1 280 07:42 16.01.2020
696 Clear 18 1025 52 9000 2.6 300 07:24 16.01.2020
697 Clear 18 1025 59 7000 3.1 300 06:54 16.01.2020
698 Clear 18 1025 63 7000 2.6 300 06:34 16.01.2020
699 Clear 16 1025 67 8000 2.6 300 05:51 16.01.2020
700 Clear 15 1024 72 9000 2.1 300 04:51 16.01.2020
701 Clear 15 1024 72 10000 2.6 300 03:57 16.01.2020
702 Clear 15 1024 67 10000 2.1 290 03:27 16.01.2020
703 Clear 14 1023 72 10000 1.5 270 02:21 16.01.2020
704 Clear 15 1023 63 10000 1 310 00:43 16.01.2020
705 Clear 15 1024 63 10000 1 300 00:23 16.01.2020
706 Clear 16 1024 63 10000 1 320 23:45 15.01.2020
707 -273 0 0 0 0 0 23:22 15.01.2020
708 Clear 16 1024 59 10000 2.1 330 22:57 15.01.2020
709 Clear 16 1024 67 10000 2.6 330 22:38 15.01.2020
710 Clear 16 1024 67 10000 2.6 330 22:18 15.01.2020
711 Clear 16 1024 63 10000 3.1 330 21:56 15.01.2020
712 Clear 16 1025 67 10000 2.1 340 21:37 15.01.2020
713 Clear 16 1025 67 10000 2.1 340 21:18 15.01.2020
714 Clear 17 1025 63 10000 3.1 330 20:55 15.01.2020
715 Clear 17 1025 63 10000 3.6 340 20:37 15.01.2020
716 Clear 17 1025 63 10000 3.6 340 20:18 15.01.2020
717 Clouds 18 1025 59 10000 3.6 330 19:54 15.01.2020
718 Clouds 17 1025 59 10000 4.1 330 19:36 15.01.2020
719 Clouds 17 1025 59 10000 4.1 330 19:18 15.01.2020
720 Clouds 18 1025 55 10000 3.6 320 18:55 15.01.2020
721 Clouds 18 1025 55 10000 3.6 320 18:55 15.01.2020
722 Clouds 18 1024 59 10000 2.1 340 18:37 15.01.2020
723 Clouds 18 1024 59 10000 2.1 340 18:19 15.01.2020
724 Clouds 18 1024 59 10000 1.5 350 17:41 15.01.2020
725 Clouds 18 1024 59 10000 1.5 350 17:23 15.01.2020
726 Clouds 19 1024 52 10000 2.6 340 16:59 15.01.2020
727 Clouds 19 1023 55 10000 2.6 340 16:39 15.01.2020
728 Clouds 19 1023 55 10000 2.6 340 16:21 15.01.2020
729 Clouds 20 1023 45 10000 2.6 360 15:43 15.01.2020
730 Clouds 20 1023 45 10000 2.6 360 15:21 15.01.2020
731 Clouds 20 1023 45 10000 2.6 360 15:21 15.01.2020
732 Clouds 20 1023 45 10000 2.6 360 15:21 15.01.2020
733 Clouds 21 1023 45 10000 3.1 360 14:58 15.01.2020
734 Clouds 21 1022 43 10000 3.1 30 14:39 15.01.2020
735 Clouds 21 1022 43 10000 3.1 30 14:18 15.01.2020
736 Clouds 21 1022 43 10000 3.6 20 13:45 15.01.2020
737 Clouds 21 1022 43 10000 3.1 50 13:26 15.01.2020
738 Clouds 21 1022 43 10000 4.1 30 12:58 15.01.2020
739 Clouds 21 1021 43 10000 4.1 30 12:39 15.01.2020
740 Clouds 21 1021 43 10000 4.1 30 12:19 15.01.2020
741 Clouds 21 1021 40 10000 5.1 360 11:56 15.01.2020
742 Clouds 21 1021 37 10000 5.1 360 11:36 15.01.2020
743 Clouds 22 1021 37 10000 5.1 360 11:18 15.01.2020
744 Clouds 21 1022 43 10000 5.7 360 10:41 15.01.2020
745 Clouds 21 1022 43 10000 5.7 360 10:23 15.01.2020
746 Clouds 21 1022 43 10000 5.1 360 09:42 15.01.2020
747 Clouds 21 1023 46 10000 5.1 340 09:22 15.01.2020
748 Clouds 20 1023 49 10000 4.1 330 08:55 15.01.2020
749 Clouds 20 1023 52 10000 4.1 330 08:37 15.01.2020
750 Clouds 19 1023 52 10000 4.1 330 08:19 15.01.2020
751 Clouds 18 1023 59 10000 4.1 310 07:43 15.01.2020
752 Clouds 18 1023 59 10000 4.1 310 07:24 15.01.2020
753 Clouds 17 1023 63 10000 4.6 310 06:44 15.01.2020
754 Clouds 17 1022 67 10000 4.6 300 06:18 15.01.2020
755 Clouds 15 1021 67 10000 4.1 300 04:34 15.01.2020
756 Clouds 15 1019 72 10000 4.1 280 02:30 15.01.2020
757 Clear 14 1019 67 10000 4.6 280 01:25 15.01.2020
758 Clouds 14 1019 67 10000 3.6 290 00:45 15.01.2020
759 Clear 14 1019 62 10000 5.7 290 00:26 15.01.2020
760 Clear 14 1019 62 10000 5.7 290 23:48 14.01.2020
761 Clear 14 1019 62 8000 5.1 290 23:29 14.01.2020
762 Clear 14 1019 58 6000 6.2 290 22:59 14.01.2020
763 Dust 14 1019 51 3500 5.1 290 22:40 14.01.2020
764 Dust 14 1019 51 3500 5.1 290 22:19 14.01.2020
765 Dust 14 1019 47 3500 5.1 290 21:58 14.01.2020
766 Dust 15 1020 41 3000 4.1 290 21:39 14.01.2020
767 Dust 15 1020 41 3000 4.1 290 21:21 14.01.2020
768 Dust 15 1020 66 3000 4.1 290 20:58 14.01.2020
769 Dust 15 1020 66 3500 6.2 300 20:39 14.01.2020
770 Dust 15 1020 52 3500 6.2 300 20:19 14.01.2020
771 Dust 15 1020 52 3500 6.2 300 19:55 14.01.2020
772 Dust 15 1020 31 3500 7.7 310 19:37 14.01.2020
773 Dust 15 1020 31 3500 7.7 310 19:18 14.01.2020
774 Dust 16 1020 36 4000 6.7 310 18:41 14.01.2020
775 Dust 17 1020 36 4000 6.7 310 18:20 14.01.2020
776 Dust 17 1020 36 4000 6.7 310 17:59 14.01.2020
777 Dust 17 1019 45 4500 7.2 320 17:37 14.01.2020
778 Dust 17 1019 45 4500 7.2 320 17:18 14.01.2020
779 Clouds 18 1019 48 10000 5.7 320 16:55 14.01.2020
780 Clouds 18 1018 39 10000 5.7 290 16:37 14.01.2020
781 Clouds 18 1018 39 10000 5.7 290 16:18 14.01.2020
782 Clouds 18 1018 39 10000 4.1 290 15:42 14.01.2020
783 Clouds 18 1018 39 10000 4.6 300 15:19 14.01.2020
784 Clear 19 1017 37 10000 5.7 290 14:47 14.01.2020
785 Clear 20 1017 34 10000 5.7 290 14:23 14.01.2020
786 Clear 21 1017 34 10000 4.1 300 13:59 14.01.2020
787 Clear 21 1017 30 10000 6.2 290 13:40 14.01.2020
788 Clear 21 1017 30 10000 6.2 290 13:19 14.01.2020
789 Clear 21 1017 30 10000 6.2 290 13:19 14.01.2020
790 Clear 21 1017 28 10000 5.7 290 12:42 14.01.2020
791 Clear 21 1017 30 10000 4.6 300 12:23 14.01.2020
792 Clear 21 1017 30 10000 4.6 280 11:57 14.01.2020
793 Clear 20 1017 30 10000 4.6 290 11:38 14.01.2020
794 Clear 20 1017 30 10000 4.6 290 11:20 14.01.2020
795 Clear 20 1017 30 10000 4.6 290 10:55 14.01.2020
796 Clear 21 1018 28 10000 3.6 270 10:36 14.01.2020
797 Clear 20 1018 28 10000 3.6 270 10:18 14.01.2020
798 Clear 20 1018 28 10000 3.6 270 10:18 14.01.2020
799 Clear 21 1019 28 10000 4.1 270 09:42 14.01.2020
800 Clear 20 1019 24 10000 4.1 240 09:22 14.01.2020
801 Clear 19 1020 33 10000 3.6 220 08:57 14.01.2020
802 Clear 19 1020 31 10000 3.1 230 08:39 14.01.2020
803 Clear 17 1020 31 10000 3.1 230 08:20 14.01.2020
804 Clear 17 1020 36 10000 3.6 220 07:38 14.01.2020
805 Clear 15 1020 38 10000 2.6 230 06:59 14.01.2020
806 Clear 16 1020 38 10000 2.6 220 06:40 14.01.2020
807 Clear 13 1019 50 10000 1.5 230 05:35 14.01.2020
808 Clear 11 1019 54 10000 1.5 240 04:24 14.01.2020
809 Clear 11 1018 54 10000 1.5 240 03:45 14.01.2020
810 Clear 11 1018 54 10000 1.5 240 02:30 14.01.2020
811 Clear 12 1018 50 10000 2.1 230 01:18 14.01.2020
812 Clear 12 1018 54 10000 2.1 220 00:42 14.01.2020
813 Clear 12 1018 50 10000 2.1 230 00:21 14.01.2020
814 Clear 12 1019 50 10000 2.1 240 23:42 13.01.2020
815 Clear 12 1019 47 10000 2.1 250 23:18 13.01.2020
816 Clear 13 1019 47 10000 1.5 240 22:55 13.01.2020
817 Clear 13 1019 47 10000 1.5 240 22:37 13.01.2020
818 Clear 13 1019 47 10000 1.5 240 22:19 13.01.2020
819 Clear 13 1019 41 10000 1.5 250 21:54 13.01.2020
820 Clear 13 1020 41 10000 1.5 240 21:36 13.01.2020
821 Clear 13 1020 41 10000 1.5 240 21:18 13.01.2020
822 Clear 14 1020 43 10000 2.1 300 20:42 13.01.2020
823 Clear 14 1020 43 10000 2.1 300 20:22 13.01.2020
824 Clear 15 1020 43 10000 2.1 300 19:59 13.01.2020
825 Clear 15 1020 36 10000 1.5 310 19:40 13.01.2020
826 Clear 15 1020 36 10000 1.5 310 19:20 13.01.2020
827 Clear 15 1020 36 10000 1.5 310 18:58 13.01.2020
828 Clear 15 1020 43 10000 3.1 310 18:37 13.01.2020
829 Clear 15 1020 43 10000 3.1 310 18:19 13.01.2020
830 Clear 16 1020 43 10000 3.1 310 17:55 13.01.2020
831 Clear 16 1019 43 10000 2.6 290 17:36 13.01.2020
832 Clear 16 1019 42 10000 2.6 290 17:18 13.01.2020
833 Clear 17 1020 37 0 1.34 303 16:40 13.01.2020
834 Clear 17 1020 37 0 1.34 303 16:40 13.01.2020
835 Clear 17 1020 35 0 0.89 157 16:22 13.01.2020
836 Clear 17 1020 35 0 1.34 197 15:55 13.01.2020
837 Clear 18 1020 32 0 0.89 165 15:36 13.01.2020
838 Clear 16 1019 42 0 5.15 293 15:18 13.01.2020
839 Clear 16 1019 42 0 5.15 293 14:42 13.01.2020
840 Clear 22 1019 30 0 1.79 322 14:23 13.01.2020
841 Clear 23 1019 25 0 2.24 329 13:57 13.01.2020
842 Clear 18 1018 43 0 6.24 294 13:39 13.01.2020
843 Clear 18 1018 43 0 6.24 294 13:20 13.01.2020
844 Clear 21 1019 35 10000 3.1 280 12:43 13.01.2020
845 Clear 20 1019 35 10000 3.1 280 12:23 13.01.2020
846 Clear 20 1019 35 10000 3.1 280 11:59 13.01.2020
847 Clear 20 1019 37 10000 3.1 280 11:39 13.01.2020
848 Clear 20 1019 37 10000 3.1 280 11:19 13.01.2020
849 Clear 20 1019 35 10000 3.1 270 10:57 13.01.2020
850 Clear 20 1020 40 10000 3.6 310 10:38 13.01.2020
851 Clear 20 1020 40 10000 3.6 310 10:20 13.01.2020
852 Clear 20 1021 40 10000 4.1 290 09:55 13.01.2020
853 Clear 21 1021 40 10000 3.1 270 09:37 13.01.2020
854 Clear 20 1021 40 10000 3.1 270 09:19 13.01.2020
855 Clear 19 1022 39 10000 4.1 290 08:39 13.01.2020
856 Clear 18 1022 39 10000 4.1 290 08:20 13.01.2020
857 Clear 18 1022 39 10000 4.1 290 08:20 13.01.2020
858 Clear 17 1022 42 10000 3.1 290 07:46 13.01.2020
859 Clear 17 1022 42 10000 4.1 290 07:27 13.01.2020
860 Clear 16 1022 55 10000 2.6 280 06:40 13.01.2020
861 Clear 16 1022 55 10000 2.6 280 06:18 13.01.2020
862 Clear 12 1021 58 10000 2.6 260 05:20 13.01.2020
863 Clear 13 1021 58 10000 2.1 270 03:47 13.01.2020
864 Clear 13 1020 54 10000 2.1 270 02:51 13.01.2020
865 Clear 13 1020 54 10000 2.6 280 02:31 13.01.2020
866 Clouds 13 1020 54 10000 2.1 270 01:47 13.01.2020
867 Clear 13 1020 54 10000 2.6 280 00:59 13.01.2020
868 Clear 13 1020 54 10000 1.5 260 00:37 13.01.2020
869 Clear 13 1020 54 10000 1.5 260 00:19 13.01.2020
870 Clear 13 1020 54 10000 2.1 260 23:41 12.01.2020
871 Clear 13 1020 54 10000 2.1 260 23:22 12.01.2020
872 Clear 14 1020 51 10000 3.1 290 22:57 12.01.2020
873 Clear 14 1020 54 10000 2.6 290 22:39 12.01.2020
874 Clear 14 1020 54 10000 2.6 290 22:20 12.01.2020
875 Clear 14 1021 48 10000 4.1 300 21:55 12.01.2020
876 Clear 14 1021 44 10000 4.1 310 21:37 12.01.2020
877 Clear 14 1021 44 10000 4.1 310 21:19 12.01.2020
878 Clear 15 1021 41 10000 4.1 310 20:55 12.01.2020
879 Clear 15 1022 41 10000 4.1 310 20:37 12.01.2020
880 Clear 15 1022 41 10000 4.1 310 20:19 12.01.2020
881 Clear 15 1022 44 10000 4.6 310 19:54 12.01.2020
882 Clear 15 1021 44 10000 4.1 310 19:36 12.01.2020
883 Clear 15 1021 44 10000 4.1 310 19:18 12.01.2020
884 Clear 15 1022 44 10000 4.6 310 18:54 12.01.2020
885 Clear 15 1022 39 10000 4.1 310 18:36 12.01.2020
886 Clear 15 1022 39 10000 4.1 310 18:18 12.01.2020
887 Clear 16 1021 42 10000 5.1 310 17:42 12.01.2020
888 Clear 16 1021 42 10000 5.7 300 17:21 12.01.2020
889 Clear 16 1021 39 10000 5.7 310 16:57 12.01.2020
890 Clear 16 1020 36 10000 5.1 310 16:38 12.01.2020
891 Clear 16 1020 36 10000 5.1 310 16:20 12.01.2020
892 Clear 17 1020 36 10000 6.2 310 15:55 12.01.2020
893 Clear 17 1020 36 10000 6.2 310 15:55 12.01.2020
894 Clear 17 1020 36 10000 6.7 310 15:36 12.01.2020
895 Clear 17 1020 36 10000 6.7 310 15:18 12.01.2020
896 Clear 18 1020 39 10000 6.2 310 14:42 12.01.2020
897 Clear 19 1019 39 10000 5.7 290 14:22 12.01.2020
898 Clear 19 1019 39 0 6.7 300 13:56 12.01.2020
899 Clear 19 1019 39 10000 7.2 300 13:38 12.01.2020
900 Clear 18 1019 39 10000 7.2 300 13:20 12.01.2020
901 Clear 19 1019 39 10000 7.2 300 12:44 12.01.2020
902 Clear 19 1019 39 10000 7.2 300 12:21 12.01.2020
903 Clear 19 1019 42 10000 6.2 300 11:59 12.01.2020
904 Clear 19 1019 42 10000 6.2 300 11:59 12.01.2020
905 Clear 18 1019 42 10000 6.2 290 11:40 12.01.2020
906 Clear 19 1019 42 10000 6.2 290 11:22 12.01.2020
907 Clear 18 1020 48 10000 7.7 300 10:56 12.01.2020
908 Clear 18 1020 52 10000 7.2 290 10:37 12.01.2020
909 Clear 19 1020 52 10000 7.2 290 10:18 12.01.2020
910 Clear 18 1020 55 10000 6.2 290 09:41 12.01.2020
911 Clear 18 1020 55 10000 6.2 290 09:21 12.01.2020
912 Clear 17 1021 55 10000 6.7 310 08:47 12.01.2020
913 Clear 17 1021 51 10000 7.7 310 08:21 12.01.2020
914 Clear 16 1022 55 10000 7.7 300 07:46 12.01.2020
915 Clear 16 1021 55 10000 6.7 310 07:25 12.01.2020
916 Clear 16 1021 58 10000 6.7 290 06:54 12.01.2020
917 Clear 15 1021 54 10000 6.7 300 06:35 12.01.2020
918 Clouds 15 1020 54 10000 6.7 290 05:50 12.01.2020
919 Clouds 14 1019 54 10000 6.7 290 04:53 12.01.2020
920 Clear 13 1018 50 10000 5.7 290 03:33 12.01.2020
921 Clear 15 1018 47 10000 5.1 300 02:43 12.01.2020
922 Clear 14 1018 47 10000 5.1 300 02:24 12.01.2020
923 Clear 14 1018 47 10000 6.2 300 01:31 12.01.2020
924 Clear 14 1018 51 10000 4.6 290 00:46 12.01.2020
925 Clear 14 1018 51 10000 4.1 290 00:22 12.01.2020
926 Clear 15 1018 47 10000 5.7 290 23:56 11.01.2020
927 Clear 15 1017 44 10000 5.7 300 23:37 11.01.2020
928 Clear 15 1017 44 10000 5.7 300 23:18 11.01.2020
929 Clear 15 1017 51 10000 5.1 290 22:56 11.01.2020
930 Clear 15 1017 51 10000 4.1 290 22:37 11.01.2020
931 Clear 15 1017 51 10000 4.1 290 22:18 11.01.2020
932 Clear 16 1017 48 10000 4.1 290 21:43 11.01.2020
933 Clear 16 1017 48 10000 4.1 290 21:19 11.01.2020
934 Clear 16 1017 44 10000 5.7 290 20:56 11.01.2020
935 Clear 16 1017 44 10000 5.7 290 20:37 11.01.2020
936 Clear 15 1017 44 10000 5.7 290 20:19 11.01.2020
937 Clear 15 1017 44 10000 5.7 290 19:55 11.01.2020
938 Clear 15 1017 44 10000 5.7 290 19:55 11.01.2020
939 Clear 16 1017 48 10000 4.6 290 19:37 11.01.2020
940 Clear 15 1017 48 10000 4.6 290 19:19 11.01.2020
941 Clear 15 1017 48 10000 4.6 290 19:19 11.01.2020
942 Clear 15 1016 48 10000 5.7 290 18:55 11.01.2020
943 Clear 16 1016 42 10000 5.1 290 18:36 11.01.2020
944 Clear 16 1016 42 10000 5.1 290 18:18 11.01.2020
945 Clear 16 1016 42 10000 5.7 300 17:55 11.01.2020
946 Clear 16 1015 42 10000 5.7 300 17:36 11.01.2020
947 Clear 16 1015 42 10000 5.7 300 17:18 11.01.2020
948 Clear 17 1015 42 10000 6.2 300 16:43 11.01.2020
949 Clear 17 1015 42 10000 6.2 300 16:22 11.01.2020
950 Clear 17 1015 42 10000 6.2 300 16:22 11.01.2020
951 Clear 17 1014 42 10000 5.7 300 15:42 11.01.2020
952 Clouds 17 1013 39 10000 7.7 300 15:24 11.01.2020
953 Clouds 18 1013 39 10000 7.2 300 14:58 11.01.2020
954 Clear 18 1013 39 10000 5.7 290 14:40 11.01.2020
955 Clear 18 1013 39 10000 5.7 290 14:22 11.01.2020
956 Clear 19 1012 37 10000 6.2 300 13:55 11.01.2020
957 Clouds 19 1012 37 10000 7.7 310 13:37 11.01.2020
958 Clouds 19 1012 37 10000 7.7 310 13:18 11.01.2020
959 Clouds 19 1012 39 10000 8.2 300 12:44 11.01.2020
960 Clouds 19 1012 40 10000 6.7 300 12:25 11.01.2020
961 Clouds 19 1012 37 10000 6.7 310 11:54 11.01.2020
962 Clouds 19 1012 34 10000 8.7 300 11:36 11.01.2020
963 Clouds 19 1012 34 10000 8.7 300 11:18 11.01.2020
964 Clouds 19 1012 34 10000 8.7 300 11:18 11.01.2020
965 Clouds 19 1012 34 10000 8.7 300 11:18 11.01.2020
966 Clouds 20 1012 42 10000 8.2 310 10:42 11.01.2020
967 Clouds 20 1012 42 10000 8.2 310 10:42 11.01.2020
968 Clouds 20 1012 42 10000 8.2 310 10:23 11.01.2020
969 Clouds 19 1013 52 10000 5.7 310 09:39 11.01.2020
970 Clouds 19 1013 52 10000 5.7 310 09:21 11.01.2020
971 Clouds 19 1013 52 10000 5.7 310 09:21 11.01.2020
972 Clouds 18 1014 63 10000 5.7 300 08:43 11.01.2020
973 Clouds 18 1014 63 10000 5.7 300 08:23 11.01.2020
974 Clouds 18 1014 63 10000 5.7 300 07:45 11.01.2020
975 Clouds 18 1014 63 10000 4.6 300 07:26 11.01.2020
976 Clouds 17 1012 72 10000 5.1 310 06:55 11.01.2020
977 Clouds 17 1012 72 10000 5.1 310 06:22 11.01.2020
978 Clear 17 1010 77 9000 4.6 310 04:48 11.01.2020
979 Clouds 17 1010 82 9000 4.6 310 04:30 11.01.2020
980 Clouds 17 1010 88 9000 5.1 300 03:49 11.01.2020
981 Haze 18 1009 88 5000 4.1 290 02:41 11.01.2020
982 Haze 18 1009 88 5000 3.6 290 01:44 11.01.2020
983 Haze 18 1009 93 5000 3.6 290 01:20 11.01.2020
984 Haze 18 1009 93 5000 2.1 280 00:46 11.01.2020
985 Clouds 18 1009 93 5000 3.6 280 00:20 11.01.2020
986 Clouds 18 1009 88 7000 2.1 270 23:41 10.01.2020
987 Clouds 18 1009 88 7000 2.1 270 23:22 10.01.2020
988 Clouds 19 1008 88 7000 3.6 300 22:59 10.01.2020
989 Clouds 19 1008 88 7000 3.6 300 22:40 10.01.2020
990 Clouds 19 1008 88 7000 3.6 300 22:21 10.01.2020
991 Clouds 19 1008 88 8000 3.6 290 21:58 10.01.2020
992 Clouds 19 1008 88 8000 4.1 300 21:39 10.01.2020
993 Clouds 19 1008 88 8000 4.1 300 21:19 10.01.2020
994 Clouds 20 1008 88 8000 2.1 280 20:55 10.01.2020
995 Clouds 20 1008 88 9000 2.1 270 20:37 10.01.2020
996 Clouds 20 1008 88 9000 2.1 270 20:19 10.01.2020
997 Clouds 20 1008 83 9000 2.6 290 19:39 10.01.2020
998 Clouds 20 1008 83 9000 2.6 290 19:20 10.01.2020
999 Clouds 21 1008 83 10000 3.1 300 18:54 10.01.2020
1000 Clouds 21 1008 88 10000 1 0 18:36 10.01.2020
1001 Clouds 21 1008 88 10000 1 0 18:18 10.01.2020
1002 Clouds 20 1008 94 10000 0.5 0 17:55 10.01.2020
1003 Clouds 20 1008 94 10000 0.5 0 17:37 10.01.2020
1004 Clouds 20 1008 94 10000 0.5 0 17:18 10.01.2020
1005 Clouds 21 1008 83 10000 1 120 16:41 10.01.2020
1006 Clouds 21 1008 83 10000 1 120 16:21 10.01.2020
1007 Clouds 21 1008 83 10000 1.5 150 15:56 10.01.2020
1008 Clouds 21 1007 83 10000 1.5 160 15:37 10.01.2020
1009 Clouds 21 1007 83 10000 1.5 160 15:19 10.01.2020
1010 Clouds 21 1007 83 10000 2.6 150 14:56 10.01.2020
1011 Clouds 21 1007 83 10000 3.1 150 14:38 10.01.2020
1012 Clouds 21 1007 83 10000 3.1 150 14:19 10.01.2020
1013 Clouds 21 1007 83 10000 2.6 160 13:45 10.01.2020
1014 Clouds 21 1007 83 10000 3.6 160 13:27 10.01.2020
1015 Clouds 21 1008 83 10000 4.1 150 12:59 10.01.2020
1016 Clouds 21 1008 83 10000 3.6 140 12:40 10.01.2020
1017 Clouds 21 1008 83 10000 3.6 140 12:21 10.01.2020
1018 Clouds 21 1008 83 10000 3.6 160 11:57 10.01.2020
1019 Clouds 21 1008 83 10000 4.1 160 11:39 10.01.2020
1020 Clouds 21 1008 83 10000 4.1 160 11:19 10.01.2020
1021 Clouds 21 1009 83 10000 3.1 150 10:58 10.01.2020
1022 Clouds 21 1009 88 10000 3.1 150 10:38 10.01.2020
1023 Clouds 21 1009 88 10000 3.1 150 10:18 10.01.2020
1024 Clouds 20 1010 88 10000 3.1 140 09:45 10.01.2020
1025 Clouds 20 1011 94 10000 3.6 150 09:26 10.01.2020
1026 Rain 20 1011 94 10000 3.6 150 08:56 10.01.2020
1027 Thunderstorm 20 1012 94 7000 3.1 150 08:37 10.01.2020
1028 Thunderstorm 20 1012 94 7000 3.1 150 08:37 10.01.2020
1029 Thunderstorm 20 1012 94 7000 3.1 150 08:18 10.01.2020
1030 Rain 20 1012 94 10000 2.6 140 07:41 10.01.2020
1031 Rain 20 1012 94 10000 1 0 07:19 10.01.2020
1032 Rain 20 1012 94 8000 1 0 06:37 10.01.2020
1033 Rain 20 1012 94 8000 1 0 06:19 10.01.2020
1034 Thunderstorm 20 1011 88 6000 2.6 50 05:19 10.01.2020
1035 Clouds 19 1011 82 10000 4.6 130 03:31 10.01.2020
1036 Clouds 19 1011 82 10000 4.1 120 02:52 10.01.2020
1037 Clouds 19 1010 77 10000 5.1 110 02:19 10.01.2020
1038 Clouds 19 1010 77 10000 4.6 110 01:30 10.01.2020
1039 Clouds 19 1010 82 10000 4.6 90 00:49 10.01.2020
1040 Clouds 19 1011 82 10000 5.1 100 00:31 10.01.2020
1041 Clouds 19 1011 77 10000 4.1 90 23:55 09.01.2020
1042 Clouds 19 1011 77 10000 5.7 100 23:36 09.01.2020
1043 Clouds 19 1011 77 10000 5.7 100 23:18 09.01.2020
1044 Clouds 19 1012 77 10000 5.1 110 22:54 09.01.2020
1045 Clouds 19 1012 77 10000 5.1 110 22:36 09.01.2020
1046 Clouds 19 1012 77 10000 5.1 110 22:18 09.01.2020
1047 Clouds 19 1012 77 10000 2.1 80 21:54 09.01.2020
1048 Thunderstorm 19 1013 77 10000 4.6 110 21:36 09.01.2020
1049 Thunderstorm 18 1013 77 10000 4.6 110 21:18 09.01.2020
1050 Thunderstorm 18 1013 77 10000 4.6 110 21:18 09.01.2020
1051 Clouds 18 1013 77 10000 4.1 110 20:54 09.01.2020
1052 Clouds 18 1013 77 10000 4.1 110 20:36 09.01.2020
1053 Clouds 18 1014 77 10000 4.1 130 20:18 09.01.2020
1054 Clouds 19 1013 72 10000 6.2 110 19:39 09.01.2020
1055 Clouds 19 1014 82 10000 3.6 100 19:20 09.01.2020
1056 Rain 19 1013 77 10000 2.1 60 18:56 09.01.2020
1057 Rain 19 1013 77 10000 2.1 60 18:38 09.01.2020
1058 Rain 19 1015 82 9000 1.5 110 18:20 09.01.2020
1059 Clouds 19 1013 72 10000 2.1 130 17:41 09.01.2020
1060 Clouds 19 1013 72 10000 1 0 17:19 09.01.2020
1061 Rain 19 1013 77 10000 2.1 60 16:56 09.01.2020
1062 Rain 19 1013 77 10000 2.1 60 16:38 09.01.2020
1063 Thunderstorm 20 1012 68 10000 2.1 120 16:20 09.01.2020
1064 Clouds 20 1013 68 10000 2.1 20 15:43 09.01.2020
1065 Clouds 20 1013 68 10000 1 0 15:22 09.01.2020
1066 Clouds 20 1012 68 10000 2.1 100 14:57 09.01.2020
1067 Clouds 20 1012 68 10000 2.1 100 14:38 09.01.2020
1068 Rain 21 1014 72 9000 1.5 130 14:19 09.01.2020
1069 Rain 21 1013 56 10000 2.6 130 13:55 09.01.2020
1070 Rain 21 1013 56 10000 2.6 130 13:37 09.01.2020
1071 Clouds 21 1012 56 10000 2.1 100 13:18 09.01.2020
1072 Rain 21 1013 60 10000 1 0 12:42 09.01.2020
1073 Rain 21 1015 72 9000 2.66 188 12:24 09.01.2020
1074 Rain 21 1013 52 10000 3.6 150 11:59 09.01.2020
1075 Rain 21 1013 52 10000 3.6 150 11:41 09.01.2020
1076 Haze 22 1015 46 9000 1 0 11:23 09.01.2020
1077 Clouds 21 1014 64 10000 4.6 160 10:57 09.01.2020
1078 Clouds 21 1014 64 10000 4.6 160 10:39 09.01.2020
1079 Clouds 21 1015 64 10000 3.6 170 10:20 09.01.2020
1080 Rain 22 1014 64 10000 4.1 130 09:41 09.01.2020
1081 Rain 22 1014 64 10000 4.1 130 09:41 09.01.2020
1082 Rain 22 1014 64 10000 4.1 130 09:41 09.01.2020
1083 Clouds 22 1015 64 10000 4.1 120 09:23 09.01.2020
1084 Clouds 22 1016 64 10000 3.6 120 08:56 09.01.2020
1085 Clouds 22 1016 64 10000 3.6 120 08:38 09.01.2020
1086 Clouds 22 1016 64 10000 3.6 100 08:19 09.01.2020
1087 Rain 21 1016 68 10000 2.1 110 07:45 09.01.2020
1088 Clouds 21 1016 73 10000 1.5 130 07:27 09.01.2020
1089 Clouds 20 1017 73 10000 1 0 06:39 09.01.2020
1090 Clouds 19 1016 77 10000 1 0 06:21 09.01.2020
1091 Clouds 19 1016 77 10000 1 0 05:50 09.01.2020
1092 Clouds 17 1015 82 10000 1 110 04:46 09.01.2020
1093 Clouds 16 1015 77 10000 2.9 134 03:55 09.01.2020
1094 Clouds 17 1015 77 10000 1 0 03:26 09.01.2020
1095 Mist 16 1016 82 5000 2.9 134 02:33 09.01.2020
1096 Clouds 16 1015 77 10000 0.5 0 01:41 09.01.2020
1097 Clouds 16 1015 77 10000 0.5 340 00:44 09.01.2020
1098 Clouds 17 1015 72 10000 1 0 00:23 09.01.2020
1099 Clouds 17 1015 72 10000 1.5 240 23:58 08.01.2020
1100 Clouds 17 1015 72 10000 1.5 240 23:38 08.01.2020
1101 Clouds 17 1016 72 10000 1.5 250 23:19 08.01.2020
1102 Clouds 17 1016 72 10000 0.5 0 22:40 08.01.2020
1103 Clouds 17 1016 68 10000 1.5 230 22:21 08.01.2020
1104 Clouds 18 1016 68 10000 1 0 21:58 08.01.2020
1105 Clouds 18 1016 68 10000 1 0 21:40 08.01.2020
1106 Clouds 19 1016 68 10000 1 0 21:20 08.01.2020
1107 Clouds 19 1016 64 10000 1 0 20:59 08.01.2020
1108 Clouds 19 1016 64 10000 1 0 20:40 08.01.2020
1109 Clear 19 1017 64 10000 1 0 20:20 08.01.2020
1110 Clear 19 1017 68 10000 1 0 19:57 08.01.2020
1111 Clear 19 1017 68 10000 1 0 19:38 08.01.2020
1112 Clear 19 1017 64 10000 1 0 19:19 08.01.2020
1113 Clear 19 1017 68 10000 1 0 18:57 08.01.2020
1114 Clear 19 1017 68 10000 1 0 18:38 08.01.2020
1115 Clear 19 1017 68 10000 1.5 160 18:18 08.01.2020
1116 Clear 20 1017 64 10000 0.5 110 17:56 08.01.2020
1117 Clear 20 1017 64 10000 0.5 110 17:37 08.01.2020
1118 Clear 20 1017 64 10000 1 100 17:18 08.01.2020
1119 Clear 20 1017 64 10000 1 100 17:18 08.01.2020
1120 Clear 20 1017 64 10000 1 90 16:55 08.01.2020
1121 Clear 20 1017 64 10000 1 90 16:37 08.01.2020
1122 Haze 20 1018 60 9000 1.5 100 16:18 08.01.2020
1123 Clear 21 1016 60 10000 2.1 80 15:42 08.01.2020
1124 Clear 21 1016 60 10000 2.6 60 15:21 08.01.2020
1125 Clear 22 1016 56 10000 2.1 70 14:57 08.01.2020
1126 Clear 22 1016 56 10000 2.1 70 14:39 08.01.2020
1127 Clear 22 1016 53 10000 2.6 60 14:20 08.01.2020
1128 Clear 22 1016 53 10000 2.6 60 13:40 08.01.2020
1129 Clear 22 1016 49 10000 2.6 50 13:19 08.01.2020
1130 Clear 23 1016 40 10000 2.6 70 12:43 08.01.2020
1131 Haze 23 1017 33 9000 3.67 105 12:20 08.01.2020
1132 Clear 23 1016 28 10000 2.6 20 11:59 08.01.2020
1133 Clear 23 1016 28 10000 2.6 20 11:40 08.01.2020
1134 Clear 23 1016 33 10000 3.1 20 11:19 08.01.2020
1135 Clear 22 1016 28 10000 1.5 0 10:55 08.01.2020
1136 Clear 22 1016 28 10000 1.5 0 10:37 08.01.2020
1137 Clear 22 1016 28 10000 1.5 0 10:37 08.01.2020
1138 Clear 22 1017 40 10000 1.5 0 10:19 08.01.2020
1139 Clear 22 1017 46 10000 2.1 350 09:42 08.01.2020
1140 Clear 22 1018 49 10000 2.1 0 09:19 08.01.2020
1141 Clear 21 1019 49 10000 1.5 0 08:57 08.01.2020
1142 Clear 21 1019 49 10000 1.5 0 08:37 08.01.2020
1143 Clear 21 1019 52 10000 1.5 360 08:19 08.01.2020
1144 Clear 20 1020 52 10000 1.5 330 07:49 08.01.2020
1145 Haze 19 1022 63 9000 1.5 250 07:30 08.01.2020
1146 Haze 19 1022 63 9000 1.5 250 07:30 08.01.2020
1147 Clear 18 1020 59 10000 1.5 270 06:48 08.01.2020
1148 Clear 18 1020 59 10000 1.5 270 06:24 08.01.2020
1149 Clear 16 1019 63 10000 1 0 05:41 08.01.2020
1150 Clear 15 1019 72 10000 2.1 270 04:57 08.01.2020
1151 Clear 15 1019 72 10000 1.5 260 04:25 08.01.2020
1152 Clear 15 1018 72 10000 1.5 250 02:45 08.01.2020
1153 Mist 15 1019 87 6000 1.5 0 02:22 08.01.2020
1154 Clear 15 1018 72 10000 1.5 260 01:48 08.01.2020
1155 Clear 15 1018 72 10000 1.5 260 01:19 08.01.2020
1156 Clear 15 1018 67 10000 2.1 250 00:28 08.01.2020
1157 Clear 15 1018 67 10000 2.1 250 00:28 08.01.2020
1158 Clear 16 1018 67 10000 1.5 250 23:57 07.01.2020
1159 Clear 16 1018 67 10000 1.5 250 23:39 07.01.2020
1160 Clear 16 1019 63 10000 1 0 23:20 07.01.2020
1161 Clear 16 1019 63 10000 1 0 23:20 07.01.2020
1162 Clear 16 1019 63 10000 2.1 290 22:40 07.01.2020
1163 Clear 16 1019 63 10000 2.1 310 22:20 07.01.2020
1164 Clear 17 1019 63 10000 1.5 310 21:56 07.01.2020
1165 Clear 17 1019 63 10000 1.5 310 21:38 07.01.2020
1166 Clear 17 1019 63 10000 2.1 300 21:20 07.01.2020
1167 Clear 18 1019 59 10000 2.6 310 20:55 07.01.2020
1168 Clear 18 1019 59 10000 2.6 310 20:36 07.01.2020
1169 Clear 18 1020 59 10000 2.6 310 20:18 07.01.2020
1170 Clear 18 1020 59 10000 2.6 300 19:38 07.01.2020
1171 Clear 18 1020 59 10000 2.6 310 19:20 07.01.2020
1172 Clear 18 1020 59 10000 3.1 330 18:58 07.01.2020
1173 Clear 18 1020 59 10000 3.1 330 18:40 07.01.2020
1174 Haze 19 1019 72 9000 2.1 350 18:19 07.01.2020
1175 Clear 19 1019 63 10000 3.6 330 17:58 07.01.2020
1176 Clear 19 1019 63 10000 3.6 330 17:39 07.01.2020
1177 Clear 19 1019 63 10000 4.6 340 17:20 07.01.2020
1178 Clear 20 1019 60 10000 4.6 340 16:56 07.01.2020
1179 Clear 20 1019 60 10000 4.6 340 16:37 07.01.2020
1180 Haze 20 1021 59 9000 4.6 330 16:19 07.01.2020
1181 Clear 20 1019 60 10000 5.1 350 15:57 07.01.2020
1182 Clear 20 1019 60 10000 5.1 350 15:38 07.01.2020
1183 Clear 20 1019 56 10000 5.7 360 15:19 07.01.2020
1184 Clear 21 1018 52 10000 6.2 350 14:42 07.01.2020
1185 Haze 22 1020 46 9000 5.1 340 14:24 07.01.2020
1186 Clear 22 1018 53 10000 6.7 350 13:57 07.01.2020
1187 Clear 22 1018 53 10000 6.7 350 13:39 07.01.2020
1188 Clear 22 1018 49 10000 7.7 350 13:18 07.01.2020
1189 Clear 22 1018 53 10000 7.2 350 12:41 07.01.2020
1190 Haze 22 1020 46 9000 5.1 330 12:19 07.01.2020
1191 Clear 22 1018 49 10000 7.7 350 11:45 07.01.2020
1192 Clear 22 1019 49 10000 7.2 350 11:24 07.01.2020
1193 Clear 22 1019 46 10000 5.7 340 10:59 07.01.2020
1194 Clear 22 1019 46 10000 5.7 340 10:41 07.01.2020
1195 Clear 22 1019 46 10000 5.7 340 10:41 07.01.2020
1196 Clear 22 1019 49 10000 6.2 340 10:23 07.01.2020
1197 Clear 21 1020 49 10000 5.7 320 09:56 07.01.2020
1198 Clear 21 1021 56 10000 5.1 320 09:38 07.01.2020
1199 Clear 21 1021 56 10000 5.1 320 09:20 07.01.2020
1200 Clear 20 1021 56 10000 4.6 300 08:42 07.01.2020
1201 Haze 19 1023 59 9000 5.1 310 08:22 07.01.2020
1202 Clear 19 1022 60 10000 4.1 300 07:54 07.01.2020
1203 Haze 18 1023 63 9000 5.1 310 07:27 07.01.2020
1204 Clear 18 1022 59 10000 4.6 290 06:53 07.01.2020
1205 Clear 17 1021 63 10000 4.1 290 06:32 07.01.2020
1206 Clear 16 1021 67 10000 3.6 280 05:49 07.01.2020
1207 Clear 15 1020 77 10000 2.1 270 04:33 07.01.2020
1208 Clear 15 1020 77 10000 2.6 270 03:26 07.01.2020
1209 Clear 16 1019 72 10000 2.6 250 02:22 07.01.2020
1210 Clear 16 1019 72 10000 1.5 250 01:51 07.01.2020
1211 Mist 16 1020 82 8000 2.1 300 01:28 07.01.2020
1212 Clear 16 1019 63 10000 3.6 300 00:37 07.01.2020
1213 Clear 16 1019 63 10000 4.1 300 00:18 07.01.2020
1214 Clear 16 1019 59 10000 3.6 300 23:39 06.01.2020
1215 Clear 16 1019 59 10000 3.6 300 23:39 06.01.2020
1216 Clear 16 1019 59 10000 3.6 300 23:21 06.01.2020
1217 Clear 16 1019 55 10000 4.1 300 22:58 06.01.2020
1218 Clear 16 1019 55 10000 4.1 300 22:38 06.01.2020
1219 Clear 16 1019 59 10000 3.6 300 22:20 06.01.2020
1220 Clear 16 1020 55 10000 3.6 300 21:56 06.01.2020
1221 Clear 16 1020 55 10000 3.6 300 21:37 06.01.2020
1222 Haze 17 1021 71 9000 1.5 290 21:19 06.01.2020
1223 Clear 17 1020 55 10000 3.6 310 20:56 06.01.2020
1224 Clear 17 1020 55 10000 3.6 310 20:37 06.01.2020
1225 Clear 17 1020 55 10000 3.6 310 20:19 06.01.2020
1226 Clear 18 1020 52 10000 3.6 310 19:55 06.01.2020
1227 Clear 18 1020 52 10000 3.6 310 19:37 06.01.2020
1228 Clear 18 1020 52 10000 4.1 310 19:18 06.01.2020
1229 Clear 18 1020 52 10000 4.6 320 18:44 06.01.2020
1230 Clear 18 1020 52 10000 4.6 330 18:21 06.01.2020
1231 Clear 18 1020 52 10000 4.1 320 17:40 06.01.2020
1232 Clear 18 1020 52 10000 4.1 320 17:40 06.01.2020
1233 Haze 18 1020 59 9000 3.1 340 17:20 06.01.2020
1234 Clear 19 1020 48 10000 4.6 320 16:58 06.01.2020
1235 Clear 19 1020 48 10000 4.6 320 16:40 06.01.2020
1236 Haze 19 1020 52 9000 3.6 340 16:22 06.01.2020
1237 Clear 20 1018 45 10000 6.2 330 15:59 06.01.2020
1238 Clear 20 1018 45 10000 6.2 330 15:37 06.01.2020
1239 Haze 20 1019 45 9000 7.7 350 15:18 06.01.2020
1240 Clear 21 1018 40 10000 5.7 330 14:42 06.01.2020
1241 Clear 21 1018 40 10000 7.2 330 14:22 06.01.2020
1242 Clear 21 1018 40 10000 7.2 330 14:22 06.01.2020
1243 Clear 21 1018 33 10000 6.2 310 13:59 06.01.2020
1244 Clear 21 1018 33 10000 6.2 310 13:39 06.01.2020
1245 Clear 21 1017 37 10000 8.7 330 13:21 06.01.2020
1246 Clear 22 1017 37 10000 5.7 320 12:56 06.01.2020
1247 Clear 22 1017 37 10000 5.7 320 12:37 06.01.2020
1248 Haze 22 1018 35 9000 7.7 340 12:19 06.01.2020
1249 Clear 22 1017 37 10000 8.2 330 11:42 06.01.2020
1250 Clouds 22 1018 40 10000 8.2 330 11:24 06.01.2020
1251 Clouds 22 1018 40 10000 7.7 330 10:59 06.01.2020
1252 Clouds 22 1018 40 10000 7.7 330 10:40 06.01.2020
1253 Clouds 22 1018 35 10000 7.2 340 10:20 06.01.2020
1254 Clear 22 1018 35 10000 5.7 320 09:39 06.01.2020
1255 Clear 22 1019 40 10000 7.7 340 09:21 06.01.2020
1256 Clear 21 1019 43 10000 7.7 330 08:52 06.01.2020
1257 Clear 21 1019 43 10000 7.7 330 08:34 06.01.2020
1258 Clouds 20 1019 46 10000 6.2 320 07:57 06.01.2020
1259 Clouds 20 1019 46 10000 6.2 320 07:37 06.01.2020
1260 Clouds 19 1019 46 10000 4.6 330 06:49 06.01.2020
1261 Mist 18 1019 88 6000 4.1 330 06:30 06.01.2020
1262 Clouds 17 1018 68 10000 3.6 300 05:48 06.01.2020
1263 Clouds 17 1017 82 7000 3.6 310 04:55 06.01.2020
1264 Clouds 17 1017 82 10000 4.1 310 04:21 06.01.2020
1265 Clouds 17 1017 82 10000 4.1 310 03:26 06.01.2020
1266 Mist 17 1017 87 9000 4.1 330 02:26 06.01.2020
1267 Clouds 16 1016 82 10000 4.6 310 01:49 06.01.2020
1268 Clouds 17 1016 82 10000 4.1 310 01:29 06.01.2020
1269 Clouds 17 1015 77 10000 4.6 310 00:45 06.01.2020
1270 Clouds 17 1016 77 10000 4.1 310 00:26 06.01.2020
1271 Clouds 17 1016 72 10000 4.1 320 23:57 05.01.2020
1272 Clouds 17 1016 72 10000 4.1 320 23:37 05.01.2020
1273 Clouds 17 1015 72 10000 4.1 320 23:19 05.01.2020
1274 Clouds 17 1015 72 10000 4.6 320 22:40 05.01.2020
1275 Clouds 17 1015 72 10000 4.6 320 22:40 05.01.2020
1276 Clouds 17 1015 77 10000 3.6 320 22:20 05.01.2020
1277 Clouds 16 1015 77 10000 4.1 310 21:56 05.01.2020
1278 Clouds 16 1015 77 10000 4.1 310 21:38 05.01.2020
1279 Clouds 16 1015 77 10000 3.6 310 21:20 05.01.2020
1280 Rain 16 1015 77 10000 4.6 330 20:56 05.01.2020
1281 Rain 16 1015 77 10000 4.6 330 20:38 05.01.2020
1282 Rain 16 1015 82 10000 4.1 330 20:19 05.01.2020
1283 Thunderstorm 17 1015 82 10000 4.6 350 19:58 05.01.2020
1284 Rain 17 1016 77 10000 4.6 340 19:38 05.01.2020
1285 Rain 17 1016 77 10000 4.6 340 19:19 05.01.2020
1286 Rain 17 1016 72 10000 6.7 340 18:55 05.01.2020
1287 Clouds 18 1015 72 10000 6.7 340 18:37 05.01.2020
1288 Rain 17 1016 72 10000 6.7 340 18:37 05.01.2020
1289 Clouds 18 1015 72 10000 6.7 340 18:19 05.01.2020
1290 Clouds 18 1015 68 10000 6.7 340 17:57 05.01.2020
1291 Clouds 18 1015 68 10000 6.7 340 17:38 05.01.2020
1292 Clouds 18 1015 72 10000 7.2 350 17:19 05.01.2020
1293 Clouds 18 1014 68 10000 7.2 340 16:55 05.01.2020
1294 Haze 19 1015 59 9000 7.7 360 16:37 05.01.2020
1295 Haze 19 1015 59 9000 7.7 360 16:19 05.01.2020
1296 Clouds 19 1014 63 10000 8.2 340 15:37 05.01.2020
1297 Clouds 19 1013 63 10000 9.3 350 15:19 05.01.2020
1298 Clouds 19 1013 63 10000 8.7 340 14:55 05.01.2020
1299 Haze 20 1013 59 9000 7.7 360 14:37 05.01.2020
1300 Haze 20 1013 59 9000 7.7 360 14:18 05.01.2020
1301 Clouds 20 1012 60 10000 8.7 340 13:55 05.01.2020
1302 Clouds 20 1012 60 10000 8.7 340 13:37 05.01.2020
1303 Clouds 20 1012 64 10000 9.3 350 13:18 05.01.2020
1304 Clouds 20 1012 64 10000 9.3 350 13:18 05.01.2020
1305 Clouds 20 1012 64 10000 9.3 350 13:18 05.01.2020
1306 Clouds 21 1012 60 10000 9.3 350 12:55 05.01.2020
1307 Clouds 21 1011 56 10000 8.7 340 12:36 05.01.2020
1308 Clouds 21 1012 60 10000 9.3 350 12:36 05.01.2020
1309 Clouds 21 1011 56 10000 8.7 340 12:18 05.01.2020
1310 Clouds 21 1011 64 10000 8.7 360 11:43 05.01.2020
1311 Clouds 21 1011 64 10000 8.7 360 11:43 05.01.2020
1312 Clouds 21 1011 64 10000 8.7 360 11:43 05.01.2020
1313 Clouds 21 1011 64 10000 8.7 360 11:43 05.01.2020
1314 Clouds 21 1011 64 10000 8.7 360 11:43 05.01.2020
1315 Clouds 22 1011 56 10000 9.8 350 11:19 05.01.2020
1316 Clouds 21 1012 60 10000 9.3 360 10:58 05.01.2020
1317 Clouds 21 1012 60 10000 9.3 360 10:39 05.01.2020
1318 Clouds 21 1012 60 10000 9.3 360 10:39 05.01.2020
1319 Clouds 21 1012 60 10000 9.3 360 10:39 05.01.2020
1320 Clouds 21 1012 60 10000 9.3 360 10:39 05.01.2020
1321 Clouds 21 1012 60 10000 9.3 360 10:39 05.01.2020
1322 Clouds 22 1012 53 10000 9.3 350 10:18 05.01.2020
1323 Haze 22 1014 53 9000 6.2 10 09:41 05.01.2020
1324 Haze 22 1014 53 9000 6.2 10 09:22 05.01.2020
1325 Clouds 22 1014 56 10000 8.2 340 08:49 05.01.2020
1326 Haze 21 1015 64 9000 6.2 10 08:30 05.01.2020
1327 Clouds 21 1014 68 10000 7.7 350 07:56 05.01.2020
1328 Clouds 21 1014 68 10000 7.7 350 07:37 05.01.2020
1329 Clouds 21 1014 64 10000 7.7 340 07:19 05.01.2020
1330 Clouds 21 1013 73 9000 7.7 340 05:59 05.01.2020
1331 Mist 21 1013 94 5000 5.1 10 05:33 05.01.2020
1332 Mist 21 1013 94 5000 5.1 10 05:33 05.01.2020
1333 Clouds 21 1013 88 6000 3.6 330 04:43 05.01.2020
1334 Clouds 21 1012 88 6000 3.1 340 04:18 05.01.2020
1335 Clouds 21 1011 88 7000 4.6 340 02:46 05.01.2020
1336 Clear 21 1012 88 7000 4.1 320 02:24 05.01.2020
1337 Clear 20 1011 88 7000 3.6 310 01:48 05.01.2020
1338 Clouds 20 1011 83 8000 3.1 320 01:19 05.01.2020
1339 Clouds 20 1011 77 8000 2.6 310 00:42 05.01.2020
1340 Clouds 20 1011 77 8000 2.6 310 00:42 05.01.2020
1341 Clouds 20 1011 43 10000 2.1 300 00:23 05.01.2020
1342 Clouds 21 1010 37 10000 1 0 23:59 04.01.2020
1343 Clouds 21 1010 37 10000 1 0 23:40 04.01.2020
1344 Clouds 22 1011 35 10000 2.1 230 23:19 04.01.2020
1345 Clouds 22 1011 35 10000 2.1 230 23:19 04.01.2020
1346 Clouds 22 1011 36 10000 4.1 230 22:40 04.01.2020
1347 Clouds 22 1011 44 10000 4.6 240 22:22 04.01.2020
1348 Clouds 23 1011 47 10000 4.6 180 21:58 04.01.2020
1349 Clouds 23 1011 47 10000 4.6 180 21:39 04.01.2020
1350 Clouds 23 1011 47 10000 4.6 180 21:39 04.01.2020
1351 Clouds 22 1012 44 10000 4.6 180 21:20 04.01.2020
1352 Clouds 23 1012 38 8000 4.6 190 20:59 04.01.2020
1353 Clouds 23 1012 38 8000 4.6 190 20:40 04.01.2020
1354 Clear 23 1012 41 7000 4.6 180 20:21 04.01.2020
1355 Clear 23 1012 53 7000 4.1 170 19:57 04.01.2020
1356 Clear 23 1012 53 7000 4.1 170 19:57 04.01.2020
1357 Clear 23 1012 53 7000 4.1 170 19:38 04.01.2020
1358 Clear 23 1012 57 7000 3.6 170 19:20 04.01.2020
1359 Clear 22 1012 73 7000 3.1 140 18:55 04.01.2020
1360 Clear 22 1012 73 7000 3.1 140 18:36 04.01.2020
1361 Clear 22 1012 69 8000 3.6 140 18:18 04.01.2020
1362 Clear 23 1012 69 8000 3.6 130 17:41 04.01.2020
1363 Clear 23 1012 69 8000 3.6 130 17:41 04.01.2020
1364 Clear 23 1012 69 8000 4.1 140 17:23 04.01.2020
1365 Clear 24 1012 69 8000 3.1 150 16:58 04.01.2020
1366 Clear 24 1012 69 8000 3.1 150 16:39 04.01.2020
1367 Clear 24 1012 64 7000 3.1 130 16:21 04.01.2020
1368 Clear 26 1011 64 7000 3.1 130 15:55 04.01.2020
1369 Clear 26 1011 64 7000 3.1 130 15:37 04.01.2020
1370 Clear 26 1011 64 6000 5.1 130 15:18 04.01.2020
1371 Dust 25 1011 57 5000 5.7 120 14:42 04.01.2020
1372 Dust 25 1011 57 5000 5.7 120 14:42 04.01.2020
1373 Dust 25 1011 54 5000 5.1 120 14:42 04.01.2020
1374 Dust 27 1011 54 5000 5.1 120 14:20 04.01.2020
1375 Dust 28 1011 23 5000 6.7 200 13:59 04.01.2020
1376 Dust 28 1011 23 5000 6.7 200 13:38 04.01.2020
1377 Dust 28 1011 23 5000 7.7 190 13:19 04.01.2020
1378 Dust 29 1011 23 5000 9.8 190 12:57 04.01.2020
1379 Dust 29 1011 23 5000 9.8 190 12:39 04.01.2020
1380 Dust 30 1011 25 5000 8.2 180 12:18 04.01.2020
1381 Dust 30 1011 23 5000 9.3 190 11:57 04.01.2020
1382 Dust 30 1011 23 5000 9.3 190 11:37 04.01.2020
1383 Dust 30 1011 23 5000 9.3 190 11:37 04.01.2020
1384 Dust 30 1011 25 5000 8.7 190 11:18 04.01.2020
1385 Clear 29 1012 26 6000 8.7 190 10:41 04.01.2020
1386 Clear 28 1012 26 8000 9.8 180 10:22 04.01.2020
1387 Clear 27 1013 26 10000 10.3 190 09:48 04.01.2020
1388 Clear 26 1014 30 10000 7.2 190 09:26 04.01.2020
1389 Clear 25 1014 29 10000 9.8 180 08:49 04.01.2020
1390 Haze 25 1016 29 9000 5.1 200 08:29 04.01.2020
1391 Clear 24 1016 33 10000 7.7 180 07:59 04.01.2020
1392 Clear 24 1016 33 10000 7.7 180 07:40 04.01.2020
1393 Clear 21 1016 49 10000 5.1 170 06:46 04.01.2020
1394 Clear 20 1015 64 10000 2.6 170 05:59 04.01.2020
1395 Clear 20 1015 64 10000 3.6 160 05:18 04.01.2020
1396 Clear 21 1014 68 10000 3.6 160 04:32 04.01.2020
1397 Clear 20 1014 73 10000 3.1 180 03:39 04.01.2020
1398 Clear 20 1014 73 10000 5.1 160 03:18 04.01.2020
1399 Clear 20 1014 77 10000 4.1 160 02:20 04.01.2020
1400 Clear 20 1014 77 10000 3.1 150 01:53 04.01.2020
1401 Clear 20 1014 83 10000 4.1 150 01:30 04.01.2020
1402 Clear 21 1014 78 10000 4.6 150 00:30 04.01.2020
1403 Clear 21 1014 78 10000 4.6 140 23:59 03.01.2020
1404 Clear 21 1014 78 10000 4.6 140 23:38 03.01.2020
1405 Clear 21 1015 78 10000 4.6 140 23:20 03.01.2020
1406 Clear 21 1015 83 10000 4.6 150 22:41 03.01.2020
1407 Clear 21 1015 88 10000 4.1 150 22:19 03.01.2020
1408 Clear 21 1015 83 10000 5.1 140 21:58 03.01.2020
1409 Clear 21 1015 83 10000 5.1 140 21:38 03.01.2020
1410 Mist 22 1016 82 9000 2.6 150 21:19 03.01.2020
1411 Clear 22 1016 83 10000 4.6 130 20:57 03.01.2020
1412 Clear 22 1016 83 10000 4.6 130 20:39 03.01.2020
1413 Clear 22 1016 88 10000 4.1 130 20:18 03.01.2020
1414 Clear 22 1016 88 10000 4.1 130 19:55 03.01.2020
1415 Clear 22 1016 83 10000 3.1 130 19:37 03.01.2020
1416 Clear 22 1016 83 10000 3.1 130 19:18 03.01.2020
1417 Clear 22 1016 83 10000 2.6 120 18:41 03.01.2020
1418 Clear 22 1017 83 10000 3.1 120 18:23 03.01.2020
1419 Clear 22 1016 83 10000 3.1 120 17:55 03.01.2020
1420 Clear 23 1016 73 10000 3.1 110 17:36 03.01.2020
1421 Clear 23 1016 73 10000 3.1 110 17:18 03.01.2020
1422 Clear 23 1016 69 10000 2.6 110 16:42 03.01.2020
1423 Clear 23 1016 73 10000 3.6 110 16:22 03.01.2020
1424 Clear 24 1016 73 10000 3.6 110 15:44 03.01.2020
1425 Clear 24 1016 73 10000 3.6 120 15:19 03.01.2020
1426 Clear 24 1016 73 10000 3.6 120 15:19 03.01.2020
1427 Clear 25 1015 60 10000 4.1 110 14:59 03.01.2020
1428 Clear 25 1015 60 10000 4.1 110 14:38 03.01.2020
1429 Haze 25 1016 36 9000 4.1 130 14:19 03.01.2020
1430 Clear 26 1015 57 10000 4.6 110 13:43 03.01.2020
1431 Haze 26 1016 32 9000 4.6 150 13:24 03.01.2020
1432 Clear 26 1015 57 10000 5.1 120 12:58 03.01.2020
1433 Clear 26 1015 57 10000 5.1 120 12:38 03.01.2020
1434 Haze 26 1016 28 9000 4.1 180 12:20 03.01.2020
1435 Clear 26 1016 54 10000 5.1 120 11:44 03.01.2020
1436 Clear 26 1016 61 10000 5.1 130 11:20 03.01.2020
1437 Clear 25 1016 61 10000 5.1 130 10:44 03.01.2020
1438 Clear 25 1017 69 10000 5.7 120 10:25 03.01.2020
1439 Clear 25 1018 69 10000 6.2 120 09:58 03.01.2020
1440 Clear 25 1018 69 10000 6.2 120 09:39 03.01.2020
1441 Clear 24 1018 73 10000 5.7 120 09:21 03.01.2020
1442 Clear 24 1018 78 10000 6.7 120 08:56 03.01.2020
1443 Clear 24 1018 78 10000 6.7 120 08:38 03.01.2020
1444 Clear 24 1019 78 10000 5.7 120 08:19 03.01.2020
1445 Clear 23 1019 78 10000 5.7 110 07:40 03.01.2020
1446 Clear 23 1020 83 10000 4.6 110 07:18 03.01.2020
1447 Clear 23 1020 83 10000 4.6 110 07:18 03.01.2020
1448 Clear 22 1019 88 10000 3.6 120 06:47 03.01.2020
1449 Clear 22 1019 88 10000 3.6 120 06:29 03.01.2020
1450 Clear 21 1019 88 10000 3.1 100 05:39 03.01.2020
1451 Clouds 20 1018 88 10000 1 100 04:21 03.01.2020
1452 Clouds 20 1017 88 10000 1.5 120 02:56 03.01.2020
1453 Clouds 20 1017 88 10000 1.5 120 02:56 03.01.2020
1454 Clouds 20 1017 88 10000 1 90 02:28 03.01.2020
1455 Clouds 20 1017 88 10000 0.5 0 01:42 03.01.2020
1456 Clouds 21 1017 83 10000 2.1 110 00:49 03.01.2020
1457 Clouds 21 1017 83 10000 2.1 120 00:29 03.01.2020
1458 Clouds 21 1017 83 10000 2.6 110 23:55 02.01.2020
1459 Clouds 21 1017 83 10000 2.6 110 23:37 02.01.2020
1460 Clouds 21 1017 78 10000 3.1 110 23:18 02.01.2020
1461 Clouds 21 1018 73 10000 4.1 110 22:45 02.01.2020
1462 Clouds 21 1018 77 10000 2.6 110 22:21 02.01.2020
1463 Clouds 21 1018 77 10000 2.6 110 22:21 02.01.2020
1464 Clouds 21 1018 77 10000 1.5 100 21:59 02.01.2020
1465 Clouds 21 1018 77 10000 1.5 100 21:41 02.01.2020
1466 Haze 21 1019 77 9000 1.5 90 21:23 02.01.2020
1467 Clouds 21 1018 77 10000 2.1 110 20:58 02.01.2020
1468 Clouds 21 1018 77 10000 2.1 110 20:39 02.01.2020
1469 Clouds 21 1018 77 10000 2.1 110 20:39 02.01.2020
1470 Clouds 21 1019 77 10000 2.1 100 20:21 02.01.2020
1471 Clouds 22 1019 73 10000 2.6 100 19:55 02.01.2020
1472 Clouds 22 1019 73 10000 2.6 100 19:55 02.01.2020
1473 Clouds 22 1019 73 10000 2.6 100 19:55 02.01.2020
1474 Clouds 22 1019 73 10000 2.6 100 19:37 02.01.2020
1475 Clouds 22 1019 68 10000 2.1 90 19:19 02.01.2020
1476 Clouds 22 1019 68 10000 2.1 80 18:56 02.01.2020
1477 Clouds 22 1019 68 10000 2.1 80 18:38 02.01.2020
1478 Clouds 21 1019 73 10000 2.1 80 18:20 02.01.2020
1479 Clouds 21 1019 73 10000 1.5 70 17:56 02.01.2020
1480 Clouds 21 1019 73 10000 1.5 70 17:36 02.01.2020
1481 Clouds 21 1019 73 10000 1.5 70 17:18 02.01.2020
1482 Clouds 22 1018 64 10000 2.1 70 16:56 02.01.2020
1483 Clouds 22 1018 64 10000 2.1 70 16:38 02.01.2020
1484 Clouds 22 1018 64 10000 2.1 60 16:19 02.01.2020
1485 Clouds 22 1018 64 10000 2.1 60 15:44 02.01.2020
1486 Clouds 22 1018 64 10000 2.6 50 15:24 02.01.2020
1487 Clouds 23 1017 64 10000 2.6 60 14:58 02.01.2020
1488 Clouds 23 1017 60 10000 2.6 70 14:38 02.01.2020
1489 Clouds 23 1017 60 10000 2.6 70 14:20 02.01.2020
1490 Clouds 23 1017 60 10000 2.6 40 13:58 02.01.2020
1491 Clouds 23 1017 56 10000 3.1 40 13:39 02.01.2020
1492 Clouds 23 1017 56 10000 3.1 40 13:18 02.01.2020
1493 Clouds 24 1016 56 10000 3.1 50 12:42 02.01.2020
1494 Clouds 23 1017 60 10000 3.1 20 12:21 02.01.2020
1495 Clouds 23 1017 56 10000 3.1 360 11:42 02.01.2020
1496 Clouds 23 1017 56 10000 3.1 360 11:21 02.01.2020
1497 Clouds 24 1017 56 10000 2.6 20 10:46 02.01.2020
1498 Clouds 24 1017 56 10000 3.1 10 10:28 02.01.2020
1499 Clouds 22 1018 60 10000 3.6 20 09:57 02.01.2020
1500 Clouds 22 1018 56 10000 3.6 360 09:35 02.01.2020
1501 Clouds 22 1019 56 10000 3.6 350 08:59 02.01.2020
1502 Clouds 22 1019 56 10000 3.6 350 08:39 02.01.2020
1503 Clouds 22 1019 56 10000 3.1 340 08:19 02.01.2020
1504 Clouds 20 1020 56 10000 4.1 330 07:47 02.01.2020
1505 Clouds 20 1020 60 10000 3.6 330 07:26 02.01.2020
1506 Clouds 19 1019 60 10000 3.1 330 06:41 02.01.2020
1507 Clouds 18 1019 68 10000 3.1 330 05:40 02.01.2020
1508 Clouds 18 1018 63 10000 2.1 310 04:35 02.01.2020
1509 Clouds 18 1017 63 10000 2.1 310 03:29 02.01.2020
1510 Clouds 18 1016 63 10000 2.1 300 02:21 02.01.2020
1511 Clouds 18 1016 63 10000 2.6 310 01:53 02.01.2020
1512 Clouds 18 1016 63 10000 2.6 310 01:53 02.01.2020
1513 Clouds 18 1016 63 10000 2.6 320 01:25 02.01.2020
1514 Clouds 18 1016 60 10000 2.1 310 00:49 02.01.2020
1515 Clouds 18 1016 60 10000 2.6 310 00:26 02.01.2020
1516 Clouds 19 1016 60 10000 3.1 320 23:43 01.01.2020
1517 Clouds 19 1016 60 10000 2.1 290 23:23 01.01.2020
1518 Clouds 19 1016 60 10000 2.6 330 22:39 01.01.2020
1519 Clouds 19 1016 60 10000 2.6 330 22:20 01.01.2020
1520 Clouds 19 1016 64 10000 3.6 330 21:58 01.01.2020
1521 Clouds 19 1016 64 10000 3.6 330 21:58 01.01.2020
1522 Clouds 19 1016 64 10000 3.6 330 21:40 01.01.2020
1523 Clouds 19 1016 60 10000 4.1 330 21:20 01.01.2020
1524 Clouds 19 1016 64 10000 4.1 330 20:57 01.01.2020
1525 Clouds 19 1016 64 10000 4.1 330 20:38 01.01.2020
1526 Clouds 19 1016 64 10000 4.1 330 20:20 01.01.2020
1527 Clouds 20 1017 64 10000 4.6 330 19:57 01.01.2020
1528 Clouds 20 1017 64 10000 4.6 330 19:38 01.01.2020
1529 Haze 20 1018 68 9000 3.1 360 19:20 01.01.2020
1530 Clouds 20 1016 60 10000 5.1 330 18:57 01.01.2020
1531 Clouds 20 1016 60 10000 5.1 330 18:37 01.01.2020
1532 Clouds 20 1016 60 10000 5.1 330 18:19 01.01.2020
1533 Clouds 21 1016 60 10000 5.7 330 17:57 01.01.2020
1534 Clouds 21 1016 60 10000 5.7 330 17:39 01.01.2020
1535 Clouds 21 1016 64 10000 6.2 330 17:19 01.01.2020
1536 Clouds 21 1016 60 10000 6.2 340 16:57 01.01.2020
1537 Clouds 21 1016 60 10000 6.2 340 16:37 01.01.2020
1538 Clouds 21 1016 60 10000 6.2 340 16:37 01.01.2020
1539 Haze 22 1016 64 9000 4.6 340 16:19 01.01.2020
1540 Haze 22 1016 64 9000 4.6 340 16:19 01.01.2020
1541 Clouds 22 1014 68 10000 6.7 350 15:54 01.01.2020
1542 Haze 22 1015 64 9000 5.7 340 15:36 01.01.2020
1543 Haze 22 1015 64 9000 5.7 340 15:18 01.01.2020
1544 Clouds 23 1014 69 10000 5.7 360 14:41 01.01.2020
1545 Haze 24 1015 60 9000 5.7 340 14:23 01.01.2020
1546 Clouds 24 1013 64 10000 5.1 360 13:57 01.01.2020
1547 Clouds 24 1013 64 10000 5.1 360 13:38 01.01.2020
1548 Clouds 24 1013 64 10000 5.1 350 13:19 01.01.2020
1549 Clouds 24 1013 60 10000 6.7 350 12:57 01.01.2020
1550 Clouds 24 1013 60 10000 6.7 350 12:39 01.01.2020
1551 Haze 25 1014 57 9000 6.2 330 12:19 01.01.2020
1552 Clouds 25 1013 53 10000 5.7 340 11:56 01.01.2020
1553 Clouds 25 1013 53 10000 5.7 340 11:56 01.01.2020
1554 Clouds 25 1013 53 10000 5.7 340 11:37 01.01.2020
1555 Clouds 25 1013 53 10000 4.6 320 11:18 01.01.2020
1556 Clouds 24 1013 57 10000 4.6 310 10:54 01.01.2020
1557 Clouds 24 1014 57 10000 4.6 310 10:36 01.01.2020
1558 Clouds 24 1014 57 10000 4.6 310 10:18 01.01.2020
1559 Clouds 24 1014 61 10000 4.1 310 09:39 01.01.2020
1560 Clouds 23 1015 64 10000 4.1 290 09:19 01.01.2020
1561 Clouds 23 1015 64 10000 4.1 290 09:19 01.01.2020
1562 Clouds 23 1015 64 9000 3.1 290 08:56 01.01.2020
1563 Clouds 23 1015 64 9000 3.1 290 08:37 01.01.2020
1564 Clear 23 1016 69 8000 2.6 280 08:37 01.01.2020
1565 Clouds 23 1016 69 8000 2.6 280 08:19 01.01.2020
1566 Clouds 21 1016 69 10000 3.1 280 07:55 01.01.2020
1567 Clouds 21 1016 69 10000 3.1 280 07:37 01.01.2020
1568 Clouds 20 1016 73 10000 2.1 280 06:46 01.01.2020
1569 Clouds 19 1015 77 10000 1.5 280 06:22 01.01.2020
1570 Clouds 17 1015 77 10000 2.1 270 05:45 01.01.2020
1571 Clouds 17 1014 52 10000 2.1 230 03:47 01.01.2020
1572 Haze 17 1014 72 9000 4.66 264 03:24 01.01.2020
1573 Clouds 18 1013 55 10000 1.5 220 02:59 01.01.2020
1574 Clouds 18 1013 55 10000 1.5 220 02:40 01.01.2020
1575 Clouds 18 1013 63 10000 2.6 240 02:21 01.01.2020
1576 Clouds 18 1013 77 10000 2.6 220 01:39 01.01.2020
1577 Haze 18 1014 67 8000 3.6 210 01:21 01.01.2020
1578 Clouds 18 1013 77 10000 2.6 200 00:44 01.01.2020
1579 Haze 19 1014 77 9000 3.1 220 00:26 01.01.2020
1580 Clouds 19 1013 68 10000 2.1 200 23:42 31.12.2019
1581 Clouds 19 1013 68 10000 2.1 200 23:22 31.12.2019
1582 Clouds 19 1013 68 10000 2.6 200 22:59 31.12.2019
1583 Clouds 19 1013 68 10000 2.6 200 22:39 31.12.2019
1584 Clouds 19 1013 72 10000 2.1 200 22:20 31.12.2019
1585 Clouds 19 1014 72 10000 2.1 190 21:59 31.12.2019
1586 Clouds 19 1014 72 10000 2.1 190 21:40 31.12.2019
1587 Clouds 19 1014 68 10000 2.1 170 21:22 31.12.2019
1588 Clouds 20 1014 64 10000 2.1 170 20:57 31.12.2019
1589 Clouds 20 1014 64 10000 2.1 170 20:37 31.12.2019
1590 Clouds 20 1015 60 10000 1.5 170 20:19 31.12.2019
1591 Clouds 20 1015 60 10000 1.5 140 19:55 31.12.2019
1592 Clouds 20 1015 60 10000 1.5 140 19:36 31.12.2019
1593 Clouds 20 1015 56 10000 2.1 150 19:18 31.12.2019
1594 Clouds 20 1015 56 10000 2.6 150 18:54 31.12.2019
1595 Clouds 20 1015 56 10000 2.6 150 18:36 31.12.2019
1596 Clouds 20 1015 53 10000 1.5 160 18:18 31.12.2019
1597 Clouds 20 1015 53 10000 1.5 160 18:18 31.12.2019
1598 Clouds 21 1015 53 10000 1.5 170 17:54 31.12.2019
1599 Clouds 21 1015 49 10000 2.6 160 17:36 31.12.2019
1600 Clear 21 1015 49 10000 2.6 160 17:18 31.12.2019
1601 Clear 22 1015 53 10000 3.6 150 16:55 31.12.2019
1602 Clear 22 1015 53 10000 3.6 150 16:36 31.12.2019
1603 Clear 23 1015 56 10000 3.6 120 16:18 31.12.2019
1604 Clear 24 1015 29 10000 1.5 280 15:55 31.12.2019
1605 Clear 24 1015 29 10000 1.5 280 15:37 31.12.2019
1606 Clear 24 1014 26 10000 2.6 260 15:18 31.12.2019
1607 Clear 26 1014 26 10000 3.6 260 14:55 31.12.2019
1608 Clear 26 1014 26 10000 3.6 260 14:36 31.12.2019
1609 Haze 27 1015 36 9000 2.1 200 14:18 31.12.2019
1610 Clear 27 1014 24 10000 4.1 270 13:54 31.12.2019
1611 Clear 27 1014 24 10000 4.1 270 13:36 31.12.2019
1612 Clear 27 1014 24 10000 3.1 250 13:18 31.12.2019
1613 Clear 27 1014 24 10000 3.6 240 12:40 31.12.2019
1614 Clear 27 1014 24 10000 3.1 240 12:20 31.12.2019
1615 Clear 27 1014 24 10000 3.1 240 12:20 31.12.2019
1616 Clear 27 1014 26 10000 4.1 210 11:57 31.12.2019
1617 Clear 27 1014 26 10000 4.1 210 11:39 31.12.2019
1618 Clear 27 1015 26 10000 3.6 230 11:20 31.12.2019
1619 Clear 27 1015 24 10000 3.1 230 10:58 31.12.2019
1620 Clear 27 1015 24 10000 3.1 230 10:38 31.12.2019
1621 Clear 26 1016 28 10000 3.1 220 10:20 31.12.2019
1622 Clear 26 1017 27 10000 3.1 210 09:59 31.12.2019
1623 Clear 26 1017 27 10000 3.1 210 09:40 31.12.2019
1624 Clear 25 1017 34 10000 2.1 190 09:21 31.12.2019
1625 Clear 24 1018 39 10000 2.1 0 08:58 31.12.2019
1626 Clear 24 1018 39 10000 2.1 0 08:39 31.12.2019
1627 Clear 24 1018 44 10000 2.1 210 08:20 31.12.2019
1628 Clear 22 1019 49 10000 2.1 0 07:43 31.12.2019
1629 Clear 22 1019 46 10000 1.5 210 07:22 31.12.2019
1630 Clear 19 1018 52 10000 1.5 210 06:50 31.12.2019
1631 Clear 17 1018 63 10000 1 0 05:59 31.12.2019
1632 Clear 16 1017 72 10000 0.5 0 04:30 31.12.2019
1633 Clear 16 1017 72 10000 1.5 230 03:59 31.12.2019
1634 Clear 16 1017 72 10000 1.5 230 03:59 31.12.2019
1635 Clear 16 1017 72 10000 2.6 240 02:56 31.12.2019
1636 Mist 17 1017 93 3200 1.74 289 02:19 31.12.2019
1637 Clear 17 1017 68 10000 2.6 250 01:48 31.12.2019
1638 Clear 17 1017 68 10000 2.6 250 01:48 31.12.2019
1639 Mist 17 1018 87 4000 1.5 280 01:28 31.12.2019
1640 Clear 17 1017 68 10000 2.1 240 00:47 31.12.2019
1641 Clear 17 1017 68 10000 2.6 250 00:23 31.12.2019
1642 Clear 18 1017 64 10000 2.1 240 23:57 30.12.2019
1643 Clear 18 1017 64 10000 2.1 240 23:38 30.12.2019
1644 Mist 18 1019 87 5000 1.81 327 23:20 30.12.2019
1645 Clear 18 1017 68 10000 1.5 240 22:58 30.12.2019
1646 Clear 18 1017 68 10000 1.5 240 22:40 30.12.2019
1647 Clear 18 1018 68 10000 1.5 230 22:20 30.12.2019
1648 Clear 18 1018 68 10000 1.5 230 21:57 30.12.2019
1649 Clear 18 1018 68 10000 1.5 230 21:38 30.12.2019
1650 Clear 18 1018 72 10000 0.5 0 21:19 30.12.2019
1651 Clear 19 1018 72 10000 1.81 327 20:57 30.12.2019
1652 Clear 19 1018 72 10000 1.81 327 20:39 30.12.2019
1653 Clear 19 1018 68 10000 1 0 20:20 30.12.2019
1654 Clear 20 1018 68 10000 1 330 19:58 30.12.2019
1655 Clear 20 1018 68 10000 1 330 19:38 30.12.2019
1656 Clear 20 1018 72 10000 1 350 19:19 30.12.2019
1657 Clear 20 1018 72 10000 1.5 350 18:57 30.12.2019
1658 Clear 20 1018 72 10000 1.5 350 18:38 30.12.2019
1659 Clear 21 1018 73 10000 2.1 350 18:20 30.12.2019
1660 Clear 21 1018 77 10000 2.1 10 17:55 30.12.2019
1661 Clear 21 1018 77 10000 2.1 10 17:37 30.12.2019
1662 Clear 21 1018 77 10000 2.1 10 17:18 30.12.2019
1663 Clear 22 1018 73 10000 2.1 10 16:57 30.12.2019
1664 Clear 22 1018 73 10000 2.1 10 16:36 30.12.2019
1665 Clear 22 1018 73 10000 2.6 10 16:18 30.12.2019
1666 Clear 22 1018 73 10000 2.6 10 15:55 30.12.2019
1667 Clear 22 1018 73 10000 2.6 10 15:36 30.12.2019
1668 Clear 23 1017 69 10000 2.6 30 15:18 30.12.2019
1669 Clear 24 1017 53 10000 3.6 20 14:42 30.12.2019
1670 Haze 25 1018 27 9000 1.5 300 14:20 30.12.2019
1671 Clear 25 1017 44 10000 3.1 20 13:56 30.12.2019
1672 Clear 25 1017 44 10000 3.1 20 13:37 30.12.2019
1673 Clear 25 1017 50 10000 3.1 40 13:19 30.12.2019
1674 Clear 25 1017 50 10000 2.6 20 12:43 30.12.2019
1675 Haze 27 1017 30 9000 1.5 260 12:22 30.12.2019
1676 Clear 26 1017 47 10000 1 0 11:59 30.12.2019
1677 Clear 26 1017 47 10000 1 0 11:40 30.12.2019
1678 Clear 26 1017 30 10000 2.6 280 11:19 30.12.2019
1679 Clear 26 1017 30 10000 2.6 280 11:19 30.12.2019
1680 Clear 26 1017 30 10000 2.1 280 10:45 30.12.2019
1681 Clear 26 1018 32 10000 1.5 0 10:22 30.12.2019
1682 Clear 24 1018 34 10000 2.6 250 09:59 30.12.2019
1683 Clear 24 1018 34 10000 2.6 250 09:41 30.12.2019
1684 Clear 23 1018 39 10000 1.5 270 09:20 30.12.2019
1685 Clear 23 1019 41 10000 1 0 08:54 30.12.2019
1686 Clear 23 1019 41 10000 1 0 08:36 30.12.2019
1687 Clear 23 1019 41 10000 1 0 08:36 30.12.2019
1688 Clear 23 1019 50 10000 1.5 300 08:18 30.12.2019
1689 Clear 22 1020 53 10000 1.5 310 07:39 30.12.2019
1690 Clear 19 1020 68 8000 2.6 300 06:52 30.12.2019
1691 Haze 17 1019 88 5000 1.5 290 05:24 30.12.2019
1692 Clear 16 1019 88 7000 1.5 270 03:58 30.12.2019
1693 Mist 17 1019 93 1600 2.1 310 03:19 30.12.2019
1694 Clear 17 1018 82 10000 2.1 280 02:40 30.12.2019
1695 Clear 17 1018 82 10000 1.5 290 01:55 30.12.2019
1696 Clear 17 1018 82 10000 2.1 300 01:23 30.12.2019
1697 Clear 18 1018 82 10000 1.5 320 00:45 30.12.2019
1698 Clear 18 1018 82 10000 2.1 320 00:19 30.12.2019
1699 Clear 18 1018 82 10000 1.5 320 23:39 29.12.2019
1700 Clear 18 1018 82 10000 1.5 320 23:21 29.12.2019
1701 Clear 18 1018 77 10000 2.1 300 22:55 29.12.2019
1702 Clear 18 1018 77 10000 2.1 300 22:37 29.12.2019
1703 Clear 18 1018 77 10000 2.1 310 22:18 29.12.2019
1704 Clear 18 1018 77 10000 1.5 310 21:43 29.12.2019
1705 Clear 18 1018 77 10000 1.5 340 21:21 29.12.2019
1706 Clear 19 1018 72 10000 2.1 340 20:57 29.12.2019
1707 Clear 19 1018 72 10000 2.1 340 20:39 29.12.2019
1708 Mist 19 1019 88 5000 1.5 350 20:21 29.12.2019
1709 Clear 20 1019 68 10000 2.1 330 19:59 29.12.2019
1710 Clear 20 1019 68 10000 2.1 330 19:40 29.12.2019
1711 Clear 20 1019 68 10000 2.1 330 19:40 29.12.2019
1712 Clear 20 1019 73 10000 2.1 310 19:21 29.12.2019
1713 Clear 20 1018 73 10000 2.6 330 18:58 29.12.2019
1714 Clear 20 1018 88 10000 1 360 18:39 29.12.2019
1715 Clear 20 1018 88 10000 1 360 18:20 29.12.2019
1716 Clear 21 1018 83 10000 2.1 350 17:58 29.12.2019
1717 Clear 21 1018 83 10000 2.1 350 17:39 29.12.2019
1718 Clear 21 1018 88 10000 2.1 340 17:20 29.12.2019
1719 Clear 22 1018 78 10000 2.6 350 16:57 29.12.2019
1720 Clear 22 1018 78 10000 2.6 350 16:38 29.12.2019
1721 Clear 22 1018 78 10000 2.6 350 16:38 29.12.2019
1722 Clear 22 1018 78 10000 2.1 350 16:20 29.12.2019
1723 Clear 22 1017 78 10000 2.6 360 15:58 29.12.2019
1724 Clear 22 1017 78 10000 2.6 360 15:58 29.12.2019
1725 Clear 22 1017 78 10000 2.6 360 15:39 29.12.2019
1726 Clear 23 1017 73 10000 3.6 10 15:20 29.12.2019
1727 Clear 24 1017 47 10000 3.6 340 14:58 29.12.2019
1728 Clear 24 1017 47 10000 3.6 340 14:39 29.12.2019
1729 Haze 24 1018 44 9000 3.1 330 14:18 29.12.2019
1730 Haze 24 1018 44 9000 3.1 330 14:18 29.12.2019
1731 Clear 25 1017 47 10000 3.1 350 13:58 29.12.2019
1732 Clear 25 1017 47 10000 3.1 350 13:39 29.12.2019
1733 Clear 25 1016 44 10000 4.1 330 13:21 29.12.2019
1734 Clear 25 1017 39 10000 3.1 310 12:56 29.12.2019
1735 Clear 25 1017 39 10000 3.1 310 12:37 29.12.2019
1736 Haze 26 1018 39 9000 3.1 320 12:19 29.12.2019
1737 Clear 26 1017 39 10000 2.6 270 11:40 29.12.2019
1738 Clear 26 1017 41 10000 2.6 250 11:20 29.12.2019
1739 Clear 25 1017 41 10000 2.1 0 10:56 29.12.2019
1740 Clear 25 1017 41 10000 2.1 0 10:37 29.12.2019
1741 Clear 24 1018 44 10000 2.1 300 10:18 29.12.2019
1742 Clear 23 1018 47 9000 3.1 280 09:44 29.12.2019
1743 Clear 23 1019 57 9000 3.1 300 09:26 29.12.2019
1744 Clear 22 1019 64 8000 2.6 310 08:52 29.12.2019
1745 Clear 21 1019 69 8000 2.1 280 08:29 29.12.2019
1746 Clear 21 1019 64 8000 1.5 270 07:59 29.12.2019
1747 Clear 21 1020 64 8000 2.1 250 07:32 29.12.2019
1748 Clear 19 1020 64 10000 2.6 240 06:59 29.12.2019
1749 Clear 18 1019 63 10000 2.1 240 06:27 29.12.2019
1750 Clear 16 1019 72 9000 2.6 240 05:55 29.12.2019
1751 Clear 16 1018 77 8000 2.6 240 04:47 29.12.2019
1752 Clear 16 1018 82 8000 2.1 250 04:28 29.12.2019
1753 Clear 16 1017 88 8000 1.5 240 03:28 29.12.2019
1754 Clear 16 1017 82 8000 1.5 280 02:22 29.12.2019
1755 Clear 16 1017 82 10000 1 0 01:42 29.12.2019
1756 Clear 16 1017 82 10000 1.5 270 01:23 29.12.2019
1757 Clear 17 1017 82 10000 1.5 250 00:44 29.12.2019
1758 Clear 17 1017 82 10000 1.5 230 00:24 29.12.2019
1759 Clear 17 1017 82 10000 2.1 220 23:45 28.12.2019
1760 Clear 18 1017 82 10000 1.5 230 23:19 28.12.2019
1761 Clear 18 1017 82 10000 1.5 230 23:19 28.12.2019
1762 Clear 18 1017 82 10000 1.5 230 23:19 28.12.2019
1763 Clear 18 1017 82 10000 1.5 220 22:59 28.12.2019
1764 Clear 18 1017 82 10000 1.5 220 22:37 28.12.2019
1765 Clear 18 1017 82 10000 1.5 240 22:18 28.12.2019
1766 Clear 18 1017 82 10000 1 0 21:55 28.12.2019
1767 Clear 18 1017 77 10000 1 0 21:37 28.12.2019
1768 Clear 18 1017 77 10000 1 0 21:19 28.12.2019
1769 Clear 19 1017 77 10000 1.5 170 20:40 28.12.2019
1770 Clear 19 1017 82 10000 2.1 150 20:22 28.12.2019
1771 Clear 19 1017 77 10000 1.5 140 19:59 28.12.2019
1772 Clear 19 1017 77 10000 1.5 140 19:59 28.12.2019
1773 Clear 19 1017 77 10000 1.5 140 19:40 28.12.2019
1774 Clear 19 1018 77 10000 2.1 140 19:22 28.12.2019
1775 Clear 19 1017 72 10000 2.6 140 18:59 28.12.2019
1776 Clear 19 1017 72 10000 2.6 140 18:40 28.12.2019
1777 Clear 19 1017 72 10000 2.6 140 18:20 28.12.2019
1778 Clear 20 1017 77 10000 1.5 140 17:57 28.12.2019
1779 Clear 20 1017 77 10000 1.5 140 17:38 28.12.2019
1780 Clear 20 1017 77 10000 1 110 17:19 28.12.2019
1781 Clear 21 1017 72 10000 1 0 16:47 28.12.2019
1782 Clear 21 1017 73 10000 1.5 110 16:26 28.12.2019
1783 Clear 21 1016 68 10000 1.5 130 15:57 28.12.2019
1784 Clear 21 1016 68 10000 1.5 130 15:39 28.12.2019
1785 Clear 22 1016 64 10000 2.1 120 15:19 28.12.2019
1786 Clear 22 1015 60 10000 2.6 80 14:44 28.12.2019
1787 Haze 23 1016 33 9000 2.1 340 14:24 28.12.2019
1788 Haze 23 1016 33 9000 2.1 340 14:24 28.12.2019
1789 Clear 23 1015 60 10000 2.1 100 13:57 28.12.2019
1790 Clear 23 1015 60 10000 2.1 100 13:38 28.12.2019
1791 Clear 24 1015 44 10000 1.5 360 13:19 28.12.2019
1792 Clear 24 1015 53 10000 2.1 50 12:44 28.12.2019
1793 Clear 24 1015 34 10000 2.1 0 12:24 28.12.2019
1794 Clear 24 1015 34 10000 2.1 0 11:58 28.12.2019
1795 Clear 24 1015 34 10000 2.1 0 11:39 28.12.2019
1796 Clear 24 1015 36 10000 2.6 220 11:20 28.12.2019
1797 Clear 23 1016 41 9000 2.1 210 10:46 28.12.2019
1798 Clear 23 1016 44 9000 2.1 0 10:22 28.12.2019
1799 Clear 23 1016 44 9000 2.1 0 10:22 28.12.2019
1800 Clear 23 1016 44 9000 2.1 0 10:22 28.12.2019
1801 Clear 23 1016 44 9000 2.1 0 10:22 28.12.2019
1802 Clear 23 1017 44 8000 2.1 200 09:58 28.12.2019
1803 Clear 23 1017 44 8000 2.1 200 09:40 28.12.2019
1804 Clear 22 1017 57 8000 1 0 09:20 28.12.2019
1805 Clear 22 1017 57 8000 1 0 09:20 28.12.2019
1806 Clear 22 1018 60 8000 1.5 300 08:44 28.12.2019
1807 Clear 22 1018 64 8000 1.5 250 08:26 28.12.2019
1808 Clear 20 1018 73 8000 2.6 200 07:55 28.12.2019
1809 Clear 20 1018 77 8000 2.6 250 07:32 28.12.2019
1810 Clear 18 1018 77 9000 3.6 260 06:41 28.12.2019
1811 Clear 16 1016 77 10000 3.1 200 04:59 28.12.2019
1812 Clear 17 1015 77 10000 2.6 180 03:47 28.12.2019
1813 Clear 16 1015 82 10000 3.1 160 02:49 28.12.2019
1814 Clear 16 1015 82 10000 1.5 150 01:59 28.12.2019
1815 Clear 17 1015 77 10000 3.6 160 01:31 28.12.2019
1816 Clear 17 1015 77 10000 2.1 150 00:58 28.12.2019
1817 Clear 17 1015 77 10000 2.1 150 00:40 28.12.2019
1818 Mist 17 1016 87 8000 1.5 170 00:20 28.12.2019
1819 Clear 17 1015 77 10000 1.5 170 23:44 27.12.2019
1820 Clear 17 1015 77 10000 1.5 170 23:44 27.12.2019
1821 Clear 18 1015 72 10000 2.1 160 23:20 27.12.2019
1822 Clear 18 1015 72 10000 2.6 150 22:58 27.12.2019
1823 Clear 18 1015 72 10000 2.6 150 22:39 27.12.2019
1824 Clear 18 1015 72 10000 3.1 140 22:20 27.12.2019
1825 Clear 18 1015 72 10000 3.6 150 21:56 27.12.2019
1826 Clear 18 1015 72 10000 3.6 150 21:37 27.12.2019
1827 Haze 19 1017 77 9000 3.26 151 21:19 27.12.2019
1828 Clear 19 1016 72 10000 2.1 140 20:42 27.12.2019
1829 Clear 19 1016 72 10000 1 150 20:23 27.12.2019
1830 Clear 19 1016 68 10000 1 140 19:43 27.12.2019
1831 Clear 20 1016 64 10000 1.5 120 19:21 27.12.2019
1832 Clear 20 1016 64 10000 1.5 140 18:59 27.12.2019
1833 Clear 20 1016 64 10000 1.5 140 18:40 27.12.2019
1834 Clear 20 1016 60 10000 0.5 140 18:21 27.12.2019
1835 Clear 20 1016 60 10000 1.5 140 17:58 27.12.2019
1836 Clear 20 1016 60 10000 1.5 140 17:40 27.12.2019
1837 Clear 21 1016 56 10000 2.1 140 17:19 27.12.2019
1838 Clear 21 1016 60 10000 2.6 140 16:59 27.12.2019
1839 Clear 21 1016 60 10000 2.6 140 16:39 27.12.2019
1840 Clear 21 1015 56 10000 3.1 130 16:20 27.12.2019
1841 Clear 21 1015 56 10000 3.6 130 15:45 27.12.2019
1842 Clear 22 1015 56 10000 4.1 130 15:23 27.12.2019
1843 Clear 23 1015 53 10000 5.1 130 14:58 27.12.2019
1844 Clear 23 1015 53 10000 5.1 130 14:40 27.12.2019
1845 Haze 23 1016 31 9000 3.1 170 14:21 27.12.2019
1846 Clear 23 1014 49 10000 5.7 110 13:57 27.12.2019
1847 Clear 23 1014 49 10000 5.7 110 13:39 27.12.2019
1848 Clear 24 1014 47 10000 4.1 130 13:21 27.12.2019
1849 Clear 24 1014 36 10000 2.1 210 12:44 27.12.2019
1850 Clear 24 1014 38 10000 2.6 190 12:24 27.12.2019
1851 Clear 24 1014 38 10000 3.1 210 11:46 27.12.2019
1852 Clear 24 1015 41 10000 3.1 180 11:28 27.12.2019
1853 Clear 24 1015 47 10000 4.1 160 10:59 27.12.2019
1854 Clear 24 1015 47 10000 4.1 160 10:41 27.12.2019
1855 Clear 24 1015 47 10000 4.1 160 10:41 27.12.2019
1856 Clear 24 1016 44 10000 3.6 190 10:23 27.12.2019
1857 Clear 23 1016 53 10000 3.6 180 09:49 27.12.2019
1858 Clear 23 1017 60 10000 3.1 160 09:22 27.12.2019
1859 Clear 22 1017 68 10000 2.6 180 08:59 27.12.2019
1860 Clear 22 1017 68 10000 2.6 180 08:40 27.12.2019
1861 Clear 22 1018 68 10000 3.1 190 08:18 27.12.2019
1862 Clear 20 1018 73 10000 3.1 190 07:38 27.12.2019
1863 Clear 18 1018 72 10000 2.6 210 06:43 27.12.2019
1864 Clear 18 1018 64 10000 2.1 190 06:22 27.12.2019
1865 Mist 16 1018 87 6000 1 150 04:33 27.12.2019
1866 Clear 17 1016 72 10000 1.5 220 02:28 27.12.2019
1867 Clear 18 1016 68 10000 1.5 170 01:42 27.12.2019
1868 Clear 18 1016 68 10000 1.5 150 01:20 27.12.2019
1869 Clear 18 1016 68 10000 1 150 00:46 27.12.2019
1870 Clear 18 1017 68 10000 1 120 00:25 27.12.2019
1871 Clear 18 1017 68 10000 1 130 23:54 26.12.2019
1872 Clear 18 1017 68 10000 1 130 23:36 26.12.2019
1873 Clear 18 1017 68 10000 1 130 23:18 26.12.2019
1874 Clear 18 1017 72 10000 1 130 22:38 26.12.2019
1875 Mist 18 1018 77 8000 2.25 167 22:18 26.12.2019
1876 Clear 18 1017 68 10000 1.5 140 21:40 26.12.2019
1877 Clear 18 1017 68 10000 1.5 140 21:21 26.12.2019
1878 Clear 19 1017 68 10000 1.5 120 20:57 26.12.2019
1879 Clear 19 1017 68 10000 1.5 120 20:38 26.12.2019
1880 Clear 19 1017 72 10000 1.5 120 20:19 26.12.2019
1881 Clear 19 1017 64 10000 2.1 140 19:55 26.12.2019
1882 Clear 19 1017 64 10000 2.1 140 19:37 26.12.2019
1883 Clear 19 1017 64 10000 2.1 120 19:19 26.12.2019
1884 Clear 20 1017 64 10000 2.1 120 18:55 26.12.2019
1885 Clear 20 1017 64 10000 2.1 120 18:36 26.12.2019
1886 Clear 20 1017 60 10000 2.1 130 18:18 26.12.2019
1887 Clear 20 1018 60 10000 1.5 120 17:41 26.12.2019
1888 Clear 21 1018 56 10000 1.5 90 17:21 26.12.2019
1889 Clear 21 1018 56 10000 1.5 90 17:21 26.12.2019
1890 Clear 21 1017 60 10000 2.1 100 16:49 26.12.2019
1891 Haze 21 1018 43 9000 0.45 126 16:26 26.12.2019
1892 Clear 22 1017 56 10000 3.1 120 15:57 26.12.2019
1893 Clear 22 1017 56 10000 3.1 120 15:38 26.12.2019
1894 Clear 22 1017 53 10000 3.1 110 15:19 26.12.2019
1895 Clear 23 1016 40 10000 2.1 240 14:41 26.12.2019
1896 Haze 23 1018 38 9000 2.1 280 14:23 26.12.2019
1897 Clear 23 1017 36 10000 4.1 270 13:55 26.12.2019
1898 Clear 23 1017 36 10000 4.1 270 13:36 26.12.2019
1899 Clear 24 1017 38 10000 2.1 0 13:18 26.12.2019
1900 Clear 24 1017 38 10000 3.6 250 12:45 26.12.2019
1901 Haze 24 1018 38 9000 6.2 230 12:25 26.12.2019
1902 Clear 24 1017 38 10000 3.1 190 11:59 26.12.2019
1903 Clear 24 1017 38 10000 3.1 190 11:40 26.12.2019
1904 Clear 24 1017 38 10000 4.1 180 11:21 26.12.2019
1905 Clear 23 1017 38 10000 4.1 200 10:50 26.12.2019
1906 Clear 23 1018 43 10000 4.6 170 10:27 26.12.2019
1907 Clear 23 1018 43 10000 4.1 180 09:59 26.12.2019
1908 Clear 23 1018 43 10000 4.1 180 09:41 26.12.2019
1909 Clear 23 1019 43 10000 4.1 200 09:22 26.12.2019
1910 Clear 22 1019 43 10000 4.1 180 08:40 26.12.2019
1911 Clear 22 1019 43 10000 4.1 180 08:21 26.12.2019
1912 Clear 21 1020 43 10000 3.1 220 07:44 26.12.2019
1913 Clear 21 1020 53 10000 1.5 220 07:24 26.12.2019
1914 Clear 19 1020 60 10000 1.5 0 06:39 26.12.2019
1915 Clear 18 1019 68 10000 1.5 240 06:20 26.12.2019
1916 Clear 16 1019 72 10000 1.5 260 05:43 26.12.2019
1917 Clear 16 1019 77 10000 1.5 250 04:36 26.12.2019
1918 Clear 16 1018 72 10000 1.5 250 03:32 26.12.2019
1919 Clear 16 1018 72 10000 1 0 02:47 26.12.2019
1920 Clear 16 1018 68 10000 1.5 250 02:29 26.12.2019
1921 Clear 16 1018 63 10000 1.5 250 01:44 26.12.2019
1922 Clear 16 1018 63 10000 1 0 01:26 26.12.2019
1923 Clear 17 1018 63 10000 1.5 260 00:47 26.12.2019
1924 Clear 17 1018 63 10000 1 0 00:23 26.12.2019
1925 Clear 17 1018 63 10000 1.5 240 23:58 25.12.2019
1926 Clear 17 1018 63 10000 1.5 240 23:38 25.12.2019
1927 Clear 17 1018 59 10000 1.5 230 23:19 25.12.2019
1928 Clear 18 1018 59 10000 1 0 22:57 25.12.2019
1929 Clear 18 1018 59 10000 1 0 22:37 25.12.2019
1930 Haze 19 1019 77 9000 0.89 290 22:19 25.12.2019
1931 Clear 19 1018 56 10000 1 0 21:57 25.12.2019
1932 Clear 19 1018 56 10000 1 0 21:39 25.12.2019
1933 Clear 19 1018 60 10000 0.5 0 21:19 25.12.2019
1934 Clear 19 1019 63 10000 0.5 0 20:41 25.12.2019
1935 Clear 19 1019 63 10000 0.5 0 20:41 25.12.2019
1936 Clear 19 1019 60 10000 1.5 100 20:21 25.12.2019
1937 Clear 20 1019 56 10000 1.5 80 19:59 25.12.2019
1938 Clear 20 1019 56 10000 1.5 80 19:41 25.12.2019
1939 Clear 20 1019 60 10000 1.5 90 19:22 25.12.2019
1940 Clear 20 1019 56 10000 2.1 100 18:41 25.12.2019
1941 Clear 20 1019 60 10000 1.5 80 18:21 25.12.2019
1942 Clear 20 1019 52 10000 2.1 80 17:59 25.12.2019
1943 Clear 20 1019 52 10000 2.1 80 17:39 25.12.2019
1944 Clouds 20 1019 52 10000 3.1 90 17:18 25.12.2019
1945 Clear 21 1019 52 10000 2.1 80 16:55 25.12.2019
1946 Clear 21 1019 52 10000 2.1 80 16:55 25.12.2019
1947 Clear 21 1019 52 10000 2.1 80 16:36 25.12.2019
1948 Clear 21 1018 49 10000 2.6 80 16:18 25.12.2019
1949 Clouds 22 1018 53 10000 2.1 70 15:56 25.12.2019
1950 Clouds 22 1018 53 10000 2.6 80 15:37 25.12.2019
1951 Clouds 22 1018 53 10000 2.6 80 15:18 25.12.2019
1952 Clouds 22 1018 53 10000 3.1 360 14:54 25.12.2019
1953 Clouds 22 1018 53 10000 3.1 360 14:36 25.12.2019
1954 Haze 23 1019 46 9000 3.1 60 14:18 25.12.2019
1955 Clouds 23 1018 49 10000 4.1 360 13:41 25.12.2019
1956 Clouds 23 1018 46 10000 4.1 10 13:20 25.12.2019
1957 Clouds 24 1018 44 10000 3.6 40 12:44 25.12.2019
1958 Clouds 24 1018 44 10000 3.6 50 12:22 25.12.2019
1959 Clouds 24 1018 44 10000 3.6 50 11:58 25.12.2019
1960 Clouds 24 1018 44 10000 3.6 50 11:40 25.12.2019
1961 Clouds 24 1018 41 10000 4.1 40 11:21 25.12.2019
1962 Clouds 23 1019 44 10000 3.1 50 10:39 25.12.2019
1963 Clouds 23 1019 50 10000 3.6 30 10:21 25.12.2019
1964 Clear 22 1020 49 10000 4.1 10 09:58 25.12.2019
1965 Clear 22 1020 49 10000 4.1 10 09:40 25.12.2019
1966 Clear 22 1020 49 10000 4.1 10 09:40 25.12.2019
1967 Clear 22 1020 56 10000 4.1 350 09:21 25.12.2019
1968 Clear 21 1020 56 10000 5.1 340 08:42 25.12.2019
1969 Mist 21 1022 64 8000 2.6 330 08:23 25.12.2019
1970 Mist 21 1022 64 8000 2.6 330 08:23 25.12.2019
1971 Clear 20 1021 53 10000 4.6 330 07:43 25.12.2019
1972 Clear 20 1021 56 10000 4.1 330 07:22 25.12.2019
1973 Clear 18 1021 64 10000 2.1 310 06:24 25.12.2019
1974 Clear 17 1020 68 10000 2.6 300 05:50 25.12.2019
1975 Clouds 16 1020 77 8000 2.1 300 04:46 25.12.2019
1976 Mist 16 1021 87 4000 2.1 340 04:24 25.12.2019
1977 Clear 17 1019 72 9000 2.1 290 03:44 25.12.2019
1978 Clear 17 1019 72 9000 2.1 290 03:44 25.12.2019
1979 Clear 17 1018 72 9000 2.1 300 02:59 25.12.2019
1980 Clear 17 1018 72 9000 2.6 310 02:30 25.12.2019
1981 Clear 17 1018 72 10000 2.1 300 01:53 25.12.2019
1982 Clear 17 1019 72 10000 2.1 310 01:22 25.12.2019
1983 Clear 17 1019 68 10000 2.1 310 00:45 25.12.2019
1984 Clear 17 1019 68 10000 2.6 300 00:26 25.12.2019
1985 Clear 17 1019 68 10000 3.1 310 23:40 24.12.2019
1986 Clear 17 1019 63 10000 1.5 290 23:20 24.12.2019
1987 Clear 18 1019 59 10000 2.1 300 22:55 24.12.2019
1988 Clear 18 1019 59 10000 2.1 300 22:37 24.12.2019
1989 Clear 18 1019 55 10000 2.1 300 22:19 24.12.2019
1990 Clear 17 1019 55 10000 2.1 310 21:41 24.12.2019
1991 Clear 17 1019 55 10000 2.1 310 21:41 24.12.2019
1992 Clear 17 1019 55 10000 2.1 300 21:22 24.12.2019
1993 Clear 18 1019 59 10000 2.1 300 20:43 24.12.2019
1994 Haze 18 1021 63 9000 2.6 330 20:24 24.12.2019
1995 Clear 18 1019 59 10000 2.6 310 19:57 24.12.2019
1996 Clear 18 1019 59 10000 2.6 310 19:37 24.12.2019
1997 Clear 18 1020 56 10000 2.6 310 19:18 24.12.2019
1998 Clear 19 1020 60 10000 2.6 320 18:42 24.12.2019
1999 Clear 19 1020 60 10000 3.1 310 18:19 24.12.2019
2000 Clear 19 1020 60 10000 3.1 320 17:45 24.12.2019
2001 Clear 19 1019 60 10000 4.1 330 17:23 24.12.2019
2002 Clear 20 1019 64 10000 3.6 340 16:59 24.12.2019
2003 Clear 20 1019 64 10000 3.6 340 16:59 24.12.2019
2004 Clear 20 1019 64 10000 3.6 340 16:40 24.12.2019
2005 Clear 20 1019 64 10000 3.6 350 16:22 24.12.2019
2006 Clear 21 1019 64 10000 3.6 360 15:58 24.12.2019
2007 Clear 21 1019 64 10000 3.6 360 15:58 24.12.2019
2008 Clear 21 1019 64 10000 3.6 360 15:38 24.12.2019
2009 Haze 21 1020 49 9000 3.1 310 15:20 24.12.2019
2010 Clear 21 1019 64 10000 4.1 10 14:59 24.12.2019
2011 Clear 21 1019 64 10000 4.1 10 14:40 24.12.2019
2012 Haze 22 1020 46 9000 3.1 330 14:22 24.12.2019
2013 Clouds 22 1018 56 10000 4.1 20 13:57 24.12.2019
2014 Clouds 22 1018 56 10000 4.1 20 13:39 24.12.2019
2015 Clouds 22 1019 60 10000 4.6 10 13:20 24.12.2019
2016 Clouds 22 1018 49 10000 5.1 360 12:57 24.12.2019
2017 Clouds 22 1018 49 10000 5.1 360 12:38 24.12.2019
2018 Clouds 22 1018 49 10000 5.1 360 12:38 24.12.2019
2019 Haze 22 1020 46 9000 3.1 340 12:19 24.12.2019
2020 Haze 22 1020 46 9000 3.1 340 12:19 24.12.2019
2021 Clouds 22 1019 49 10000 5.1 360 11:58 24.12.2019
2022 Clouds 22 1019 49 10000 5.1 350 11:38 24.12.2019
2023 Clouds 22 1019 49 10000 5.1 360 11:38 24.12.2019
2024 Clouds 22 1019 49 10000 5.1 350 11:20 24.12.2019
2025 Clear 22 1019 46 10000 3.6 310 10:57 24.12.2019
2026 Clear 22 1020 43 10000 4.1 300 10:38 24.12.2019
2027 Clear 22 1020 43 10000 4.1 300 10:20 24.12.2019
2028 Clear 22 1020 43 10000 3.6 330 09:58 24.12.2019
2029 Clear 22 1021 49 10000 3.1 310 09:40 24.12.2019
2030 Clear 22 1021 49 10000 3.1 310 09:21 24.12.2019
2031 Clear 21 1021 49 10000 3.6 290 08:47 24.12.2019
2032 Clear 20 1021 52 10000 4.1 290 08:25 24.12.2019
2033 Clear 19 1021 52 9000 4.1 290 07:59 24.12.2019
2034 Clear 19 1021 52 9000 4.1 290 07:39 24.12.2019
2035 Clear 18 1021 52 7000 3.1 290 07:21 24.12.2019
2036 Clear 18 1021 60 7000 3.6 300 06:40 24.12.2019
2037 Mist 17 1022 77 8000 4.6 320 06:22 24.12.2019
2038 Clear 17 1021 68 7000 2.6 290 05:55 24.12.2019
2039 Clear 17 1020 72 7000 3.1 300 05:19 24.12.2019
2040 Clear 17 1020 68 8000 2.6 290 04:21 24.12.2019
2041 Clear 17 1019 68 9000 3.1 300 03:48 24.12.2019
2042 Clear 17 1018 68 10000 3.1 300 02:29 24.12.2019
2043 Clouds 17 1018 63 10000 2.6 290 01:57 24.12.2019
2044 Clear 17 1018 63 10000 2.1 300 01:27 24.12.2019
2045 Clear 17 1018 63 10000 2.6 310 00:58 24.12.2019
2046 Clear 17 1018 63 10000 2.6 310 00:40 24.12.2019
2047 Clear 17 1018 68 10000 2.6 290 00:20 24.12.2019
2048 Clear 17 1018 63 10000 3.1 310 23:43 23.12.2019
2049 Clear 17 1018 63 10000 3.1 310 23:24 23.12.2019
2050 Clear 17 1018 63 10000 3.6 310 22:57 23.12.2019
2051 Clear 17 1018 63 10000 3.6 310 22:38 23.12.2019
2052 Clear 17 1018 63 10000 3.6 310 22:38 23.12.2019
2053 Clear 17 1018 63 10000 3.6 310 22:20 23.12.2019
2054 Clear 17 1018 59 10000 3.1 310 21:57 23.12.2019
2055 Clear 17 1018 59 10000 3.1 310 21:57 23.12.2019
2056 Clear 17 1018 59 10000 3.6 310 21:37 23.12.2019
2057 Clear 17 1018 59 10000 3.6 310 21:19 23.12.2019
2058 Clear 18 1018 55 10000 3.6 310 20:59 23.12.2019
2059 Clear 18 1018 55 10000 3.6 310 20:41 23.12.2019
2060 Clouds 18 1019 55 10000 3.6 300 20:19 23.12.2019
2061 Clouds 18 1019 55 10000 3.6 300 20:19 23.12.2019
2062 Clouds 18 1019 55 10000 3.1 290 19:59 23.12.2019
2063 Clouds 18 1019 55 10000 3.1 290 19:40 23.12.2019
2064 Clouds 18 1019 55 10000 3.1 290 19:40 23.12.2019
2065 Clouds 18 1019 55 10000 3.1 290 19:21 23.12.2019
2066 Clouds 19 1019 55 10000 4.1 300 18:58 23.12.2019
2067 Clouds 19 1019 55 10000 4.1 300 18:39 23.12.2019
2068 Clouds 19 1019 55 10000 4.1 310 18:21 23.12.2019
2069 Clouds 19 1019 55 10000 3.6 310 17:59 23.12.2019
2070 Clouds 19 1019 55 10000 3.6 310 17:40 23.12.2019
2071 Haze 19 1020 59 9000 3.1 320 17:19 23.12.2019
2072 Clouds 20 1018 52 10000 4.1 310 16:58 23.12.2019
2073 Clouds 20 1018 52 10000 4.1 310 16:40 23.12.2019
2074 Clouds 20 1018 52 10000 4.1 310 16:19 23.12.2019
2075 Clouds 20 1018 52 10000 4.1 310 16:19 23.12.2019
2076 Clouds 20 1018 52 10000 4.6 320 15:57 23.12.2019
2077 Clouds 20 1018 52 10000 4.6 320 15:57 23.12.2019
2078 Clouds 20 1018 52 10000 4.6 320 15:37 23.12.2019
2079 Clouds 20 1018 52 10000 4.1 320 15:19 23.12.2019
2080 Clouds 21 1018 49 10000 4.6 310 14:56 23.12.2019
2081 Clouds 21 1018 49 10000 4.6 310 14:38 23.12.2019
2082 Haze 22 1019 46 9000 6.2 330 14:19 23.12.2019
2083 Clouds 22 1017 49 10000 4.6 310 13:56 23.12.2019
2084 Clouds 22 1017 49 10000 4.6 310 13:38 23.12.2019
2085 Clouds 22 1018 49 10000 4.6 320 13:20 23.12.2019
2086 Clouds 22 1017 53 10000 5.7 330 12:55 23.12.2019
2087 Clouds 22 1017 53 10000 5.7 330 12:36 23.12.2019
2088 Haze 22 1019 46 9000 6.2 340 12:18 23.12.2019
2089 Clouds 22 1018 53 10000 5.1 320 11:42 23.12.2019
2090 Clouds 22 1018 53 10000 5.1 320 11:42 23.12.2019
2091 Clouds 22 1018 49 10000 5.1 330 11:24 23.12.2019
2092 Clouds 22 1018 46 10000 4.6 310 10:56 23.12.2019
2093 Clouds 22 1018 46 10000 4.6 310 10:38 23.12.2019
2094 Haze 22 1020 46 9000 5.1 340 10:20 23.12.2019
2095 Clouds 22 1019 49 10000 5.1 320 09:58 23.12.2019
2096 Clouds 22 1019 49 10000 5.1 320 09:39 23.12.2019
2097 Clouds 23 1020 46 10000 5.1 310 09:19 23.12.2019
2098 Clouds 21 1020 53 10000 5.1 300 08:55 23.12.2019
2099 Clouds 21 1020 53 10000 5.1 300 08:37 23.12.2019
2100 Clear 21 1021 53 10000 5.7 300 08:18 23.12.2019
2101 Clear 20 1021 60 10000 5.1 310 07:42 23.12.2019
2102 Clear 20 1021 60 9000 4.6 300 07:19 23.12.2019
2103 Clouds 19 1021 68 8000 3.1 300 06:45 23.12.2019
2104 Clouds 18 1021 72 7000 3.1 300 06:23 23.12.2019
2105 Clouds 18 1020 72 8000 2.6 300 05:47 23.12.2019
2106 Clouds 18 1020 72 8000 3.1 300 05:18 23.12.2019
2107 Clear 18 1020 77 10000 3.1 310 04:19 23.12.2019
2108 Clear 18 1019 72 10000 3.6 300 02:48 23.12.2019
2109 Clear 17 1019 77 10000 3.1 310 02:20 23.12.2019
2110 Clear 17 1019 77 10000 3.6 310 01:51 23.12.2019
2111 Clear 17 1019 77 10000 3.6 310 01:32 23.12.2019
2112 Clear 17 1019 77 10000 3.6 310 01:32 23.12.2019
2113 Clear 18 1019 72 10000 3.1 300 00:54 23.12.2019
2114 Clear 18 1019 72 10000 3.1 300 00:35 23.12.2019
2115 Clear 18 1019 68 10000 3.6 310 23:57 22.12.2019
2116 Clear 18 1019 68 10000 3.6 310 23:38 22.12.2019
2117 Clear 18 1020 68 10000 4.1 310 23:20 22.12.2019
2118 Clear 18 1020 68 10000 4.1 310 22:57 22.12.2019
2119 Clear 18 1020 68 10000 4.1 310 22:38 22.12.2019
2120 Clear 18 1020 68 10000 4.1 310 22:19 22.12.2019
2121 Clear 19 1020 68 10000 3.6 310 21:56 22.12.2019
2122 Clear 19 1020 68 10000 3.6 310 21:38 22.12.2019
2123 Clear 19 1020 68 10000 3.6 310 21:20 22.12.2019
2124 Clear 19 1020 68 10000 3.1 310 20:43 22.12.2019
2125 Clear 19 1020 64 10000 3.6 310 20:20 22.12.2019
2126 Clear 19 1020 68 10000 3.1 320 19:58 22.12.2019
2127 Clear 19 1020 68 10000 3.1 320 19:40 22.12.2019
2128 Clear 19 1020 64 10000 3.6 320 19:20 22.12.2019
2129 Clear 19 1020 64 10000 3.1 320 18:58 22.12.2019
2130 Clear 19 1020 64 10000 3.1 320 18:38 22.12.2019
2131 Clear 19 1020 64 10000 4.1 330 18:19 22.12.2019
2132 Clear 19 1021 68 10000 4.1 320 17:55 22.12.2019
2133 Clouds 19 1020 68 10000 5.1 330 17:37 22.12.2019
2134 Clouds 19 1020 68 10000 5.1 330 17:18 22.12.2019
2135 Clouds 21 1020 64 10000 2.6 330 16:42 22.12.2019
2136 Clouds 20 1020 60 10000 2.1 340 16:23 22.12.2019
2137 Clouds 21 1019 52 10000 2.1 360 15:58 22.12.2019
2138 Clouds 21 1019 52 10000 2.1 360 15:39 22.12.2019
2139 Clouds 22 1019 43 10000 2.1 10 15:21 22.12.2019
2140 Clouds 22 1019 40 10000 2.1 10 14:59 22.12.2019
2141 Clouds 22 1019 40 10000 2.1 10 14:38 22.12.2019
2142 Haze 22 1020 60 9000 6.2 310 14:19 22.12.2019
2143 Clouds 23 1019 35 10000 3.6 360 13:56 22.12.2019
2144 Clouds 23 1019 35 10000 3.6 360 13:38 22.12.2019
2145 Clouds 23 1019 35 10000 3.6 360 13:38 22.12.2019
2146 Clouds 23 1019 38 10000 3.6 10 13:19 22.12.2019
2147 Clouds 23 1019 35 10000 3.6 10 12:57 22.12.2019
2148 Clouds 23 1019 35 10000 3.6 10 12:57 22.12.2019
2149 Clouds 23 1019 35 10000 3.6 10 12:38 22.12.2019
2150 Haze 23 1020 49 9000 7.7 340 12:19 22.12.2019
2151 Haze 23 1020 49 9000 7.7 340 12:19 22.12.2019
2152 Haze 23 1020 49 9000 7.7 340 12:19 22.12.2019
2153 Clouds 23 1019 40 10000 4.1 350 11:58 22.12.2019
2154 Clouds 23 1019 40 10000 4.1 350 11:39 22.12.2019
2155 Clouds 23 1019 46 10000 4.6 340 11:20 22.12.2019
2156 Clouds 23 1020 41 10000 3.1 330 10:57 22.12.2019
2157 Clouds 23 1020 41 10000 3.1 330 10:39 22.12.2019
2158 Clouds 22 1020 46 10000 3.6 330 10:19 22.12.2019
2159 Clouds 22 1021 46 10000 4.1 320 09:58 22.12.2019
2160 Clouds 22 1021 46 10000 4.1 320 09:39 22.12.2019
2161 Clouds 21 1022 56 10000 4.6 310 09:21 22.12.2019
2162 Clouds 21 1022 56 10000 4.6 310 08:45 22.12.2019
2163 Haze 20 1024 68 9000 7.2 310 08:23 22.12.2019
2164 Clouds 20 1022 56 10000 4.1 300 07:50 22.12.2019
2165 Haze 19 1024 72 9000 7.2 300 07:22 22.12.2019
2166 Clouds 19 1022 64 9000 3.1 300 06:56 22.12.2019
2167 Mist 18 1023 68 8000 6.2 300 06:27 22.12.2019
2168 Clouds 18 1022 68 9000 3.1 300 05:41 22.12.2019
2169 Mist 17 1023 82 6000 4.6 300 05:20 22.12.2019
2170 Mist 17 1022 82 8000 3.6 320 04:26 22.12.2019
2171 Clear 18 1020 72 10000 3.1 300 02:56 22.12.2019
2172 Clear 18 1020 72 10000 4.1 300 02:34 22.12.2019
2173 Mist 17 1019 77 9000 6.2 320 01:32 22.12.2019
2174 Clear 17 1020 72 10000 4.6 300 00:57 22.12.2019
2175 Clear 17 1020 72 10000 4.6 300 00:38 22.12.2019
2176 Mist 17 1021 77 8000 4.1 330 00:20 22.12.2019
2177 Clear 17 1020 77 10000 4.1 300 23:41 21.12.2019
2178 Mist 18 1021 77 8000 4.1 320 23:22 21.12.2019
2179 Clear 18 1020 72 10000 3.6 300 22:57 21.12.2019
2180 Clear 18 1020 72 10000 3.6 300 22:39 21.12.2019
2181 Mist 18 1022 82 8000 3.1 320 22:18 21.12.2019
2182 Clear 18 1020 72 10000 3.1 290 21:56 21.12.2019
2183 Clear 18 1020 72 10000 3.1 290 21:37 21.12.2019
2184 Clear 19 1021 72 10000 3.6 290 21:18 21.12.2019
2185 Clear 18 1021 72 10000 3.6 290 20:57 21.12.2019
2186 Mist 17 1022 82 8000 6.2 320 20:37 21.12.2019
2187 Mist 17 1022 82 8000 6.2 320 20:37 21.12.2019
2188 Mist 19 1022 82 8000 6.2 320 20:19 21.12.2019
2189 Clear 19 1021 68 10000 3.6 300 19:56 21.12.2019
2190 Clear 19 1021 68 10000 3.6 300 19:36 21.12.2019
2191 Mist 19 1022 82 8000 4.6 320 19:18 21.12.2019
2192 Clear 19 1021 68 10000 4.1 310 18:42 21.12.2019
2193 Mist 19 1022 77 8000 3.6 340 18:23 21.12.2019
2194 Clear 19 1021 68 10000 3.6 320 17:57 21.12.2019
2195 Clear 19 1021 68 10000 3.6 320 17:39 21.12.2019
2196 Mist 20 1022 77 9000 4.1 340 17:20 21.12.2019
2197 Clear 21 1021 60 10000 4.6 330 16:57 21.12.2019
2198 Clear 21 1021 60 10000 4.6 330 16:39 21.12.2019
2199 Haze 21 1022 68 9000 7.2 340 16:18 21.12.2019
2200 Haze 20 1022 64 9000 4.6 340 15:56 21.12.2019
2201 Haze 20 1022 64 9000 4.6 340 15:37 21.12.2019
2202 Clouds 22 1020 56 10000 5.7 350 15:18 21.12.2019
2203 Clouds 22 1020 56 10000 5.7 350 14:42 21.12.2019
2204 Clouds 23 1020 43 10000 4.6 360 14:23 21.12.2019
2205 Clouds 23 1020 43 10000 4.6 360 13:58 21.12.2019
2206 Clouds 23 1020 43 10000 4.6 360 13:58 21.12.2019
2207 Clouds 23 1020 43 10000 4.6 360 13:40 21.12.2019
2208 Haze 23 1021 49 9000 7.2 340 13:19 21.12.2019
2209 Clouds 23 1020 44 10000 5.7 350 12:57 21.12.2019
2210 Clouds 23 1020 44 10000 5.7 350 12:38 21.12.2019
2211 Haze 23 1021 49 9000 6.2 340 12:20 21.12.2019
2212 Clouds 23 1020 49 10000 6.2 350 11:55 21.12.2019
2213 Clouds 23 1020 49 10000 6.2 350 11:37 21.12.2019
2214 Haze 22 1021 53 9000 5.7 340 11:19 21.12.2019
2215 Clouds 22 1021 49 10000 4.6 330 10:41 21.12.2019
2216 Haze 22 1022 56 9000 6.7 340 10:22 21.12.2019
2217 Clear 22 1022 56 10000 5.1 310 09:58 21.12.2019
2218 Clear 22 1022 56 10000 5.1 310 09:39 21.12.2019
2219 Clear 21 1023 60 10000 4.1 290 09:19 21.12.2019
2220 Clear 21 1023 60 10000 4.1 290 08:51 21.12.2019
2221 Haze 20 1024 72 9000 4.6 310 08:27 21.12.2019
2222 Clear 20 1023 64 10000 4.6 290 07:58 21.12.2019
2223 Clear 20 1023 64 10000 4.6 290 07:58 21.12.2019
2224 Clear 20 1023 64 10000 4.6 290 07:39 21.12.2019
2225 Mist 19 1025 77 8000 4.6 310 07:20 21.12.2019
2226 Clear 19 1023 72 8000 3.1 280 06:40 21.12.2019
2227 Mist 17 1024 88 5000 3.6 300 06:22 21.12.2019
2228 Mist 17 1023 87 3200 5.64 298 05:25 21.12.2019
2229 Clouds 17 1021 82 7000 2.1 270 04:55 21.12.2019
2230 Clouds 17 1021 82 7000 2.6 280 03:56 21.12.2019
2231 Mist 17 1022 93 4000 3.1 310 02:25 21.12.2019
2232 Clouds 17 1021 82 7000 2.6 280 01:50 21.12.2019
2233 Mist 17 1022 87 4000 3.1 320 01:25 21.12.2019
2234 Clear 17 1021 82 7000 3.6 300 00:48 21.12.2019
2235 Mist 17 1022 93 3200 3.1 310 00:28 21.12.2019
2236 Clear 17 1021 88 8000 3.6 310 23:39 20.12.2019
2237 Clear 17 1021 88 8000 3.6 310 23:39 20.12.2019
2238 Mist 18 1022 93 4000 3.6 320 23:21 20.12.2019
2239 Clear 18 1021 82 10000 3.6 310 22:59 20.12.2019
2240 Clear 18 1021 82 10000 3.6 310 22:39 20.12.2019
2241 Mist 18 1022 93 3200 2.6 330 22:19 20.12.2019
2242 Clear 18 1021 82 10000 3.6 310 21:42 20.12.2019
2243 Mist 19 1022 93 6000 3.1 330 21:21 20.12.2019
2244 Clear 19 1021 72 10000 3.1 310 20:59 20.12.2019
2245 Clear 19 1021 72 10000 3.1 310 20:38 20.12.2019
2246 Clear 19 1021 72 10000 3.1 310 20:38 20.12.2019
2247 Mist 19 1023 93 6000 3.6 330 20:19 20.12.2019
2248 Clear 19 1021 72 10000 2.6 320 19:56 20.12.2019
2249 Clear 19 1021 72 10000 2.6 320 19:38 20.12.2019
2250 Mist 19 1023 93 6000 3.1 340 19:18 20.12.2019
2251 Clear 19 1021 72 10000 4.1 320 18:41 20.12.2019
2252 Haze 19 1022 88 9000 3.1 340 18:23 20.12.2019
2253 Clear 20 1021 68 10000 4.6 330 17:58 20.12.2019
2254 Clear 20 1021 68 10000 4.6 330 17:40 20.12.2019
2255 Clear 20 1021 68 10000 4.6 330 17:20 20.12.2019
2256 Clear 20 1021 64 10000 5.1 330 16:57 20.12.2019
2257 Clear 20 1021 64 10000 5.1 330 16:38 20.12.2019
2258 Clear 20 1021 64 10000 5.1 330 16:19 20.12.2019
2259 Clouds 21 1020 56 10000 6.2 330 15:55 20.12.2019
2260 Clouds 21 1020 56 10000 6.2 330 15:37 20.12.2019
2261 Clouds 21 1020 56 10000 6.2 330 15:37 20.12.2019
2262 Clouds 21 1020 56 10000 6.2 330 15:19 20.12.2019
2263 Clouds 22 1019 53 10000 7.2 340 14:43 20.12.2019
2264 Clouds 22 1019 53 10000 7.2 340 14:24 20.12.2019
2265 Clouds 23 1019 49 10000 7.7 340 13:57 20.12.2019
2266 Clouds 23 1019 53 10000 8.2 350 13:38 20.12.2019
2267 Clouds 23 1019 53 10000 8.2 350 13:19 20.12.2019
2268 Clouds 23 1019 50 10000 5.7 330 12:57 20.12.2019
2269 Clouds 23 1019 50 10000 5.1 320 12:37 20.12.2019
2270 Clouds 23 1019 50 10000 5.1 320 12:18 20.12.2019
2271 Clouds 22 1019 53 10000 6.2 330 11:57 20.12.2019
2272 Clouds 22 1019 60 10000 5.1 320 11:39 20.12.2019
2273 Clouds 22 1019 60 10000 5.1 320 11:18 20.12.2019
2274 Clouds 22 1019 60 10000 5.1 320 11:18 20.12.2019
2275 Clouds 22 1020 60 10000 5.7 320 10:56 20.12.2019
2276 Clouds 22 1021 64 10000 4.6 310 10:38 20.12.2019
2277 Clouds 22 1021 64 10000 4.6 310 10:19 20.12.2019
2278 Clear 21 1021 64 10000 5.7 300 09:43 20.12.2019
2279 Clear 21 1022 64 10000 4.6 300 09:21 20.12.2019
2280 Clear 20 1022 68 10000 5.1 290 08:57 20.12.2019
2281 Clear 20 1023 68 10000 6.2 290 08:38 20.12.2019
2282 Clear 20 1023 68 10000 6.2 290 08:20 20.12.2019
2283 Clear 20 1023 68 10000 6.2 290 08:20 20.12.2019
2284 Clear 19 1023 68 10000 4.6 290 07:57 20.12.2019
2285 Clear 18 1023 68 10000 4.6 290 07:37 20.12.2019
2286 Clear 18 1023 68 10000 4.6 290 07:18 20.12.2019
2287 Clear 17 1023 68 10000 4.1 280 06:44 20.12.2019
2288 Clear 17 1023 68 10000 4.1 280 06:26 20.12.2019
2289 Clear 16 1022 68 10000 4.1 280 05:47 20.12.2019
2290 Clear 16 1022 72 10000 4.1 280 05:18 20.12.2019
2291 Clear 16 1021 72 9000 3.6 290 03:49 20.12.2019
2292 Clear 16 1021 72 9000 4.1 290 03:20 20.12.2019
2293 Clear 16 1021 72 9000 4.6 290 02:20 20.12.2019
2294 Clear 16 1021 72 9000 4.6 290 01:36 20.12.2019
2295 Clear 17 1021 72 9000 4.6 300 00:57 20.12.2019
2296 Clear 17 1021 72 9000 4.6 290 00:35 20.12.2019
2297 Clear 17 1021 77 9000 5.7 290 23:58 19.12.2019
2298 Clear 17 1021 77 9000 5.7 290 23:58 19.12.2019
2299 Clear 17 1021 72 9000 5.7 300 23:40 19.12.2019
2300 Clear 17 1021 72 9000 5.7 300 23:21 19.12.2019
2301 Clear 18 1021 72 9000 6.2 290 22:40 19.12.2019
2302 Clear 18 1021 72 9000 6.2 290 22:22 19.12.2019
2303 Clear 18 1021 77 9000 6.2 300 21:59 19.12.2019
2304 Clear 18 1021 77 9000 5.7 300 21:41 19.12.2019
2305 Clear 18 1021 77 9000 5.7 300 21:19 19.12.2019
2306 Clear 18 1021 77 9000 5.7 300 20:57 19.12.2019
2307 Clear 18 1022 77 9000 5.7 300 20:38 19.12.2019
2308 Clear 18 1022 77 9000 5.7 300 20:20 19.12.2019
2309 Clear 18 1022 77 9000 4.6 290 19:58 19.12.2019
2310 Clear 18 1022 77 9000 4.1 290 19:40 19.12.2019
2311 Clear 18 1022 77 9000 4.1 290 19:40 19.12.2019
2312 Clear 18 1022 77 9000 4.1 290 19:19 19.12.2019
2313 Clear 18 1022 77 9000 4.1 290 19:19 19.12.2019
2314 Clear 18 1022 77 9000 4.1 290 19:19 19.12.2019
2315 Clear 18 1022 72 10000 4.6 300 18:58 19.12.2019
2316 Clear 18 1022 72 10000 5.1 290 18:40 19.12.2019
2317 Clear 18 1022 72 10000 5.1 290 18:20 19.12.2019
2318 Clear 19 1022 72 10000 5.1 300 17:56 19.12.2019
2319 Clear 19 1022 72 10000 4.6 300 17:38 19.12.2019
2320 Clear 19 1022 72 10000 4.6 300 17:18 19.12.2019
2321 Clear 19 1022 72 10000 5.1 300 16:56 19.12.2019
2322 Clear 19 1022 72 10000 5.7 310 16:37 19.12.2019
2323 Clear 19 1022 72 10000 5.7 310 16:37 19.12.2019
2324 Clear 19 1022 72 10000 5.7 310 16:19 19.12.2019
2325 Clouds 20 1021 72 10000 5.7 310 15:57 19.12.2019
2326 Clouds 20 1021 72 10000 5.7 310 15:57 19.12.2019
2327 Clouds 20 1021 68 9000 5.1 310 15:37 19.12.2019
2328 Clouds 20 1021 68 9000 5.1 310 15:19 19.12.2019
2329 Clouds 20 1021 64 10000 5.1 310 14:54 19.12.2019
2330 Clouds 20 1021 64 10000 6.2 310 14:36 19.12.2019
2331 Clouds 20 1021 64 10000 6.2 310 14:18 19.12.2019
2332 Clouds 21 1020 56 10000 5.1 310 13:38 19.12.2019
2333 Clouds 21 1020 56 10000 5.1 310 13:38 19.12.2019
2334 Clouds 21 1020 56 10000 5.1 310 13:20 19.12.2019
2335 Clouds 21 1020 60 10000 6.7 320 12:58 19.12.2019
2336 Clouds 21 1021 60 10000 5.1 310 12:40 19.12.2019
2337 Clouds 21 1021 60 10000 5.1 310 12:19 19.12.2019
2338 Clouds 21 1021 60 10000 5.1 310 12:19 19.12.2019
2339 Clouds 21 1021 60 10000 5.1 310 12:19 19.12.2019
2340 Clouds 21 1021 60 10000 6.2 310 11:59 19.12.2019
2341 Clouds 21 1021 64 10000 5.1 310 11:40 19.12.2019
2342 Clouds 21 1021 64 10000 5.1 310 11:18 19.12.2019
2343 Clouds 21 1021 64 10000 5.7 310 10:58 19.12.2019
2344 Clouds 21 1021 64 10000 5.7 310 10:58 19.12.2019
2345 Clouds 21 1022 64 10000 6.2 300 10:38 19.12.2019
2346 Clouds 21 1022 64 10000 6.2 300 10:20 19.12.2019
2347 Clear 21 1022 60 10000 5.1 300 09:56 19.12.2019
2348 Clear 21 1023 64 10000 4.6 300 09:37 19.12.2019
2349 Clear 20 1023 64 10000 4.6 300 09:19 19.12.2019
2350 Clear 20 1023 68 10000 5.1 310 08:55 19.12.2019
2351 Clear 20 1023 68 10000 4.6 300 08:36 19.12.2019
2352 Clouds 20 1023 68 10000 4.6 300 08:18 19.12.2019
2353 Clouds 19 1024 68 10000 4.6 300 07:40 19.12.2019
2354 Clouds 19 1024 68 10000 4.6 300 07:22 19.12.2019
2355 Clouds 18 1024 72 10000 4.6 300 06:58 19.12.2019
2356 Clouds 18 1023 77 10000 5.1 300 06:39 19.12.2019
2357 Clouds 18 1023 77 10000 5.1 300 06:21 19.12.2019
2358 Clouds 17 1023 77 10000 4.6 290 05:42 19.12.2019
2359 Clouds 17 1023 77 10000 4.6 290 05:19 19.12.2019
2360 Clouds 17 1022 77 10000 4.6 300 03:51 19.12.2019
2361 Clouds 17 1021 77 10000 5.1 300 02:28 19.12.2019
2362 Clouds 17 1022 77 10000 4.6 290 01:24 19.12.2019
2363 Clouds 18 1021 77 10000 4.6 290 00:57 19.12.2019
2364 Clouds 18 1021 77 10000 4.6 300 00:38 19.12.2019
2365 Clouds 18 1021 77 10000 4.6 300 00:19 19.12.2019
2366 Clouds 18 1021 77 10000 4.6 300 00:19 19.12.2019
2367 Clouds 18 1021 77 10000 3.6 290 23:44 18.12.2019
2368 Clouds 18 1021 77 10000 4.6 290 23:19 18.12.2019
2369 Clouds 18 1022 77 10000 4.1 290 22:56 18.12.2019
2370 Clouds 18 1021 77 10000 4.1 290 22:38 18.12.2019
2371 Clouds 18 1021 77 10000 4.1 290 22:20 18.12.2019
2372 Clouds 18 1021 77 10000 4.1 290 21:58 18.12.2019
2373 Clouds 18 1021 72 10000 3.6 300 21:39 18.12.2019
2374 Clouds 18 1021 72 10000 3.6 300 21:39 18.12.2019
2375 Clouds 18 1021 72 10000 3.6 300 21:20 18.12.2019
2376 Clouds 18 1022 72 10000 3.6 300 20:57 18.12.2019
2377 Clouds 18 1022 72 10000 5.1 300 20:38 18.12.2019
2378 Clouds 18 1022 72 10000 5.1 300 20:20 18.12.2019
2379 Clouds 18 1022 72 10000 4.6 300 19:56 18.12.2019
2380 Clouds 18 1022 72 10000 4.6 300 19:38 18.12.2019
2381 Clouds 18 1022 72 10000 4.6 300 19:38 18.12.2019
2382 Clouds 18 1022 72 10000 4.6 300 19:18 18.12.2019
2383 Clouds 18 1021 72 10000 4.6 310 18:54 18.12.2019
2384 Clouds 18 1022 77 10000 4.6 310 18:36 18.12.2019
2385 Clouds 18 1022 77 10000 4.6 310 18:18 18.12.2019
2386 Clouds 19 1022 77 10000 4.6 300 17:55 18.12.2019
2387 Clouds 19 1022 77 10000 4.6 310 17:37 18.12.2019
2388 Clouds 19 1022 77 10000 4.6 310 17:18 18.12.2019
2389 Clouds 19 1021 77 10000 4.6 310 16:42 18.12.2019
2390 Clouds 19 1021 77 10000 4.1 310 16:23 18.12.2019
2391 Clouds 19 1021 77 10000 3.6 310 15:57 18.12.2019
2392 Clouds 19 1021 77 10000 3.6 310 15:39 18.12.2019
2393 Clouds 19 1021 77 10000 4.1 310 15:21 18.12.2019
2394 Clouds 19 1020 77 10000 4.1 310 14:56 18.12.2019
2395 Clouds 19 1020 77 10000 4.1 310 14:36 18.12.2019
2396 Clouds 19 1020 72 10000 4.6 320 14:18 18.12.2019
2397 Clouds 19 1020 77 10000 4.6 310 13:54 18.12.2019
2398 Clouds 19 1020 77 10000 4.6 310 13:36 18.12.2019
2399 Rain 18 1020 77 10000 4.6 310 13:18 18.12.2019
2400 Rain 18 1020 77 10000 4.6 310 13:18 18.12.2019
2401 Rain 18 1020 77 10000 4.1 300 12:40 18.12.2019
2402 Rain 18 1020 72 10000 4.6 300 12:21 18.12.2019
2403 Rain 19 1020 77 9000 5.1 310 11:57 18.12.2019
2404 Rain 19 1020 77 9000 5.1 310 11:39 18.12.2019
2405 Clouds 19 1020 77 10000 4.6 310 11:20 18.12.2019
2406 Rain 19 1020 72 9000 4.6 310 10:58 18.12.2019
2407 Rain 19 1020 72 9000 4.6 310 10:39 18.12.2019
2408 Clouds 19 1020 72 10000 5.1 310 10:20 18.12.2019
2409 Clouds 19 1021 72 10000 5.1 310 09:57 18.12.2019
2410 Clouds 19 1021 72 10000 4.6 310 09:20 18.12.2019
2411 Clouds 19 1022 77 10000 4.6 310 08:43 18.12.2019
2412 Clouds 19 1022 72 10000 5.7 310 08:24 18.12.2019
2413 Clouds 19 1022 72 10000 5.7 300 07:57 18.12.2019
2414 Clouds 19 1022 72 10000 5.7 300 07:39 18.12.2019
2415 Rain 20 1023 72 10000 5.1 300 07:20 18.12.2019
2416 Rain 19 1022 77 10000 4.6 300 06:52 18.12.2019
2417 Rain 19 1021 72 10000 4.1 310 06:24 18.12.2019
2418 Rain 19 1021 77 5000 5.1 320 05:35 18.12.2019
2419 Rain 19 1021 77 5000 5.1 320 05:35 18.12.2019
2420 Rain 19 1020 82 10000 5.7 310 03:49 18.12.2019
2421 Clouds 20 1019 77 10000 5.1 320 02:46 18.12.2019
2422 Clouds 20 1019 77 10000 4.6 320 02:27 18.12.2019
2423 Clouds 20 1019 77 10000 6.7 320 01:44 18.12.2019
2424 Clouds 20 1019 77 10000 7.7 320 01:25 18.12.2019
2425 Clouds 20 1019 73 10000 7.2 330 00:42 18.12.2019
2426 Clouds 20 1019 77 10000 7.2 320 00:24 18.12.2019
2427 Clouds 20 1019 73 10000 6.7 310 23:59 17.12.2019
2428 Clouds 20 1019 73 10000 6.7 310 23:59 17.12.2019
2429 Clouds 20 1019 73 10000 6.7 310 23:59 17.12.2019
2430 Rain 20 1019 73 10000 6.2 310 23:40 17.12.2019
2431 Rain 20 1019 73 10000 6.2 310 23:21 17.12.2019
2432 Clouds 21 1019 73 10000 5.7 330 22:57 17.12.2019
2433 Clouds 21 1019 73 10000 5.7 330 22:39 17.12.2019
2434 Clouds 21 1019 73 10000 6.2 310 22:19 17.12.2019
2435 Clouds 21 1019 73 10000 6.7 310 21:57 17.12.2019
2436 Rain 21 1019 77 10000 7.2 320 21:38 17.12.2019
2437 Rain 21 1019 77 10000 7.2 320 21:20 17.12.2019
2438 Clouds 21 1019 77 10000 5.7 310 20:59 17.12.2019
2439 Clouds 21 1019 77 10000 6.2 320 20:39 17.12.2019
2440 Clouds 21 1019 77 10000 6.2 320 20:19 17.12.2019
2441 Rain 21 1019 83 10000 5.7 320 19:57 17.12.2019
2442 Rain 21 1019 83 10000 5.7 320 19:39 17.12.2019
2443 Rain 21 1019 83 8000 6.2 320 19:19 17.12.2019
2444 Rain 21 1019 77 9000 5.7 320 18:57 17.12.2019
2445 Rain 21 1019 77 9000 5.7 320 18:57 17.12.2019
2446 Clouds 21 1019 73 10000 6.2 320 18:37 17.12.2019
2447 Clouds 21 1019 73 10000 6.2 320 18:19 17.12.2019
2448 Clouds 21 1018 78 10000 6.7 320 17:54 17.12.2019
2449 Clouds 21 1018 78 10000 5.7 330 17:36 17.12.2019
2450 Clouds 22 1018 78 10000 5.7 330 17:18 17.12.2019
2451 Clouds 21 1018 83 10000 5.7 330 16:54 17.12.2019
2452 Clouds 22 1017 73 10000 7.7 320 16:36 17.12.2019
2453 Clouds 21 1017 73 10000 7.7 320 16:18 17.12.2019
2454 Clouds 21 1017 73 10000 7.7 320 15:38 17.12.2019
2455 Rain 21 1017 78 9000 7.2 330 15:20 17.12.2019
2456 Clouds 22 1016 78 10000 5.7 330 14:56 17.12.2019
2457 Clouds 22 1016 78 10000 5.7 330 14:38 17.12.2019
2458 Clouds 22 1016 73 9000 6.7 320 14:19 17.12.2019
2459 Clouds 22 1016 73 9000 6.7 320 14:19 17.12.2019
2460 Clouds 23 1016 78 9000 6.2 340 13:56 17.12.2019
2461 Clouds 23 1016 78 9000 6.2 340 13:38 17.12.2019
2462 Clouds 23 1015 78 9000 6.2 340 13:19 17.12.2019
2463 Clouds 23 1015 78 9000 5.7 330 12:58 17.12.2019
2464 Rain 23 1015 78 9000 5.7 330 12:38 17.12.2019
2465 Rain 23 1015 78 9000 5.7 330 12:38 17.12.2019
2466 Rain 23 1015 78 9000 5.7 330 12:18 17.12.2019
2467 Clouds 22 1015 78 8000 5.7 310 11:56 17.12.2019
2468 Clouds 22 1015 78 6000 5.7 320 11:36 17.12.2019
2469 Clouds 22 1015 78 6000 5.7 320 11:36 17.12.2019
2470 Clouds 22 1015 78 6000 5.7 320 11:18 17.12.2019
2471 Haze 23 1015 78 5000 5.7 320 10:56 17.12.2019
2472 Haze 23 1016 73 5000 5.1 300 10:37 17.12.2019
2473 Haze 23 1016 73 5000 5.1 300 10:19 17.12.2019
2474 Haze 26 1018 61 5000 5.1 240 09:42 17.12.2019
2475 Clouds 26 1016 54 10000 5.7 220 09:22 17.12.2019
2476 Clouds 25 1017 57 10000 5.7 220 08:58 17.12.2019
2477 Clouds 25 1017 57 10000 5.7 220 08:40 17.12.2019
2478 Clouds 24 1017 61 10000 5.1 210 08:21 17.12.2019
2479 Clouds 24 1017 61 10000 5.1 220 07:58 17.12.2019
2480 Clouds 24 1017 61 10000 5.1 220 07:39 17.12.2019
2481 Clouds 24 1017 65 10000 5.7 200 07:21 17.12.2019
2482 Clouds 23 1017 69 10000 4.1 200 06:42 17.12.2019
2483 Clouds 23 1017 69 10000 4.1 200 06:24 17.12.2019
2484 Clouds 23 1017 69 10000 4.1 200 06:24 17.12.2019
2485 Clouds 23 1015 69 10000 4.1 200 05:41 17.12.2019
2486 Clouds 23 1015 73 10000 4.6 170 04:51 17.12.2019
2487 Clouds 23 1013 73 10000 5.1 150 03:40 17.12.2019
2488 Clouds 24 1012 78 10000 6.7 130 02:22 17.12.2019
2489 Clouds 24 1012 83 10000 7.7 120 01:21 17.12.2019
2490 Clouds 24 1012 83 10000 8.7 120 00:45 17.12.2019
2491 Clouds 24 1012 83 10000 9.8 120 00:21 17.12.2019
2492 Clouds 24 1012 83 10000 8.7 110 23:44 16.12.2019
2493 Clear 24 1013 83 10000 8.7 110 23:20 16.12.2019
2494 Clear 24 1013 83 10000 7.7 110 22:58 16.12.2019
2495 Clear 24 1013 83 10000 7.7 110 22:39 16.12.2019
2496 Clear 24 1013 83 10000 7.7 100 22:20 16.12.2019
2497 Clear 24 1013 83 10000 8.7 100 21:57 16.12.2019
2498 Clear 24 1013 83 10000 8.7 100 21:39 16.12.2019
2499 Clear 24 1013 78 10000 9.3 100 21:20 16.12.2019
2500 Clear 24 1013 78 10000 8.7 100 20:58 16.12.2019
2501 Clear 24 1013 78 10000 8.7 100 20:39 16.12.2019
2502 Clouds 24 1014 78 10000 8.2 100 20:19 16.12.2019
2503 Clouds 24 1014 78 10000 7.2 100 19:57 16.12.2019
2504 Clouds 24 1014 78 10000 8.7 100 19:37 16.12.2019
2505 Clouds 24 1014 78 10000 8.7 100 19:19 16.12.2019
2506 Clouds 24 1013 78 10000 9.3 90 18:59 16.12.2019
2507 Clouds 24 1013 78 10000 9.3 90 18:40 16.12.2019
2508 Clouds 24 1013 78 10000 9.3 90 18:20 16.12.2019
2509 Clouds 24 1013 78 10000 7.7 80 17:58 16.12.2019
2510 Clouds 24 1014 78 10000 7.7 80 17:40 16.12.2019
2511 Clouds 24 1014 78 10000 7.7 80 17:21 16.12.2019
2512 Clouds 24 1014 73 10000 7.7 80 16:57 16.12.2019
2513 Clouds 24 1013 73 10000 8.2 80 16:39 16.12.2019
2514 Clouds 24 1013 73 10000 8.2 80 16:20 16.12.2019
2515 Clouds 24 1013 73 10000 7.7 90 15:59 16.12.2019
2516 Clouds 24 1013 73 10000 7.7 90 15:59 16.12.2019
2517 Clouds 24 1013 73 10000 7.7 90 15:39 16.12.2019
2518 Clouds 24 1013 73 10000 6.7 90 15:20 16.12.2019
2519 Clouds 24 1013 73 10000 6.7 80 14:57 16.12.2019
2520 Clouds 24 1013 73 10000 6.7 80 14:37 16.12.2019
2521 Clouds 24 1013 73 10000 6.7 80 14:37 16.12.2019
2522 Clouds 24 1013 69 10000 7.7 90 14:19 16.12.2019
2523 Clouds 24 1013 69 10000 7.7 90 14:19 16.12.2019
2524 Clouds 24 1013 69 10000 7.7 90 14:19 16.12.2019
2525 Clouds 24 1013 69 10000 7.7 90 14:19 16.12.2019
2526 Clouds 24 1013 69 10000 7.7 80 13:56 16.12.2019
2527 Clouds 24 1013 69 10000 8.7 80 13:37 16.12.2019
2528 Clouds 24 1013 69 10000 8.7 80 13:19 16.12.2019
2529 Clouds 24 1013 73 10000 8.7 90 12:57 16.12.2019
2530 Clouds 24 1014 73 10000 7.7 90 12:39 16.12.2019
2531 Clouds 24 1014 73 10000 7.7 90 12:19 16.12.2019
2532 Clouds 23 1013 78 10000 8.2 70 11:58 16.12.2019
2533 Clouds 23 1013 78 10000 8.2 70 11:40 16.12.2019
2534 Clouds 24 1014 69 10000 8.7 80 11:20 16.12.2019
2535 Clouds 24 1014 73 10000 8.7 90 10:57 16.12.2019
2536 Clouds 24 1014 73 10000 8.2 80 10:38 16.12.2019
2537 Clouds 24 1014 73 10000 8.2 80 10:19 16.12.2019
2538 Clouds 24 1015 73 10000 8.7 90 09:45 16.12.2019
2539 Clouds 23 1015 78 10000 9.3 70 09:27 16.12.2019
2540 Clouds 23 1016 78 10000 7.7 60 08:55 16.12.2019
2541 Clouds 23 1016 78 10000 7.7 60 08:37 16.12.2019
2542 Clouds 23 1016 78 10000 7.7 60 08:18 16.12.2019
2543 Clouds 23 1017 83 10000 5.7 50 07:42 16.12.2019
2544 Clouds 23 1017 83 10000 5.7 50 07:21 16.12.2019
2545 Rain 22 1016 78 10000 8.2 60 06:45 16.12.2019
2546 Rain 22 1016 78 10000 6.7 50 06:22 16.12.2019
2547 Rain 23 1017 78 10000 4.6 60 05:47 16.12.2019
2548 Rain 23 1016 73 10000 5.7 60 05:29 16.12.2019
2549 Rain 23 1015 73 10000 5.1 70 04:21 16.12.2019
2550 Clouds 23 1014 78 10000 5.1 50 01:58 16.12.2019
2551 Clouds 23 1014 78 10000 5.1 50 01:40 16.12.2019
2552 Clouds 23 1014 78 10000 5.1 50 01:40 16.12.2019
2553 Clouds 23 1014 78 10000 4.6 40 00:42 16.12.2019
2554 Rain 23 1014 83 10000 4.6 60 00:23 16.12.2019
2555 Rain 22 1014 78 10000 6.2 60 23:58 15.12.2019
2556 Rain 22 1014 83 10000 4.6 60 23:38 15.12.2019
2557 Rain 22 1014 83 10000 4.6 60 23:19 15.12.2019
2558 Clouds 22 1016 78 10000 3.1 20 22:55 15.12.2019
2559 Rain 22 1014 78 10000 4.6 80 22:37 15.12.2019
2560 Rain 22 1014 78 10000 4.6 80 22:18 15.12.2019
2561 Clouds 22 1014 73 10000 8.2 100 21:55 15.12.2019
2562 Clouds 22 1014 78 10000 7.2 90 21:37 15.12.2019
2563 Clouds 22 1014 78 10000 7.2 90 21:18 15.12.2019
2564 Rain 22 1015 78 10000 7.2 90 20:55 15.12.2019
2565 Rain 22 1015 83 10000 6.7 90 20:36 15.12.2019
2566 Rain 22 1015 83 10000 6.7 90 20:18 15.12.2019
2567 Rain 22 1015 83 10000 6.7 90 20:18 15.12.2019
2568 Rain 21 1016 88 10000 5.1 90 19:55 15.12.2019
2569 Rain 21 1017 88 10000 4.1 90 19:37 15.12.2019
2570 Rain 21 1017 88 10000 4.1 90 19:18 15.12.2019
2571 Rain 21 1019 94 9000 3.1 20 18:55 15.12.2019
2572 Rain 21 1018 78 10000 2.6 10 18:36 15.12.2019
2573 Rain 21 1018 78 10000 2.6 10 18:18 15.12.2019
2574 Rain 22 1018 83 10000 3.6 80 17:55 15.12.2019
2575 Rain 22 1017 88 10000 5.1 80 17:36 15.12.2019
2576 Rain 22 1017 88 10000 5.1 80 17:18 15.12.2019
2577 Thunderstorm 22 1018 83 8000 3.1 40 16:42 15.12.2019
2578 Thunderstorm 23 1017 73 10000 3.1 20 16:23 15.12.2019
2579 Thunderstorm 23 1016 78 10000 4.6 60 15:57 15.12.2019
2580 Thunderstorm 23 1016 78 10000 4.6 60 15:39 15.12.2019
2581 Thunderstorm 23 1016 78 8000 3.6 70 15:19 15.12.2019
2582 Rain 23 1015 78 10000 5.1 80 14:56 15.12.2019
2583 Clouds 23 1015 73 10000 5.1 70 14:37 15.12.2019
2584 Clouds 23 1015 73 10000 5.1 70 14:19 15.12.2019
2585 Rain 23 1015 73 10000 6.2 70 13:58 15.12.2019
2586 Rain 23 1015 73 10000 6.2 70 13:39 15.12.2019
2587 Rain 23 1015 73 10000 5.1 90 13:20 15.12.2019
2588 Clouds 24 1015 78 10000 5.7 90 12:57 15.12.2019
2589 Clouds 24 1015 78 10000 5.7 90 12:57 15.12.2019
2590 Clouds 24 1015 78 10000 5.7 90 12:39 15.12.2019
2591 Clouds 23 1015 78 10000 5.1 80 12:21 15.12.2019
2592 Rain 23 1016 78 9000 5.1 80 11:59 15.12.2019
2593 Rain 23 1015 88 7000 5.7 90 11:37 15.12.2019
2594 Rain 23 1015 88 7000 5.7 90 11:19 15.12.2019
2595 Rain 24 1017 78 5000 2.6 30 10:55 15.12.2019
2596 Rain 24 1017 78 5000 2.6 30 10:37 15.12.2019
2597 Rain 24 1017 78 8000 4.1 90 10:19 15.12.2019
2598 Clouds 25 1016 73 10000 5.7 80 09:41 15.12.2019
2599 Clouds 25 1017 73 10000 5.1 80 09:20 15.12.2019
2600 Clouds 24 1017 78 10000 4.6 90 08:59 15.12.2019
2601 Clouds 24 1017 78 10000 4.6 90 08:41 15.12.2019
2602 Clouds 24 1018 78 10000 4.6 90 08:22 15.12.2019
2603 Clouds 24 1018 78 10000 4.6 90 08:22 15.12.2019
2604 Clouds 24 1018 83 10000 4.6 80 07:56 15.12.2019
2605 Clouds 24 1018 83 10000 5.1 100 07:36 15.12.2019
2606 Clouds 23 1018 88 9000 2.6 100 06:56 15.12.2019
2607 Clouds 23 1018 83 9000 1 0 06:21 15.12.2019
2608 Clouds 22 1016 88 7000 6.2 130 05:37 15.12.2019
2609 Clouds 22 1016 88 7000 6.2 130 05:18 15.12.2019
2610 Thunderstorm 22 1016 83 10000 1.5 80 03:54 15.12.2019
2611 Clouds 21 1015 78 10000 2.6 70 02:34 15.12.2019
2612 Clouds 22 1015 78 10000 2.6 80 01:50 15.12.2019
2613 Clouds 22 1016 83 10000 2.1 60 01:28 15.12.2019
2614 Clouds 22 1016 83 10000 2.1 80 00:59 15.12.2019
2615 Clouds 22 1016 83 10000 2.1 80 00:41 15.12.2019
2616 Clouds 22 1016 83 10000 1.5 80 00:23 15.12.2019
2617 Clouds 22 1016 83 10000 2.1 30 23:40 14.12.2019
2618 Clouds 22 1016 83 10000 2.1 30 23:40 14.12.2019
2619 Clouds 22 1016 83 10000 2.1 30 23:40 14.12.2019
2620 Clouds 22 1016 83 10000 2.1 30 23:21 14.12.2019
2621 Clouds 22 1016 83 10000 2.1 30 22:58 14.12.2019
2622 Clouds 22 1016 83 10000 2.1 30 22:58 14.12.2019
2623 Clouds 22 1016 83 10000 2.1 30 22:58 14.12.2019
2624 Clouds 22 1016 83 10000 2.1 30 22:40 14.12.2019
2625 Clouds 23 1017 83 10000 1.5 20 22:21 14.12.2019
2626 Clouds 23 1017 88 10000 2.1 20 21:56 14.12.2019
2627 Clouds 23 1017 83 10000 2.1 360 21:38 14.12.2019
2628 Clouds 22 1017 83 10000 2.1 360 21:19 14.12.2019
2629 Clouds 22 1017 83 10000 2.1 360 21:19 14.12.2019
2630 Clouds 22 1017 83 10000 1 20 20:56 14.12.2019
2631 Clouds 22 1017 83 10000 1 20 20:38 14.12.2019
2632 Clouds 22 1017 83 10000 1.5 20 20:19 14.12.2019
2633 Clouds 22 1017 78 10000 1 40 19:55 14.12.2019
2634 Clouds 22 1017 78 10000 1 40 19:36 14.12.2019
2635 Clouds 22 1018 78 10000 3.9 16 19:18 14.12.2019
2636 Clouds 23 1018 78 10000 1 0 18:55 14.12.2019
2637 Clouds 23 1018 78 10000 0.5 10 18:36 14.12.2019
2638 Clouds 23 1018 78 10000 0.5 10 18:18 14.12.2019
2639 Clouds 23 1018 78 10000 0.5 10 18:18 14.12.2019
2640 Clouds 23 1018 78 9000 1 350 17:42 14.12.2019
2641 Clouds 23 1017 78 9000 1 0 17:22 14.12.2019
2642 Clouds 24 1017 73 9000 1.5 360 16:55 14.12.2019
2643 Clouds 24 1017 69 9000 1.5 350 16:37 14.12.2019
2644 Clouds 24 1017 69 9000 1.5 350 16:18 14.12.2019
2645 Clouds 24 1017 64 10000 1 110 15:41 14.12.2019
2646 Clouds 24 1016 61 8000 1 0 15:21 14.12.2019
2647 Clouds 25 1016 61 8000 1.5 50 14:58 14.12.2019
2648 Clouds 25 1016 61 8000 1.5 50 14:38 14.12.2019
2649 Clear 25 1016 65 8000 2.1 20 14:19 14.12.2019
2650 Clear 25 1016 65 8000 2.1 20 14:19 14.12.2019
2651 Clouds 25 1016 61 8000 2.6 20 13:45 14.12.2019
2652 Clouds 25 1016 61 8000 2.6 20 13:45 14.12.2019
2653 Clouds 25 1016 61 8000 3.1 20 13:20 14.12.2019
2654 Clouds 25 1016 61 7000 2.6 20 12:59 14.12.2019
2655 Clouds 26 1016 57 6000 3.1 10 12:41 14.12.2019
2656 Clouds 26 1016 57 6000 3.1 10 12:21 14.12.2019
2657 Clouds 26 1016 57 6000 3.1 10 12:21 14.12.2019
2658 Clouds 26 1016 57 6000 3.1 10 12:21 14.12.2019
2659 Clouds 26 1016 61 6000 4.1 10 11:59 14.12.2019
2660 Clouds 26 1016 57 6000 3.1 360 11:39 14.12.2019
2661 Clouds 26 1016 57 6000 3.1 360 11:20 14.12.2019
2662 Clouds 25 1017 57 6000 2.1 0 10:59 14.12.2019
2663 Clouds 25 1017 57 6000 2.1 0 10:40 14.12.2019
2664 Clouds 25 1017 57 6000 2.1 320 10:22 14.12.2019
2665 Clouds 25 1017 57 6000 3.1 350 09:57 14.12.2019
2666 Clouds 25 1017 57 6000 3.1 350 09:39 14.12.2019
2667 Clouds 24 1018 57 7000 1.5 0 09:19 14.12.2019
2668 Clouds 25 1018 54 7000 1.5 300 08:43 14.12.2019
2669 Clouds 24 1018 57 7000 2.6 300 08:20 14.12.2019
2670 Clouds 24 1018 57 7000 2.1 300 07:44 14.12.2019
2671 Clouds 23 1018 61 7000 2.1 290 07:24 14.12.2019
2672 Clouds 22 1018 69 7000 2.6 300 06:57 14.12.2019
2673 Clouds 22 1018 73 7000 2.6 280 06:38 14.12.2019
2674 Clouds 22 1018 73 7000 2.6 280 06:18 14.12.2019
2675 Clouds 21 1017 83 8000 1.5 280 04:48 14.12.2019
2676 Clouds 21 1016 78 10000 1.5 290 02:41 14.12.2019
2677 Mist 21 1016 88 8000 2.6 300 02:19 14.12.2019
2678 Clouds 21 1015 78 10000 2.1 260 01:37 14.12.2019
2679 Clouds 21 1015 83 10000 2.17 267 00:49 14.12.2019
2680 Clouds 21 1015 83 10000 1 340 00:28 14.12.2019
2681 Clouds 22 1015 83 10000 1 340 23:57 13.12.2019
2682 Clouds 22 1015 78 10000 2.17 267 23:37 13.12.2019
2683 Clouds 22 1015 78 10000 3.16 149 23:18 13.12.2019
2684 Clouds 23 1015 78 10000 0.5 0 22:41 13.12.2019
2685 Clouds 23 1015 78 10000 1.5 130 22:19 13.12.2019
2686 Clouds 23 1014 78 10000 1.5 130 21:56 13.12.2019
2687 Clouds 23 1014 78 10000 1.5 130 21:38 13.12.2019
2688 Clouds 23 1014 78 10000 2.1 130 21:20 13.12.2019
2689 Clouds 23 1014 78 10000 3.1 150 20:54 13.12.2019
2690 Clouds 23 1014 78 10000 3.1 150 20:36 13.12.2019
2691 Clouds 23 1015 78 10000 3.1 140 20:18 13.12.2019
2692 Clouds 23 1015 78 10000 3.1 130 19:41 13.12.2019
2693 Clouds 23 1015 78 10000 3.1 130 19:41 13.12.2019
2694 Clouds 23 1015 78 10000 3.1 130 19:23 13.12.2019
2695 Clouds 23 1014 78 10000 4.1 140 18:59 13.12.2019
2696 Clouds 23 1014 78 10000 4.1 140 18:41 13.12.2019
2697 Clouds 23 1014 78 10000 4.1 140 18:19 13.12.2019
2698 Clouds 23 1014 78 10000 3.6 130 17:57 13.12.2019
2699 Clouds 23 1014 73 10000 2.6 130 17:38 13.12.2019
2700 Clouds 23 1014 73 10000 2.6 130 17:18 13.12.2019
2701 Clouds 23 1014 73 10000 4.1 140 16:54 13.12.2019
2702 Clouds 23 1014 73 10000 3.6 130 16:36 13.12.2019
2703 Clouds 23 1014 73 10000 3.6 130 16:18 13.12.2019
2704 Clouds 24 1013 69 10000 4.1 130 15:38 13.12.2019
2705 Clouds 24 1013 69 10000 4.1 130 15:20 13.12.2019
2706 Clouds 24 1013 69 10000 5.7 120 14:42 13.12.2019
2707 Clouds 24 1013 69 10000 5.7 120 14:22 13.12.2019
2708 Clouds 24 1013 69 10000 5.1 110 13:58 13.12.2019
2709 Clouds 24 1013 69 10000 3.6 100 13:40 13.12.2019
2710 Clouds 24 1013 69 10000 3.6 100 13:21 13.12.2019
2711 Rain 24 1013 69 10000 4.1 110 12:44 13.12.2019
2712 Rain 24 1013 64 10000 4.1 110 12:23 13.12.2019
2713 Rain 24 1013 65 10000 3.1 100 11:58 13.12.2019
2714 Rain 24 1013 69 10000 4.1 130 11:40 13.12.2019
2715 Rain 24 1013 69 10000 4.1 130 11:22 13.12.2019
2716 Rain 24 1013 69 10000 4.1 120 10:55 13.12.2019
2717 Rain 24 1014 64 10000 3.6 120 10:37 13.12.2019
2718 Rain 24 1014 64 10000 3.6 120 10:19 13.12.2019
2719 Rain 24 1015 69 10000 3.1 110 09:39 13.12.2019
2720 Rain 24 1015 69 10000 3.1 110 09:19 13.12.2019
2721 Rain 22 1015 64 10000 1 0 08:41 13.12.2019
2722 Rain 22 1015 64 10000 1 0 08:23 13.12.2019
2723 Clouds 21 1016 68 10000 1.5 360 07:46 13.12.2019
2724 Clouds 21 1017 77 10000 4.1 330 07:23 13.12.2019
2725 Clouds 20 1017 73 10000 6.2 330 06:55 13.12.2019
2726 Clouds 20 1015 73 10000 1.5 250 06:29 13.12.2019
2727 Clouds 19 1014 73 10000 2.1 220 05:46 13.12.2019
2728 Clouds 18 1013 77 10000 2.1 170 05:27 13.12.2019
2729 Clouds 18 1013 82 10000 1 0 04:35 13.12.2019
2730 Clouds 18 1012 82 10000 1 220 03:46 13.12.2019
2731 Clouds 17 1012 82 10000 1 0 02:34 13.12.2019
2732 Clouds 17 1012 88 10000 0.5 0 01:44 13.12.2019
2733 Clouds 18 1013 82 10000 1 0 00:56 13.12.2019
2734 Clouds 18 1013 82 10000 1 0 00:37 13.12.2019
2735 Clouds 18 1013 82 10000 1.5 220 23:57 12.12.2019
2736 Clouds 19 1013 77 10000 1 0 23:39 12.12.2019
2737 Clouds 19 1013 77 10000 1 0 23:20 12.12.2019
2738 Clouds 19 1013 72 10000 1.5 250 22:55 12.12.2019
2739 Clouds 19 1014 72 10000 1 0 22:37 12.12.2019
2740 Clouds 19 1014 72 10000 1 0 22:18 12.12.2019
2741 Clouds 19 1014 72 10000 1 0 21:54 12.12.2019
2742 Clouds 19 1014 68 10000 1.5 250 21:36 12.12.2019
2743 Clouds 19 1014 68 10000 1.5 250 21:18 12.12.2019
2744 Clouds 20 1014 68 10000 2.1 250 20:55 12.12.2019
2745 Clouds 20 1014 68 10000 2.1 310 20:37 12.12.2019
2746 Clouds 20 1014 68 10000 2.1 310 20:19 12.12.2019
2747 Clouds 20 1014 68 10000 2.6 320 19:42 12.12.2019
2748 Clouds 20 1014 68 10000 2.6 320 19:22 12.12.2019
2749 Clouds 20 1014 68 10000 2.6 330 18:58 12.12.2019
2750 Clouds 21 1014 64 10000 2.6 310 18:40 12.12.2019
2751 Clouds 21 1014 64 10000 2.6 310 18:20 12.12.2019
2752 Clouds 21 1014 64 10000 3.6 330 17:58 12.12.2019
2753 Clouds 21 1014 64 10000 3.6 330 17:58 12.12.2019
2754 Clouds 21 1014 64 10000 4.6 340 17:39 12.12.2019
2755 Clouds 21 1014 64 10000 4.6 340 17:21 12.12.2019
2756 Clouds 21 1014 64 10000 4.1 330 16:58 12.12.2019
2757 Clouds 22 1014 60 10000 3.1 310 16:39 12.12.2019
2758 Clouds 22 1014 60 10000 3.1 310 16:20 12.12.2019
2759 Clouds 22 1014 60 10000 3.6 310 15:56 12.12.2019
2760 Clouds 22 1014 60 10000 3.6 310 15:56 12.12.2019
2761 Clouds 22 1014 56 10000 4.1 330 15:38 12.12.2019
2762 Clouds 22 1014 56 10000 4.1 330 15:18 12.12.2019
2763 Clouds 24 1013 53 10000 5.1 330 14:38 12.12.2019
2764 Clouds 24 1013 53 10000 5.1 330 14:38 12.12.2019
2765 Clouds 24 1013 53 10000 5.1 330 14:20 12.12.2019
2766 Clouds 25 1013 50 10000 4.6 320 13:58 12.12.2019
2767 Clouds 25 1013 50 10000 5.7 330 13:40 12.12.2019
2768 Clouds 25 1013 50 10000 5.7 330 13:21 12.12.2019
2769 Clouds 25 1013 50 10000 5.1 330 12:59 12.12.2019
2770 Clouds 25 1013 47 10000 6.7 330 12:40 12.12.2019
2771 Clouds 25 1013 47 10000 6.7 330 12:21 12.12.2019
2772 Clouds 25 1013 47 10000 6.2 320 11:57 12.12.2019
2773 Clouds 25 1013 47 10000 6.7 340 11:38 12.12.2019
2774 Clouds 25 1013 47 10000 6.7 340 11:19 12.12.2019
2775 Clouds 24 1014 50 10000 5.1 330 10:56 12.12.2019
2776 Clouds 24 1014 53 10000 6.2 340 10:38 12.12.2019
2777 Clouds 24 1014 53 10000 6.2 340 10:19 12.12.2019
2778 Clouds 24 1015 53 10000 5.1 320 09:55 12.12.2019
2779 Clouds 24 1015 57 10000 5.1 330 09:36 12.12.2019
2780 Clouds 24 1015 57 10000 5.1 330 09:18 12.12.2019
2781 Clouds 23 1016 53 10000 4.6 320 08:43 12.12.2019
2782 Clouds 23 1016 53 10000 4.6 330 08:25 12.12.2019
2783 Clouds 22 1016 53 10000 5.1 310 07:49 12.12.2019
2784 Clouds 22 1016 56 10000 5.1 310 07:26 12.12.2019
2785 Clouds 21 1016 56 10000 4.1 310 06:55 12.12.2019
2786 Clouds 21 1016 56 10000 3.6 310 06:35 12.12.2019
2787 Clouds 19 1015 64 10000 2.6 300 05:42 12.12.2019
2788 Clouds 19 1015 64 10000 2.6 310 04:54 12.12.2019
2789 Clouds 20 1015 64 10000 3.6 300 03:50 12.12.2019
2790 Clouds 19 1014 64 10000 3.1 310 02:40 12.12.2019
2791 Clear 20 1014 64 10000 3.1 310 02:21 12.12.2019
2792 Clear 20 1014 64 10000 3.6 310 01:46 12.12.2019
2793 Clear 20 1015 64 10000 3.6 320 01:28 12.12.2019
2794 Clear 20 1015 64 10000 3.6 320 00:47 12.12.2019
2795 Clear 20 1014 68 10000 3.1 320 00:20 12.12.2019
2796 Clear 20 1015 68 10000 3.6 310 23:45 11.12.2019
2797 Clear 20 1015 68 10000 4.1 310 23:21 11.12.2019
2798 Clear 20 1015 73 10000 4.1 320 22:58 11.12.2019
2799 Clear 20 1015 73 10000 4.1 320 22:39 11.12.2019
2800 Clear 20 1015 73 10000 4.1 320 22:20 11.12.2019
2801 Clear 21 1015 68 10000 5.1 330 21:59 11.12.2019
2802 Clear 21 1015 68 10000 5.1 330 21:39 11.12.2019
2803 Clear 21 1015 68 10000 5.1 330 21:20 11.12.2019
2804 Clear 21 1015 68 10000 4.1 320 20:57 11.12.2019
2805 Clear 21 1015 68 10000 4.6 330 20:39 11.12.2019
2806 Clear 21 1015 68 10000 4.6 330 20:19 11.12.2019
2807 Clear 21 1015 68 10000 4.6 320 19:58 11.12.2019
2808 Clear 21 1015 68 10000 4.6 320 19:40 11.12.2019
2809 Clear 21 1015 68 10000 4.6 320 19:20 11.12.2019
2810 Clear 21 1015 68 10000 4.6 320 18:55 11.12.2019
2811 Clear 21 1014 68 10000 5.1 330 18:36 11.12.2019
2812 Clear 21 1014 68 10000 5.1 330 18:36 11.12.2019
2813 Clear 21 1014 68 10000 5.1 330 18:18 11.12.2019
2814 Clear 22 1014 73 10000 6.2 330 17:54 11.12.2019
2815 Clear 22 1014 69 10000 6.2 330 17:36 11.12.2019
2816 Clouds 22 1014 69 10000 6.2 330 17:18 11.12.2019
2817 Clouds 23 1014 69 10000 7.2 330 16:55 11.12.2019
2818 Clouds 23 1013 73 10000 5.7 330 16:36 11.12.2019
2819 Clouds 23 1013 73 10000 5.7 330 16:18 11.12.2019
2820 Clouds 24 1013 73 10000 7.2 340 15:41 11.12.2019
2821 Clouds 24 1013 73 10000 7.2 340 15:23 11.12.2019
2822 Clouds 24 1013 69 10000 5.7 330 14:57 11.12.2019
2823 Clouds 24 1013 69 10000 5.7 330 14:39 11.12.2019
2824 Clouds 24 1013 69 10000 5.7 330 14:20 11.12.2019
2825 Clouds 25 1012 65 10000 6.2 340 13:56 11.12.2019
2826 Clouds 25 1012 65 10000 4.6 330 13:38 11.12.2019
2827 Clouds 25 1012 65 10000 4.6 330 13:19 11.12.2019
2828 Clouds 25 1012 65 10000 4.1 320 12:56 11.12.2019
2829 Clouds 25 1013 65 10000 4.1 320 12:38 11.12.2019
2830 Clouds 25 1013 65 10000 4.1 320 12:19 11.12.2019
2831 Clouds 25 1013 65 10000 4.1 320 12:19 11.12.2019
2832 Clouds 26 1013 65 10000 4.1 310 11:57 11.12.2019
2833 Clouds 25 1013 69 10000 3.6 310 11:38 11.12.2019
2834 Clouds 25 1013 69 10000 3.6 310 11:38 11.12.2019
2835 Clouds 25 1013 69 10000 3.6 310 11:18 11.12.2019
2836 Clouds 25 1013 69 10000 3.6 310 11:18 11.12.2019
2837 Clouds 25 1013 69 10000 4.1 310 10:45 11.12.2019
2838 Clouds 25 1014 69 10000 4.6 320 10:27 11.12.2019
2839 Clouds 25 1014 69 10000 3.6 310 09:59 11.12.2019
2840 Clouds 25 1015 69 10000 5.1 320 09:40 11.12.2019
2841 Clouds 24 1015 69 10000 5.1 320 09:20 11.12.2019
2842 Clouds 24 1015 69 10000 4.1 300 08:57 11.12.2019
2843 Clouds 24 1016 73 10000 3.1 270 08:38 11.12.2019
2844 Clouds 24 1016 73 10000 3.1 270 08:19 11.12.2019
2845 Haze 24 1016 73 7000 3.1 260 07:47 11.12.2019
2846 Haze 24 1016 73 7000 3.1 290 07:28 11.12.2019
2847 Haze 24 1015 73 7000 2.6 290 06:59 11.12.2019
2848 Haze 23 1015 73 7000 3.6 300 06:40 11.12.2019
2849 Haze 23 1015 73 7000 3.6 300 06:21 11.12.2019
2850 Haze 22 1015 88 4500 3.6 310 05:41 11.12.2019
2851 Haze 22 1015 88 4500 3.6 310 05:19 11.12.2019
2852 Clouds 22 1014 88 6000 4.6 300 04:26 11.12.2019
2853 Rain 22 1013 83 9000 4.1 290 02:49 11.12.2019
2854 Clouds 22 1013 94 7000 2.6 310 01:25 11.12.2019
2855 Clouds 23 1013 94 7000 3.1 340 00:47 11.12.2019
2856 Clouds 23 1013 94 10000 1.5 320 00:21 11.12.2019
2857 Clouds 23 1013 94 10000 2.1 330 23:49 10.12.2019
2858 Clouds 23 1013 94 10000 2.1 330 23:30 10.12.2019
2859 Rain 23 1013 94 10000 0.5 0 22:58 10.12.2019
2860 Rain 23 1013 94 10000 3.6 140 22:40 10.12.2019
2861 Rain 23 1013 94 10000 3.6 140 22:40 10.12.2019
2862 Rain 23 1013 94 10000 3.6 140 22:22 10.12.2019
2863 Rain 23 1013 94 10000 4.6 140 21:56 10.12.2019
2864 Rain 23 1013 94 10000 4.6 140 21:56 10.12.2019
2865 Thunderstorm 23 1012 94 10000 5.1 110 21:38 10.12.2019
2866 Thunderstorm 23 1012 94 10000 5.1 110 21:38 10.12.2019
2867 Thunderstorm 23 1012 94 10000 5.1 110 21:38 10.12.2019
2868 Thunderstorm 23 1012 94 10000 5.1 110 21:19 10.12.2019
2869 Thunderstorm 23 1013 94 10000 4.6 130 20:57 10.12.2019
2870 Thunderstorm 23 1013 94 7000 4.6 150 20:37 10.12.2019
2871 Thunderstorm 23 1013 94 7000 4.6 150 20:37 10.12.2019
2872 Thunderstorm 23 1013 94 7000 4.6 150 20:19 10.12.2019
2873 Thunderstorm 23 1013 88 8000 4.1 90 19:55 10.12.2019
2874 Thunderstorm 23 1014 88 4000 1 0 19:37 10.12.2019
2875 Thunderstorm 23 1014 88 4000 1 0 19:18 10.12.2019
2876 Thunderstorm 24 1013 88 9000 4.6 90 18:40 10.12.2019
2877 Thunderstorm 24 1013 88 9000 4.6 90 18:20 10.12.2019
2878 Thunderstorm 24 1014 88 9000 3.6 100 17:58 10.12.2019
2879 Rain 24 1013 88 9000 4.1 90 17:39 10.12.2019
2880 Rain 24 1013 88 9000 4.1 90 17:20 10.12.2019
2881 Rain 24 1014 88 7000 2.6 60 16:54 10.12.2019
2882 Rain 24 1014 88 9000 4.1 90 16:36 10.12.2019
2883 Rain 24 1014 88 9000 4.1 90 16:18 10.12.2019
2884 Rain 24 1014 88 9000 4.1 90 16:18 10.12.2019
2885 Rain 24 1013 83 8000 4.1 100 15:38 10.12.2019
2886 Rain 24 1013 83 8000 4.1 100 15:18 10.12.2019
2887 Rain 25 1014 83 8000 4.1 110 14:56 10.12.2019
2888 Rain 25 1013 83 8000 4.1 100 14:37 10.12.2019
2889 Rain 25 1013 83 8000 4.1 100 14:19 10.12.2019
2890 Clouds 25 1013 83 8000 4.6 80 13:56 10.12.2019
2891 Rain 25 1013 83 8000 3.6 90 13:38 10.12.2019
2892 Rain 25 1013 83 8000 3.6 90 13:19 10.12.2019
2893 Clouds 25 1013 83 10000 4.6 90 12:47 10.12.2019
2894 Clouds 25 1013 78 10000 3.6 80 12:26 10.12.2019
2895 Clouds 25 1013 73 10000 3.1 80 11:55 10.12.2019
2896 Clouds 25 1014 69 10000 2.1 50 11:36 10.12.2019
2897 Clouds 25 1014 69 10000 2.1 50 11:18 10.12.2019
2898 Clouds 25 1014 69 10000 4.6 70 10:42 10.12.2019
2899 Clouds 26 1014 69 10000 3.6 60 10:23 10.12.2019
2900 Clouds 25 1014 69 10000 3.6 90 09:57 10.12.2019
2901 Clouds 25 1015 78 10000 2.1 120 09:38 10.12.2019
2902 Clouds 25 1015 78 10000 2.1 120 09:38 10.12.2019
2903 Clouds 25 1015 78 10000 2.1 120 09:20 10.12.2019
2904 Clouds 25 1016 78 10000 4.1 140 08:58 10.12.2019
2905 Clouds 24 1016 83 10000 3.6 160 08:39 10.12.2019
2906 Clouds 24 1016 83 10000 3.6 160 08:39 10.12.2019
2907 Clouds 24 1016 83 10000 3.6 160 08:19 10.12.2019
2908 Rain 23 1017 83 10000 2.6 150 07:44 10.12.2019
2909 Rain 23 1017 88 10000 2.1 170 07:26 10.12.2019
2910 Rain 23 1019 88 8000 1.5 150 06:50 10.12.2019
2911 Rain 23 1017 88 10000 3.6 140 06:25 10.12.2019
2912 Clouds 24 1017 88 10000 2.1 130 05:56 10.12.2019
2913 Clouds 23 1016 94 10000 1 0 05:33 10.12.2019
2914 Rain 22 1015 88 10000 1.5 150 03:55 10.12.2019
2915 Rain 23 1015 88 10000 1 0 02:57 10.12.2019
2916 Rain 23 1015 88 10000 1 0 02:57 10.12.2019
2917 Clouds 23 1014 88 10000 4.6 130 01:54 10.12.2019
2918 Clouds 23 1015 88 10000 4.1 110 01:27 10.12.2019
2919 Thunderstorm 22 1015 88 10000 6.7 120 00:58 10.12.2019
2920 Thunderstorm 22 1015 83 10000 3.6 110 00:25 10.12.2019
2921 Thunderstorm 23 1015 83 10000 5.7 100 23:55 09.12.2019
2922 Thunderstorm 22 1014 88 10000 4.6 50 23:36 09.12.2019
2923 Thunderstorm 22 1014 88 10000 4.6 50 23:18 09.12.2019
2924 Thunderstorm 23 1015 83 10000 6.2 10 22:54 09.12.2019
2925 Rain 24 1014 83 10000 6.7 40 22:36 09.12.2019
2926 Rain 24 1014 83 10000 6.7 40 22:18 09.12.2019
2927 Clouds 24 1014 78 10000 5.7 60 21:54 09.12.2019
2928 Clouds 24 1015 78 10000 4.6 50 21:36 09.12.2019
2929 Clouds 24 1015 78 10000 4.6 50 21:18 09.12.2019
2930 Clouds 24 1016 73 10000 4.6 40 20:54 09.12.2019
2931 Clouds 24 1016 73 10000 5.1 30 20:36 09.12.2019
2932 Clouds 24 1016 73 10000 5.1 30 20:18 09.12.2019
2933 Clouds 24 1016 73 10000 4.6 20 19:54 09.12.2019
2934 Clouds 24 1016 73 10000 5.1 20 19:36 09.12.2019
2935 Clouds 24 1016 73 10000 5.1 20 19:18 09.12.2019
2936 Clouds 24 1016 73 10000 6.7 20 18:40 09.12.2019
2937 Clouds 24 1016 73 10000 6.7 20 18:20 09.12.2019
2938 Clouds 24 1016 73 10000 6.7 20 18:20 09.12.2019
2939 Clouds 23 1016 78 10000 6.7 20 17:59 09.12.2019
2940 Clouds 23 1016 73 10000 6.7 10 17:41 09.12.2019
2941 Clouds 23 1016 73 10000 6.7 10 17:21 09.12.2019
2942 Clouds 23 1016 78 10000 7.7 10 16:58 09.12.2019
2943 Clear 23 1015 73 10000 7.2 360 16:39 09.12.2019
2944 Clear 23 1015 73 10000 7.2 360 16:21 09.12.2019
2945 Clear 24 1015 73 10000 6.2 10 15:57 09.12.2019
2946 Clear 24 1015 73 10000 6.2 10 15:38 09.12.2019
2947 Clear 24 1015 73 10000 6.2 10 15:38 09.12.2019
2948 Clear 24 1015 73 10000 6.2 10 15:19 09.12.2019
2949 Clear 24 1015 73 10000 6.2 360 14:59 09.12.2019
2950 Clear 25 1015 69 10000 6.7 360 14:41 09.12.2019
2951 Clouds 25 1015 69 10000 6.7 360 14:18 09.12.2019
2952 Clouds 25 1015 65 10000 6.7 10 13:56 09.12.2019
2953 Clouds 25 1015 65 10000 6.7 10 13:37 09.12.2019
2954 Clouds 25 1015 65 10000 6.7 10 13:19 09.12.2019
2955 Clouds 25 1015 69 10000 6.7 10 12:55 09.12.2019
2956 Clouds 25 1015 69 10000 6.7 10 12:55 09.12.2019
2957 Clouds 26 1015 65 10000 7.2 360 12:37 09.12.2019
2958 Clouds 26 1015 65 10000 7.2 360 12:18 09.12.2019
2959 Clouds 26 1015 61 10000 7.7 360 11:40 09.12.2019
2960 Clouds 26 1015 61 10000 7.7 360 11:22 09.12.2019
2961 Clouds 26 1016 65 10000 8.2 360 10:59 09.12.2019
2962 Clouds 26 1016 65 10000 7.2 360 10:39 09.12.2019
2963 Clouds 26 1016 65 10000 7.2 360 10:19 09.12.2019
2964 Clouds 26 1017 65 10000 6.2 360 09:46 09.12.2019
2965 Clouds 26 1017 65 10000 5.7 10 09:25 09.12.2019
2966 Clouds 25 1017 69 10000 6.7 350 08:57 09.12.2019
2967 Clouds 25 1018 69 10000 6.2 350 08:39 09.12.2019
2968 Clouds 25 1018 69 10000 6.2 350 08:21 09.12.2019
2969 Rain 24 1018 69 10000 5.7 350 07:52 09.12.2019
2970 Rain 24 1018 69 10000 5.7 340 07:33 09.12.2019
2971 Rain 24 1018 69 10000 5.7 340 07:33 09.12.2019
2972 Clouds 24 1017 69 10000 5.1 350 06:58 09.12.2019
2973 Clouds 24 1017 73 10000 5.1 350 06:31 09.12.2019
2974 Clouds 22 1017 78 10000 4.1 330 05:48 09.12.2019
2975 Clouds 22 1017 78 10000 4.1 330 05:48 09.12.2019
2976 Clouds 22 1017 73 10000 4.1 330 05:23 09.12.2019
2977 Clouds 21 1016 78 10000 4.1 330 04:28 09.12.2019
2978 Clear 21 1015 78 10000 1.5 340 02:29 09.12.2019
2979 Rain 21 1015 78 10000 1 0 01:47 09.12.2019
2980 Clear 21 1015 83 10000 1.5 320 00:59 09.12.2019
2981 Clear 21 1015 83 10000 1.5 310 00:33 09.12.2019
2982 Clear 21 1015 83 10000 1 340 23:57 08.12.2019
2983 Clear 21 1015 83 10000 1 330 23:37 08.12.2019
2984 Clear 21 1015 83 10000 1 330 23:19 08.12.2019
2985 Clear 21 1015 83 10000 1.5 340 22:56 08.12.2019
2986 Clear 21 1015 83 10000 2.1 340 22:38 08.12.2019
2987 Clear 21 1015 83 10000 2.1 340 22:18 08.12.2019
2988 Clear 22 1015 78 10000 1 360 21:56 08.12.2019
2989 Clear 23 1016 78 10000 1.5 350 21:37 08.12.2019
2990 Clear 22 1016 78 10000 1.5 350 21:19 08.12.2019
2991 Clear 23 1016 83 10000 2.6 340 20:56 08.12.2019
2992 Clear 23 1016 78 10000 1 340 20:37 08.12.2019
2993 Clear 23 1016 78 10000 1 340 20:19 08.12.2019
2994 Clear 23 1016 78 10000 1 350 19:55 08.12.2019
2995 Clear 23 1016 78 10000 1.5 20 19:37 08.12.2019
2996 Clear 23 1016 78 10000 1.5 20 19:18 08.12.2019
2997 Clear 23 1015 78 10000 2.1 50 18:54 08.12.2019
2998 Clear 23 1015 78 10000 2.1 70 18:36 08.12.2019
2999 Clear 23 1015 78 10000 2.1 70 18:18 08.12.2019
3000 Clouds 23 1015 78 10000 2.1 60 17:55 08.12.2019
3001 Clear 23 1015 78 10000 1.5 40 17:36 08.12.2019
3002 Rain 23 1015 78 10000 1.5 40 17:18 08.12.2019
3003 Rain 24 1015 73 10000 1.5 40 16:55 08.12.2019
3004 Clouds 24 1015 73 10000 2.1 40 16:37 08.12.2019
3005 Clouds 24 1015 73 10000 2.1 40 16:18 08.12.2019
3006 Clouds 24 1014 78 10000 2.6 120 15:37 08.12.2019
3007 Clouds 24 1014 78 10000 2.6 120 15:18 08.12.2019
3008 Clouds 25 1014 73 10000 2.1 130 14:57 08.12.2019
3009 Clouds 25 1014 73 8000 2.6 120 14:38 08.12.2019
3010 Clouds 25 1014 73 8000 2.6 120 14:20 08.12.2019
3011 Clouds 25 1014 69 8000 3.1 130 13:42 08.12.2019
3012 Clouds 26 1014 69 10000 4.6 130 13:23 08.12.2019
3013 Clouds 26 1013 65 10000 4.1 110 12:59 08.12.2019
3014 Clouds 26 1014 65 10000 4.1 110 12:41 08.12.2019
3015 Clouds 26 1014 65 10000 4.1 110 12:41 08.12.2019
3016 Clouds 26 1014 65 10000 4.1 110 12:41 08.12.2019
3017 Clouds 26 1014 65 10000 4.1 110 12:22 08.12.2019
3018 Rain 27 1013 61 10000 5.1 110 11:59 08.12.2019
3019 Rain 27 1014 57 10000 5.7 100 11:38 08.12.2019
3020 Clouds 27 1014 57 10000 5.7 100 11:19 08.12.2019
3021 Clouds 28 1014 51 10000 5.1 120 10:57 08.12.2019
3022 Clouds 28 1014 34 10000 4.6 110 10:38 08.12.2019
3023 Clouds 28 1014 34 10000 4.6 110 10:38 08.12.2019
3024 Clouds 28 1014 34 10000 4.6 110 10:19 08.12.2019
3025 Clouds 27 1015 45 10000 4.1 100 09:55 08.12.2019
3026 Clouds 27 1015 51 10000 4.1 80 09:37 08.12.2019
3027 Clouds 27 1015 51 10000 4.1 80 09:19 08.12.2019
3028 Clouds 26 1016 51 10000 3.6 80 08:43 08.12.2019
3029 Clouds 26 1016 54 10000 3.6 90 08:23 08.12.2019
3030 Rain 26 1016 61 10000 3.6 80 07:58 08.12.2019
3031 Rain 26 1017 57 10000 3.6 80 07:40 08.12.2019
3032 Rain 26 1017 57 10000 3.6 80 07:19 08.12.2019
3033 Clouds 24 1016 69 10000 2.1 70 06:41 08.12.2019
3034 Clouds 24 1016 69 10000 2.1 70 06:21 08.12.2019
3035 Clouds 21 1016 88 10000 1.5 360 05:27 08.12.2019
3036 Rain 21 1016 83 7000 2.1 340 04:54 08.12.2019
3037 Clouds 21 1015 77 10000 1.5 80 03:41 08.12.2019
3038 Clouds 20 1015 73 10000 0.5 50 02:52 08.12.2019
3039 Clouds 20 1015 73 10000 0.5 260 02:27 08.12.2019
3040 Clear 21 1015 73 10000 1 0 01:48 08.12.2019
3041 Clouds 20 1015 73 10000 2.6 160 00:56 08.12.2019
3042 Clouds 20 1015 77 10000 2.1 150 00:37 08.12.2019
3043 Clouds 20 1015 77 10000 2.1 150 00:18 08.12.2019
3044 Clouds 21 1015 73 10000 1 130 23:39 07.12.2019
3045 Clear 21 1015 73 10000 1 130 23:20 07.12.2019
3046 Clear 21 1015 73 10000 1 130 23:20 07.12.2019
3047 Clear 21 1015 73 10000 1 150 22:56 07.12.2019
3048 Clear 21 1015 77 10000 1 0 22:37 07.12.2019
3049 Clear 21 1015 77 10000 1 0 22:19 07.12.2019
3050 Clear 21 1015 73 10000 2.6 130 21:56 07.12.2019
3051 Clear 21 1015 73 10000 1.5 120 21:37 07.12.2019
3052 Clear 21 1015 73 10000 1.5 120 21:19 07.12.2019
3053 Clear 21 1015 73 10000 1.5 120 21:19 07.12.2019
3054 Clear 21 1016 64 10000 1 150 20:54 07.12.2019
3055 Clear 21 1016 64 10000 2.1 130 20:36 07.12.2019
3056 Clear 21 1016 64 10000 2.1 130 20:18 07.12.2019
3057 Clear 21 1016 64 10000 1 140 19:54 07.12.2019
3058 Clear 21 1016 64 10000 1.5 150 19:36 07.12.2019
3059 Clear 21 1016 64 10000 1.5 150 19:18 07.12.2019
3060 Clear 21 1016 64 10000 0.5 0 18:42 07.12.2019
3061 Clear 21 1016 64 10000 0.5 0 18:18 07.12.2019
3062 Clear 23 1015 60 10000 1.5 130 17:56 07.12.2019
3063 Clear 23 1015 60 10000 2.1 150 17:37 07.12.2019
3064 Clear 23 1015 60 10000 2.1 150 17:19 07.12.2019
3065 Clear 23 1015 60 10000 2.6 140 16:56 07.12.2019
3066 Clear 24 1014 57 10000 4.1 130 16:37 07.12.2019
3067 Clear 24 1014 57 10000 4.1 130 16:18 07.12.2019
3068 Clear 24 1014 53 10000 5.7 140 15:41 07.12.2019
3069 Clear 24 1014 53 10000 5.7 140 15:41 07.12.2019
3070 Clear 24 1014 53 10000 5.7 140 15:23 07.12.2019
3071 Clouds 25 1013 50 10000 6.2 140 14:57 07.12.2019
3072 Clouds 25 1013 47 10000 7.2 130 14:38 07.12.2019
3073 Clouds 25 1013 47 10000 7.2 130 14:18 07.12.2019
3074 Clouds 26 1013 44 10000 7.7 140 13:40 07.12.2019
3075 Clouds 26 1013 44 10000 7.7 140 13:21 07.12.2019
3076 Clouds 26 1013 41 10000 7.2 120 12:56 07.12.2019
3077 Clouds 26 1013 47 10000 7.7 120 12:37 07.12.2019
3078 Clouds 26 1013 47 10000 7.7 120 12:19 07.12.2019
3079 Clouds 26 1014 42 10000 7.2 130 11:55 07.12.2019
3080 Clouds 26 1014 39 10000 7.2 130 11:37 07.12.2019
3081 Clouds 26 1014 39 10000 7.2 130 11:19 07.12.2019
3082 Clouds 26 1015 39 10000 6.2 130 10:37 07.12.2019
3083 Clouds 26 1015 39 10000 6.2 130 10:19 07.12.2019
3084 Clouds 26 1016 36 10000 4.6 130 09:41 07.12.2019
3085 Clouds 26 1016 36 10000 4.6 130 09:22 07.12.2019
3086 Clouds 26 1016 44 10000 4.6 170 08:47 07.12.2019
3087 Clear 26 1017 47 10000 2.6 160 08:26 07.12.2019
3088 Clear 25 1017 47 10000 2.1 190 07:57 07.12.2019
3089 Clear 25 1017 53 10000 1 0 07:38 07.12.2019
3090 Clear 25 1017 53 10000 1 0 07:19 07.12.2019
3091 Clouds 22 1017 53 10000 1 0 06:45 07.12.2019
3092 Clouds 22 1017 53 10000 1 0 06:24 07.12.2019
3093 Clouds 18 1017 68 10000 1.5 250 04:49 07.12.2019
3094 Clear 17 1016 68 10000 0.5 0 03:54 07.12.2019
3095 Clear 18 1016 64 10000 0.5 240 02:50 07.12.2019
3096 Clear 18 1016 64 10000 2.48 122 02:19 07.12.2019
3097 Clear 18 1016 64 10000 0.5 0 01:31 07.12.2019
3098 Clear 19 1017 64 10000 0.5 0 00:43 07.12.2019
3099 Clear 19 1017 64 10000 0.5 0 00:19 07.12.2019
3100 Clear 19 1017 64 10000 0.5 0 23:47 06.12.2019
3101 Clear 19 1017 64 10000 2.79 87 23:24 06.12.2019
3102 Clear 19 1017 64 10000 2.79 87 22:58 06.12.2019
3103 Clear 19 1017 68 10000 2.79 87 22:37 06.12.2019
3104 Clear 19 1017 68 10000 2.79 87 22:18 06.12.2019
3105 Clear 19 1018 60 10000 2.79 87 21:56 06.12.2019
3106 Clear 19 1018 60 10000 2.79 87 21:37 06.12.2019
3107 Clear 19 1018 60 10000 2.79 87 21:19 06.12.2019
3108 Clear 20 1018 64 10000 2.79 87 20:42 06.12.2019
3109 Clear 20 1018 60 10000 2.75 54 20:22 06.12.2019
3110 Clear 20 1018 60 10000 2.75 54 19:57 06.12.2019
3111 Clear 21 1018 56 10000 0.5 10 19:39 06.12.2019
3112 Clear 21 1018 56 10000 0.5 10 19:20 06.12.2019
3113 Clear 23 1018 56 10000 1 0 18:44 06.12.2019
3114 -273 0 0 0 0 0 18:23 06.12.2019
3115 Clear 23 1018 56 10000 1 0 18:23 06.12.2019
3116 Clear 23 1018 56 10000 1 0 17:58 06.12.2019
3117 Clear 23 1018 60 10000 1 0 17:40 06.12.2019
3118 Clear 23 1018 60 10000 1 0 17:22 06.12.2019
3119 Clear 23 1018 60 10000 1 90 16:59 06.12.2019
3120 Clear 23 1018 60 10000 2.1 80 16:40 06.12.2019
3121 Clear 23 1018 60 10000 2.1 80 16:21 06.12.2019
3122 Clear 24 1018 57 10000 2.1 70 15:56 06.12.2019
3123 Clear 24 1017 53 10000 3.1 60 15:37 06.12.2019
3124 Clear 24 1017 53 10000 3.1 60 15:18 06.12.2019
3125 Clear 25 1017 47 10000 3.6 30 14:41 06.12.2019
3126 Clear 25 1017 47 10000 3.6 30 14:41 06.12.2019
3127 Clear 25 1017 47 10000 3.6 30 14:20 06.12.2019
3128 Clear 25 1017 50 10000 4.1 10 13:58 06.12.2019
3129 Clear 25 1017 50 10000 4.1 10 13:58 06.12.2019
3130 Clear 25 1017 53 10000 4.1 20 13:40 06.12.2019
3131 Clear 25 1017 53 10000 4.1 20 13:40 06.12.2019
3132 Clear 25 1017 53 10000 4.1 20 13:21 06.12.2019
3133 Clear 25 1017 53 10000 4.1 20 13:21 06.12.2019
3134 Clouds 25 1017 50 10000 4.6 10 12:41 06.12.2019
3135 Clouds 26 1017 50 10000 4.6 10 12:22 06.12.2019
3136 Clouds 25 1018 53 10000 4.6 10 11:43 06.12.2019
3137 Clouds 25 1018 53 10000 4.6 10 11:24 06.12.2019
3138 Clouds 25 1018 53 10000 4.6 10 11:24 06.12.2019
3139 Clouds 25 1018 54 10000 4.6 10 10:59 06.12.2019
3140 Clouds 25 1019 57 10000 4.1 350 10:40 06.12.2019
3141 Clouds 25 1019 57 10000 4.1 350 10:21 06.12.2019
3142 Clouds 25 1019 53 10000 4.1 360 09:56 06.12.2019
3143 Clouds 25 1020 57 10000 4.1 340 09:37 06.12.2019
3144 Clouds 25 1020 57 10000 4.1 340 09:19 06.12.2019
3145 Clouds 25 1020 53 10000 3.6 350 08:44 06.12.2019
3146 Clear 25 1021 57 10000 3.1 360 08:44 06.12.2019
3147 Clear 25 1021 57 10000 3.1 360 08:44 06.12.2019
3148 Clear 25 1021 57 10000 3.1 360 08:25 06.12.2019
3149 Clear 23 1021 60 10000 2.6 350 07:44 06.12.2019
3150 Clear 23 1021 64 10000 2.1 10 07:23 06.12.2019
3151 Clear 22 1021 60 10000 2.1 330 06:57 06.12.2019
3152 Clear 22 1020 60 10000 1 0 06:26 06.12.2019
3153 Clear 20 1020 60 10000 0.5 0 05:52 06.12.2019
3154 Clear 18 1020 68 10000 1.5 300 04:34 06.12.2019
3155 Clear 19 1019 64 10000 1 0 01:48 06.12.2019
3156 Clear 19 1019 60 10000 1.5 280 00:57 06.12.2019
3157 Clear 20 1019 60 10000 1 0 00:39 06.12.2019
3158 Clear 19 1019 60 10000 1 0 00:19 06.12.2019
3159 Clear 20 1020 60 10000 2.6 290 23:37 05.12.2019
3160 Clear 20 1020 60 10000 2.6 290 23:18 05.12.2019
3161 Clear 20 1020 56 10000 3.1 300 22:55 05.12.2019
3162 Clear 20 1020 56 10000 1.5 310 22:36 05.12.2019
3163 Clear 20 1020 56 10000 1.5 310 22:18 05.12.2019
3164 Clear 20 1020 56 10000 3.1 300 21:42 05.12.2019
3165 Clear 20 1020 56 10000 3.1 300 21:24 05.12.2019
3166 Clear 20 1020 56 10000 2.6 320 20:58 05.12.2019
3167 Clear 20 1020 56 10000 2.6 320 20:40 05.12.2019
3168 Clear 20 1020 56 10000 2.6 320 20:40 05.12.2019
3169 Clear 20 1021 56 10000 2.1 310 20:20 05.12.2019
3170 Clear 21 1021 53 10000 1.5 320 19:55 05.12.2019
3171 Clear 21 1021 53 10000 1.5 320 19:36 05.12.2019
3172 Clear 21 1021 53 10000 3.1 330 19:18 05.12.2019
3173 Clear 21 1021 53 10000 3.1 330 18:39 05.12.2019
3174 Clear 21 1021 53 10000 3.1 330 18:39 05.12.2019
3175 Clear 21 1021 53 10000 4.1 330 18:21 05.12.2019
3176 Clear 21 1021 53 10000 4.1 330 18:21 05.12.2019
3177 Clear 21 1021 53 10000 4.1 330 18:21 05.12.2019
3178 Clear 21 1021 53 10000 4.1 340 17:59 05.12.2019
3179 Clear 21 1021 53 10000 4.1 340 17:39 05.12.2019
3180 Clear 22 1020 49 10000 4.1 340 17:19 05.12.2019
3181 Clear 23 1020 53 10000 3.6 350 16:55 05.12.2019
3182 Clear 23 1020 53 10000 3.6 360 16:37 05.12.2019
3183 Clear 23 1020 53 10000 3.6 360 16:19 05.12.2019
3184 Clear 23 1019 53 10000 4.1 360 15:56 05.12.2019
3185 Clear 23 1019 53 10000 4.1 360 15:37 05.12.2019
3186 Clear 24 1019 53 10000 4.1 10 15:18 05.12.2019
3187 Clear 24 1019 53 10000 5.1 10 14:55 05.12.2019
3188 Clear 24 1019 53 10000 5.1 10 14:36 05.12.2019
3189 Clear 25 1018 53 10000 6.2 10 14:18 05.12.2019
3190 Clear 25 1018 53 10000 6.2 10 13:55 05.12.2019
3191 Clear 25 1018 53 10000 6.2 10 13:37 05.12.2019
3192 Clear 25 1018 50 10000 6.2 10 13:18 05.12.2019
3193 Clear 25 1018 50 10000 6.7 20 12:43 05.12.2019
3194 Clouds 25 1018 47 10000 6.2 10 12:23 05.12.2019
3195 Clouds 26 1018 47 10000 6.2 20 11:56 05.12.2019
3196 Clouds 26 1018 47 10000 6.2 20 11:38 05.12.2019
3197 Clouds 26 1019 44 10000 5.1 10 11:20 05.12.2019
3198 Clouds 26 1019 44 10000 5.1 10 11:20 05.12.2019
3199 Clouds 26 1019 44 10000 6.2 360 10:56 05.12.2019
3200 Clouds 26 1019 44 10000 6.2 360 10:38 05.12.2019
3201 Clouds 26 1020 44 10000 6.2 350 10:18 05.12.2019
3202 Clouds 25 1020 47 10000 6.2 350 09:45 05.12.2019
3203 Clear 25 1021 47 10000 6.2 350 09:21 05.12.2019
3204 Clear 24 1021 50 10000 6.2 340 08:58 05.12.2019
3205 Clear 24 1021 50 10000 6.2 340 08:38 05.12.2019
3206 Clear 24 1021 50 10000 6.2 340 08:38 05.12.2019
3207 Clear 23 1021 57 10000 5.7 340 08:19 05.12.2019
3208 Clear 23 1021 57 10000 4.1 330 07:50 05.12.2019
3209 Clear 23 1021 60 10000 4.1 340 07:32 05.12.2019
3210 Clear 23 1021 60 10000 4.1 340 07:32 05.12.2019
3211 Clear 21 1021 68 9000 3.6 330 06:57 05.12.2019
3212 Clear 21 1021 68 9000 3.6 330 06:38 05.12.2019
3213 Clear 21 1021 64 8000 3.1 310 06:19 05.12.2019
3214 Clear 19 1020 68 8000 3.1 310 05:47 05.12.2019
3215 Mist 18 1021 67 9000 2.6 300 05:22 05.12.2019
3216 Clear 18 1019 60 10000 2.6 310 03:59 05.12.2019
3217 Clear 18 1019 60 10000 2.6 310 03:59 05.12.2019
3218 Clear 18 1018 56 10000 3.1 310 02:43 05.12.2019
3219 Clear 18 1018 56 10000 3.1 310 02:24 05.12.2019
3220 Clear 19 1018 56 10000 3.1 310 01:52 05.12.2019
3221 Clear 19 1018 52 10000 2.6 320 01:24 05.12.2019
3222 Clear 18 1019 49 10000 3.1 310 00:50 05.12.2019
3223 Clear 18 1019 45 10000 2.6 310 00:31 05.12.2019
3224 Clear 18 1019 42 10000 2.1 300 23:57 04.12.2019
3225 Clear 18 1019 42 10000 2.1 300 23:39 04.12.2019
3226 Clear 18 1019 45 10000 1 0 23:21 04.12.2019
3227 Clear 19 1019 45 10000 2.6 320 22:55 04.12.2019
3228 Clear 19 1019 45 10000 2.6 320 22:36 04.12.2019
3229 Clear 19 1019 49 10000 2.1 310 22:18 04.12.2019
3230 Clear 20 1019 49 10000 3.1 310 21:54 04.12.2019
3231 Clear 20 1019 46 10000 2.6 330 21:36 04.12.2019
3232 Clear 20 1019 46 10000 2.6 330 21:18 04.12.2019
3233 Clear 20 1019 46 10000 2.6 320 20:55 04.12.2019
3234 Clear 20 1019 46 10000 3.6 330 20:37 04.12.2019
3235 Clear 20 1019 46 10000 3.6 330 20:18 04.12.2019
3236 Clear 20 1019 46 10000 3.6 330 20:18 04.12.2019
3237 Clear 20 1019 46 10000 3.6 330 19:39 04.12.2019
3238 Clear 20 1019 46 10000 3.1 330 19:21 04.12.2019
3239 Clear 21 1019 43 10000 3.6 330 18:58 04.12.2019
3240 Clear 21 1019 43 10000 3.6 330 18:40 04.12.2019
3241 Clear 21 1019 46 10000 3.1 330 18:21 04.12.2019
3242 Clear 22 1019 46 10000 3.6 340 17:55 04.12.2019
3243 Clear 22 1019 46 10000 5.1 340 17:36 04.12.2019
3244 Clear 22 1019 46 10000 5.1 340 17:18 04.12.2019
3245 Clear 23 1019 40 10000 5.1 330 16:40 04.12.2019
3246 Clear 23 1018 38 10000 4.1 320 16:20 04.12.2019
3247 Clear 23 1018 41 10000 4.6 330 15:57 04.12.2019
3248 Clear 23 1018 41 10000 4.6 330 15:38 04.12.2019
3249 Haze 24 1018 38 9000 5.1 330 15:19 04.12.2019
3250 Clouds 24 1017 57 10000 5.7 10 14:57 04.12.2019
3251 Clouds 24 1017 57 10000 5.7 10 14:39 04.12.2019
3252 Clouds 25 1017 53 10000 5.7 10 14:20 04.12.2019
3253 Clouds 25 1016 57 10000 6.2 10 13:39 04.12.2019
3254 Clouds 25 1016 50 10000 5.7 10 13:20 04.12.2019
3255 Clouds 26 1016 44 10000 4.1 10 12:58 04.12.2019
3256 Clouds 26 1016 44 10000 4.1 10 12:40 04.12.2019
3257 Haze 26 1017 36 9000 4.1 350 12:22 04.12.2019
3258 Clouds 26 1016 44 10000 4.1 20 11:41 04.12.2019
3259 Clouds 26 1016 44 10000 3.6 10 11:23 04.12.2019
3260 Clear 26 1017 41 10000 3.6 20 10:44 04.12.2019
3261 Clear 26 1017 41 10000 3.6 10 10:24 04.12.2019
3262 Clear 26 1017 41 10000 3.6 10 10:24 04.12.2019
3263 Clear 26 1018 44 10000 4.1 10 09:58 04.12.2019
3264 Clear 26 1018 44 10000 4.1 10 09:39 04.12.2019
3265 Clear 25 1018 44 10000 4.1 350 09:21 04.12.2019
3266 Clear 25 1018 44 10000 4.1 350 08:43 04.12.2019
3267 Clear 25 1018 47 10000 4.6 340 08:24 04.12.2019
3268 Clear 24 1019 47 10000 5.1 330 07:51 04.12.2019
3269 Haze 23 1020 56 9000 5.1 340 07:31 04.12.2019
3270 Clear 23 1018 50 10000 4.6 330 06:57 04.12.2019
3271 Clear 23 1018 50 10000 4.6 330 06:31 04.12.2019
3272 Clear 21 1018 53 10000 4.6 330 05:43 04.12.2019
3273 Clear 20 1017 60 10000 3.1 320 04:33 04.12.2019
3274 Clear 20 1016 64 10000 3.1 320 03:29 04.12.2019
3275 Haze 21 1017 72 9000 2.1 350 01:25 04.12.2019
3276 Clear 21 1016 68 10000 2.6 320 00:47 04.12.2019
3277 Haze 21 1016 72 9000 2.1 340 00:20 04.12.2019
3278 Clear 21 1016 64 10000 3.1 330 23:41 03.12.2019
3279 Clear 21 1016 56 10000 2.1 320 23:20 03.12.2019
3280 Clear 22 1016 56 10000 2.6 320 22:57 03.12.2019
3281 Clear 22 1016 56 10000 2.6 320 22:38 03.12.2019
3282 Clear 22 1016 53 10000 2.6 310 22:18 03.12.2019
3283 Clear 22 1016 69 10000 2.1 290 21:55 03.12.2019
3284 Clear 22 1016 69 10000 2.1 290 21:36 03.12.2019
3285 Clear 22 1016 64 10000 1 0 21:18 03.12.2019
3286 Clear 22 1016 64 10000 1 0 20:41 03.12.2019
3287 Haze 22 1017 68 9000 1.5 310 20:20 03.12.2019
3288 Clear 23 1016 64 10000 1.5 230 19:57 03.12.2019
3289 Clear 23 1016 64 10000 1.5 230 19:38 03.12.2019
3290 Clear 23 1016 64 10000 1.5 170 19:20 03.12.2019
3291 Clear 24 1016 64 10000 1 170 18:58 03.12.2019
3292 Clear 24 1016 64 10000 1 170 18:40 03.12.2019
3293 Clear 24 1016 64 10000 1.5 160 18:21 03.12.2019
3294 Clear 24 1015 60 10000 1.5 120 17:58 03.12.2019
3295 Clear 24 1015 64 10000 1.5 140 17:38 03.12.2019
3296 Clear 24 1015 64 10000 1.5 140 17:18 03.12.2019
3297 Clear 24 1015 64 10000 2.1 140 16:57 03.12.2019
3298 Clear 24 1015 64 10000 2.1 140 16:39 03.12.2019
3299 Clear 24 1015 64 10000 2.6 130 16:20 03.12.2019
3300 Clear 25 1014 61 10000 3.1 120 15:56 03.12.2019
3301 Clear 25 1014 61 10000 3.1 120 15:38 03.12.2019
3302 Haze 26 1014 29 9000 2.1 340 15:19 03.12.2019
3303 Clear 26 1014 61 10000 3.6 120 14:42 03.12.2019
3304 Haze 27 1014 24 9000 4.1 290 14:20 03.12.2019
3305 Clear 27 1013 54 10000 4.1 100 13:56 03.12.2019
3306 Clear 27 1013 54 10000 4.1 100 13:37 03.12.2019
3307 Haze 27 1013 23 9000 3.6 290 13:19 03.12.2019
3308 Clear 27 1013 51 10000 4.1 100 12:41 03.12.2019
3309 Haze 28 1014 23 9000 2.1 290 12:19 03.12.2019
3310 Haze 28 1014 23 9000 2.1 290 12:19 03.12.2019
3311 Clear 28 1013 45 10000 2.6 150 11:59 03.12.2019
3312 Clear 28 1013 45 10000 2.6 150 11:39 03.12.2019
3313 Haze 28 1014 21 9000 2.1 250 11:21 03.12.2019
3314 Clear 28 1014 32 10000 3.6 230 10:59 03.12.2019
3315 Clear 28 1014 32 10000 3.6 230 10:41 03.12.2019
3316 Clear 28 1015 32 10000 1 0 10:20 03.12.2019
3317 Clear 28 1015 35 10000 1.5 0 09:46 03.12.2019
3318 Clear 28 1015 35 10000 1.5 0 09:46 03.12.2019
3319 Clear 27 1016 39 10000 2.1 180 09:25 03.12.2019
3320 Clear 26 1016 44 10000 2.6 190 08:59 03.12.2019
3321 Clear 26 1016 44 10000 2.6 190 08:40 03.12.2019
3322 Clear 26 1016 47 10000 2.1 170 08:22 03.12.2019
3323 Clear 25 1017 54 10000 2.1 220 07:54 03.12.2019
3324 Haze 24 1017 50 9000 2.1 220 07:30 03.12.2019
3325 Clear 23 1016 57 9000 2.1 200 06:59 03.12.2019
3326 Clear 23 1016 64 8000 1.5 220 06:22 03.12.2019
3327 Clear 21 1016 69 7000 1.5 200 05:57 03.12.2019
3328 Clear 20 1015 73 8000 1 0 04:48 03.12.2019
3329 Clear 19 1014 73 10000 0.5 0 03:36 03.12.2019
3330 Clear 19 1014 73 10000 0.5 0 03:18 03.12.2019
3331 Clear 20 1014 68 10000 1 200 02:43 03.12.2019
3332 Clear 20 1014 68 10000 0.5 200 02:24 03.12.2019
3333 Clear 20 1014 68 10000 1 210 01:41 03.12.2019
3334 Clear 20 1014 68 10000 1 0 01:23 03.12.2019
3335 Clear 20 1014 68 10000 0.5 0 00:44 03.12.2019
3336 Clear 20 1014 68 10000 0.5 0 00:44 03.12.2019
3337 Haze 20 1015 68 9000 3.04 155 00:26 03.12.2019
3338 Clear 21 1014 68 10000 3.04 155 23:57 02.12.2019
3339 Clear 21 1014 68 10000 3.04 155 23:39 02.12.2019
3340 Clear 21 1014 68 10000 1 0 23:19 02.12.2019
3341 Clear 21 1014 68 10000 1 0 23:19 02.12.2019
3342 Clear 21 1015 68 10000 0.5 160 22:40 02.12.2019
3343 Clear 21 1015 68 10000 0.5 0 22:21 02.12.2019
3344 Clear 21 1015 64 10000 0.5 0 21:57 02.12.2019
3345 Clear 22 1015 64 10000 2.8 154 21:36 02.12.2019
3346 Clear 21 1015 64 10000 2.8 154 21:18 02.12.2019
3347 Clear 21 1015 64 10000 1 220 20:55 02.12.2019
3348 Clear 21 1015 64 10000 1 220 20:37 02.12.2019
3349 Clear 21 1015 64 10000 2.66 127 20:19 02.12.2019
3350 Clear 22 1015 64 10000 1 0 19:42 02.12.2019
3351 Clear 22 1015 60 10000 1.5 160 19:21 02.12.2019
3352 Clear 22 1015 60 10000 1.5 160 19:21 02.12.2019
3353 Clear 23 1015 60 10000 1.5 150 18:57 02.12.2019
3354 Clear 23 1015 60 10000 1.5 150 18:57 02.12.2019
3355 Clear 23 1015 57 10000 1 140 18:38 02.12.2019
3356 Clear 23 1015 57 10000 1 140 18:19 02.12.2019
3357 Clear 24 1015 60 10000 1.5 140 17:57 02.12.2019
3358 Clear 24 1015 60 10000 1.5 140 17:57 02.12.2019
3359 Clear 24 1015 60 10000 1.5 140 17:38 02.12.2019
3360 Clear 24 1015 60 10000 2.1 120 17:18 02.12.2019
3361 Clear 24 1015 60 10000 2.1 130 16:40 02.12.2019
3362 Clear 25 1015 57 10000 3.1 110 16:19 02.12.2019
3363 Clear 25 1014 53 10000 3.1 110 15:58 02.12.2019
3364 Clear 25 1014 53 10000 3.1 110 15:39 02.12.2019
3365 Clear 25 1014 57 10000 4.1 110 15:21 02.12.2019
3366 Clear 26 1014 53 10000 4.1 100 14:56 02.12.2019
3367 Clear 26 1014 53 10000 4.1 100 14:37 02.12.2019
3368 Haze 27 1014 20 9000 4.6 70 14:19 02.12.2019
3369 Clear 27 1014 44 10000 3.1 70 13:56 02.12.2019
3370 Clear 27 1014 44 10000 3.1 70 13:38 02.12.2019
3371 Clear 27 1014 39 10000 3.1 60 13:19 02.12.2019
3372 Clear 28 1014 37 10000 2.6 60 12:42 02.12.2019
3373 Haze 28 1014 18 9000 3.6 40 12:21 02.12.2019
3374 Clouds 28 1014 34 10000 3.1 60 11:58 02.12.2019
3375 Clouds 28 1014 34 10000 3.1 60 11:38 02.12.2019
3376 Clouds 28 1014 30 10000 2.6 50 11:19 02.12.2019
3377 Clear 28 1015 23 10000 3.1 20 10:57 02.12.2019
3378 Clear 28 1015 23 10000 3.1 20 10:39 02.12.2019
3379 Clear 28 1015 24 10000 3.1 20 10:21 02.12.2019
3380 Clear 28 1015 34 10000 2.1 0 09:56 02.12.2019
3381 Clear 28 1015 34 10000 2.1 0 09:38 02.12.2019
3382 Clear 28 1016 32 10000 1.5 150 09:18 02.12.2019
3383 Clear 26 1016 51 10000 3.1 100 08:55 02.12.2019
3384 Clear 26 1017 54 10000 3.6 110 08:36 02.12.2019
3385 Clear 26 1017 54 10000 3.6 110 08:18 02.12.2019
3386 Clear 25 1017 57 10000 3.6 120 07:38 02.12.2019
3387 Clear 25 1017 57 10000 3.6 100 07:20 02.12.2019
3388 Haze 24 1017 69 8000 2.6 120 06:42 02.12.2019
3389 Haze 21 1017 73 5000 1 0 05:45 02.12.2019
3390 Haze 20 1017 78 5000 1 0 05:19 02.12.2019
3391 Clear 19 1016 88 5000 1.5 340 03:28 02.12.2019
3392 Clear 20 1016 83 5000 1 0 02:50 02.12.2019
3393 Clear 20 1016 77 8000 1 350 01:47 02.12.2019
3394 Clear 20 1016 77 8000 0.5 10 01:21 02.12.2019
3395 Clear 20 1016 77 8000 1 350 00:37 02.12.2019
3396 Clear 20 1016 73 8000 1.52 316 00:19 02.12.2019
3397 Clear 21 1016 73 9000 0.5 210 23:42 01.12.2019
3398 Clear 21 1016 73 9000 0.5 0 23:21 01.12.2019
3399 Clear 21 1016 73 10000 1.06 303 22:56 01.12.2019
3400 Clear 21 1016 73 10000 1.06 303 22:38 01.12.2019
3401 Clear 21 1016 73 10000 1.06 303 22:19 01.12.2019
3402 Clear 22 1016 68 10000 1.06 303 21:56 01.12.2019
3403 Clear 22 1016 68 10000 1.06 303 21:56 01.12.2019
3404 Clear 22 1016 68 10000 1.06 303 21:38 01.12.2019
3405 Clear 22 1016 68 10000 1.06 303 21:38 01.12.2019
3406 Clear 22 1016 68 10000 1.06 303 21:19 01.12.2019
3407 Clear 22 1017 68 10000 1.06 303 20:58 01.12.2019
3408 Clear 22 1017 68 10000 1.06 303 20:39 01.12.2019
3409 Clear 22 1017 64 10000 2.16 2 20:21 01.12.2019
3410 Clear 23 1017 69 10000 0.5 50 19:57 01.12.2019
3411 Clear 23 1017 69 10000 0.5 50 19:38 01.12.2019
3412 Clear 23 1017 69 10000 1 80 19:20 01.12.2019
3413 Clear 23 1017 69 10000 0.5 0 18:56 01.12.2019
3414 Clear 23 1017 69 10000 0.5 0 18:37 01.12.2019
3415 Clear 23 1017 69 10000 0.5 0 18:37 01.12.2019
3416 Clear 23 1017 69 10000 0.5 20 18:18 01.12.2019
3417 Clear 24 1017 64 10000 0.5 0 17:56 01.12.2019
3418 Clear 24 1017 64 10000 1.5 90 17:38 01.12.2019
3419 Clear 24 1017 64 10000 1.5 90 17:19 01.12.2019
3420 Clear 24 1017 64 10000 1.5 70 16:44 01.12.2019
3421 Clear 24 1017 69 10000 1 0 16:25 01.12.2019
3422 Clear 25 1016 61 10000 1.5 140 15:58 01.12.2019
3423 Clear 25 1016 61 10000 1.5 140 15:58 01.12.2019
3424 Clear 25 1016 61 10000 1.5 140 15:40 01.12.2019
3425 Clear 25 1016 61 10000 1.5 140 15:40 01.12.2019
3426 Clouds 25 1016 61 10000 1.5 120 15:22 01.12.2019
3427 Clouds 25 1016 61 10000 1.5 120 15:22 01.12.2019
3428 Clouds 25 1016 61 10000 1.5 120 15:22 01.12.2019
3429 Clouds 26 1015 57 10000 3.6 130 14:38 01.12.2019
3430 Haze 27 1016 39 9000 1.5 0 14:19 01.12.2019
3431 Haze 27 1016 39 9000 1.5 0 14:19 01.12.2019
3432 Clouds 27 1015 54 10000 3.6 100 13:40 01.12.2019
3433 Haze 27 1016 24 9000 4.1 330 13:22 01.12.2019
3434 Clouds 28 1015 51 10000 4.1 90 12:59 01.12.2019
3435 Clouds 28 1015 51 10000 4.1 90 12:40 01.12.2019
3436 Clouds 28 1015 51 10000 4.1 90 12:40 01.12.2019
3437 Clouds 28 1015 51 10000 4.1 90 12:40 01.12.2019
3438 Clouds 28 1015 51 10000 4.1 90 12:40 01.12.2019
3439 Clouds 28 1015 51 10000 4.1 90 12:40 01.12.2019
3440 Clouds 28 1016 51 10000 3.6 90 11:46 01.12.2019
3441 Clouds 28 1016 51 10000 3.6 90 11:46 01.12.2019
3442 Clouds 28 1016 45 10000 2.6 90 11:25 01.12.2019
3443 Clouds 27 1016 47 10000 4.1 90 10:57 01.12.2019
3444 Haze 29 1018 37 9000 1.5 10 10:39 01.12.2019
3445 Haze 28 1018 37 9000 1.5 10 10:19 01.12.2019
3446 Clear 28 1017 35 10000 1.5 0 09:41 01.12.2019
3447 Clear 28 1018 37 10000 2.1 0 09:23 01.12.2019
3448 Clear 27 1018 34 10000 2.6 300 08:55 01.12.2019
3449 Clear 27 1018 34 10000 2.6 300 08:37 01.12.2019
3450 Clear 27 1019 44 10000 2.6 250 08:18 01.12.2019
3451 Clear 25 1019 47 10000 2.1 260 07:47 01.12.2019
3452 Clear 25 1019 54 9000 2.1 280 07:28 01.12.2019
3453 Clear 24 1019 61 8000 2.6 290 06:52 01.12.2019
3454 Clear 21 1019 73 6000 1.5 280 05:58 01.12.2019
3455 Haze 20 1018 77 5000 1.5 260 04:55 01.12.2019
3456 Haze 19 1018 77 5000 1.5 270 04:28 01.12.2019
3457 Clear 20 1017 73 9000 1.5 250 02:45 01.12.2019
3458 Clear 20 1017 73 9000 1 0 02:27 01.12.2019
3459 Clear 20 1017 68 9000 1 0 01:54 01.12.2019
3460 Clear 20 1017 68 9000 1 0 01:54 01.12.2019
3461 Clear 20 1017 73 10000 1 0 01:30 01.12.2019
3462 Clear 21 1017 73 10000 2.1 220 00:47 01.12.2019
3463 Clear 21 1017 68 10000 1.5 220 00:26 01.12.2019
3464 Clear 22 1017 64 10000 1 0 23:56 30.11.2019
3465 Clear 22 1017 64 10000 1 0 23:37 30.11.2019
3466 Clear 22 1017 69 10000 1 0 23:18 30.11.2019
3467 Clear 21 1017 69 10000 1.5 200 22:41 30.11.2019
3468 Clear 21 1017 69 10000 1 0 22:20 30.11.2019
3469 Clear 21 1017 69 10000 1 0 22:20 30.11.2019
3470 Clear 22 1017 69 10000 0.5 0 21:48 30.11.2019
3471 Haze 22 1019 73 9000 1.24 330 21:28 30.11.2019
3472 Clear 22 1018 69 10000 1.24 330 20:58 30.11.2019
3473 Clear 22 1018 69 10000 1.24 330 20:40 30.11.2019
3474 Clear 23 1018 69 10000 1.32 59 20:20 30.11.2019
3475 Clear 23 1018 69 10000 1.32 59 19:57 30.11.2019
3476 Clear 23 1018 69 10000 1.32 59 19:39 30.11.2019
3477 Clear 23 1018 69 10000 1.32 59 19:39 30.11.2019
3478 Clear 23 1018 73 10000 1 0 19:20 30.11.2019
3479 Clear 24 1018 69 10000 1 360 18:59 30.11.2019
3480 Clear 24 1018 69 10000 1 360 18:39 30.11.2019
3481 Clear 24 1018 69 10000 2.1 10 18:20 30.11.2019
3482 Clear 24 1018 69 10000 2.1 10 17:58 30.11.2019
3483 Clear 24 1018 69 10000 2.1 10 17:40 30.11.2019
3484 Clear 24 1018 69 10000 2.1 20 17:22 30.11.2019
3485 Clear 25 1018 65 10000 2.1 20 16:58 30.11.2019
3486 Clear 25 1018 65 10000 2.1 20 16:40 30.11.2019
3487 Clear 25 1018 33 9000 2.1 20 16:21 30.11.2019
3488 Clear 25 1018 33 9000 2.1 20 16:21 30.11.2019
3489 Clear 25 1017 69 10000 2.1 10 15:42 30.11.2019
3490 Clear 25 1017 69 10000 2.6 10 15:20 30.11.2019
3491 Clear 27 1017 57 10000 3.6 10 14:58 30.11.2019
3492 Clear 27 1017 57 10000 3.6 10 14:58 30.11.2019
3493 Clear 27 1017 57 10000 3.6 10 14:38 30.11.2019
3494 Haze 27 1017 26 9000 3.1 330 14:20 30.11.2019
3495 Clouds 27 1017 51 10000 4.1 20 13:58 30.11.2019
3496 Clouds 27 1017 51 10000 4.1 20 13:38 30.11.2019
3497 Clouds 28 1016 45 10000 3.6 20 13:20 30.11.2019
3498 Clouds 28 1016 42 10000 3.1 10 12:47 30.11.2019
3499 Haze 29 1017 28 9000 2.1 350 12:29 30.11.2019
3500 Clear 29 1017 39 10000 3.6 10 11:59 30.11.2019
3501 Clear 29 1017 39 10000 3.6 10 11:40 30.11.2019
3502 Clear 29 1017 37 10000 3.6 10 11:18 30.11.2019
3503 Clear 29 1017 37 10000 3.6 340 10:45 30.11.2019
3504 Clear 29 1018 37 10000 3.1 330 10:21 30.11.2019
3505 Clear 28 1018 39 10000 4.1 340 09:59 30.11.2019
3506 Clear 28 1018 39 10000 4.1 340 09:41 30.11.2019
3507 Clear 28 1019 42 10000 3.6 310 09:20 30.11.2019
3508 Clear 27 1019 42 10000 2.6 300 08:41 30.11.2019
3509 Clear 25 1020 44 10000 3.1 290 08:19 30.11.2019
3510 Clear 25 1020 47 10000 2.6 300 07:44 30.11.2019
3511 Clear 25 1020 47 10000 2.6 300 07:44 30.11.2019
3512 Clear 25 1020 51 9000 2.1 270 07:25 30.11.2019
3513 Clear 24 1020 57 9000 1.5 270 06:49 30.11.2019
3514 Clear 24 1020 61 8000 1.5 250 06:28 30.11.2019
3515 Clear 21 1019 68 8000 1.5 260 05:33 30.11.2019
3516 Clear 20 1018 68 10000 1 0 03:40 30.11.2019
3517 Clear 21 1018 68 10000 1.5 230 02:39 30.11.2019
3518 Clear 21 1018 73 10000 1.5 240 02:20 30.11.2019
3519 Clear 21 1018 73 10000 1.13 220 01:25 30.11.2019
3520 Clear 21 1018 68 10000 0.5 0 00:48 30.11.2019
3521 Clear 22 1018 69 10000 1.5 290 00:30 30.11.2019
3522 Clear 22 1018 64 10000 1 0 23:57 29.11.2019
3523 Clear 22 1018 64 10000 1 0 23:38 29.11.2019
3524 Clear 22 1018 69 10000 1.5 240 23:18 29.11.2019
3525 Clear 22 1018 64 10000 1 0 22:40 29.11.2019
3526 Clear 22 1018 69 10000 1 210 22:21 29.11.2019
3527 Clear 22 1018 69 10000 0.5 0 21:43 29.11.2019
3528 Clear 22 1018 69 10000 0.42 24 21:22 29.11.2019
3529 Clear 22 1018 69 10000 0.5 0 20:57 29.11.2019
3530 Clear 22 1018 69 10000 0.5 0 20:38 29.11.2019
3531 Clear 23 1018 69 10000 1.94 31 20:19 29.11.2019
3532 Clear 23 1018 64 10000 1.94 31 19:56 29.11.2019
3533 Clear 23 1018 64 10000 1.94 31 19:38 29.11.2019
3534 Clear 23 1018 64 10000 1.94 31 19:19 29.11.2019
3535 Clear 24 1018 60 10000 1.94 31 18:54 29.11.2019
3536 Clear 24 1018 60 10000 1.94 31 18:36 29.11.2019
3537 Clear 24 1018 60 10000 1.5 10 18:18 29.11.2019
3538 Clear 24 1018 60 10000 1.5 10 17:41 29.11.2019
3539 Clear 24 1019 60 10000 1.5 10 17:22 29.11.2019
3540 Clear 25 1018 57 10000 2.1 20 16:44 29.11.2019
3541 Clear 25 1018 53 10000 1.5 30 16:22 29.11.2019
3542 Clear 25 1018 53 10000 2.1 70 15:59 29.11.2019
3543 Clear 25 1018 53 10000 2.1 70 15:39 29.11.2019
3544 Clear 26 1017 53 10000 2.6 70 15:21 29.11.2019
3545 Clear 27 1017 50 10000 3.1 70 14:42 29.11.2019
3546 Clear 26 1017 50 10000 3.6 80 14:22 29.11.2019
3547 Clear 26 1017 50 10000 3.6 80 13:59 29.11.2019
3548 Clear 26 1017 50 10000 3.6 80 13:39 29.11.2019
3549 Clear 27 1017 47 10000 3.6 80 13:20 29.11.2019
3550 Clear 27 1017 47 10000 3.6 80 12:44 29.11.2019
3551 Clear 27 1017 44 10000 4.1 70 12:25 29.11.2019
3552 Clear 27 1017 44 10000 4.1 70 12:25 29.11.2019
3553 Clear 27 1017 47 10000 3.1 50 11:59 29.11.2019
3554 Clear 27 1017 47 10000 3.1 50 11:40 29.11.2019
3555 Clouds 28 1017 42 10000 4.1 20 11:19 29.11.2019
3556 Clouds 28 1017 44 10000 3.6 10 10:58 29.11.2019
3557 Clouds 28 1017 44 10000 3.6 10 10:39 29.11.2019
3558 Clouds 28 1018 39 10000 3.1 10 10:21 29.11.2019
3559 Clouds 27 1018 54 10000 3.1 60 09:59 29.11.2019
3560 Clouds 27 1018 54 10000 3.1 60 09:40 29.11.2019
3561 Clouds 27 1019 45 10000 1.5 20 09:22 29.11.2019
3562 Clear 27 1019 45 10000 1.5 10 08:57 29.11.2019
3563 Clear 27 1019 45 10000 1.5 10 08:37 29.11.2019
3564 Clear 26 1020 57 10000 2.1 20 08:19 29.11.2019
3565 Clear 25 1020 54 10000 1.5 20 07:42 29.11.2019
3566 Clear 25 1020 57 10000 1.5 20 07:23 29.11.2019
3567 Clear 25 1020 57 10000 1 0 06:55 29.11.2019
3568 Clear 25 1020 57 10000 0.5 0 06:36 29.11.2019
3569 Clear 22 1020 64 10000 1 0 05:47 29.11.2019
3570 Clear 20 1019 68 10000 1.28 190 05:23 29.11.2019
3571 Clear 20 1018 73 10000 1 0 03:58 29.11.2019
3572 Clear 20 1018 73 10000 1 230 03:19 29.11.2019
3573 Clear 21 1018 73 10000 0.5 360 02:28 29.11.2019
3574 Clear 21 1018 68 10000 2.05 137 01:50 29.11.2019
3575 Clear 21 1018 68 10000 0.5 0 01:24 29.11.2019
3576 Clear 21 1017 68 10000 1.8 136 00:42 29.11.2019
3577 Clear 21 1017 68 10000 1.8 136 00:20 29.11.2019
3578 Clear 21 1017 68 10000 1.8 136 23:44 28.11.2019
3579 Clear 22 1017 60 10000 0.5 0 23:21 28.11.2019
3580 Clear 22 1017 64 10000 1 0 22:58 28.11.2019
3581 Clear 22 1017 64 10000 1 0 22:38 28.11.2019
3582 Clear 22 1017 69 10000 1 0 22:20 28.11.2019
3583 Clear 22 1017 64 10000 1.67 68 21:56 28.11.2019
3584 Clear 22 1017 64 10000 1.67 68 21:37 28.11.2019
3585 Clear 22 1017 73 10000 1.67 68 21:18 28.11.2019
3586 Clear 23 1017 69 10000 0.5 130 20:42 28.11.2019
3587 Clear 23 1018 69 10000 1.53 57 20:23 28.11.2019
3588 Clear 24 1018 69 10000 0.5 0 19:59 28.11.2019
3589 Clear 24 1018 69 10000 0.5 0 19:40 28.11.2019
3590 Clear 24 1018 69 10000 2.11 38 19:22 28.11.2019
3591 Clear 24 1018 69 10000 0.5 0 18:59 28.11.2019
3592 Clear 24 1018 69 10000 0.5 0 18:39 28.11.2019
3593 Clear 24 1018 69 10000 0.5 0 18:18 28.11.2019
3594 Clear 24 1018 69 10000 1 30 17:59 28.11.2019
3595 Clear 24 1018 69 10000 1 30 17:59 28.11.2019
3596 Clear 24 1018 69 10000 1 30 17:41 28.11.2019
3597 Clear 24 1018 69 10000 1 80 17:21 28.11.2019
3598 Clear 25 1017 69 10000 2.1 70 16:57 28.11.2019
3599 Clear 25 1017 69 10000 2.1 70 16:56 28.11.2019
3600 Clear 25 1017 69 10000 2.1 70 16:38 28.11.2019
3601 Clear 25 1017 65 10000 2.1 60 16:18 28.11.2019
3602 Clear 25 1017 65 10000 2.1 60 16:18 28.11.2019
3603 Clouds 25 1017 61 10000 2.1 100 15:41 28.11.2019
3604 Clouds 25 1017 61 10000 2.6 100 15:20 28.11.2019
3605 Clear 25 1017 61 10000 2.6 90 14:59 28.11.2019
3606 Clear 25 1017 61 10000 2.6 90 14:40 28.11.2019
3607 Clear 26 1016 57 10000 3.1 90 14:21 28.11.2019
3608 Clouds 26 1016 57 10000 3.1 80 13:56 28.11.2019
3609 Clouds 26 1016 57 10000 3.1 80 13:38 28.11.2019
3610 Clouds 27 1016 54 10000 3.1 60 13:20 28.11.2019
3611 Clouds 27 1016 54 10000 3.6 10 12:43 28.11.2019
3612 Haze 27 1017 37 9000 2.1 220 12:23 28.11.2019
3613 Clouds 27 1017 54 10000 3.1 30 11:58 28.11.2019
3614 Clouds 27 1017 54 10000 3.1 30 11:39 28.11.2019
3615 Clouds 27 1017 51 10000 2.1 30 11:20 28.11.2019
3616 Clouds 26 1017 54 10000 2.6 10 10:43 28.11.2019
3617 Clouds 27 1018 51 10000 3.1 10 10:23 28.11.2019
3618 Clouds 27 1018 51 10000 2.6 360 09:59 28.11.2019
3619 Clouds 27 1018 51 10000 2.6 360 09:40 28.11.2019
3620 Haze 27 1019 37 9000 2.43 83 09:20 28.11.2019
3621 Haze 27 1019 37 9000 2.43 83 09:20 28.11.2019
3622 Clouds 26 1019 54 10000 2.6 30 08:54 28.11.2019
3623 Clouds 26 1019 54 10000 2.6 30 08:36 28.11.2019
3624 Clouds 27 1019 51 10000 2.6 340 08:18 28.11.2019
3625 Clouds 26 1019 51 10000 1 0 07:41 28.11.2019
3626 Clouds 25 1019 54 10000 1.5 350 07:23 28.11.2019
3627 Clouds 24 1019 61 10000 2.1 10 06:43 28.11.2019
3628 Clouds 23 1019 64 10000 2.6 350 06:18 28.11.2019
3629 Clouds 21 1019 64 9000 1.5 340 05:44 28.11.2019
3630 Clouds 20 1018 73 8000 1.86 2 04:57 28.11.2019
3631 Mist 21 1018 82 6000 1.5 330 02:36 28.11.2019
3632 Mist 21 1018 82 8000 2.25 341 01:28 28.11.2019
3633 Clouds 21 1017 73 10000 1 320 00:43 28.11.2019
3634 Clouds 21 1017 73 10000 1 0 00:20 28.11.2019
3635 Clouds 21 1017 73 10000 1 0 23:40 27.11.2019
3636 Clouds 21 1017 73 10000 1.5 330 23:22 27.11.2019
3637 Clouds 22 1017 69 10000 2.1 340 22:58 27.11.2019
3638 Clouds 22 1017 69 10000 2.1 340 22:38 27.11.2019
3639 Clear 22 1017 73 10000 1.5 340 22:19 27.11.2019
3640 Clear 22 1017 73 10000 2.1 340 21:56 27.11.2019
3641 Clear 22 1017 73 10000 2.1 340 21:37 27.11.2019
3642 Clear 22 1017 73 10000 2.1 340 21:19 27.11.2019
3643 Clear 22 1017 73 10000 2.6 340 20:57 27.11.2019
3644 Clear 22 1017 73 10000 2.6 340 20:57 27.11.2019
3645 Clear 22 1017 73 10000 2.6 340 20:38 27.11.2019
3646 Clouds 22 1017 73 10000 2.6 330 20:19 27.11.2019
3647 Clouds 23 1018 73 10000 3.1 330 19:56 27.11.2019
3648 Clouds 23 1018 73 10000 3.1 330 19:38 27.11.2019
3649 Clouds 23 1018 73 10000 3.1 330 19:19 27.11.2019
3650 Clouds 23 1018 73 10000 3.1 330 18:58 27.11.2019
3651 Clouds 23 1018 73 10000 3.1 330 18:36 27.11.2019
3652 Clouds 23 1018 73 10000 3.1 330 18:36 27.11.2019
3653 Clouds 23 1018 73 10000 3.6 340 18:18 27.11.2019
3654 Clouds 24 1018 78 10000 3.6 340 17:55 27.11.2019
3655 Clouds 24 1018 78 10000 3.6 340 17:37 27.11.2019
3656 Clouds 24 1018 78 10000 3.1 350 17:18 27.11.2019
3657 Clouds 24 1018 78 10000 3.1 350 17:18 27.11.2019
3658 -273 0 0 0 0 0 16:56 27.11.2019
3659 Clouds 24 1017 78 10000 2.6 10 16:36 27.11.2019
3660 Clouds 24 1017 73 10000 3.1 10 16:18 27.11.2019
3661 Clouds 25 1017 69 10000 3.1 360 15:56 27.11.2019
3662 Clouds 25 1017 69 10000 3.1 360 15:56 27.11.2019
3663 Clouds 25 1017 65 10000 2.6 20 15:38 27.11.2019
3664 Clouds 25 1017 65 10000 2.6 20 15:20 27.11.2019
3665 -273 0 0 0 0 0 14:56 27.11.2019
3666 Clouds 25 1017 65 10000 4.1 20 14:56 27.11.2019
3667 Clouds 25 1016 65 10000 4.1 20 14:38 27.11.2019
3668 Clouds 25 1016 65 10000 4.1 20 14:19 27.11.2019
3669 Clouds 26 1016 65 10000 4.6 30 13:55 27.11.2019
3670 Clouds 27 1016 57 10000 4.6 20 13:37 27.11.2019
3671 Clouds 27 1016 57 10000 4.6 20 13:18 27.11.2019
3672 Clouds 27 1016 57 10000 4.6 20 13:18 27.11.2019
3673 Clouds 27 1016 47 10000 5.1 20 12:41 27.11.2019
3674 Clouds 27 1016 47 10000 5.1 20 12:22 27.11.2019
3675 Clouds 27 1016 47 10000 5.1 20 12:22 27.11.2019
3676 Clouds 27 1016 47 10000 5.1 20 11:57 27.11.2019
3677 Clouds 27 1016 47 10000 5.1 10 11:37 27.11.2019
3678 Clouds 27 1017 51 10000 4.1 350 11:18 27.11.2019
3679 Clouds 27 1017 51 10000 4.1 350 10:46 27.11.2019
3680 Clouds 27 1017 51 10000 4.1 350 10:46 27.11.2019
3681 Clouds 27 1017 51 10000 4.1 350 10:46 27.11.2019
3682 Clouds 27 1017 47 10000 4.6 360 10:24 27.11.2019
3683 Clouds 26 1018 51 10000 4.1 350 09:58 27.11.2019
3684 Clouds 26 1018 51 10000 4.1 350 09:40 27.11.2019
3685 Clouds 26 1019 54 10000 3.1 0 09:22 27.11.2019
3686 Clouds 26 1019 54 10000 3.1 330 08:42 27.11.2019
3687 Clouds 26 1019 54 10000 1.5 0 08:23 27.11.2019
3688 Clouds 26 1019 54 10000 1.5 0 08:23 27.11.2019
3689 Clouds 25 1020 54 10000 1.5 310 07:51 27.11.2019
3690 Clouds 25 1020 57 10000 1.5 280 07:31 27.11.2019
3691 Clouds 24 1020 57 10000 1.5 310 06:58 27.11.2019
3692 Clouds 23 1019 57 10000 2.6 310 06:39 27.11.2019
3693 Clouds 22 1019 60 10000 1 0 05:55 27.11.2019
3694 Clouds 21 1019 68 9000 1 340 05:26 27.11.2019
3695 Clouds 20 1019 77 9000 0.5 0 04:55 27.11.2019
3696 Clouds 20 1019 77 9000 0.5 0 04:36 27.11.2019
3697 Clouds 21 1018 68 10000 1 0 03:48 27.11.2019
3698 Clouds 21 1018 73 10000 2.1 310 03:21 27.11.2019
3699 Clouds 21 1017 73 10000 1 320 02:48 27.11.2019
3700 Clouds 21 1017 73 10000 1 310 01:26 27.11.2019
3701 Clouds 21 1018 69 10000 1 0 00:42 27.11.2019
3702 Clouds 21 1018 69 10000 1 0 00:23 27.11.2019
3703 Clouds 22 1018 69 10000 1.5 310 23:42 26.11.2019
3704 Clouds 22 1018 69 10000 1.5 310 23:24 26.11.2019
3705 Clouds 22 1018 69 10000 1.5 290 22:55 26.11.2019
3706 Clouds 22 1018 64 10000 2.1 300 22:37 26.11.2019
3707 Clouds 22 1018 64 10000 2.1 300 22:18 26.11.2019
3708 Clouds 22 1018 64 10000 1.5 320 21:39 26.11.2019
3709 Clouds 22 1018 69 10000 2.1 330 21:21 26.11.2019
3710 Clouds 22 1018 73 10000 2.6 330 20:58 26.11.2019
3711 Clouds 22 1018 78 10000 2.6 330 20:39 26.11.2019
3712 Clear 23 1018 78 10000 2.6 330 20:19 26.11.2019
3713 Clear 23 1018 78 10000 2.1 340 19:56 26.11.2019
3714 Clear 23 1018 78 10000 1.5 350 19:38 26.11.2019
3715 Clear 23 1018 78 10000 1.5 350 19:20 26.11.2019
3716 Clear 24 1018 69 10000 2.6 10 18:58 26.11.2019
3717 Clear 24 1018 69 10000 3.1 10 18:39 26.11.2019
3718 Clear 24 1018 69 10000 3.1 10 18:21 26.11.2019
3719 Clear 24 1018 69 10000 3.1 360 17:59 26.11.2019
3720 Clear 24 1017 69 10000 2.6 10 17:41 26.11.2019
3721 Clear 24 1017 69 10000 2.6 10 17:22 26.11.2019
3722 Clear 25 1017 61 10000 3.6 20 16:57 26.11.2019
3723 Clouds 25 1017 65 10000 3.1 10 16:38 26.11.2019
3724 Clouds 25 1017 65 10000 3.1 10 16:19 26.11.2019
3725 Clouds 25 1017 65 10000 3.6 360 15:59 26.11.2019
3726 Haze 25 1018 50 9000 3.1 80 15:38 26.11.2019
3727 Haze 25 1018 50 9000 3.1 80 15:20 26.11.2019
3728 Clouds 25 1016 61 10000 3.6 20 14:58 26.11.2019
3729 Clouds 25 1016 61 10000 3.6 20 14:40 26.11.2019
3730 Clouds 26 1016 57 10000 4.1 30 14:22 26.11.2019
3731 Clouds 26 1016 54 10000 4.1 40 13:41 26.11.2019
3732 Clouds 26 1016 54 10000 3.6 30 13:23 26.11.2019
3733 Clouds 26 1016 54 10000 3.6 30 13:23 26.11.2019
3734 Clouds 27 1016 51 10000 3.6 360 12:40 26.11.2019
3735 Clouds 27 1016 51 10000 3.6 360 12:22 26.11.2019
3736 Clouds 27 1016 51 10000 3.6 10 11:59 26.11.2019
3737 Clouds 27 1017 47 10000 3.1 10 11:40 26.11.2019
3738 Clouds 27 1017 47 10000 3.1 10 11:20 26.11.2019
3739 Clouds 27 1017 47 10000 3.6 30 10:59 26.11.2019
3740 Clouds 27 1017 47 10000 3.6 30 10:41 26.11.2019
3741 Clouds 27 1017 47 10000 3.1 10 10:21 26.11.2019
3742 Clouds 26 1018 54 10000 3.1 360 09:58 26.11.2019
3743 Clouds 26 1018 54 10000 3.1 360 09:40 26.11.2019
3744 Clouds 27 1018 51 10000 2.6 350 09:21 26.11.2019
3745 Clouds 26 1019 48 10000 1 0 08:46 26.11.2019
3746 Clouds 26 1019 50 10000 1.5 0 08:26 26.11.2019
3747 Clear 25 1019 54 10000 1.5 210 07:56 26.11.2019
3748 Clear 25 1019 54 10000 2.1 280 07:36 26.11.2019
3749 Clear 25 1019 54 10000 2.1 280 07:18 26.11.2019
3750 Clear 23 1019 57 10000 1.5 280 06:41 26.11.2019
3751 Clouds 21 1018 60 10000 1 0 05:58 26.11.2019
3752 Clouds 20 1018 68 10000 1 0 04:57 26.11.2019
3753 Clear 20 1017 68 10000 1.5 250 02:53 26.11.2019
3754 Clear 20 1017 68 10000 2.1 240 01:36 26.11.2019
3755 Clear 20 1017 68 10000 2.1 240 01:18 26.11.2019
3756 Clear 21 1016 68 10000 1 0 00:40 26.11.2019
3757 Clear 21 1016 68 10000 1 0 23:56 25.11.2019
3758 Clear 21 1017 68 10000 1 0 23:37 25.11.2019
3759 Clear 21 1017 64 10000 1.5 240 23:18 25.11.2019
3760 Clear 21 1017 64 10000 1.5 240 22:39 25.11.2019
3761 Clear 21 1017 64 10000 1 0 22:19 25.11.2019
3762 Clear 22 1017 64 10000 1 0 21:59 25.11.2019
3763 Clear 22 1017 64 10000 1 0 21:41 25.11.2019
3764 Mist 22 1018 73 8000 2.65 77 21:22 25.11.2019
3765 Clouds 22 1018 64 10000 1.5 240 20:58 25.11.2019
3766 Clouds 22 1018 64 10000 1.5 240 20:40 25.11.2019
3767 Clouds 22 1018 64 10000 1.5 240 20:20 25.11.2019
3768 Clouds 23 1017 69 10000 0.5 0 19:57 25.11.2019
3769 Clouds 23 1017 69 10000 0.5 0 19:38 25.11.2019
3770 Clouds 23 1017 69 10000 1.5 340 19:20 25.11.2019
3771 Clouds 23 1017 64 10000 0.5 350 18:58 25.11.2019
3772 Clear 23 1017 64 10000 0.5 100 18:40 25.11.2019
3773 Clear 23 1017 64 10000 0.5 100 18:21 25.11.2019
3774 Clear 23 1017 64 10000 1 120 17:58 25.11.2019
3775 Clear 24 1017 60 10000 1 80 17:40 25.11.2019
3776 Clear 24 1017 60 10000 1 80 17:40 25.11.2019
3777 Clouds 24 1017 60 10000 1 80 17:21 25.11.2019
3778 Clouds 24 1017 57 10000 1 70 16:59 25.11.2019
3779 Clouds 24 1017 57 10000 1 70 16:40 25.11.2019
3780 Clouds 24 1017 53 10000 1.5 80 16:22 25.11.2019
3781 Clouds 24 1016 50 10000 3.1 70 15:56 25.11.2019
3782 Clouds 24 1016 50 10000 3.1 70 15:37 25.11.2019
3783 Clouds 24 1016 50 10000 3.6 70 15:19 25.11.2019
3784 Clouds 25 1016 53 10000 3.6 90 14:43 25.11.2019
3785 Clouds 25 1016 50 10000 3.1 100 14:25 25.11.2019
3786 Clouds 26 1016 50 10000 3.1 90 13:58 25.11.2019
3787 Clouds 26 1016 50 10000 3.1 90 13:38 25.11.2019
3788 Clouds 26 1016 50 10000 4.1 100 13:38 25.11.2019
3789 Clouds 26 1016 50 10000 4.1 100 13:20 25.11.2019
3790 Clouds 26 1016 50 10000 4.1 100 13:20 25.11.2019
3791 Clouds 26 1016 50 10000 2.6 120 12:59 25.11.2019
3792 Clouds 26 1016 47 10000 2.1 140 12:39 25.11.2019
3793 Clouds 26 1016 47 10000 2.1 140 12:19 25.11.2019
3794 Clouds 26 1017 47 10000 2.1 170 11:40 25.11.2019
3795 Clouds 25 1017 47 10000 2.1 170 11:21 25.11.2019
3796 Clouds 25 1017 47 10000 2.1 170 11:21 25.11.2019
3797 Clouds 25 1017 54 10000 2.6 190 10:59 25.11.2019
3798 Clouds 25 1017 54 10000 2.6 190 10:41 25.11.2019
3799 Clouds 25 1017 47 10000 3.1 170 10:20 25.11.2019
3800 Clouds 25 1017 47 10000 3.1 170 10:20 25.11.2019
3801 Clouds 25 1018 53 10000 3.6 150 09:44 25.11.2019
3802 Clouds 25 1018 47 10000 1.5 140 09:26 25.11.2019
3803 Clouds 25 1018 47 10000 1.5 140 09:26 25.11.2019
3804 Clouds 24 1019 53 10000 1.5 140 08:58 25.11.2019
3805 Clouds 24 1019 53 10000 1.5 140 08:39 25.11.2019
3806 Clouds 24 1019 53 10000 2.1 140 08:20 25.11.2019
3807 Clouds 23 1019 57 10000 2.6 140 07:41 25.11.2019
3808 Clouds 23 1019 60 10000 3.1 170 07:18 25.11.2019
3809 Clouds 22 1019 68 10000 2.6 160 06:43 25.11.2019
3810 Rain 21 1019 68 10000 2.6 160 06:19 25.11.2019
3811 Rain 21 1019 68 10000 2.6 160 06:19 25.11.2019
3812 Clouds 22 1018 64 10000 1 0 05:37 25.11.2019
3813 Clouds 21 1017 68 10000 2.35 92 04:50 25.11.2019
3814 Clear 21 1016 64 10000 1 30 02:48 25.11.2019
3815 Clouds 21 1016 68 10000 2.35 61 02:18 25.11.2019
3816 Clouds 21 1016 68 10000 1 360 01:38 25.11.2019
3817 Clouds 21 1016 68 10000 1 360 01:19 25.11.2019
3818 Clouds 21 1016 64 10000 1 220 00:22 25.11.2019
3819 Clouds 21 1016 64 10000 0.5 320 23:57 24.11.2019
3820 Clouds 21 1016 64 10000 1 350 23:37 24.11.2019
3821 Clouds 21 1016 64 10000 1 350 23:18 24.11.2019
3822 Clouds 22 1016 60 10000 0.5 0 22:42 24.11.2019
3823 Clouds 22 1017 64 10000 2.83 50 22:21 24.11.2019
3824 Clouds 22 1017 64 10000 2.83 50 22:21 24.11.2019
3825 Clouds 22 1017 56 10000 2.83 50 21:59 24.11.2019
3826 Clouds 22 1017 56 10000 2.83 50 21:41 24.11.2019
3827 Clouds 22 1017 60 10000 0.5 0 21:21 24.11.2019
3828 Clouds 22 1017 60 10000 0.5 0 20:59 24.11.2019
3829 Clouds 22 1017 60 10000 0.5 0 20:39 24.11.2019
3830 Clear 22 1018 56 10000 1 120 20:19 24.11.2019
3831 Clear 23 1018 57 10000 1.5 170 19:57 24.11.2019
3832 Clear 23 1018 57 10000 1.5 170 19:57 24.11.2019
3833 Clear 22 1018 56 10000 1.5 150 19:38 24.11.2019
3834 Clear 22 1018 56 10000 1.5 150 19:20 24.11.2019
3835 Clear 23 1018 56 10000 1.5 130 18:59 24.11.2019
3836 Clear 23 1018 53 10000 1 130 18:38 24.11.2019
3837 Clear 24 1018 57 10000 1.5 150 18:19 24.11.2019
3838 Clear 24 1018 57 10000 1.5 150 17:57 24.11.2019
3839 Clear 24 1018 53 10000 1.5 120 17:39 24.11.2019
3840 Clear 24 1018 53 10000 1.5 120 17:20 24.11.2019
3841 Clear 24 1018 53 10000 1.5 120 16:57 24.11.2019
3842 Clear 24 1018 53 10000 1.5 120 16:39 24.11.2019
3843 Clear 24 1018 53 10000 1.5 120 16:39 24.11.2019
3844 Haze 24 1018 47 9000 3.1 120 16:20 24.11.2019
3845 Clear 24 1017 53 10000 2.6 80 15:45 24.11.2019
3846 Clear 25 1017 50 10000 2.6 60 15:26 24.11.2019
3847 Clear 25 1017 50 10000 2.6 80 14:58 24.11.2019
3848 Clear 25 1017 50 10000 2.6 80 14:39 24.11.2019
3849 Clouds 25 1017 50 10000 3.6 60 14:19 24.11.2019
3850 Clouds 26 1017 47 10000 3.6 50 13:56 24.11.2019
3851 Clouds 26 1017 47 10000 3.6 50 13:37 24.11.2019
3852 Clouds 26 1017 44 10000 3.1 60 13:19 24.11.2019
3853 Clouds 26 1017 41 10000 3.1 70 12:42 24.11.2019
3854 Clouds 26 1017 41 10000 3.1 70 12:20 24.11.2019
3855 Clouds 26 1017 41 10000 3.1 50 11:59 24.11.2019
3856 Clouds 26 1017 41 10000 3.1 50 11:37 24.11.2019
3857 Clouds 26 1017 41 10000 3.1 50 11:37 24.11.2019
3858 Clouds 26 1017 41 10000 3.1 50 11:19 24.11.2019
3859 Clear 26 1017 41 10000 2.6 50 10:48 24.11.2019
3860 Clear 26 1017 41 10000 3.1 80 10:29 24.11.2019
3861 Clear 26 1018 44 10000 3.1 10 09:59 24.11.2019
3862 Clear 26 1018 44 10000 3.1 10 09:38 24.11.2019
3863 Clear 26 1018 44 10000 3.1 10 09:19 24.11.2019
3864 Clear 25 1018 44 10000 3.6 360 08:56 24.11.2019
3865 Clear 25 1019 44 10000 3.1 350 08:37 24.11.2019
3866 Clear 25 1019 44 10000 3.1 350 08:18 24.11.2019
3867 Clear 24 1019 44 10000 3.1 350 07:47 24.11.2019
3868 Clear 24 1019 44 10000 2.6 350 07:20 24.11.2019
3869 Clear 24 1019 44 10000 2.6 350 07:20 24.11.2019
3870 Clear 23 1019 47 10000 1.5 330 06:26 24.11.2019
3871 Clear 19 1019 56 10000 1 0 04:54 24.11.2019
3872 Clear 18 1019 60 10000 1 0 04:35 24.11.2019
3873 Clear 19 1017 60 10000 1.5 320 02:35 24.11.2019
3874 Clear 19 1017 56 10000 1 0 01:49 24.11.2019
3875 Clear 18 1017 60 10000 1 300 01:27 24.11.2019
3876 Clear 19 1017 60 10000 1.5 320 00:50 24.11.2019
3877 Clear 19 1017 60 10000 1.5 330 00:24 24.11.2019
3878 Clear 20 1018 56 10000 1 320 23:56 23.11.2019
3879 Clear 20 1018 56 10000 1 320 23:56 23.11.2019
3880 Clear 20 1018 60 10000 1.5 330 23:38 23.11.2019
3881 Clear 20 1018 60 10000 1.5 330 23:19 23.11.2019
3882 Clear 19 1018 60 10000 1.5 320 22:55 23.11.2019
3883 Haze 20 1019 68 9000 2.1 10 22:37 23.11.2019
3884 Haze 20 1019 68 9000 2.1 10 22:18 23.11.2019
3885 Clear 21 1018 56 10000 1.5 320 21:55 23.11.2019
3886 Clear 21 1018 56 10000 1.5 320 21:36 23.11.2019
3887 Clear 20 1018 56 10000 2.1 340 21:18 23.11.2019
3888 Clear 21 1018 49 10000 1 0 20:38 23.11.2019
3889 Clear 21 1019 49 10000 2.26 28 20:19 23.11.2019
3890 Clear 21 1019 49 10000 1 350 19:56 23.11.2019
3891 Clear 21 1019 53 10000 1 0 19:38 23.11.2019
3892 Clear 21 1019 53 10000 1 0 19:18 23.11.2019
3893 Clear 21 1019 53 10000 1 0 19:18 23.11.2019
3894 Clear 22 1019 49 10000 2.26 28 18:55 23.11.2019
3895 Clear 22 1019 49 10000 2.26 28 18:36 23.11.2019
3896 Clear 22 1019 49 10000 2.26 28 18:18 23.11.2019
3897 Clear 23 1019 49 10000 1 80 17:42 23.11.2019
3898 Clear 23 1019 49 10000 1 80 17:21 23.11.2019
3899 Clear 23 1018 49 10000 1.5 110 16:56 23.11.2019
3900 Clear 23 1018 49 10000 1.5 110 16:38 23.11.2019
3901 Clouds 23 1018 53 10000 1.5 90 16:38 23.11.2019
3902 Clouds 23 1018 53 10000 1.5 90 16:20 23.11.2019
3903 Clear 24 1018 50 10000 2.1 90 15:58 23.11.2019
3904 Clear 24 1018 47 10000 2.6 100 15:39 23.11.2019
3905 Clear 24 1018 47 10000 2.6 100 15:19 23.11.2019
3906 Clouds 24 1018 47 10000 3.1 80 14:56 23.11.2019
3907 Clouds 24 1018 47 10000 3.1 80 14:56 23.11.2019
3908 Haze 25 1018 33 9000 3.1 90 14:37 23.11.2019
3909 Haze 25 1018 33 9000 3.1 90 14:18 23.11.2019
3910 Clear 26 1017 44 10000 3.6 40 13:42 23.11.2019
3911 Clear 26 1017 41 10000 3.1 50 13:20 23.11.2019
3912 Clear 25 1017 41 10000 3.6 40 12:58 23.11.2019
3913 Clear 25 1018 41 10000 4.1 40 12:39 23.11.2019
3914 Clear 25 1018 41 10000 4.1 40 12:21 23.11.2019
3915 Clear 25 1018 34 10000 3.1 100 11:42 23.11.2019
3916 Clear 26 1018 34 10000 3.1 100 11:20 23.11.2019
3917 Clear 26 1019 36 10000 2.6 90 10:45 23.11.2019
3918 Clouds 26 1019 39 10000 2.6 30 10:22 23.11.2019
3919 Clouds 26 1020 36 10000 3.1 10 09:42 23.11.2019
3920 Clear 25 1020 38 10000 1.5 0 09:21 23.11.2019
3921 Clear 24 1021 41 10000 3.1 360 08:45 23.11.2019
3922 Clouds 24 1021 41 10000 2.6 350 08:20 23.11.2019
3923 Clouds 24 1022 41 10000 3.6 340 07:54 23.11.2019
3924 Clouds 23 1022 47 10000 4.1 330 07:35 23.11.2019
3925 Clouds 22 1021 47 10000 3.1 330 06:48 23.11.2019
3926 Clouds 22 1021 49 10000 2.6 330 06:21 23.11.2019
3927 Clouds 20 1021 53 10000 3.1 330 05:53 23.11.2019
3928 Clouds 20 1021 56 10000 2.6 320 05:30 23.11.2019
3929 Clouds 19 1020 56 10000 2.1 310 04:50 23.11.2019
3930 Clouds 19 1020 60 10000 2.6 320 04:28 23.11.2019
3931 Clouds 20 1019 52 10000 3.1 310 02:53 23.11.2019
3932 Clouds 20 1019 56 10000 3.1 310 02:22 23.11.2019
3933 Clouds 20 1019 56 10000 2.6 310 01:38 23.11.2019
3934 Clouds 20 1019 60 10000 2.6 310 00:43 23.11.2019
3935 Clouds 20 1019 60 10000 2.6 310 00:18 23.11.2019
3936 Clouds 20 1019 60 10000 2.6 310 00:18 23.11.2019
3937 Clouds 20 1019 60 10000 2.6 310 23:42 22.11.2019
3938 Clouds 20 1019 60 10000 2.6 310 23:20 22.11.2019
3939 Clouds 21 1019 60 10000 3.1 310 22:57 22.11.2019
3940 Clouds 22 1020 56 10000 3.1 300 22:38 22.11.2019
3941 Clouds 22 1020 56 10000 3.1 300 22:38 22.11.2019
3942 Clouds 21 1020 56 10000 3.1 300 22:20 22.11.2019
3943 Clouds 21 1020 56 10000 3.1 300 21:58 22.11.2019
3944 Clouds 21 1020 56 10000 3.1 300 21:39 22.11.2019
3945 Haze 21 1020 68 9000 3.1 340 21:20 22.11.2019
3946 Clouds 21 1020 56 10000 3.6 300 20:43 22.11.2019
3947 Clouds 21 1020 56 10000 3.1 310 20:22 22.11.2019
3948 Clouds 21 1020 56 10000 3.6 320 19:57 22.11.2019
3949 Haze 21 1021 63 9000 2.6 340 19:38 22.11.2019
3950 Haze 21 1021 63 9000 2.6 340 19:19 22.11.2019
3951 Clouds 21 1020 56 10000 3.6 310 18:41 22.11.2019
3952 Haze 22 1021 64 9000 2.6 340 18:22 22.11.2019
3953 Clouds 22 1020 49 10000 4.6 330 17:59 22.11.2019
3954 Clouds 22 1020 49 10000 4.6 330 17:40 22.11.2019
3955 Haze 22 1021 56 9000 3.1 340 17:22 22.11.2019
3956 Clouds 23 1020 53 10000 4.6 350 16:47 22.11.2019
3957 Haze 23 1020 53 9000 5.1 330 16:28 22.11.2019
3958 Clouds 23 1019 49 10000 2.6 360 15:47 22.11.2019
3959 Haze 24 1019 43 9000 4.1 320 15:25 22.11.2019
3960 Clear 24 1018 47 10000 3.1 10 14:57 22.11.2019
3961 Clear 24 1018 47 10000 3.1 10 14:39 22.11.2019
3962 Haze 24 1019 41 9000 4.1 340 14:21 22.11.2019
3963 Clear 24 1018 47 10000 4.1 20 13:59 22.11.2019
3964 Clear 24 1018 47 10000 4.1 20 13:59 22.11.2019
3965 Clear 24 1018 47 10000 4.1 20 13:37 22.11.2019
3966 Haze 25 1019 36 9000 2.6 340 13:19 22.11.2019
3967 Clear 25 1018 41 10000 4.1 30 12:57 22.11.2019
3968 Haze 25 1019 34 9000 3.6 350 12:39 22.11.2019
3969 Haze 25 1019 34 9000 3.6 350 12:19 22.11.2019
3970 Clear 25 1018 38 10000 3.6 30 11:56 22.11.2019
3971 Clear 25 1018 38 10000 3.6 30 11:36 22.11.2019
3972 Haze 25 1019 33 9000 4.1 340 11:18 22.11.2019
3973 Clouds 25 1019 38 10000 5.7 340 10:41 22.11.2019
3974 Haze 25 1020 36 9000 4.6 360 10:22 22.11.2019
3975 Clouds 24 1020 41 10000 4.6 330 09:58 22.11.2019
3976 Clouds 24 1020 41 10000 4.6 330 09:39 22.11.2019
3977 Haze 24 1021 41 9000 5.1 340 09:21 22.11.2019
3978 Clouds 23 1021 44 10000 4.1 310 08:48 22.11.2019
3979 Clouds 23 1021 44 10000 4.1 310 08:48 22.11.2019
3980 Haze 23 1022 49 9000 5.7 310 08:28 22.11.2019
3981 Clouds 22 1021 53 10000 3.6 300 07:58 22.11.2019
3982 Clouds 22 1021 53 10000 3.6 300 07:40 22.11.2019
3983 Haze 21 1022 56 9000 5.7 300 07:19 22.11.2019
3984 Clouds 20 1021 60 10000 3.1 290 06:41 22.11.2019
3985 Clouds 19 1021 64 10000 3.1 280 05:57 22.11.2019
3986 Clear 17 1020 72 10000 2.1 260 04:53 22.11.2019
3987 Clear 18 1018 63 10000 4.6 290 02:57 22.11.2019
3988 Clear 18 1018 63 10000 4.6 290 02:37 22.11.2019
3989 Haze 18 1019 63 9000 3.6 300 02:18 22.11.2019
3990 Clear 18 1018 63 10000 3.6 290 01:42 22.11.2019
3991 Haze 18 1019 59 9000 3.6 300 01:18 22.11.2019
3992 Haze 19 1019 55 9000 4.1 300 00:26 22.11.2019
3993 Clear 19 1018 52 10000 4.1 290 23:57 21.11.2019
3994 Clear 19 1018 52 10000 4.1 290 23:39 21.11.2019
3995 Haze 19 1019 59 9000 3.6 300 23:21 21.11.2019
3996 Clear 19 1018 56 10000 2.6 280 22:54 21.11.2019
3997 Clear 19 1018 56 10000 2.6 280 22:36 21.11.2019
3998 Haze 19 1019 63 9000 3.6 310 22:18 21.11.2019
3999 Clear 19 1019 56 10000 3.6 280 21:54 21.11.2019
4000 Clear 19 1019 56 10000 3.6 280 21:36 21.11.2019
4001 Haze 19 1020 55 9000 3.1 300 21:18 21.11.2019
4002 Clear 19 1019 52 10000 4.1 290 20:54 21.11.2019
4003 Clear 19 1019 52 10000 4.1 290 20:36 21.11.2019
4004 Haze 19 1020 55 9000 4.6 310 20:18 21.11.2019
4005 Clear 20 1019 56 10000 3.1 280 19:41 21.11.2019
4006 Haze 20 1020 52 9000 3.6 310 19:23 21.11.2019
4007 Clear 20 1019 52 10000 4.6 290 18:58 21.11.2019
4008 Clear 20 1019 52 10000 4.6 290 18:40 21.11.2019
4009 Haze 20 1020 52 9000 3.6 310 18:20 21.11.2019
4010 Clear 21 1018 40 10000 4.1 310 17:58 21.11.2019
4011 Clear 21 1018 40 10000 4.1 310 17:39 21.11.2019
4012 Haze 21 1019 52 9000 4.1 320 17:20 21.11.2019
4013 Clear 21 1018 37 10000 3.6 320 16:56 21.11.2019
4014 Clear 21 1018 37 10000 3.6 320 16:37 21.11.2019
4015 Haze 21 1018 52 9000 4.1 330 16:19 21.11.2019
4016 Clouds 22 1017 37 10000 4.1 320 15:42 21.11.2019
4017 Haze 22 1018 46 9000 5.7 330 15:21 21.11.2019
4018 Clouds 22 1016 33 10000 6.2 320 14:57 21.11.2019
4019 Clouds 22 1016 33 10000 6.2 320 14:37 21.11.2019
4020 Haze 23 1017 40 9000 6.7 340 14:19 21.11.2019
4021 Clouds 23 1016 38 10000 5.7 310 13:56 21.11.2019
4022 Haze 23 1016 37 9000 7.2 330 13:36 21.11.2019
4023 Haze 23 1016 37 9000 7.2 330 13:18 21.11.2019
4024 Haze 23 1016 37 9000 7.2 330 13:18 21.11.2019
4025 Haze 23 1016 37 9000 7.2 330 13:18 21.11.2019
4026 Clouds 23 1016 40 10000 6.7 300 12:40 21.11.2019
4027 Haze 23 1016 33 9000 7.2 320 12:22 21.11.2019
4028 Clouds 23 1016 38 10000 5.1 310 11:55 21.11.2019
4029 Haze 23 1017 33 9000 7.2 320 11:36 21.11.2019
4030 Haze 23 1017 33 9000 7.2 320 11:18 21.11.2019
4031 Clouds 23 1016 40 10000 5.7 300 10:42 21.11.2019
4032 Haze 23 1018 35 9000 6.7 320 10:24 21.11.2019
4033 Clouds 22 1017 40 10000 5.1 300 09:57 21.11.2019
4034 Clouds 22 1017 40 10000 5.1 300 09:39 21.11.2019
4035 Haze 21 1018 40 9000 6.7 330 09:21 21.11.2019
4036 Clouds 21 1017 43 10000 5.1 290 08:44 21.11.2019
4037 Haze 21 1016 49 9000 7.2 310 08:23 21.11.2019
4038 Clouds 20 1018 46 10000 5.7 300 07:45 21.11.2019
4039 Haze 19 1016 55 9000 6.2 250 07:20 21.11.2019
4040 Clouds 19 1018 49 10000 6.2 290 06:58 21.11.2019
4041 Haze 18 1019 59 9000 4.6 270 06:34 21.11.2019
4042 Clouds 18 1017 42 10000 3.1 280 05:50 21.11.2019
4043 Haze 18 1016 42 9000 3.6 300 03:36 21.11.2019
4044 Clouds 18 1015 34 10000 4.6 290 02:42 21.11.2019
4045 Clouds 18 1015 29 10000 4.6 290 02:24 21.11.2019
4046 Clouds 18 1015 29 10000 4.6 290 01:49 21.11.2019
4047 Clouds 19 1015 43 10000 4.6 290 01:20 21.11.2019
4048 Clouds 19 1015 43 10000 4.6 290 00:38 21.11.2019
4049 Haze 18 1015 43 9000 4.6 320 00:20 21.11.2019
4050 Clouds 19 1015 24 10000 4.6 290 23:42 20.11.2019
4051 Haze 18 1016 29 9000 3.6 330 23:21 20.11.2019
4052 Clear 18 1015 34 10000 4.1 290 22:58 20.11.2019
4053 Clear 18 1015 34 10000 4.1 290 22:38 20.11.2019
4054 Haze 19 1016 43 9000 4.1 310 22:19 20.11.2019
4055 Haze 19 1016 43 9000 4.1 310 22:19 20.11.2019
4056 Clear 18 1015 37 10000 5.7 310 21:58 20.11.2019
4057 Clear 19 1015 43 0 5.69 298 21:39 20.11.2019
4058 Clear 19 1015 42 10000 4.6 310 21:20 20.11.2019
4059 Clear 20 1015 42 10000 4.6 310 20:56 20.11.2019
4060 Clear 20 1015 42 10000 4.6 310 20:38 20.11.2019
4061 Clouds 19 1015 49 10000 5.1 310 20:20 20.11.2019
4062 Clouds 19 1015 49 10000 5.1 310 19:56 20.11.2019
4063 Haze 20 1016 45 9000 3.6 330 19:37 20.11.2019
4064 Haze 20 1016 45 9000 3.6 330 19:18 20.11.2019
4065 Clouds 20 1015 46 10000 5.1 310 18:58 20.11.2019
4066 Clouds 20 1015 46 10000 5.1 310 18:38 20.11.2019
4067 Clouds 21 1015 46 10000 5.1 310 18:20 20.11.2019
4068 Clouds 21 1015 46 10000 5.1 310 17:56 20.11.2019
4069 Clouds 21 1015 46 10000 5.1 310 17:38 20.11.2019
4070 Haze 21 1016 30 9000 3.1 320 17:19 20.11.2019
4071 Clouds 21 1014 43 10000 5.7 310 16:43 20.11.2019
4072 Haze 21 1016 40 9000 4.6 320 16:21 20.11.2019
4073 Clouds 22 1014 53 10000 5.7 310 15:59 20.11.2019
4074 Clouds 22 1014 53 10000 5.7 310 15:41 20.11.2019
4075 Haze 22 1015 30 9000 5.1 320 15:20 20.11.2019
4076 Clouds 23 1013 43 10000 5.7 310 14:59 20.11.2019
4077 Clouds 23 1013 43 10000 5.7 310 14:40 20.11.2019
4078 Clouds 23 1013 44 10000 5.7 320 14:21 20.11.2019
4079 Clouds 23 1013 44 10000 5.7 320 13:57 20.11.2019
4080 Clouds 23 1013 44 10000 5.7 320 13:38 20.11.2019
4081 Haze 23 1014 46 9000 6.2 320 13:19 20.11.2019
4082 Haze 23 1014 46 9000 6.2 320 13:19 20.11.2019
4083 Clouds 24 1013 50 10000 5.1 310 12:43 20.11.2019
4084 Clouds 24 1013 50 10000 5.1 310 12:43 20.11.2019
4085 Haze 24 1014 40 9000 7.2 320 12:25 20.11.2019
4086 Clouds 24 1013 53 10000 5.1 320 11:58 20.11.2019
4087 Clouds 24 1013 53 10000 5.1 320 11:38 20.11.2019
4088 Haze 24 1015 40 9000 7.2 310 11:20 20.11.2019
4089 Clouds 24 1013 53 10000 5.7 320 10:55 20.11.2019
4090 Clouds 24 1013 53 10000 5.7 320 10:37 20.11.2019
4091 Haze 24 1015 43 9000 6.7 330 10:19 20.11.2019
4092 Clouds 23 1014 53 10000 5.1 310 09:43 20.11.2019
4093 Haze 23 1016 53 9000 7.2 330 09:21 20.11.2019
4094 Clouds 22 1015 64 10000 4.6 320 08:56 20.11.2019
4095 Clouds 22 1015 64 10000 4.6 320 08:56 20.11.2019
4096 Clouds 22 1015 64 10000 4.6 320 08:37 20.11.2019
4097 Haze 22 1016 60 9000 6.7 330 08:18 20.11.2019
4098 Rain 22 1015 60 10000 6.2 310 07:42 20.11.2019
4099 Haze 21 1017 68 9000 5.7 330 07:24 20.11.2019
4100 Rain 21 1015 60 10000 5.7 310 06:47 20.11.2019
4101 Haze 20 1016 64 9000 6.2 320 06:21 20.11.2019
4102 Clouds 20 1014 68 10000 5.1 290 04:52 20.11.2019
4103 Mist 20 1014 77 6000 5.7 320 03:30 20.11.2019
4104 Rain 21 1013 77 6000 3.6 290 02:21 20.11.2019
4105 Rain 21 1015 82 6000 5.1 320 01:32 20.11.2019
4106 Rain 21 1013 83 6000 5.1 300 00:40 20.11.2019
4107 Clouds 22 1013 83 6000 4.1 310 23:52 19.11.2019
4108 Clouds 22 1013 78 10000 3.6 310 23:25 19.11.2019
4109 Clouds 22 1013 78 10000 3.6 310 22:57 19.11.2019
4110 Clouds 22 1013 78 10000 3.6 310 22:57 19.11.2019
4111 Clouds 22 1013 78 10000 3.6 310 22:39 19.11.2019
4112 Clouds 22 1013 78 10000 3.6 310 22:39 19.11.2019
4113 Mist 22 1014 83 6000 3.1 330 22:19 19.11.2019
4114 Clouds 21 1014 73 10000 4.1 300 21:56 19.11.2019
4115 Clouds 21 1014 73 10000 4.1 300 21:37 19.11.2019
4116 Mist 21 1015 88 6000 5.1 340 21:19 19.11.2019
4117 Mist 21 1015 88 6000 5.1 340 21:19 19.11.2019
4118 Rain 22 1015 78 10000 5.1 300 20:55 19.11.2019
4119 Rain 22 1015 78 10000 5.1 300 20:37 19.11.2019
4120 Rain 22 1015 88 4000 3.1 360 20:18 19.11.2019
4121 Rain 22 1015 78 10000 6.2 310 19:55 19.11.2019
4122 Rain 23 1017 88 6000 3.6 330 19:37 19.11.2019
4123 Rain 23 1017 88 6000 3.6 330 19:18 19.11.2019
4124 Rain 23 1015 73 10000 4.6 300 18:54 19.11.2019
4125 Mist 23 1016 83 8000 3.1 330 18:36 19.11.2019
4126 Mist 23 1016 83 8000 3.1 330 18:18 19.11.2019
4127 Clouds 23 1014 78 10000 5.1 330 17:54 19.11.2019
4128 Clouds 23 1014 73 10000 6.7 350 17:36 19.11.2019
4129 Mist 23 1015 83 8000 4.1 10 17:18 19.11.2019
4130 Clouds 23 1014 78 10000 6.2 330 16:41 19.11.2019
4131 Mist 23 1015 83 6000 6.2 350 16:22 19.11.2019
4132 Clouds 24 1013 78 8000 4.1 350 15:54 19.11.2019
4133 Clouds 24 1013 78 8000 4.1 350 15:36 19.11.2019
4134 Mist 23 1014 78 6000 5.1 340 15:18 19.11.2019
4135 Rain 23 1013 73 6000 3.6 320 14:54 19.11.2019
4136 Rain 23 1014 83 4000 5.1 360 14:36 19.11.2019
4137 Rain 23 1014 83 4000 5.1 360 14:18 19.11.2019
4138 Rain 23 1013 73 6000 3.6 320 13:39 19.11.2019
4139 Rain 23 1013 73 6000 3.6 320 13:39 19.11.2019
4140 Rain 24 1013 69 9000 6.7 310 13:18 19.11.2019
4141 Thunderstorm 24 1013 69 10000 5.7 310 12:40 19.11.2019
4142 Thunderstorm 24 1013 69 10000 5.7 310 12:40 19.11.2019
4143 Rain 26 1014 69 9000 7.7 330 12:21 19.11.2019
4144 Clouds 28 1013 58 10000 3.6 360 11:57 19.11.2019
4145 Clouds 28 1013 58 10000 3.6 360 11:37 19.11.2019
4146 Rain 27 1014 54 9000 7.7 340 11:19 19.11.2019
4147 Clouds 27 1013 61 10000 3.6 10 10:45 19.11.2019
4148 Haze 28 1015 54 9000 4.1 340 10:22 19.11.2019
4149 Clouds 28 1015 51 10000 2.6 280 09:57 19.11.2019
4150 Clouds 28 1015 51 10000 2.6 280 09:39 19.11.2019
4151 Haze 28 1016 51 9000 6.2 300 09:18 19.11.2019
4152 Clouds 28 1015 54 10000 2.1 0 08:41 19.11.2019
4153 Haze 27 1016 54 9000 4.1 310 08:22 19.11.2019
4154 Clouds 27 1016 58 10000 3.6 250 07:57 19.11.2019
4155 Clouds 27 1016 58 10000 3.6 250 07:38 19.11.2019
4156 Haze 27 1017 57 9000 3.1 330 07:19 19.11.2019
4157 Clouds 26 1016 57 10000 2.6 280 06:45 19.11.2019
4158 Haze 26 1017 61 9000 4.1 300 06:27 19.11.2019
4159 Haze 25 1016 60 9000 2.1 300 05:20 19.11.2019
4160 Clouds 25 1013 65 10000 3.1 170 03:45 19.11.2019
4161 Haze 25 1015 64 9000 1 330 03:22 19.11.2019
4162 Clouds 25 1013 65 10000 3.6 160 02:51 19.11.2019
4163 Clouds 25 1013 65 10000 3.1 130 01:58 19.11.2019
4164 Clouds 25 1014 61 10000 1.5 160 00:51 19.11.2019
4165 Haze 25 1015 56 9000 1.5 350 00:21 19.11.2019
4166 Clouds 25 1014 65 10000 1 0 23:41 18.11.2019
4167 Haze 26 1015 53 9000 1.5 350 23:20 18.11.2019
4168 Haze 26 1015 53 9000 1.5 350 23:20 18.11.2019
4169 Clouds 26 1014 61 10000 0.5 0 22:59 18.11.2019
4170 Clouds 26 1014 61 10000 0.5 0 22:41 18.11.2019
4171 Haze 26 1016 50 9000 0.5 340 22:23 18.11.2019
4172 Clouds 27 1014 57 10000 2.1 120 21:54 18.11.2019
4173 Clouds 27 1014 57 10000 2.1 120 21:36 18.11.2019
4174 Clouds 27 1014 57 10000 2.1 120 21:36 18.11.2019
4175 Haze 27 1016 44 9000 1 50 21:18 18.11.2019
4176 Clouds 26 1015 57 10000 1.5 70 20:41 18.11.2019
4177 Haze 26 1016 47 9000 1.5 300 20:20 18.11.2019
4178 Clouds 27 1015 54 10000 3.1 60 19:58 18.11.2019
4179 Clouds 27 1015 54 10000 3.1 60 19:58 18.11.2019
4180 Clouds 27 1015 54 10000 3.1 60 19:39 18.11.2019
4181 Haze 27 1016 44 9000 1.5 60 19:21 18.11.2019
4182 Clouds 27 1015 48 10000 1.5 60 18:57 18.11.2019
4183 Clouds 27 1015 48 10000 1.5 60 18:38 18.11.2019
4184 Haze 28 1016 36 9000 1.5 0 18:19 18.11.2019
4185 Clouds 27 1015 54 10000 1.5 210 17:59 18.11.2019
4186 Clouds 27 1015 54 10000 1.5 210 17:38 18.11.2019
4187 Haze 27 1017 39 9000 1.5 60 17:19 18.11.2019
4188 Clouds 27 1015 54 10000 3.1 120 16:43 18.11.2019
4189 Clouds 28 1015 57 10000 3.6 110 16:25 18.11.2019
4190 Clouds 28 1015 48 10000 3.6 110 15:59 18.11.2019
4191 Clouds 28 1015 48 10000 3.6 110 15:41 18.11.2019
4192 Haze 28 1016 32 9000 2.6 120 15:22 18.11.2019
4193 Clouds 29 1014 37 10000 4.1 130 14:59 18.11.2019
4194 Clouds 29 1014 37 10000 4.1 130 14:41 18.11.2019
4195 Haze 29 1015 28 9000 3.1 140 14:22 18.11.2019
4196 Clouds 29 1014 39 10000 4.6 140 13:45 18.11.2019
4197 Haze 29 1014 25 9000 4.1 200 13:27 18.11.2019
4198 Clouds 29 1013 39 10000 7.2 130 12:57 18.11.2019
4199 Haze 30 1014 25 9000 4.1 200 12:37 18.11.2019
4200 Haze 30 1014 25 9000 4.1 200 12:18 18.11.2019
4201 Clouds 30 1014 33 10000 6.2 160 11:43 18.11.2019
4202 Haze 30 1015 25 9000 5.1 200 11:25 18.11.2019
4203 Clouds 29 1014 37 10000 6.7 170 10:46 18.11.2019
4204 Haze 29 1016 37 9000 7.7 170 10:27 18.11.2019
4205 Clouds 29 1016 48 10000 7.7 150 09:59 18.11.2019
4206 Clouds 29 1016 48 10000 7.7 150 09:39 18.11.2019
4207 Haze 29 1017 30 9000 6.2 190 09:21 18.11.2019
4208 Clouds 29 1016 45 10000 8.7 150 08:59 18.11.2019
4209 Clouds 29 1016 45 10000 8.7 150 08:41 18.11.2019
4210 Clouds 28 1016 54 10000 7.7 160 08:19 18.11.2019
4211 Clouds 28 1016 54 10000 7.7 160 07:47 18.11.2019
4212 Clouds 28 1016 54 10000 7.7 160 07:47 18.11.2019
4213 Haze 28 1018 37 9000 6.2 160 07:27 18.11.2019
4214 Clouds 28 1017 48 10000 6.2 160 06:49 18.11.2019
4215 Clouds 28 1016 45 10000 6.7 150 06:29 18.11.2019
4216 Clouds 26 1016 51 10000 5.7 150 05:46 18.11.2019
4217 Clouds 26 1015 54 10000 5.1 150 04:35 18.11.2019
4218 Clouds 27 1014 54 10000 5.7 130 01:49 18.11.2019
4219 Haze 27 1015 54 9000 2.6 130 01:31 18.11.2019
4220 Clouds 27 1014 57 10000 5.1 140 00:22 18.11.2019
4221 Clouds 27 1015 57 10000 4.6 130 23:43 17.11.2019
4222 Haze 27 1016 50 9000 2.6 130 23:24 17.11.2019
4223 Clouds 27 1015 51 10000 5.1 120 22:58 17.11.2019
4224 Clouds 27 1015 51 10000 5.1 120 22:40 17.11.2019
4225 Clouds 27 1015 51 10000 5.7 120 22:22 17.11.2019
4226 Clouds 27 1015 48 10000 5.7 120 21:57 17.11.2019
4227 Clouds 27 1015 48 10000 5.7 120 21:39 17.11.2019
4228 Haze 27 1016 47 9000 2.6 120 21:19 17.11.2019
4229 Clouds 27 1016 48 10000 6.2 120 20:56 17.11.2019
4230 Clouds 27 1016 48 10000 6.2 120 20:37 17.11.2019
4231 Clouds 27 1016 48 10000 6.2 110 20:19 17.11.2019
4232 Clouds 28 1016 45 10000 5.1 120 19:56 17.11.2019
4233 Clouds 28 1016 45 10000 5.1 120 19:56 17.11.2019
4234 Clouds 28 1016 45 10000 5.1 120 19:37 17.11.2019
4235 Clouds 28 1016 45 10000 5.1 120 19:37 17.11.2019
4236 Clouds 28 1015 45 10000 5.7 120 19:19 17.11.2019
4237 Clear 27 1015 42 10000 6.2 110 18:55 17.11.2019
4238 Clear 27 1015 42 10000 6.2 110 18:36 17.11.2019
4239 Clear 27 1015 42 10000 5.7 110 18:18 17.11.2019
4240 Clear 27 1015 42 10000 6.2 110 17:57 17.11.2019
4241 Clear 27 1015 42 10000 6.2 110 17:38 17.11.2019
4242 Clear 27 1015 42 10000 6.7 110 17:19 17.11.2019
4243 Clear 27 1015 42 10000 5.7 100 16:57 17.11.2019
4244 Clear 27 1015 42 10000 5.7 110 16:38 17.11.2019
4245 Clear 27 1015 42 10000 5.7 110 16:20 17.11.2019
4246 Clear 28 1014 39 10000 6.7 100 15:55 17.11.2019
4247 Clear 28 1014 39 10000 6.7 100 15:36 17.11.2019
4248 Haze 28 1015 32 9000 4.6 110 15:18 17.11.2019
4249 Clouds 28 1014 42 10000 6.2 100 14:55 17.11.2019
4250 Clear 29 1014 37 10000 6.7 120 14:36 17.11.2019
4251 Clear 29 1014 37 10000 6.7 120 14:18 17.11.2019
4252 Clear 29 1014 37 10000 6.7 120 13:41 17.11.2019
4253 Rain 29 1014 37 10000 6.7 120 13:21 17.11.2019
4254 Rain 29 1014 35 10000 6.7 120 12:59 17.11.2019
4255 Rain 29 1014 35 10000 6.7 120 12:38 17.11.2019
4256 Clouds 29 1014 42 10000 7.2 120 12:19 17.11.2019
4257 Clouds 28 1014 42 10000 7.7 110 11:55 17.11.2019
4258 Clouds 28 1014 42 10000 7.7 110 11:37 17.11.2019
4259 Clouds 29 1014 45 10000 7.7 120 11:18 17.11.2019
4260 Clouds 29 1014 48 10000 8.2 140 10:41 17.11.2019
4261 Clouds 29 1014 48 10000 7.7 120 10:22 17.11.2019
4262 Clouds 29 1015 45 10000 7.7 120 09:43 17.11.2019
4263 Clouds 29 1015 48 10000 7.7 120 09:24 17.11.2019
4264 Clouds 28 1016 51 10000 7.7 120 08:57 17.11.2019
4265 Clouds 28 1016 51 10000 7.7 120 08:37 17.11.2019
4266 Clear 28 1016 51 10000 7.2 120 08:18 17.11.2019
4267 Clear 28 1016 51 10000 7.2 120 07:42 17.11.2019
4268 Clear 28 1016 51 10000 7.2 120 07:42 17.11.2019
4269 Clear 28 1016 51 10000 7.2 120 07:21 17.11.2019
4270 Clear 27 1016 48 10000 6.2 120 06:55 17.11.2019
4271 Clear 26 1016 51 10000 6.2 120 06:30 17.11.2019
4272 Clear 26 1016 54 10000 5.1 110 05:39 17.11.2019
4273 Clouds 24 1015 57 10000 4.1 110 04:20 17.11.2019
4274 Clouds 25 1015 57 10000 4.1 110 03:40 17.11.2019
4275 Clouds 25 1015 57 10000 3.6 100 03:22 17.11.2019
4276 Haze 25 1016 64 9000 2.1 80 02:19 17.11.2019
4277 Haze 25 1016 69 9000 2.6 120 01:22 17.11.2019
4278 Clouds 25 1015 61 10000 3.6 90 00:43 17.11.2019
4279 Clouds 25 1015 61 10000 4.1 80 00:21 17.11.2019
4280 Clouds 24 1015 61 10000 3.6 80 23:43 16.11.2019
4281 Clouds 24 1015 65 10000 3.6 80 23:19 16.11.2019
4282 Clouds 24 1014 65 10000 4.6 70 22:58 16.11.2019
4283 Clouds 24 1014 65 10000 4.6 70 22:40 16.11.2019
4284 Clouds 24 1014 65 10000 6.2 70 22:18 16.11.2019
4285 Clouds 24 1014 65 10000 6.2 70 21:41 16.11.2019
4286 Clouds 24 1014 50 10000 1.5 70 21:23 16.11.2019
4287 Clouds 25 1015 50 10000 1.5 50 20:58 16.11.2019
4288 Clouds 25 1015 50 10000 1.5 50 20:39 16.11.2019
4289 Clouds 25 1015 50 10000 1 60 20:20 16.11.2019
4290 Clear 25 1015 50 10000 1.5 70 19:56 16.11.2019
4291 Clear 25 1015 47 10000 0.5 0 19:38 16.11.2019
4292 Clear 26 1015 47 10000 0.5 0 19:19 16.11.2019
4293 Clear 26 1015 47 10000 0.5 0 18:43 16.11.2019
4294 Clear 26 1015 47 10000 0.5 0 18:43 16.11.2019
4295 Clear 26 1015 47 10000 1 110 18:25 16.11.2019
4296 Clear 25 1015 47 10000 2.6 140 17:56 16.11.2019
4297 Clear 25 1015 47 10000 2.6 140 17:37 16.11.2019
4298 Clouds 25 1014 47 10000 2.6 120 17:18 16.11.2019
4299 Clouds 26 1014 47 10000 3.1 150 16:46 16.11.2019
4300 Haze 26 1014 41 9000 3.1 110 16:28 16.11.2019
4301 Clouds 27 1014 47 10000 3.6 130 15:56 16.11.2019
4302 Clouds 27 1014 47 10000 3.6 130 15:38 16.11.2019
4303 Haze 27 1014 23 9000 2.1 360 15:19 16.11.2019
4304 Clouds 27 1013 44 10000 3.6 130 14:41 16.11.2019
4305 Clouds 28 1013 39 10000 4.1 120 14:22 16.11.2019
4306 Clouds 28 1013 39 10000 4.1 120 14:22 16.11.2019
4307 Clouds 28 1013 39 10000 4.1 120 13:57 16.11.2019
4308 Clouds 28 1013 39 10000 4.1 120 13:39 16.11.2019
4309 Clouds 28 1013 42 10000 4.1 120 13:19 16.11.2019
4310 Clouds 29 1013 32 10000 3.6 100 12:59 16.11.2019
4311 Clouds 29 1013 32 10000 3.6 100 12:40 16.11.2019
4312 Clouds 29 1013 30 10000 3.6 90 12:20 16.11.2019
4313 Clouds 29 1013 23 10000 1.5 270 11:46 16.11.2019
4314 Clouds 30 1013 22 10000 2.6 210 11:28 16.11.2019
4315 Clouds 30 1014 23 10000 2.6 220 10:58 16.11.2019
4316 Clouds 30 1014 23 10000 2.6 220 10:40 16.11.2019
4317 Clouds 30 1014 22 10000 1 0 10:21 16.11.2019
4318 Clouds 29 1014 25 10000 1.5 190 09:45 16.11.2019
4319 Clouds 28 1015 28 10000 1.5 240 09:22 16.11.2019
4320 Clouds 28 1015 28 10000 1.5 240 08:59 16.11.2019
4321 Clouds 28 1015 28 10000 1.5 240 08:40 16.11.2019
4322 Clear 28 1015 32 10000 3.1 220 08:19 16.11.2019
4323 Clear 27 1016 32 10000 3.1 220 07:43 16.11.2019
4324 Clear 27 1016 32 10000 3.1 220 07:43 16.11.2019
4325 Haze 26 1017 34 9000 3.6 240 07:21 16.11.2019
4326 Clear 25 1016 36 10000 3.1 220 06:56 16.11.2019
4327 Clear 25 1015 39 10000 1 0 06:34 16.11.2019
4328 Clear 23 1016 41 10000 2.1 240 05:42 16.11.2019
4329 Haze 22 1015 52 9000 1.5 270 04:20 16.11.2019
4330 Haze 22 1015 52 9000 1.5 270 04:20 16.11.2019
4331 Haze 22 1015 55 9000 1.44 288 03:26 16.11.2019
4332 Haze 22 1015 52 9000 2.3 321 02:21 16.11.2019
4333 Haze 23 1015 49 9000 2.3 321 01:29 16.11.2019
4334 Clear 23 1014 44 10000 1 250 00:46 16.11.2019
4335 Clear 23 1014 44 10000 1 220 00:27 16.11.2019
4336 Clear 24 1014 44 10000 1 240 23:43 15.11.2019
4337 Clear 24 1014 44 10000 0.5 0 23:21 15.11.2019
4338 Clear 24 1014 44 10000 0.5 0 22:58 15.11.2019
4339 Clear 24 1014 44 10000 0.5 0 22:39 15.11.2019
4340 Clear 24 1014 39 10000 1 160 22:19 15.11.2019
4341 Clear 24 1014 47 10000 2.29 324 21:54 15.11.2019
4342 Clear 24 1014 44 10000 2.29 324 21:36 15.11.2019
4343 Clear 24 1014 44 10000 2.29 324 21:18 15.11.2019
4344 Clear 24 1014 44 10000 2.29 324 20:55 15.11.2019
4345 Clear 24 1014 44 10000 2.29 324 20:37 15.11.2019
4346 Clouds 24 1015 41 10000 1.9 42 20:18 15.11.2019
4347 Clouds 25 1015 41 10000 0.5 0 19:56 15.11.2019
4348 Clouds 25 1015 41 10000 0.5 0 19:36 15.11.2019
4349 Clouds 25 1015 39 10000 1.5 140 19:18 15.11.2019
4350 Clouds 26 1015 39 10000 1.5 140 18:42 15.11.2019
4351 Clouds 26 1015 41 10000 1.5 140 18:23 15.11.2019
4352 Clouds 26 1015 41 10000 1.5 140 17:55 15.11.2019
4353 Clouds 26 1015 41 10000 1.5 140 17:55 15.11.2019
4354 Clouds 26 1015 41 10000 1.5 140 17:37 15.11.2019
4355 Clouds 26 1015 39 10000 2.1 120 17:19 15.11.2019
4356 Clouds 26 1015 34 10000 3.1 110 16:40 15.11.2019
4357 Clouds 26 1015 34 10000 3.1 110 16:40 15.11.2019
4358 Clouds 26 1015 34 10000 2.6 110 16:22 15.11.2019
4359 Clouds 26 1015 39 10000 2.1 140 15:59 15.11.2019
4360 Clouds 26 1015 39 10000 2.1 140 15:36 15.11.2019
4361 Clouds 27 1014 34 10000 2.1 110 15:18 15.11.2019
4362 Clouds 27 1014 34 10000 3.6 120 14:55 15.11.2019
4363 Clouds 27 1014 34 10000 3.6 120 14:37 15.11.2019
4364 Clouds 27 1014 34 10000 3.6 120 14:37 15.11.2019
4365 Clouds 27 1014 34 10000 3.6 120 14:37 15.11.2019
4366 Haze 28 1015 17 9000 5.1 310 14:18 15.11.2019
4367 Clouds 29 1014 32 10000 4.1 80 13:54 15.11.2019
4368 Clouds 29 1014 32 10000 4.1 80 13:54 15.11.2019
4369 Clouds 29 1014 32 10000 4.6 90 13:36 15.11.2019
4370 Clouds 29 1014 32 10000 4.6 90 13:18 15.11.2019
4371 Clouds 29 1014 30 10000 4.1 90 12:56 15.11.2019
4372 Clouds 29 1014 30 10000 3.6 100 12:37 15.11.2019
4373 Clouds 29 1014 30 10000 3.6 100 12:18 15.11.2019
4374 Clouds 28 1014 30 10000 4.1 90 11:39 15.11.2019
4375 Clouds 29 1015 28 10000 2.6 0 11:21 15.11.2019
4376 Clouds 29 1015 23 10000 1 0 10:58 15.11.2019
4377 Clouds 29 1015 23 10000 1 0 10:39 15.11.2019
4378 Clouds 29 1016 23 10000 2.1 0 10:20 15.11.2019
4379 Clouds 29 1016 23 10000 2.1 270 09:41 15.11.2019
4380 Haze 28 1018 23 9000 1 100 09:20 15.11.2019
4381 Clouds 28 1017 26 10000 2.1 340 08:57 15.11.2019
4382 Clouds 28 1017 26 10000 2.1 340 08:57 15.11.2019
4383 Clouds 28 1017 26 10000 2.1 340 08:39 15.11.2019
4384 Haze 28 1019 25 9000 2.1 250 08:18 15.11.2019
4385 Clear 28 1018 25 10000 2.1 270 07:42 15.11.2019
4386 Haze 28 1019 26 9000 1.5 310 07:22 15.11.2019
4387 Clear 25 1018 39 10000 1.5 240 06:36 15.11.2019
4388 Clear 25 1018 39 10000 1.5 240 06:36 15.11.2019
4389 Clear 23 1017 41 10000 1 220 05:52 15.11.2019
4390 Clear 22 1017 44 10000 1.5 250 05:31 15.11.2019
4391 Clear 21 1017 46 10000 1.23 341 04:45 15.11.2019
4392 Clear 21 1016 49 10000 0.5 0 03:38 15.11.2019
4393 Clear 21 1016 46 10000 1 0 02:32 15.11.2019
4394 Clear 21 1016 49 10000 2.17 345 01:48 15.11.2019
4395 Clear 21 1016 46 10000 1 320 01:24 15.11.2019
4396 Clear 21 1016 46 10000 1 320 01:24 15.11.2019
4397 Clear 22 1016 46 10000 0.5 0 00:37 15.11.2019
4398 Clear 22 1016 46 10000 0.5 0 00:37 15.11.2019
4399 Clear 23 1016 44 10000 2.26 342 23:59 14.11.2019
4400 Clear 23 1016 44 10000 1 0 23:40 14.11.2019
4401 Clear 23 1016 44 10000 1 0 23:21 14.11.2019
4402 Clear 22 1017 47 10000 1.5 330 22:41 14.11.2019
4403 Clear 22 1017 50 10000 1.5 350 22:22 14.11.2019
4404 Clear 23 1017 53 10000 1 350 21:57 14.11.2019
4405 Clear 23 1017 53 10000 1 350 21:39 14.11.2019
4406 Clear 23 1017 53 10000 1 350 21:39 14.11.2019
4407 Clear 23 1017 53 10000 1 350 21:21 14.11.2019
4408 Clear 24 1017 50 10000 1 350 20:54 14.11.2019
4409 Clear 24 1017 47 10000 2.6 330 20:36 14.11.2019
4410 Clear 24 1017 47 10000 2.6 330 20:18 14.11.2019
4411 Clear 25 1017 50 10000 3.6 330 19:54 14.11.2019
4412 Clear 25 1017 50 10000 3.1 340 19:36 14.11.2019
4413 Clear 25 1017 50 10000 3.1 340 19:18 14.11.2019
4414 Clear 26 1016 41 10000 2.6 30 18:41 14.11.2019
4415 Clear 26 1016 41 10000 2.6 30 18:22 14.11.2019
4416 Clear 26 1016 41 10000 2.6 30 17:57 14.11.2019
4417 Clear 26 1016 44 10000 2.1 10 17:37 14.11.2019
4418 Clear 26 1016 44 10000 2.1 10 17:19 14.11.2019
4419 Clear 26 1016 41 10000 1.5 20 16:57 14.11.2019
4420 Clear 26 1016 41 10000 1.5 20 16:37 14.11.2019
4421 Clear 27 1016 42 10000 1.5 30 16:19 14.11.2019
4422 Clouds 27 1016 42 10000 2.1 20 15:57 14.11.2019
4423 Clouds 27 1016 42 10000 2.1 20 15:38 14.11.2019
4424 Clouds 27 1016 39 10000 2.1 30 15:19 14.11.2019
4425 Clouds 27 1016 39 10000 2.1 30 15:19 14.11.2019
4426 Clouds 28 1016 34 10000 3.1 50 14:46 14.11.2019
4427 Haze 29 1016 28 9000 3.1 70 14:23 14.11.2019
4428 Clouds 29 1015 28 10000 3.6 50 13:58 14.11.2019
4429 Clouds 29 1015 28 10000 3.6 50 13:39 14.11.2019
4430 Clouds 29 1015 32 10000 4.1 20 13:20 14.11.2019
4431 Clouds 29 1016 32 10000 4.6 10 12:56 14.11.2019
4432 Haze 29 1016 23 9000 2.1 300 12:37 14.11.2019
4433 Haze 29 1016 23 9000 2.1 300 12:19 14.11.2019
4434 Clouds 29 1016 32 10000 5.1 360 11:39 14.11.2019
4435 Haze 29 1017 23 9000 1.5 30 11:21 14.11.2019
4436 Clouds 29 1016 30 10000 4.6 350 10:59 14.11.2019
4437 Clouds 29 1016 30 10000 4.6 350 10:41 14.11.2019
4438 Clouds 29 1017 30 10000 4.6 350 10:20 14.11.2019
4439 Clouds 29 1017 30 10000 4.6 350 09:57 14.11.2019
4440 Clouds 29 1018 30 10000 4.1 340 09:39 14.11.2019
4441 Clouds 28 1018 30 10000 4.1 340 09:21 14.11.2019
4442 Clouds 28 1018 30 10000 4.1 340 08:47 14.11.2019
4443 Clouds 28 1018 30 10000 4.1 340 08:26 14.11.2019
4444 Clouds 27 1018 30 10000 4.6 340 07:57 14.11.2019
4445 Clouds 27 1018 30 10000 4.6 340 07:38 14.11.2019
4446 Clouds 27 1019 32 10000 3.6 330 07:19 14.11.2019
4447 Clouds 26 1018 32 10000 4.1 330 06:43 14.11.2019
4448 Clouds 26 1018 34 10000 2.6 310 06:19 14.11.2019
4449 Clouds 22 1017 50 10000 0.5 0 04:42 14.11.2019
4450 Clear 22 1016 47 10000 1.5 300 04:23 14.11.2019
4451 Clear 21 1016 50 10000 1 0 02:47 14.11.2019
4452 Clear 21 1016 53 10000 1 0 02:25 14.11.2019
4453 Clear 23 1016 50 10000 1 250 01:33 14.11.2019
4454 Clear 22 1016 50 10000 1.5 250 00:53 14.11.2019
4455 Clear 22 1016 53 10000 1 0 00:30 14.11.2019
4456 Clouds 22 1016 49 10000 3.49 352 23:42 13.11.2019
4457 Clouds 22 1016 44 10000 1 270 23:22 13.11.2019
4458 Clouds 23 1016 44 10000 1 300 22:57 13.11.2019
4459 Haze 23 1017 64 9000 3.25 325 22:39 13.11.2019
4460 Haze 23 1017 64 9000 3.25 325 22:21 13.11.2019
4461 Clouds 24 1016 44 10000 1.5 300 21:56 13.11.2019
4462 Haze 24 1017 49 9000 3.25 325 21:38 13.11.2019
4463 Haze 24 1017 49 9000 3.25 325 21:19 13.11.2019
4464 Clouds 24 1017 50 10000 1 0 20:57 13.11.2019
4465 Clouds 24 1017 50 10000 1 0 20:37 13.11.2019
4466 Clouds 24 1017 50 10000 1 0 20:37 13.11.2019
4467 Clouds 24 1017 50 10000 1 0 20:37 13.11.2019
4468 Clouds 24 1017 53 10000 2.48 5 20:18 13.11.2019
4469 Clouds 25 1017 50 10000 0.5 0 19:44 13.11.2019
4470 Haze 25 1017 47 9000 2.1 20 19:20 13.11.2019
4471 Clouds 25 1016 50 10000 0.5 0 18:58 13.11.2019
4472 Clouds 25 1016 50 10000 0.5 0 18:58 13.11.2019
4473 Clouds 25 1016 50 10000 0.5 0 18:39 13.11.2019
4474 Clear 25 1016 50 10000 1 150 18:21 13.11.2019
4475 Clear 26 1016 47 10000 2.46 27 17:58 13.11.2019
4476 Clear 26 1016 47 10000 2.46 27 17:40 13.11.2019
4477 Clear 26 1016 47 10000 0.5 50 17:22 13.11.2019
4478 Clear 26 1016 47 10000 0.5 50 17:22 13.11.2019
4479 Clear 27 1016 42 10000 1 60 16:59 13.11.2019
4480 Clear 27 1016 42 10000 1 60 16:59 13.11.2019
4481 Clear 27 1016 42 10000 1 60 16:40 13.11.2019
4482 Clouds 27 1016 44 10000 1.5 100 16:21 13.11.2019
4483 Clouds 27 1016 44 10000 1.5 100 16:21 13.11.2019
4484 Clouds 27 1016 44 10000 2.1 100 15:58 13.11.2019
4485 Clouds 27 1016 44 10000 2.1 100 15:39 13.11.2019
4486 Clouds 27 1015 47 10000 3.1 120 15:21 13.11.2019
4487 Clouds 28 1015 45 10000 3.6 120 14:43 13.11.2019
4488 Clouds 28 1015 45 10000 3.6 120 14:23 13.11.2019
4489 Clouds 28 1015 45 10000 4.1 130 13:59 13.11.2019
4490 Clouds 28 1014 45 10000 4.6 120 13:37 13.11.2019
4491 Clouds 28 1014 45 10000 4.6 120 13:19 13.11.2019
4492 Clouds 29 1014 39 10000 4.1 100 12:56 13.11.2019
4493 Haze 29 1015 22 9000 3.1 40 12:37 13.11.2019
4494 Haze 29 1015 22 9000 3.1 40 12:19 13.11.2019
4495 Clouds 29 1015 28 10000 3.1 30 11:41 13.11.2019
4496 Clouds 30 1015 25 10000 4.1 10 11:21 13.11.2019
4497 Clouds 30 1015 27 10000 4.6 350 10:59 13.11.2019
4498 Clouds 30 1015 27 10000 4.6 350 10:41 13.11.2019
4499 Clouds 30 1015 27 10000 5.1 360 10:20 13.11.2019
4500 Clouds 30 1016 27 10000 4.6 360 09:57 13.11.2019
4501 Clouds 30 1016 27 10000 4.6 360 09:39 13.11.2019
4502 Clouds 30 1016 27 10000 4.1 20 09:20 13.11.2019
4503 Clouds 29 1016 26 10000 4.1 360 08:39 13.11.2019
4504 Clouds 29 1016 26 10000 4.1 360 08:39 13.11.2019
4505 Clouds 29 1017 32 10000 4.1 340 08:20 13.11.2019
4506 Clouds 28 1017 35 10000 3.1 360 07:43 13.11.2019
4507 Clouds 28 1017 37 10000 3.1 350 07:21 13.11.2019
4508 Clouds 26 1017 34 10000 3.6 350 06:47 13.11.2019
4509 Clouds 26 1016 34 10000 2.6 330 06:19 13.11.2019
4510 Clouds 26 1016 34 10000 2.6 330 06:19 13.11.2019
4511 Clouds 26 1016 34 10000 2.6 330 06:19 13.11.2019
4512 Clouds 24 1016 32 10000 1 0 05:57 13.11.2019
4513 Clouds 24 1016 32 10000 1 0 05:38 13.11.2019
4514 Clouds 22 1016 41 10000 1 0 04:44 13.11.2019
4515 Clouds 21 1015 46 10000 1.5 260 03:23 13.11.2019
4516 Clouds 23 1015 36 10000 2.1 280 01:46 13.11.2019
4517 Clouds 23 1015 36 10000 2.1 290 01:18 13.11.2019
4518 Clouds 23 1015 38 10000 2.1 300 00:37 13.11.2019
4519 Clouds 23 1015 41 10000 1 0 23:42 12.11.2019
4520 Clouds 23 1015 36 10000 1.5 310 23:22 12.11.2019
4521 Clouds 24 1015 36 10000 2.1 300 22:58 12.11.2019
4522 Clouds 24 1015 36 10000 2.1 300 22:40 12.11.2019
4523 Clouds 24 1015 36 10000 2.1 300 22:40 12.11.2019
4524 Clouds 24 1015 36 10000 2.1 300 22:18 12.11.2019
4525 Clouds 24 1015 36 10000 2.1 300 21:44 12.11.2019
4526 Clouds 24 1015 39 10000 2.6 310 21:25 12.11.2019
4527 Clouds 24 1015 41 10000 3.1 310 20:58 12.11.2019
4528 Clouds 24 1015 41 10000 3.1 310 20:38 12.11.2019
4529 Clouds 24 1015 44 10000 2.6 310 20:19 12.11.2019
4530 Clouds 24 1015 47 10000 2.6 310 19:58 12.11.2019
4531 Clouds 24 1015 47 10000 2.6 310 19:39 12.11.2019
4532 Clouds 25 1015 47 10000 2.6 310 19:19 12.11.2019
4533 Clouds 25 1016 47 10000 2.6 310 18:59 12.11.2019
4534 Clouds 25 1016 47 10000 2.6 310 18:40 12.11.2019
4535 Clouds 25 1016 44 10000 3.1 310 18:22 12.11.2019
4536 Clouds 26 1016 42 10000 3.1 330 17:58 12.11.2019
4537 Clouds 26 1016 42 10000 3.1 330 17:40 12.11.2019
4538 Clouds 26 1015 44 10000 3.1 330 17:21 12.11.2019
4539 Clouds 26 1015 47 10000 3.6 330 16:59 12.11.2019
4540 Clouds 26 1015 47 10000 3.6 330 16:39 12.11.2019
4541 Clouds 26 1015 44 10000 4.1 340 16:21 12.11.2019
4542 Clouds 27 1015 42 10000 4.1 340 15:42 12.11.2019
4543 Clouds 27 1015 42 10000 4.1 340 15:42 12.11.2019
4544 Clouds 27 1015 45 10000 4.1 350 15:21 12.11.2019
4545 Clouds 28 1014 42 10000 4.6 350 14:57 12.11.2019
4546 Clouds 28 1014 42 10000 4.6 350 14:38 12.11.2019
4547 Haze 28 1015 39 9000 6.2 10 14:19 12.11.2019
4548 Clouds 28 1014 42 10000 4.1 360 13:56 12.11.2019
4549 Clouds 28 1014 42 10000 4.1 360 13:37 12.11.2019
4550 Clouds 28 1014 37 10000 4.1 360 13:19 12.11.2019
4551 Clouds 29 1014 39 10000 4.1 360 12:43 12.11.2019
4552 Haze 29 1015 25 9000 1.5 20 12:20 12.11.2019
4553 Clouds 29 1014 42 10000 5.7 10 11:59 12.11.2019
4554 Clouds 29 1014 42 10000 5.7 10 11:59 12.11.2019
4555 Clouds 30 1014 33 10000 4.1 360 11:40 12.11.2019
4556 Clouds 30 1014 33 10000 4.1 360 11:22 12.11.2019
4557 Clouds 30 1014 33 10000 4.1 360 11:22 12.11.2019
4558 Clouds 30 1015 33 10000 4.6 340 10:56 12.11.2019
4559 Clouds 30 1015 33 10000 3.6 330 10:38 12.11.2019
4560 Clouds 30 1015 33 10000 3.6 330 10:19 12.11.2019
4561 Clouds 29 1015 33 10000 4.1 340 09:42 12.11.2019
4562 Clouds 29 1016 37 10000 4.1 330 09:23 12.11.2019
4563 Clouds 28 1016 35 10000 4.6 340 08:57 12.11.2019
4564 Clouds 29 1017 39 10000 3.6 320 08:39 12.11.2019
4565 Clouds 27 1017 39 10000 3.6 320 08:19 12.11.2019
4566 Clouds 27 1017 39 10000 3.6 320 07:40 12.11.2019
4567 Clouds 27 1017 39 10000 3.6 320 07:40 12.11.2019
4568 Haze 27 1018 41 9000 3.1 320 07:22 12.11.2019
4569 Clouds 26 1017 42 10000 2.6 290 06:45 12.11.2019
4570 Clouds 26 1017 39 10000 1.5 280 06:23 12.11.2019
4571 Clouds 23 1016 41 10000 1.5 270 05:46 12.11.2019
4572 Clouds 22 1016 47 10000 1.5 250 04:50 12.11.2019
4573 Clear 22 1015 47 10000 2.1 270 03:48 12.11.2019
4574 Clear 21 1014 50 10000 2.1 300 01:47 12.11.2019
4575 Clear 21 1014 56 10000 1 280 01:22 12.11.2019
4576 Clear 22 1014 56 10000 0.5 0 00:47 12.11.2019
4577 Clear 22 1014 56 10000 3.1 338 00:28 12.11.2019
4578 Clear 23 1014 53 10000 1 300 23:44 11.11.2019
4579 Clear 23 1014 53 10000 1.5 320 23:23 11.11.2019
4580 Clear 23 1014 57 10000 1.5 320 22:57 11.11.2019
4581 Clear 23 1014 57 10000 1.5 320 22:36 11.11.2019
4582 Clear 23 1014 57 10000 1.5 320 22:18 11.11.2019
4583 Clear 23 1015 60 10000 2.1 330 21:57 11.11.2019
4584 Clear 23 1015 60 10000 2.1 330 21:38 11.11.2019
4585 Haze 24 1016 60 9000 1.5 330 21:19 11.11.2019
4586 Clear 24 1015 57 10000 1.5 340 20:43 11.11.2019
4587 Clouds 24 1015 50 10000 1.5 340 20:21 11.11.2019
4588 Clouds 25 1015 53 10000 1.5 350 19:59 11.11.2019
4589 Clouds 25 1015 53 10000 1.5 350 19:41 11.11.2019
4590 Clouds 25 1015 53 10000 2.1 360 19:19 11.11.2019
4591 Clouds 25 1015 47 10000 1.5 350 18:56 11.11.2019
4592 Clouds 25 1015 47 10000 1.5 350 18:38 11.11.2019
4593 Clouds 25 1015 47 10000 2.1 20 18:19 11.11.2019
4594 Clouds 26 1015 44 10000 2.1 20 17:42 11.11.2019
4595 Clouds 26 1015 42 10000 2.1 20 17:24 11.11.2019
4596 Clouds 27 1015 42 10000 2.1 20 16:44 11.11.2019
4597 Clouds 27 1014 42 10000 2.6 30 16:24 11.11.2019
4598 Clouds 27 1014 42 10000 2.6 30 16:24 11.11.2019
4599 Clouds 28 1014 39 10000 2.6 40 15:59 11.11.2019
4600 Clouds 28 1014 39 10000 2.6 40 15:40 11.11.2019
4601 Haze 28 1015 42 9000 2.1 50 15:20 11.11.2019
4602 Clouds 28 1014 39 10000 3.6 30 14:45 11.11.2019
4603 Haze 29 1015 37 9000 2.6 60 14:25 11.11.2019
4604 Clouds 29 1014 39 10000 4.1 50 13:58 11.11.2019
4605 Clouds 29 1014 39 10000 4.1 50 13:38 11.11.2019
4606 Haze 30 1015 30 9000 3.1 60 13:20 11.11.2019
4607 Clouds 30 1014 35 10000 4.6 50 12:58 11.11.2019
4608 Clouds 30 1014 35 10000 4.6 50 12:40 11.11.2019
4609 Haze 30 1014 32 9000 5.1 70 12:21 11.11.2019
4610 Clouds 30 1014 33 10000 5.1 50 11:43 11.11.2019
4611 Clouds 30 1014 35 10000 5.1 60 11:22 11.11.2019
4612 Clouds 30 1014 35 10000 6.2 40 10:59 11.11.2019
4613 Clouds 30 1014 35 10000 6.2 40 10:41 11.11.2019
4614 Clouds 30 1015 35 10000 6.2 40 10:18 11.11.2019
4615 Clouds 30 1015 35 10000 5.7 50 09:56 11.11.2019
4616 Clouds 30 1015 35 10000 5.7 50 09:37 11.11.2019
4617 Clouds 30 1016 35 10000 5.1 50 09:18 11.11.2019
4618 Clouds 29 1016 35 10000 5.1 50 08:40 11.11.2019
4619 Clouds 29 1017 39 10000 6.2 40 08:21 11.11.2019
4620 Clouds 28 1017 39 10000 5.7 50 07:56 11.11.2019
4621 Clouds 28 1017 39 10000 5.7 50 07:37 11.11.2019
4622 Clouds 28 1017 39 10000 5.7 50 07:37 11.11.2019
4623 Clouds 28 1017 42 10000 5.1 60 07:18 11.11.2019
4624 Clouds 27 1017 42 10000 4.6 50 06:46 11.11.2019
4625 Clouds 27 1016 45 10000 5.7 50 06:22 11.11.2019
4626 Clouds 26 1016 48 10000 4.1 50 05:50 11.11.2019
4627 Clouds 24 1016 57 10000 2.6 40 04:29 11.11.2019
4628 Clouds 24 1015 65 10000 3.1 30 03:23 11.11.2019
4629 Clear 23 1015 73 10000 4.6 10 02:22 11.11.2019
4630 Clear 23 1014 73 10000 3.1 10 01:55 11.11.2019
4631 Clear 23 1014 73 10000 3.1 10 01:34 11.11.2019
4632 Clear 23 1014 73 10000 2.1 330 00:47 11.11.2019
4633 Mist 22 1015 82 9000 2.1 360 00:19 11.11.2019
4634 Clear 22 1014 78 10000 2.1 330 23:39 10.11.2019
4635 Clear 22 1015 78 10000 2.6 330 23:20 10.11.2019
4636 Clear 22 1015 78 10000 2.6 330 22:57 10.11.2019
4637 Clear 22 1015 78 10000 2.6 330 22:38 10.11.2019
4638 Clear 22 1015 78 10000 2.1 340 22:20 10.11.2019
4639 Clear 22 1015 78 10000 2.1 340 22:20 10.11.2019
4640 Clear 23 1015 73 10000 2.1 330 21:58 10.11.2019
4641 Clear 23 1015 73 10000 2.1 330 21:58 10.11.2019
4642 Clear 23 1015 73 10000 2.1 330 21:39 10.11.2019
4643 Clear 23 1015 73 10000 2.1 330 21:39 10.11.2019
4644 Clear 23 1015 73 10000 2.6 340 21:21 10.11.2019
4645 Clear 23 1015 73 10000 2.1 340 20:56 10.11.2019
4646 Clear 23 1015 73 10000 2.1 340 20:37 10.11.2019
4647 Clouds 23 1015 73 10000 2.1 340 20:19 10.11.2019
4648 Clouds 23 1016 78 10000 1.5 310 19:54 10.11.2019
4649 Clouds 23 1016 78 10000 1.5 310 19:36 10.11.2019
4650 Clouds 23 1016 78 10000 2.1 340 19:18 10.11.2019
4651 Clouds 23 1016 78 10000 2.1 340 19:18 10.11.2019
4652 Clouds 23 1016 78 10000 1.5 340 18:54 10.11.2019
4653 Clouds 23 1016 78 10000 1.5 340 18:36 10.11.2019
4654 Clouds 23 1016 73 10000 1.5 330 18:18 10.11.2019
4655 Clouds 23 1015 69 10000 1 0 17:54 10.11.2019
4656 Clouds 23 1015 69 10000 2.6 230 17:36 10.11.2019
4657 Clouds 23 1015 69 10000 2.6 230 17:18 10.11.2019
4658 Clouds 23 1015 69 10000 2.6 230 17:18 10.11.2019
4659 Clouds 23 1015 64 10000 0.5 0 16:43 10.11.2019
4660 Haze 24 1016 73 9000 1.5 280 16:25 10.11.2019
4661 Clouds 23 1015 69 10000 1 220 15:56 10.11.2019
4662 Clouds 23 1015 69 10000 1 220 15:56 10.11.2019
4663 Clouds 23 1015 69 10000 1 220 15:37 10.11.2019
4664 Haze 23 1015 73 9000 5.65 105 15:18 10.11.2019
4665 Clouds 23 1014 73 10000 1.5 210 14:56 10.11.2019
4666 Clouds 23 1014 73 10000 1.5 210 14:38 10.11.2019
4667 Haze 22 1015 78 9000 3.1 160 14:19 10.11.2019
4668 Clouds 21 1015 78 10000 5.1 160 13:44 10.11.2019
4669 Haze 21 1015 88 6000 6.2 140 13:22 10.11.2019
4670 Haze 21 1015 88 6000 6.2 140 13:22 10.11.2019
4671 Thunderstorm 20 1015 88 8000 6.7 150 12:59 10.11.2019
4672 Thunderstorm 20 1015 88 8000 6.7 150 12:40 10.11.2019
4673 Thunderstorm 22 1015 88 2000 5.1 70 12:19 10.11.2019
4674 Thunderstorm 22 1015 88 2000 5.1 70 11:55 10.11.2019
4675 Haze 29 1014 51 5000 8.2 120 11:37 10.11.2019
4676 Haze 29 1014 51 5000 8.2 120 11:18 10.11.2019
4677 Haze 29 1014 51 5000 8.2 120 11:18 10.11.2019
4678 Clouds 29 1014 51 10000 7.2 90 10:42 10.11.2019
4679 Clouds 29 1014 51 10000 7.2 90 10:42 10.11.2019
4680 Haze 29 1014 48 5000 3.6 50 10:21 10.11.2019
4681 Clouds 30 1014 58 10000 6.2 50 09:56 10.11.2019
4682 Clouds 30 1014 58 10000 6.2 50 09:38 10.11.2019
4683 Haze 30 1015 36 9000 4.1 360 09:19 10.11.2019
4684 Clouds 29 1015 65 10000 5.7 60 08:39 10.11.2019
4685 Clouds 29 1015 65 10000 5.7 60 08:39 10.11.2019
4686 Clouds 29 1015 65 10000 6.2 50 08:20 10.11.2019
4687 Clouds 29 1015 65 9000 4.6 20 07:45 10.11.2019
4688 Clouds 30 1015 52 9000 2.1 100 07:26 10.11.2019
4689 Clouds 29 1015 55 8000 0.5 0 06:57 10.11.2019
4690 Clouds 27 1014 74 8000 3.1 340 05:55 10.11.2019
4691 Clouds 26 1013 83 7000 2.1 360 03:31 10.11.2019
4692 Clouds 26 1013 83 10000 1.5 350 02:22 10.11.2019
4693 Clouds 26 1013 83 10000 2.1 360 01:20 10.11.2019
4694 Clouds 26 1013 78 10000 1.5 350 00:48 10.11.2019
4695 Mist 27 1014 74 8000 1.5 360 00:23 10.11.2019
4696 Clouds 27 1013 69 10000 1.5 340 23:40 09.11.2019
4697 Clouds 27 1013 74 10000 1 350 23:19 09.11.2019
4698 Clouds 26 1013 74 10000 1 350 22:42 09.11.2019
4699 Clouds 26 1013 78 10000 3.69 45 22:22 09.11.2019
4700 Clouds 27 1013 74 10000 3.69 45 21:58 09.11.2019
4701 Clouds 27 1013 74 10000 3.69 45 21:39 09.11.2019
4702 Clouds 27 1013 74 10000 0.5 110 21:20 09.11.2019
4703 Clouds 27 1013 74 10000 1 110 20:44 09.11.2019
4704 Clouds 27 1014 74 10000 0.5 110 20:24 09.11.2019
4705 Clouds 27 1014 74 10000 0.5 90 19:59 09.11.2019
4706 Clouds 27 1014 74 10000 0.5 90 19:40 09.11.2019
4707 Clouds 27 1014 74 10000 1 100 19:22 09.11.2019
4708 Clouds 28 1014 69 10000 1 90 18:57 09.11.2019
4709 Clouds 28 1014 69 10000 1 90 18:38 09.11.2019
4710 Clouds 28 1014 69 10000 0.5 80 18:18 09.11.2019
4711 Clouds 28 1013 69 10000 1 90 17:42 09.11.2019
4712 Clouds 28 1013 69 10000 0.5 0 17:23 09.11.2019
4713 Clouds 29 1013 66 10000 1 80 16:57 09.11.2019
4714 Clouds 29 1013 66 10000 1 80 16:38 09.11.2019
4715 Clouds 29 1013 66 10000 1.5 120 16:19 09.11.2019
4716 Clouds 29 1013 66 10000 2.6 120 15:42 09.11.2019
4717 Clouds 29 1013 62 10000 2.6 120 15:23 09.11.2019
4718 Clouds 29 1013 62 10000 2.6 120 15:23 09.11.2019
4719 Clouds 30 1012 62 10000 3.1 110 14:47 09.11.2019
4720 Haze 30 1013 48 9000 4.1 120 14:24 09.11.2019
4721 Clouds 31 1012 51 10000 3.1 90 13:58 09.11.2019
4722 Clouds 31 1012 51 10000 3.1 90 13:40 09.11.2019
4723 Clouds 31 1012 51 10000 3.1 90 13:40 09.11.2019
4724 Clouds 31 1012 58 10000 3.6 90 13:21 09.11.2019
4725 Clouds 31 1012 51 10000 3.6 90 12:59 09.11.2019
4726 Clouds 31 1012 51 10000 3.6 90 12:41 09.11.2019
4727 Haze 32 1012 36 9000 5.08 96 12:22 09.11.2019
4728 Clouds 32 1012 45 10000 4.1 80 11:55 09.11.2019
4729 Clouds 32 1012 35 10000 3.1 30 11:37 09.11.2019
4730 Clear 32 1012 35 10000 3.1 30 11:18 09.11.2019
4731 Clear 31 1013 43 10000 4.1 20 10:40 09.11.2019
4732 Clear 31 1013 48 10000 4.1 20 10:19 09.11.2019
4733 Clear 31 1013 48 10000 4.1 20 10:19 09.11.2019
4734 Clear 30 1014 52 10000 4.1 360 09:47 09.11.2019
4735 Clear 30 1014 48 9000 3.1 360 09:28 09.11.2019
4736 Clear 29 1014 55 8000 3.1 10 08:59 09.11.2019
4737 Clear 29 1014 55 8000 3.1 10 08:59 09.11.2019
4738 Clear 29 1014 55 8000 3.1 10 08:39 09.11.2019
4739 Clouds 29 1015 58 8000 3.1 10 08:19 09.11.2019
4740 Clouds 28 1015 62 8000 3.1 20 07:45 09.11.2019
4741 Clouds 28 1015 62 8000 2.1 10 07:23 09.11.2019
4742 Clouds 27 1015 69 8000 1.5 20 06:49 09.11.2019
4743 Clouds 27 1015 74 8000 1.5 360 06:30 09.11.2019
4744 Clouds 25 1015 78 6000 1.5 350 05:43 09.11.2019
4745 Clouds 24 1014 78 6000 1.5 340 04:58 09.11.2019
4746 Clouds 24 1014 78 6000 2.1 350 03:52 09.11.2019
4747 Clouds 24 1013 73 10000 2.18 326 02:43 09.11.2019
4748 Clouds 25 1013 73 10000 1.87 302 01:55 09.11.2019
4749 Clouds 25 1012 69 10000 1 0 00:53 09.11.2019
4750 Clear 26 1013 69 9000 1.5 260 00:31 09.11.2019
4751 Clear 26 1013 69 9000 1.5 260 00:31 09.11.2019
4752 Clouds 26 1013 65 10000 1 0 23:58 08.11.2019
4753 Clouds 26 1013 65 10000 1 0 23:39 08.11.2019
4754 Haze 26 1014 69 9000 1 220 23:19 08.11.2019
4755 Haze 26 1014 69 9000 1 220 23:19 08.11.2019
4756 Clouds 26 1013 65 10000 1.5 200 22:48 08.11.2019
4757 Haze 26 1014 65 9000 1.5 180 22:22 08.11.2019
4758 Clouds 26 1013 69 10000 2.1 190 21:56 08.11.2019
4759 Clouds 26 1013 69 10000 2.1 190 21:38 08.11.2019
4760 Clouds 26 1013 69 10000 2.1 160 21:18 08.11.2019
4761 Clouds 27 1013 69 10000 2.1 140 20:42 08.11.2019
4762 Clouds 27 1013 65 10000 2.6 150 20:22 08.11.2019
4763 Clouds 27 1014 65 10000 2.6 140 19:59 08.11.2019
4764 Clouds 27 1014 65 10000 2.6 140 19:38 08.11.2019
4765 Clouds 27 1014 65 10000 1 130 19:18 08.11.2019
4766 Clouds 27 1014 65 10000 1 120 18:55 08.11.2019
4767 Clouds 27 1014 65 10000 1 120 18:37 08.11.2019
4768 Clouds 27 1014 65 10000 1 120 18:37 08.11.2019
4769 Clouds 28 1014 61 10000 1 90 18:19 08.11.2019
4770 Clouds 28 1014 61 10000 2.1 90 17:55 08.11.2019
4771 Clouds 28 1014 61 10000 2.1 90 17:37 08.11.2019
4772 Clouds 28 1014 61 10000 2.1 90 17:19 08.11.2019
4773 Clouds 28 1014 61 10000 2.1 60 16:58 08.11.2019
4774 Clouds 28 1014 61 10000 2.1 60 16:39 08.11.2019
4775 Clouds 28 1014 61 10000 2.6 30 16:19 08.11.2019
4776 Clouds 28 1014 61 10000 2.6 30 16:19 08.11.2019
4777 Clouds 29 1013 58 10000 2.1 60 15:57 08.11.2019
4778 Clouds 29 1013 58 10000 2.1 60 15:38 08.11.2019
4779 Clouds 28 1013 61 10000 2.6 70 15:20 08.11.2019
4780 Clouds 30 1013 58 10000 3.1 100 14:55 08.11.2019
4781 Clouds 30 1013 58 10000 3.1 100 14:36 08.11.2019
4782 Haze 30 1013 31 9000 2.1 360 14:18 08.11.2019
4783 Clouds 30 1013 58 10000 4.1 90 13:55 08.11.2019
4784 Clouds 30 1013 58 10000 4.1 90 13:36 08.11.2019
4785 Clouds 30 1012 51 10000 3.1 80 13:18 08.11.2019
4786 Clouds 30 1012 55 10000 3.1 100 12:42 08.11.2019
4787 Clouds 31 1013 51 10000 3.6 100 12:24 08.11.2019
4788 Clouds 31 1013 51 10000 3.6 100 11:56 08.11.2019
4789 Clouds 30 1013 48 10000 2.6 100 11:37 08.11.2019
4790 Clear 31 1013 48 10000 2.6 100 11:19 08.11.2019
4791 Clear 30 1013 51 10000 2.1 60 10:54 08.11.2019
4792 Clear 30 1013 51 10000 2.1 60 10:36 08.11.2019
4793 Clear 30 1014 51 10000 3.1 20 10:18 08.11.2019
4794 Clear 30 1014 51 10000 3.1 20 09:41 08.11.2019
4795 Clear 29 1014 51 10000 2.1 360 09:20 08.11.2019
4796 Clear 29 1015 54 10000 3.1 10 08:54 08.11.2019
4797 Clear 29 1015 54 10000 3.1 10 08:36 08.11.2019
4798 Clouds 29 1015 54 10000 3.1 10 08:18 08.11.2019
4799 Clouds 28 1015 58 10000 3.6 10 07:39 08.11.2019
4800 Clouds 28 1015 58 10000 3.1 340 07:20 08.11.2019
4801 Clouds 27 1015 54 10000 1 0 06:40 08.11.2019
4802 Clouds 27 1015 58 10000 1.5 250 06:20 08.11.2019
4803 Clouds 25 1014 61 10000 1 0 05:53 08.11.2019
4804 Clouds 25 1014 65 10000 1.5 240 05:19 08.11.2019
4805 Clouds 23 1013 65 10000 1 0 03:44 08.11.2019
4806 Clouds 23 1013 69 10000 3.08 318 03:21 08.11.2019
4807 Clouds 24 1013 65 10000 3.08 318 02:42 08.11.2019
4808 Clouds 24 1012 65 10000 0.5 120 01:47 08.11.2019
4809 Clouds 24 1012 65 10000 2.95 307 01:22 08.11.2019
4810 Clouds 24 1012 65 10000 1 350 00:24 08.11.2019
4811 Clouds 25 1012 69 10000 1.5 340 23:58 07.11.2019
4812 Clouds 25 1012 69 10000 1.5 340 23:40 07.11.2019
4813 Clouds 25 1012 61 10000 1.5 340 23:21 07.11.2019
4814 Clouds 25 1012 61 10000 2.6 340 22:42 07.11.2019
4815 Clouds 25 1013 65 10000 2.6 330 22:21 07.11.2019
4816 Clouds 25 1013 61 10000 2.1 340 21:56 07.11.2019
4817 Clouds 25 1013 61 10000 2.1 340 21:37 07.11.2019
4818 Clouds 25 1013 65 10000 1.5 350 21:19 07.11.2019
4819 Clouds 25 1013 65 10000 1.5 340 20:57 07.11.2019
4820 Clouds 25 1013 65 10000 1.5 340 20:39 07.11.2019
4821 Haze 26 1014 69 9000 1.5 340 20:20 07.11.2019
4822 Clouds 26 1014 61 10000 1.5 350 19:54 07.11.2019
4823 Clouds 26 1014 61 10000 1.5 350 19:36 07.11.2019
4824 Haze 27 1015 65 9000 2.79 336 19:18 07.11.2019
4825 Clouds 27 1014 58 10000 3.1 330 18:55 07.11.2019
4826 Clouds 27 1014 58 10000 3.6 340 18:36 07.11.2019
4827 Clouds 27 1014 58 10000 3.6 340 18:18 07.11.2019
4828 Clouds 28 1013 61 10000 4.6 350 17:40 07.11.2019
4829 Clouds 28 1013 61 10000 4.6 350 17:40 07.11.2019
4830 Clouds 28 1013 61 10000 4.6 350 17:21 07.11.2019
4831 Clouds 28 1013 65 10000 4.1 350 16:58 07.11.2019
4832 Clouds 28 1013 65 10000 4.1 360 16:40 07.11.2019
4833 Clouds 28 1013 65 10000 4.1 360 16:20 07.11.2019
4834 Clouds 29 1013 58 10000 4.1 360 15:57 07.11.2019
4835 Clouds 29 1013 58 10000 4.1 360 15:57 07.11.2019
4836 Clouds 29 1012 51 10000 3.6 10 15:38 07.11.2019
4837 Clouds 29 1012 51 10000 3.6 10 15:19 07.11.2019
4838 Clouds 29 1012 51 10000 3.6 10 15:19 07.11.2019
4839 Clouds 31 1012 42 10000 3.1 40 14:45 07.11.2019
4840 Clouds 31 1012 42 10000 3.6 50 14:27 07.11.2019
4841 Clouds 31 1012 42 10000 3.6 50 14:27 07.11.2019
4842 Clouds 31 1012 42 10000 3.6 60 13:57 07.11.2019
4843 Clouds 31 1012 40 10000 3.1 40 13:38 07.11.2019
4844 Clouds 31 1012 40 10000 3.1 40 13:20 07.11.2019
4845 Clouds 31 1012 40 10000 4.1 30 12:58 07.11.2019
4846 Clouds 31 1012 48 10000 4.1 50 12:40 07.11.2019
4847 Clouds 31 1012 48 10000 4.1 50 12:21 07.11.2019
4848 Clouds 31 1012 45 10000 3.1 10 11:58 07.11.2019
4849 Clouds 31 1012 45 10000 3.6 10 11:39 07.11.2019
4850 Clouds 31 1012 45 10000 3.6 10 11:20 07.11.2019
4851 Clouds 31 1013 45 10000 2.1 30 10:41 07.11.2019
4852 Clouds 31 1013 45 10000 2.1 30 10:19 07.11.2019
4853 Clouds 30 1014 48 10000 3.1 360 09:44 07.11.2019
4854 Clouds 30 1014 48 10000 3.1 360 09:23 07.11.2019
4855 Clouds 29 1014 51 10000 2.6 350 08:57 07.11.2019
4856 Clouds 29 1014 51 10000 2.6 350 08:56 07.11.2019
4857 Clouds 29 1014 51 10000 2.1 20 08:37 07.11.2019
4858 Clear 29 1014 51 10000 2.1 20 08:19 07.11.2019
4859 Clear 29 1014 51 10000 2.1 20 08:19 07.11.2019
4860 Clear 28 1015 51 10000 3.1 350 07:41 07.11.2019
4861 Clear 28 1015 51 10000 3.1 350 07:22 07.11.2019
4862 Clear 27 1014 51 10000 3.6 330 06:49 07.11.2019
4863 Clear 27 1014 51 10000 3.1 320 06:29 07.11.2019
4864 Clear 26 1014 51 10000 3.1 310 05:57 07.11.2019
4865 Clear 26 1014 51 10000 3.1 310 05:57 07.11.2019
4866 Clear 25 1014 54 10000 2.6 310 05:38 07.11.2019
4867 Clear 25 1014 54 10000 2.6 310 05:19 07.11.2019
4868 Clear 25 1014 54 10000 2.6 310 05:19 07.11.2019
4869 Clear 23 1013 64 10000 1.5 330 04:41 07.11.2019
4870 -273 0 0 0 0 0 02:58 07.11.2019
4871 Clear 23 1012 61 10000 3.1 310 02:58 07.11.2019
4872 Clear 24 1012 61 10000 2.6 320 00:47 07.11.2019
4873 Clear 24 1012 61 10000 3.1 310 00:20 07.11.2019
4874 Clear 24 1012 57 10000 3.1 310 23:47 06.11.2019
4875 Clear 24 1012 57 10000 3.6 310 23:47 06.11.2019
4876 Clear 24 1012 57 10000 3.1 310 23:22 06.11.2019
4877 Clear 25 1012 57 10000 3.6 320 22:56 06.11.2019
4878 Clear 25 1012 57 10000 4.1 320 22:37 06.11.2019
4879 Clear 25 1012 57 10000 4.1 320 22:18 06.11.2019
4880 Clear 25 1012 57 10000 4.1 320 22:18 06.11.2019
4881 Clear 25 1013 57 10000 3.6 320 21:42 06.11.2019
4882 Clear 25 1013 57 10000 3.6 320 21:21 06.11.2019
4883 Clear 26 1013 54 10000 3.1 320 20:59 06.11.2019
4884 Clear 26 1013 54 10000 3.6 320 20:40 06.11.2019
4885 Clear 26 1013 54 10000 3.6 320 20:40 06.11.2019
4886 Clear 26 1013 54 10000 3.6 320 20:21 06.11.2019
4887 Clear 26 1013 54 10000 4.1 320 19:58 06.11.2019
4888 Clear 26 1013 51 10000 4.6 330 19:39 06.11.2019
4889 Clear 26 1013 51 10000 4.6 330 19:21 06.11.2019
4890 Clear 26 1013 51 10000 4.6 330 19:21 06.11.2019
4891 Clear 26 1013 54 10000 5.1 330 18:58 06.11.2019
4892 Clear 26 1013 54 10000 5.1 330 18:38 06.11.2019
4893 Clear 26 1013 54 10000 5.1 330 18:19 06.11.2019
4894 Clear 27 1013 48 10000 5.7 320 17:56 06.11.2019
4895 Clear 27 1013 48 10000 5.7 320 17:37 06.11.2019
4896 Clear 27 1013 48 10000 5.7 330 17:18 06.11.2019
4897 Clear 28 1013 42 10000 5.7 330 16:54 06.11.2019
4898 Clear 28 1013 42 10000 5.7 330 16:36 06.11.2019
4899 Clear 28 1012 39 10000 5.1 320 16:18 06.11.2019
4900 Clear 29 1012 37 10000 5.1 320 15:54 06.11.2019
4901 Clear 29 1012 37 10000 5.1 320 15:36 06.11.2019
4902 Clear 30 1012 37 10000 5.7 320 15:18 06.11.2019
4903 Clear 31 1012 31 10000 6.2 320 14:55 06.11.2019
4904 Haze 32 1012 20 9000 7.7 330 14:36 06.11.2019
4905 Haze 32 1012 20 9000 7.7 330 14:18 06.11.2019
4906 Clear 32 1011 29 10000 5.7 310 13:38 06.11.2019
4907 Clear 32 1011 29 10000 6.2 320 13:20 06.11.2019
4908 Clear 33 1011 27 10000 6.7 330 12:57 06.11.2019
4909 Clear 33 1011 27 10000 6.7 330 12:39 06.11.2019
4910 Haze 33 1012 21 9000 8.7 340 12:20 06.11.2019
4911 Clear 33 1011 24 10000 6.7 340 11:58 06.11.2019
4912 Clear 33 1011 24 10000 6.7 340 11:37 06.11.2019
4913 Clear 32 1012 31 10000 7.7 360 11:18 06.11.2019
4914 Clear 32 1012 31 10000 7.7 360 11:18 06.11.2019
4915 Clear 32 1012 31 10000 7.7 360 10:56 06.11.2019
4916 Clear 32 1012 31 10000 7.7 360 10:38 06.11.2019
4917 Haze 32 1014 29 9000 7.7 330 10:19 06.11.2019
4918 Clear 32 1012 31 10000 6.7 330 09:43 06.11.2019
4919 Haze 32 1014 29 9000 6.7 330 09:22 06.11.2019
4920 Clear 31 1013 35 10000 5.1 320 08:58 06.11.2019
4921 Clear 31 1013 35 10000 5.1 320 08:38 06.11.2019
4922 Haze 31 1015 33 9000 5.7 330 08:20 06.11.2019
4923 Clear 30 1014 38 10000 6.2 330 07:56 06.11.2019
4924 Clear 30 1014 38 10000 6.2 330 07:37 06.11.2019
4925 Haze 30 1015 45 9000 6.2 330 07:19 06.11.2019
4926 Clear 28 1014 45 10000 4.6 300 06:42 06.11.2019
4927 Haze 28 1015 61 9000 5.1 310 06:23 06.11.2019
4928 Clear 25 1013 54 10000 3.6 300 03:58 06.11.2019
4929 Haze 26 1013 69 9000 2.1 300 02:19 06.11.2019
4930 Haze 26 1013 73 9000 2.6 320 01:31 06.11.2019
4931 Clear 26 1012 54 10000 4.1 310 00:35 06.11.2019
4932 Haze 27 1013 65 9000 3.1 300 00:35 06.11.2019
4933 Clear 27 1012 54 10000 3.6 310 23:57 05.11.2019
4934 Clear 27 1012 54 10000 3.6 310 23:37 05.11.2019
4935 Clear 27 1012 54 10000 4.1 310 23:19 05.11.2019
4936 Clear 27 1012 54 10000 3.6 310 22:43 05.11.2019
4937 Clear 27 1013 58 10000 3.1 320 22:19 05.11.2019
4938 Clear 27 1013 58 10000 3.1 310 21:58 05.11.2019
4939 Clear 27 1013 58 10000 3.1 310 21:40 05.11.2019
4940 Clear 27 1013 54 10000 4.6 320 21:20 05.11.2019
4941 Clear 27 1013 51 10000 4.1 320 20:57 05.11.2019
4942 Clear 27 1013 51 10000 4.1 320 20:38 05.11.2019
4943 Clear 27 1013 51 10000 4.1 330 20:20 05.11.2019
4944 Clear 28 1013 54 10000 4.1 330 19:55 05.11.2019
4945 Clear 28 1013 54 10000 4.1 330 19:37 05.11.2019
4946 Clear 28 1013 54 10000 4.6 330 19:19 05.11.2019
4947 Clear 28 1013 51 10000 4.6 330 18:56 05.11.2019
4948 Haze 29 1014 45 9000 4.1 350 18:38 05.11.2019
4949 Haze 29 1014 45 9000 4.1 350 18:19 05.11.2019
4950 Haze 29 1014 45 9000 4.1 350 18:19 05.11.2019
4951 Clear 29 1013 48 10000 5.7 340 17:55 05.11.2019
4952 Clear 29 1013 48 10000 5.7 340 17:37 05.11.2019
4953 Clear 29 1013 45 10000 5.1 330 17:18 05.11.2019
4954 Clear 30 1013 45 10000 5.1 340 16:41 05.11.2019
4955 Clear 31 1013 51 10000 5.7 350 16:20 05.11.2019
4956 Clear 31 1013 55 10000 5.1 360 15:57 05.11.2019
4957 Clear 31 1013 55 10000 5.1 360 15:36 05.11.2019
4958 Clear 31 1012 62 10000 5.1 10 15:18 05.11.2019
4959 Clear 32 1012 52 10000 4.6 10 14:54 05.11.2019
4960 Haze 32 1013 30 9000 4.1 360 14:36 05.11.2019
4961 Haze 32 1013 30 9000 4.1 360 14:18 05.11.2019
4962 Clear 32 1012 58 10000 4.1 20 13:43 05.11.2019
4963 Clouds 32 1012 55 10000 4.1 20 13:24 05.11.2019
4964 Clouds 32 1012 52 10000 4.6 20 12:42 05.11.2019
4965 Haze 33 1013 26 9000 3.1 340 12:23 05.11.2019
4966 Clouds 33 1013 36 10000 4.1 360 11:59 05.11.2019
4967 Clouds 33 1013 36 10000 4.1 360 11:40 05.11.2019
4968 Clouds 33 1013 38 10000 4.1 360 11:21 05.11.2019
4969 Clouds 33 1013 38 10000 3.6 360 10:58 05.11.2019
4970 Clouds 33 1013 38 10000 3.6 360 10:40 05.11.2019
4971 Clouds 32 1014 46 10000 3.6 10 10:22 05.11.2019
4972 Clouds 32 1014 46 10000 4.1 10 09:55 05.11.2019
4973 Clouds 32 1015 46 10000 5.1 350 09:37 05.11.2019
4974 Clouds 32 1015 46 10000 5.1 350 09:18 05.11.2019
4975 Clouds 31 1015 48 10000 4.6 350 08:39 05.11.2019
4976 Clear 31 1016 45 10000 4.1 340 08:20 05.11.2019
4977 Clear 31 1016 45 10000 4.1 340 08:20 05.11.2019
4978 Clear 31 1016 43 10000 3.6 330 07:57 05.11.2019
4979 Clear 31 1016 43 10000 3.6 330 07:39 05.11.2019
4980 Clear 29 1016 55 10000 2.6 310 07:19 05.11.2019
4981 Clear 28 1016 66 10000 3.6 330 06:49 05.11.2019
4982 Clear 26 1016 65 10000 2.6 320 05:51 05.11.2019
4983 Clear 26 1016 69 10000 3.6 330 05:22 05.11.2019
4984 Clear 26 1016 69 10000 3.6 330 05:22 05.11.2019
4985 Clear 25 1015 74 9000 3.1 330 04:25 05.11.2019
4986 Clear 25 1015 74 9000 3.1 330 04:25 05.11.2019
4987 Clear 25 1014 74 10000 2.1 330 03:49 05.11.2019
4988 Clear 26 1013 69 10000 1.5 340 02:46 05.11.2019
4989 Clear 26 1013 69 10000 1.5 230 02:18 05.11.2019
4990 Clear 27 1013 65 10000 1.5 210 00:52 05.11.2019
4991 Clear 27 1013 69 10000 1.5 190 00:30 05.11.2019
4992 Clear 27 1013 69 10000 1.5 170 23:56 04.11.2019
4993 Clear 27 1013 69 10000 2.1 150 23:37 04.11.2019
4994 Clear 27 1013 69 10000 2.1 150 23:18 04.11.2019
4995 Clear 28 1013 65 10000 1.5 140 22:41 04.11.2019
4996 Clear 28 1014 65 10000 1.5 140 22:23 04.11.2019
4997 Clear 28 1014 65 10000 1.5 140 22:23 04.11.2019
4998 Clear 28 1014 65 10000 1.5 130 21:56 04.11.2019
4999 Clear 28 1014 65 10000 1.5 130 21:38 04.11.2019
5000 Clear 28 1014 65 10000 1 120 21:19 04.11.2019
5001 Clear 28 1014 65 10000 1 100 20:58 04.11.2019
5002 Clear 28 1014 65 10000 1 100 20:39 04.11.2019
5003 Clear 28 1014 65 10000 1.5 80 20:21 04.11.2019
5004 Clear 29 1014 62 10000 1.5 80 19:59 04.11.2019
5005 Clear 29 1014 62 10000 1.5 80 19:40 04.11.2019
5006 Clear 29 1015 62 10000 2.1 70 19:21 04.11.2019
5007 Clear 29 1015 62 10000 2.6 40 18:57 04.11.2019
5008 Clear 29 1015 62 10000 2.6 40 18:38 04.11.2019
5009 Clear 29 1015 62 10000 2.6 40 18:19 04.11.2019
5010 Clear 30 1015 58 10000 3.1 40 17:40 04.11.2019
5011 Clear 30 1015 58 10000 2.6 40 17:21 04.11.2019
5012 Clear 30 1014 62 10000 3.1 30 16:57 04.11.2019
5013 Clear 30 1014 62 10000 3.1 30 16:39 04.11.2019
5014 Clear 30 1014 62 10000 4.1 20 16:21 04.11.2019
5015 Clear 30 1014 62 10000 4.6 20 15:56 04.11.2019
5016 Clear 30 1014 62 10000 5.1 20 15:38 04.11.2019
5017 Clear 30 1014 62 10000 5.1 20 15:19 04.11.2019
5018 Clear 31 1014 58 10000 4.6 30 14:54 04.11.2019
5019 Clear 31 1014 58 10000 4.6 30 14:54 04.11.2019
5020 Haze 32 1014 38 9000 4.6 80 14:36 04.11.2019
5021 Haze 32 1014 38 9000 4.6 80 14:18 04.11.2019
5022 Clear 32 1013 49 10000 5.1 50 13:42 04.11.2019
5023 Clear 33 1013 49 10000 4.6 50 13:22 04.11.2019
5024 Clear 32 1013 46 10000 4.1 30 12:59 04.11.2019
5025 Clear 32 1013 46 10000 4.1 30 12:41 04.11.2019
5026 Clear 33 1014 49 10000 3.6 70 12:22 04.11.2019
5027 Clear 33 1014 49 10000 3.6 70 11:57 04.11.2019
5028 Clear 33 1014 49 10000 3.6 70 11:38 04.11.2019
5029 Clear 33 1014 49 10000 3.6 70 11:38 04.11.2019
5030 Clear 33 1014 49 10000 4.1 100 11:20 04.11.2019
5031 Clear 33 1014 49 10000 4.1 100 10:44 04.11.2019
5032 Clear 33 1015 46 10000 4.6 100 10:25 04.11.2019
5033 Clear 33 1015 43 10000 3.6 100 09:54 04.11.2019
5034 Clear 33 1015 49 10000 3.1 110 09:36 04.11.2019
5035 Clear 33 1015 49 10000 3.1 110 09:18 04.11.2019
5036 Clear 31 1016 55 10000 3.1 80 08:41 04.11.2019
5037 Clouds 31 1016 49 10000 2.6 20 08:21 04.11.2019
5038 Clouds 31 1016 46 10000 1 0 07:45 04.11.2019
5039 Clouds 31 1017 58 10000 1 0 07:25 04.11.2019
5040 Clouds 29 1017 58 10000 1 0 06:59 04.11.2019
5041 Clouds 29 1017 58 10000 1 0 06:36 04.11.2019
5042 Clouds 27 1016 58 10000 1 350 05:59 04.11.2019
5043 Clouds 25 1016 65 10000 0.5 0 04:50 04.11.2019
5044 Clouds 25 1015 65 10000 1 0 04:24 04.11.2019
5045 Clouds 25 1015 65 10000 1 230 02:59 04.11.2019
5046 Clear 25 1014 61 10000 1.5 230 01:22 04.11.2019
5047 Clear 25 1014 61 10000 1 220 00:51 04.11.2019
5048 Clear 25 1014 61 10000 1 0 00:21 04.11.2019
5049 Clear 25 1015 65 10000 1 0 23:56 03.11.2019
5050 Haze 26 1015 60 9000 2.91 358 23:36 03.11.2019
5051 Haze 26 1015 60 9000 3.05 354 23:18 03.11.2019
5052 Clear 26 1014 58 10000 1 0 22:54 03.11.2019
5053 Clear 26 1014 58 10000 1 0 22:36 03.11.2019
5054 Haze 26 1015 53 9000 3.05 354 22:18 03.11.2019
5055 Clear 27 1014 58 10000 2.6 330 21:41 03.11.2019
5056 Clear 27 1014 61 10000 3.1 330 21:21 03.11.2019
5057 Clear 27 1014 61 10000 3.1 330 21:21 03.11.2019
5058 Clear 27 1014 61 10000 2.1 350 20:56 03.11.2019
5059 Clear 27 1014 61 10000 2.1 350 20:37 03.11.2019
5060 Clouds 27 1015 58 10000 2.1 330 20:18 03.11.2019
5061 Clouds 27 1015 58 10000 2.1 330 20:18 03.11.2019
5062 Clouds 27 1015 58 10000 3.6 330 19:56 03.11.2019
5063 Clouds 27 1015 58 10000 3.6 330 19:38 03.11.2019
5064 Clouds 27 1015 61 10000 2.6 340 19:19 03.11.2019
5065 Clouds 28 1015 61 10000 3.6 330 18:39 03.11.2019
5066 Clouds 29 1015 58 10000 3.6 340 18:19 03.11.2019
5067 Clouds 29 1015 58 10000 3.6 350 17:59 03.11.2019
5068 Clouds 29 1015 58 10000 3.6 350 17:41 03.11.2019
5069 Clouds 29 1014 58 10000 3.1 350 17:19 03.11.2019
5070 Clouds 30 1014 54 10000 4.1 350 16:56 03.11.2019
5071 Clouds 30 1014 54 10000 4.1 350 16:38 03.11.2019
5072 Haze 30 1015 31 9000 2.6 360 16:19 03.11.2019
5073 Clouds 30 1014 55 10000 4.6 360 15:56 03.11.2019
5074 Clouds 30 1014 55 10000 4.6 360 15:38 03.11.2019
5075 Clouds 30 1013 58 10000 4.6 10 15:20 03.11.2019
5076 Clouds 31 1013 58 10000 5.1 10 14:41 03.11.2019
5077 Haze 31 1014 26 9000 4.6 350 14:19 03.11.2019
5078 Haze 31 1014 26 9000 4.6 350 14:19 03.11.2019
5079 Clear 32 1013 55 10000 5.7 10 13:56 03.11.2019
5080 Clear 32 1013 55 10000 5.7 10 13:37 03.11.2019
5081 Clear 32 1013 55 10000 5.7 20 13:18 03.11.2019
5082 Clear 32 1013 52 10000 5.1 20 12:38 03.11.2019
5083 Haze 32 1014 26 9000 5.7 330 12:19 03.11.2019
5084 Clear 32 1013 46 10000 4.6 20 11:57 03.11.2019
5085 Clear 32 1013 46 10000 4.6 20 11:39 03.11.2019
5086 Haze 33 1014 30 9000 4.1 350 11:20 03.11.2019
5087 Clear 32 1014 43 10000 4.6 10 10:42 03.11.2019
5088 Clear 32 1014 43 10000 4.1 350 10:22 03.11.2019
5089 Clear 32 1015 46 10000 4.6 360 09:58 03.11.2019
5090 Clear 32 1015 46 10000 4.6 360 09:40 03.11.2019
5091 Clear 31 1015 48 10000 4.6 350 09:22 03.11.2019
5092 Clear 30 1015 48 10000 5.1 350 08:53 03.11.2019
5093 Clear 30 1016 48 10000 5.7 350 08:25 03.11.2019
5094 Clear 30 1016 51 10000 4.6 340 07:55 03.11.2019
5095 Clear 30 1016 51 10000 4.6 340 07:37 03.11.2019
5096 Clear 30 1016 51 10000 5.1 340 07:18 03.11.2019
5097 Clear 28 1016 51 10000 4.1 330 06:38 03.11.2019
5098 Clear 27 1015 58 10000 3.1 310 05:41 03.11.2019
5099 Mist 26 1016 65 8000 2.1 350 05:18 03.11.2019
5100 Clear 26 1015 61 10000 3.1 310 04:47 03.11.2019
5101 Clear 25 1015 65 10000 3.1 310 03:39 03.11.2019
5102 Clear 25 1014 65 10000 3.6 310 02:46 03.11.2019
5103 Clear 25 1014 61 10000 3.1 310 02:21 03.11.2019
5104 Clear 25 1014 61 10000 3.1 310 02:21 03.11.2019
5105 Clear 25 1014 61 10000 3.1 310 01:44 03.11.2019
5106 Clear 25 1013 61 10000 3.1 310 01:21 03.11.2019
5107 Clear 26 1013 57 10000 3.1 310 00:46 03.11.2019
5108 Clear 26 1013 57 10000 3.6 300 00:28 03.11.2019
5109 Clear 26 1013 57 10000 3.6 300 23:59 02.11.2019
5110 Clear 26 1013 57 10000 3.6 300 23:39 02.11.2019
5111 Haze 26 1014 64 9000 3.25 334 23:19 02.11.2019
5112 Clear 26 1014 57 10000 3.1 310 22:56 02.11.2019
5113 Clear 26 1014 57 10000 3.1 310 22:38 02.11.2019
5114 Haze 27 1015 61 9000 3.25 334 22:19 02.11.2019
5115 Haze 27 1015 61 9000 3.25 334 22:19 02.11.2019
5116 Haze 27 1015 61 9000 3.25 334 22:19 02.11.2019
5117 Clear 27 1014 54 10000 4.1 310 21:57 02.11.2019
5118 Clear 27 1014 54 10000 3.6 310 21:38 02.11.2019
5119 Clear 27 1014 54 10000 3.6 310 21:18 02.11.2019
5120 Clear 27 1014 54 10000 3.6 310 21:18 02.11.2019
5121 Clear 27 1014 54 10000 3.6 310 21:18 02.11.2019
5122 Clear 27 1014 54 10000 3.6 310 21:18 02.11.2019
5123 Clear 27 1014 54 10000 3.1 310 20:59 02.11.2019
5124 Clear 27 1014 54 10000 3.1 310 20:40 02.11.2019
5125 Clear 27 1014 54 10000 3.6 310 20:20 02.11.2019
5126 Clear 27 1014 54 10000 3.1 320 19:55 02.11.2019
5127 Clear 27 1014 58 10000 3.1 320 19:36 02.11.2019
5128 Clear 27 1014 58 10000 3.1 320 19:18 02.11.2019
5129 Clear 27 1014 58 10000 2.6 310 18:43 02.11.2019
5130 Clear 27 1014 58 10000 3.1 330 18:24 02.11.2019
5131 Clear 28 1014 58 10000 4.1 340 17:59 02.11.2019
5132 Clear 28 1014 58 10000 4.1 340 17:40 02.11.2019
5133 Clear 28 1014 58 10000 4.1 340 17:40 02.11.2019
5134 Clear 28 1013 58 10000 4.1 330 17:22 02.11.2019
5135 Clear 28 1013 58 10000 4.1 330 17:22 02.11.2019
5136 Clear 29 1013 51 10000 4.6 330 16:58 02.11.2019
5137 Clear 29 1013 51 10000 4.6 330 16:38 02.11.2019
5138 Haze 29 1014 42 9000 3.1 350 16:20 02.11.2019
5139 Clear 29 1012 51 10000 6.2 350 15:42 02.11.2019
5140 Clear 29 1012 58 10000 5.7 360 15:20 02.11.2019
5141 Clear 30 1012 51 10000 6.2 10 14:56 02.11.2019
5142 Clear 30 1012 51 10000 6.2 10 14:38 02.11.2019
5143 Haze 31 1012 31 9000 5.7 350 14:20 02.11.2019
5144 Clear 31 1011 48 10000 6.2 10 13:40 02.11.2019
5145 Clear 31 1011 48 10000 6.7 10 13:20 02.11.2019
5146 Clear 32 1011 48 10000 6.7 10 12:57 02.11.2019
5147 Clear 32 1011 48 10000 6.7 10 12:38 02.11.2019
5148 Haze 32 1012 24 9000 5.1 350 12:19 02.11.2019
5149 Clear 32 1011 48 10000 6.2 10 11:42 02.11.2019
5150 Clear 32 1012 45 10000 5.1 20 11:24 02.11.2019
5151 Clear 32 1012 38 10000 6.2 360 10:57 02.11.2019
5152 Clear 32 1012 38 10000 6.2 360 10:39 02.11.2019
5153 Clear 32 1012 40 10000 6.2 360 10:20 02.11.2019
5154 Clear 31 1013 40 10000 5.7 360 09:43 02.11.2019
5155 Clear 30 1013 40 10000 6.2 340 09:22 02.11.2019
5156 Clear 30 1013 40 10000 6.2 340 08:55 02.11.2019
5157 Clear 30 1014 42 10000 6.7 330 08:37 02.11.2019
5158 Clear 30 1014 42 10000 6.7 330 08:18 02.11.2019
5159 Clear 29 1014 45 10000 6.7 330 07:43 02.11.2019
5160 Clear 29 1014 51 10000 4.6 320 07:25 02.11.2019
5161 Clear 28 1014 51 10000 4.6 320 06:52 02.11.2019
5162 Clear 28 1014 51 10000 4.6 320 06:52 02.11.2019
5163 Clear 27 1014 54 10000 5.1 310 06:24 02.11.2019
5164 Clear 26 1014 57 10000 4.1 310 05:44 02.11.2019
5165 Clear 25 1013 54 10000 3.1 320 04:25 02.11.2019
5166 Clear 25 1013 54 10000 3.1 310 03:51 02.11.2019
5167 Clear 25 1013 54 10000 4.1 310 03:30 02.11.2019
5168 Clear 25 1012 50 10000 3.6 310 02:29 02.11.2019
5169 Clear 25 1012 50 10000 4.1 310 01:29 02.11.2019
5170 Clear 26 1012 47 10000 4.1 310 00:58 02.11.2019
5171 Clear 26 1012 47 10000 4.1 310 00:30 02.11.2019
5172 Clear 26 1012 47 10000 3.6 310 23:57 01.11.2019
5173 Clear 26 1012 47 10000 3.6 310 23:39 01.11.2019
5174 Clear 26 1012 47 10000 3.6 320 23:19 01.11.2019
5175 Clear 26 1012 51 10000 3.6 310 22:42 01.11.2019
5176 Clear 26 1012 54 10000 4.1 310 22:21 01.11.2019
5177 Clear 26 1012 54 10000 4.1 310 21:55 01.11.2019
5178 Clear 26 1012 51 10000 4.1 320 21:36 01.11.2019
5179 Clear 26 1012 51 10000 4.1 320 21:18 01.11.2019
5180 Clear 27 1013 48 10000 3.1 310 20:42 01.11.2019
5181 Clear 27 1013 48 10000 3.1 310 20:23 01.11.2019
5182 Clear 27 1012 48 10000 3.1 320 19:59 01.11.2019
5183 Clear 27 1012 48 10000 3.1 320 19:41 01.11.2019
5184 Clear 27 1013 48 10000 3.6 310 19:21 01.11.2019
5185 Clear 27 1012 51 10000 4.1 320 18:41 01.11.2019
5186 Clear 27 1012 48 10000 5.7 320 18:21 01.11.2019
5187 Clear 28 1012 51 10000 5.7 330 17:59 01.11.2019
5188 Clear 28 1012 51 10000 5.7 330 17:41 01.11.2019
5189 Haze 28 1013 47 9000 3.6 350 17:23 01.11.2019
5190 Clear 28 1012 45 10000 6.2 330 16:41 01.11.2019
5191 Clear 28 1011 45 10000 4.6 320 16:21 01.11.2019
5192 Clear 29 1011 42 10000 6.2 320 15:59 01.11.2019
5193 Clear 29 1011 42 10000 6.2 320 15:40 01.11.2019
5194 Clear 29 1011 40 10000 5.7 330 15:22 01.11.2019
5195 Clear 29 1011 40 10000 5.7 330 15:22 01.11.2019
5196 Clear 31 1011 38 10000 7.7 340 14:44 01.11.2019
5197 Haze 31 1011 33 9000 6.7 350 14:26 01.11.2019
5198 Clear 32 1010 38 10000 7.2 330 13:59 01.11.2019
5199 Clear 32 1010 38 10000 7.2 330 13:40 01.11.2019
5200 Clear 32 1010 40 10000 7.2 350 13:22 01.11.2019
5201 Clear 32 1010 43 10000 7.2 350 12:56 01.11.2019
5202 Clear 32 1010 43 10000 7.2 350 12:37 01.11.2019
5203 Clear 32 1010 43 10000 7.2 350 12:37 01.11.2019
5204 Haze 32 1011 29 9000 7.2 340 12:19 01.11.2019
5205 Clear 32 1010 43 10000 8.2 10 11:42 01.11.2019
5206 Clear 32 1010 40 10000 8.2 360 11:23 01.11.2019
5207 Haze 33 1012 27 9000 7.7 340 10:44 01.11.2019
5208 Haze 33 1012 27 9000 7.7 340 10:25 01.11.2019
5209 Haze 33 1013 29 9000 7.2 0 09:59 01.11.2019
5210 Haze 33 1013 29 9000 7.2 0 09:41 01.11.2019
5211 Haze 33 1013 29 9000 7.2 0 09:21 01.11.2019
5212 Haze 32 1013 33 9000 7.7 360 08:54 01.11.2019
5213 Haze 32 1013 33 9000 7.7 360 08:54 01.11.2019
5214 Haze 32 1013 33 9000 7.7 360 08:36 01.11.2019
5215 Haze 31 1013 33 9000 7.7 360 08:18 01.11.2019
5216 Clear 31 1013 45 10000 8.2 340 07:44 01.11.2019
5217 Clear 31 1013 45 10000 8.2 340 07:22 01.11.2019
5218 Clear 30 1013 43 10000 6.7 330 06:53 01.11.2019
5219 Clear 30 1012 40 10000 5.7 330 06:22 01.11.2019
5220 Clear 29 1012 42 10000 5.7 330 05:44 01.11.2019
5221 Clear 27 1012 45 10000 5.1 330 04:55 01.11.2019
5222 Clear 27 1011 39 10000 5.1 330 03:32 01.11.2019
5223 Clear 27 1010 48 10000 3.6 330 01:46 01.11.2019
5224 Clear 27 1010 48 10000 3.6 330 00:58 01.11.2019
5225 Haze 27 1011 65 9000 2.1 350 00:20 01.11.2019
5226 Clear 28 1010 51 10000 4.1 330 23:44 31.10.2019
5227 Clear 28 1011 51 10000 4.1 330 23:23 31.10.2019
5228 Clear 28 1011 54 10000 3.6 320 22:58 31.10.2019
5229 Clear 28 1011 54 10000 3.6 320 22:40 31.10.2019
5230 Clear 28 1011 51 10000 3.1 320 22:21 31.10.2019
5231 Clear 29 1011 51 10000 4.1 330 21:45 31.10.2019
5232 Clear 29 1011 51 10000 4.1 320 21:23 31.10.2019
5233 Clear 29 1011 55 10000 4.1 330 20:58 31.10.2019
5234 Clear 29 1011 55 10000 4.1 330 20:40 31.10.2019
5235 Clear 29 1011 55 10000 4.6 330 20:22 31.10.2019
5236 Clear 29 1011 55 10000 4.1 330 19:45 31.10.2019
5237 Clear 29 1011 51 10000 4.6 330 19:26 31.10.2019
5238 Clear 30 1011 51 10000 5.1 330 18:58 31.10.2019
5239 Clear 30 1011 51 10000 5.1 330 18:39 31.10.2019
5240 Clear 30 1011 55 10000 5.7 330 18:21 31.10.2019
5241 Clear 30 1011 55 10000 5.7 330 18:21 31.10.2019
5242 Clear 30 1011 55 10000 5.7 330 18:21 31.10.2019
5243 Clouds 30 1011 52 10000 6.2 330 17:54 31.10.2019
5244 Clouds 30 1011 52 10000 6.2 330 17:36 31.10.2019
5245 Clouds 30 1010 55 10000 6.2 330 17:18 31.10.2019
5246 Clouds 31 1010 55 10000 7.2 340 16:41 31.10.2019
5247 Clouds 31 1009 66 10000 7.2 350 16:20 31.10.2019
5248 Clouds 31 1009 66 10000 6.2 360 15:58 31.10.2019
5249 Clouds 31 1009 66 10000 6.2 360 15:40 31.10.2019
5250 Clouds 31 1009 66 10000 7.2 360 15:20 31.10.2019
5251 Clouds 32 1009 59 10000 7.2 360 14:57 31.10.2019
5252 Clouds 32 1009 59 10000 7.2 360 14:39 31.10.2019
5253 Haze 33 1009 46 9000 5.7 10 14:20 31.10.2019
5254 Clear 33 1008 46 10000 6.7 350 13:57 31.10.2019
5255 Clear 33 1008 46 10000 6.7 350 13:38 31.10.2019
5256 Clear 33 1008 49 10000 6.2 350 13:19 31.10.2019
5257 Clear 34 1008 49 10000 5.7 10 12:54 31.10.2019
5258 Clear 34 1008 44 10000 5.1 10 12:36 31.10.2019
5259 Clear 34 1008 44 10000 5.1 10 12:18 31.10.2019
5260 Clear 35 1008 44 10000 4.6 10 11:43 31.10.2019
5261 Clear 35 1008 41 10000 4.6 10 11:19 31.10.2019
5262 Clear 35 1008 41 10000 4.6 10 11:19 31.10.2019
5263 Clear 35 1008 41 10000 4.6 360 10:57 31.10.2019
5264 Clear 35 1008 41 10000 4.6 360 10:38 31.10.2019
5265 Clear 35 1009 39 10000 4.6 340 10:19 31.10.2019
5266 Clear 34 1009 34 10000 2.1 290 09:43 31.10.2019
5267 Clear 34 1010 36 10000 3.1 270 09:19 31.10.2019
5268 Clear 33 1010 36 10000 3.6 230 08:55 31.10.2019
5269 Clear 33 1010 36 10000 3.6 230 08:36 31.10.2019
5270 Haze 32 1011 52 9000 3.1 300 08:18 31.10.2019
5271 Clear 32 1011 31 10000 3.6 220 07:42 31.10.2019
5272 Clear 32 1011 31 10000 3.6 220 07:42 31.10.2019
5273 Haze 31 1012 48 9000 3.1 260 07:23 31.10.2019
5274 Clear 30 1011 43 10000 3.1 190 06:39 31.10.2019
5275 Clear 30 1011 43 10000 3.1 190 06:20 31.10.2019
5276 Clear 27 1010 69 10000 1.5 260 04:40 31.10.2019
5277 Clear 27 1008 74 10000 2.1 210 02:46 31.10.2019
5278 Clear 28 1008 74 10000 3.1 180 01:53 31.10.2019
5279 Clear 28 1008 74 10000 3.1 180 01:53 31.10.2019
5280 Clear 27 1008 78 10000 3.6 140 00:42 31.10.2019
5281 Clear 28 1008 74 10000 3.1 150 00:23 31.10.2019
5282 Clear 29 1008 70 10000 2.6 170 23:34 30.10.2019
5283 Clear 29 1008 70 10000 3.1 160 22:56 30.10.2019
5284 Clear 29 1008 70 10000 3.1 160 22:38 30.10.2019
5285 Clear 29 1009 70 10000 3.1 150 22:18 30.10.2019
5286 Clear 30 1009 70 10000 3.1 150 21:54 30.10.2019
5287 Clear 30 1009 70 10000 3.1 150 21:36 30.10.2019
5288 Clear 30 1009 70 10000 2.6 140 21:18 30.10.2019
5289 Clear 30 1009 70 10000 4.1 130 20:42 30.10.2019
5290 Clear 30 1009 70 10000 5.7 130 20:22 30.10.2019
5291 Clear 30 1009 70 10000 5.7 130 20:22 30.10.2019
5292 Clear 30 1009 66 10000 4.6 110 19:59 30.10.2019
5293 Clear 30 1009 66 10000 4.6 110 19:39 30.10.2019
5294 Clear 30 1010 66 10000 4.6 110 19:21 30.10.2019
5295 Clear 31 1010 66 10000 4.1 110 18:58 30.10.2019
5296 Clear 31 1010 66 10000 3.6 90 18:37 30.10.2019
5297 Clear 31 1010 66 10000 3.6 90 18:18 30.10.2019
5298 Clear 31 1010 66 10000 4.6 100 17:42 30.10.2019
5299 Clear 31 1009 66 10000 4.1 110 17:20 30.10.2019
5300 Clear 31 1009 66 10000 3.6 110 16:59 30.10.2019
5301 Clear 31 1009 66 10000 3.6 110 16:41 30.10.2019
5302 Haze 32 1010 38 9000 2.6 90 16:22 30.10.2019
5303 Clear 32 1009 59 10000 3.1 90 15:57 30.10.2019
5304 Clear 32 1009 59 10000 3.1 90 15:38 30.10.2019
5305 Clear 32 1008 59 10000 4.1 100 15:19 30.10.2019
5306 Clear 33 1008 59 10000 4.6 100 14:56 30.10.2019
5307 Clear 33 1008 59 10000 4.6 100 14:56 30.10.2019
5308 Haze 34 1009 20 9000 3.6 130 14:38 30.10.2019
5309 Haze 34 1009 20 9000 3.6 130 14:19 30.10.2019
5310 Clear 34 1008 49 10000 5.1 100 13:42 30.10.2019
5311 Clear 34 1008 46 10000 6.2 110 13:21 30.10.2019
5312 Clear 35 1008 46 10000 5.1 110 12:59 30.10.2019
5313 Clear 35 1008 46 10000 5.1 110 12:59 30.10.2019
5314 Clear 35 1008 46 10000 5.1 110 12:41 30.10.2019
5315 Haze 35 1008 22 9000 3.6 210 12:23 30.10.2019
5316 Clear 35 1008 44 10000 6.2 110 11:46 30.10.2019
5317 Clear 35 1008 39 10000 6.2 110 11:28 30.10.2019
5318 Clear 35 1009 36 10000 5.1 100 10:59 30.10.2019
5319 Clear 35 1009 36 10000 5.1 100 10:41 30.10.2019
5320 Clear 36 1009 32 10000 5.7 120 10:22 30.10.2019
5321 Clear 35 1009 41 10000 4.6 130 09:41 30.10.2019
5322 Clear 35 1010 41 10000 3.6 160 09:22 30.10.2019
5323 Clear 34 1011 44 10000 4.1 130 08:56 30.10.2019
5324 Clear 34 1011 41 10000 3.1 130 08:38 30.10.2019
5325 Clear 34 1011 41 10000 3.1 130 08:18 30.10.2019
5326 Clear 33 1012 49 10000 3.1 140 07:43 30.10.2019
5327 Clear 32 1011 55 10000 2.1 190 06:59 30.10.2019
5328 Clear 32 1011 55 10000 2.1 190 06:40 30.10.2019
5329 Clear 29 1011 62 10000 0.5 0 05:56 30.10.2019
5330 Clear 29 1011 62 10000 0.5 0 05:56 30.10.2019
5331 Clear 29 1011 62 10000 0.5 0 05:38 30.10.2019
5332 Clear 27 1009 78 10000 3.6 160 03:54 30.10.2019
5333 Clear 27 1009 74 10000 2.6 150 03:23 30.10.2019
5334 Clear 27 1009 78 10000 2.1 140 02:49 30.10.2019
5335 Clear 28 1009 78 10000 1.5 150 01:49 30.10.2019
5336 Clear 28 1009 78 10000 1 140 00:38 30.10.2019
5337 Clear 28 1009 78 10000 0.5 0 00:19 30.10.2019
5338 Clear 29 1009 74 10000 1.5 140 23:41 29.10.2019
5339 Clear 29 1010 74 10000 1 120 23:22 29.10.2019
5340 Clear 29 1010 74 10000 1 0 22:42 29.10.2019
5341 Clear 29 1010 70 10000 1 110 22:19 29.10.2019
5342 Clear 30 1010 70 10000 1 0 21:55 29.10.2019
5343 Clear 30 1010 70 10000 1 0 21:37 29.10.2019
5344 Clear 30 1011 70 10000 3.06 120 21:19 29.10.2019
5345 Clear 30 1011 70 10000 1 110 20:42 29.10.2019
5346 Clear 30 1011 70 10000 1.5 50 20:23 29.10.2019
5347 Clear 31 1011 66 10000 1.5 70 19:59 29.10.2019
5348 Clear 31 1011 66 10000 1.5 70 19:40 29.10.2019
5349 Clear 31 1011 66 10000 1 90 19:22 29.10.2019
5350 Clear 31 1011 66 10000 2.1 80 18:59 29.10.2019
5351 Clear 31 1011 66 10000 2.1 80 18:40 29.10.2019
5352 Clear 31 1011 62 10000 1.5 60 18:21 29.10.2019
5353 Clear 31 1011 62 10000 2.1 60 17:57 29.10.2019
5354 Clear 31 1011 62 10000 2.1 60 17:39 29.10.2019
5355 Clear 31 1011 58 10000 2.1 60 17:21 29.10.2019
5356 Clear 31 1010 58 10000 2.1 60 16:57 29.10.2019
5357 Clear 31 1010 58 10000 2.1 60 16:38 29.10.2019
5358 Clear 31 1010 55 10000 2.1 60 16:18 29.10.2019
5359 Clear 32 1010 55 10000 2.6 50 15:42 29.10.2019
5360 Clear 32 1010 55 10000 3.6 70 15:21 29.10.2019
5361 Clear 33 1010 52 10000 3.6 80 14:58 29.10.2019
5362 Clear 33 1010 52 10000 3.6 80 14:39 29.10.2019
5363 Clear 33 1010 52 10000 3.6 80 14:39 29.10.2019
5364 Clear 33 1010 52 10000 3.6 80 14:39 29.10.2019
5365 Haze 34 1010 32 9000 3.6 100 14:21 29.10.2019
5366 Clear 34 1009 49 10000 3.6 60 13:57 29.10.2019
5367 Clear 34 1009 49 10000 3.6 60 13:38 29.10.2019
5368 Clear 35 1009 52 10000 4.1 70 13:20 29.10.2019
5369 Clear 35 1009 49 10000 4.1 80 12:43 29.10.2019
5370 Clouds 35 1009 41 10000 4.1 100 12:25 29.10.2019
5371 Clouds 35 1009 37 10000 4.6 80 11:55 29.10.2019
5372 Clouds 35 1009 37 10000 4.6 80 11:37 29.10.2019
5373 Clouds 35 1009 36 10000 4.1 100 11:18 29.10.2019
5374 Clouds 35 1010 39 10000 4.6 90 10:56 29.10.2019
5375 Haze 35 1011 39 9000 1.5 20 10:38 29.10.2019
5376 Haze 34 1011 39 9000 1.5 20 10:19 29.10.2019
5377 Clear 33 1010 56 10000 3.6 110 09:42 29.10.2019
5378 Clear 33 1011 56 10000 4.1 110 09:23 29.10.2019
5379 Clear 33 1011 56 10000 3.1 110 08:57 29.10.2019
5380 Clear 33 1011 56 10000 3.1 110 08:39 29.10.2019
5381 Clear 32 1011 59 10000 3.1 160 08:20 29.10.2019
5382 Clear 32 1011 63 10000 3.1 160 07:48 29.10.2019
5383 Clear 31 1011 66 10000 3.6 160 07:21 29.10.2019
5384 Clear 30 1011 70 10000 3.1 190 06:54 29.10.2019
5385 Clear 31 1011 62 10000 3.6 160 06:31 29.10.2019
5386 Clear 29 1011 59 10000 3.6 130 05:56 29.10.2019
5387 Clear 30 1011 59 10000 3.6 130 05:38 29.10.2019
5388 Clear 28 1010 66 10000 2.6 140 04:52 29.10.2019
5389 Clear 29 1009 62 10000 5.1 120 03:23 29.10.2019
5390 Clear 28 1008 66 10000 2.6 120 01:57 29.10.2019
5391 Clear 28 1008 66 10000 2.6 120 01:36 29.10.2019
5392 Clear 29 1008 70 10000 5.26 140 00:54 29.10.2019
5393 Clear 29 1008 70 10000 1.5 150 00:26 29.10.2019
5394 Clear 29 1008 66 10000 1.5 140 23:38 28.10.2019
5395 Clear 30 1008 62 10000 2.6 100 23:20 28.10.2019
5396 Clear 30 1009 62 10000 1 0 22:57 28.10.2019
5397 Clear 30 1009 62 10000 1 0 22:36 28.10.2019
5398 Clear 30 1009 62 10000 1 0 22:18 28.10.2019
5399 Clear 30 1009 66 10000 1.5 100 21:42 28.10.2019
5400 Clear 30 1009 66 10000 3.1 100 21:22 28.10.2019
5401 Clear 30 1009 66 10000 3.1 80 20:59 28.10.2019
5402 Clear 30 1009 66 10000 3.1 80 20:40 28.10.2019
5403 Clear 30 1009 66 10000 3.6 90 20:21 28.10.2019
5404 Clear 31 1010 66 10000 4.6 80 19:55 28.10.2019
5405 Clear 31 1010 66 10000 4.6 80 19:36 28.10.2019
5406 Clear 31 1010 66 10000 5.1 80 19:36 28.10.2019
5407 Clear 31 1010 66 10000 5.1 80 19:18 28.10.2019
5408 Clear 31 1010 66 10000 4.6 90 18:57 28.10.2019
5409 Clear 31 1010 66 10000 4.6 90 18:38 28.10.2019
5410 Haze 31 1011 58 9000 2.6 90 18:20 28.10.2019
5411 Clear 31 1010 59 10000 4.1 80 17:56 28.10.2019
5412 Clear 31 1009 59 10000 4.1 70 17:37 28.10.2019
5413 Clear 31 1009 59 10000 4.1 70 17:18 28.10.2019
5414 Clear 32 1009 55 10000 3.6 60 16:55 28.10.2019
5415 Clear 32 1009 55 10000 3.6 60 16:36 28.10.2019
5416 Clear 32 1009 55 10000 3.6 60 16:18 28.10.2019
5417 Clear 32 1009 55 10000 4.1 80 15:55 28.10.2019
5418 Clear 32 1009 55 10000 4.1 80 15:37 28.10.2019
5419 Clear 32 1008 52 10000 5.7 90 15:18 28.10.2019
5420 Clear 33 1008 49 10000 4.6 80 14:54 28.10.2019
5421 Clear 33 1008 49 10000 4.6 80 14:36 28.10.2019
5422 Haze 33 1008 32 9000 5.1 90 14:18 28.10.2019
5423 Clouds 34 1008 52 10000 5.1 70 13:41 28.10.2019
5424 Clouds 34 1008 49 10000 5.1 70 13:18 28.10.2019
5425 Clouds 34 1008 49 10000 5.1 70 13:18 28.10.2019
5426 Clouds 34 1008 49 10000 4.6 80 12:59 28.10.2019
5427 Clouds 34 1008 49 10000 4.6 80 12:40 28.10.2019
5428 Haze 34 1008 23 9000 4.6 90 12:19 28.10.2019
5429 Clouds 34 1008 55 10000 5.1 100 11:38 28.10.2019
5430 Clouds 34 1008 55 10000 5.1 100 11:38 28.10.2019
5431 Clouds 34 1008 55 10000 5.1 110 11:19 28.10.2019
5432 Clouds 34 1009 59 10000 5.1 120 10:42 28.10.2019
5433 Clouds 34 1009 63 10000 4.6 110 10:24 28.10.2019
5434 Clouds 33 1009 63 10000 5.7 110 09:58 28.10.2019
5435 Clouds 33 1009 63 10000 5.7 110 09:39 28.10.2019
5436 Clouds 33 1009 63 10000 5.7 110 09:39 28.10.2019
5437 Clouds 33 1010 66 10000 6.2 110 09:20 28.10.2019
5438 Clouds 33 1010 66 10000 5.7 110 08:57 28.10.2019
5439 Clouds 33 1010 66 10000 5.7 110 08:39 28.10.2019
5440 Clouds 33 1010 66 10000 4.6 120 08:19 28.10.2019
5441 Clouds 33 1010 63 10000 5.7 110 07:57 28.10.2019
5442 Clouds 33 1010 63 10000 5.7 110 07:38 28.10.2019
5443 Clouds 33 1011 63 10000 4.1 90 07:20 28.10.2019
5444 Clouds 32 1011 70 10000 3.6 70 06:40 28.10.2019
5445 Clear 30 1010 70 10000 4.1 120 05:57 28.10.2019
5446 Mist 29 1009 74 6000 1.5 130 04:25 28.10.2019
5447 Clear 29 1008 74 10000 3.6 140 03:40 28.10.2019
5448 Clear 29 1008 70 10000 3.6 140 02:45 28.10.2019
5449 Clear 29 1008 70 10000 2.1 130 01:27 28.10.2019
5450 Clear 30 1008 70 10000 2.6 140 00:46 28.10.2019
5451 Clear 32 1008 62 10000 3.6 110 00:22 28.10.2019
5452 Clear 32 1008 62 10000 3.6 110 23:43 27.10.2019
5453 Clear 31 1008 62 10000 3.6 100 23:20 27.10.2019
5454 Clear 30 1008 58 10000 3.1 100 22:44 27.10.2019
5455 Clear 30 1008 58 10000 3.1 100 22:23 27.10.2019
5456 Clear 31 1008 55 10000 5.1 100 21:59 27.10.2019
5457 Clear 31 1008 55 10000 5.1 100 21:39 27.10.2019
5458 Clear 31 1008 58 10000 3.6 100 21:21 27.10.2019
5459 Clear 31 1009 62 10000 4.1 90 20:58 27.10.2019
5460 Clear 31 1009 62 10000 4.1 90 20:58 27.10.2019
5461 Clear 31 1009 62 10000 4.1 90 20:40 27.10.2019
5462 Clear 31 1009 62 10000 4.1 90 20:22 27.10.2019
5463 Clear 31 1009 59 10000 4.6 90 19:56 27.10.2019
5464 Clear 31 1009 59 10000 4.6 90 19:37 27.10.2019
5465 Haze 31 1009 58 9000 3.6 90 19:19 27.10.2019
5466 Clear 31 1009 55 10000 4.6 80 18:55 27.10.2019
5467 Clear 31 1009 55 10000 4.6 80 18:37 27.10.2019
5468 Clear 31 1009 55 10000 4.6 80 18:19 27.10.2019
5469 Clear 32 1009 55 10000 4.6 80 17:41 27.10.2019
5470 Clear 32 1008 59 10000 4.1 90 17:21 27.10.2019
5471 Clear 32 1008 59 10000 4.1 90 17:21 27.10.2019
5472 Clear 32 1008 55 10000 4.6 100 16:59 27.10.2019
5473 Clear 32 1008 55 10000 4.6 100 16:40 27.10.2019
5474 Clear 32 1008 55 10000 4.6 100 16:22 27.10.2019
5475 Clear 32 1008 55 10000 4.6 100 15:58 27.10.2019
5476 Clear 32 1008 55 10000 4.6 100 15:39 27.10.2019
5477 Clear 32 1008 55 10000 5.1 90 15:20 27.10.2019
5478 Clear 34 1008 52 10000 5.1 100 14:44 27.10.2019
5479 Haze 35 1008 23 9000 5.7 110 14:24 27.10.2019
5480 Clear 35 1008 41 10000 5.1 110 13:59 27.10.2019
5481 Clear 35 1008 41 10000 5.1 110 13:40 27.10.2019
5482 Clouds 35 1008 46 10000 5.1 110 13:22 27.10.2019
5483 Clouds 35 1008 41 10000 5.7 110 12:59 27.10.2019
5484 Clouds 35 1008 41 10000 5.7 110 12:41 27.10.2019
5485 Clouds 35 1008 44 10000 6.2 110 12:23 27.10.2019
5486 Clouds 35 1008 39 10000 5.7 120 11:43 27.10.2019
5487 Clouds 35 1008 39 10000 5.7 130 11:24 27.10.2019
5488 Clouds 35 1008 44 10000 6.2 130 10:57 27.10.2019
5489 Clouds 35 1008 44 10000 6.2 130 10:38 27.10.2019
5490 Clear 35 1009 41 10000 5.7 130 10:38 27.10.2019
5491 Clear 35 1009 41 10000 5.7 130 10:19 27.10.2019
5492 Clear 35 1009 41 10000 6.2 130 09:43 27.10.2019
5493 Clear 35 1009 39 10000 6.7 120 09:19 27.10.2019
5494 Clear 35 1009 39 10000 6.7 120 09:19 27.10.2019
5495 Clear 34 1009 44 10000 6.7 120 08:57 27.10.2019
5496 Clear 34 1009 44 10000 6.7 120 08:37 27.10.2019
5497 Clear 33 1010 56 10000 5.7 130 08:19 27.10.2019
5498 Clear 33 1010 56 10000 5.7 130 08:19 27.10.2019
5499 Clear 33 1010 56 10000 5.7 130 07:46 27.10.2019
5500 Clear 33 1010 56 10000 5.7 130 07:46 27.10.2019
5501 Clear 33 1010 63 10000 4.6 150 07:26 27.10.2019
5502 Clear 31 1010 59 10000 5.7 150 06:55 27.10.2019
5503 Clear 31 1010 66 10000 5.1 150 06:29 27.10.2019
5504 Clear 29 1010 74 10000 3.6 150 05:54 27.10.2019
5505 Clear 29 1010 74 10000 3.6 150 05:34 27.10.2019
5506 Clear 28 1009 74 10000 2.1 160 03:35 27.10.2019
5507 Clear 28 1008 70 10000 2.6 150 02:28 27.10.2019
5508 Clear 29 1008 70 10000 1.5 130 01:25 27.10.2019
5509 Clear 30 1008 70 10000 2.1 130 00:53 27.10.2019
5510 Haze 30 1009 74 9000 1.5 130 00:34 27.10.2019
5511 Clear 30 1009 66 10000 2.6 110 23:58 26.10.2019
5512 Clear 30 1009 66 10000 2.6 110 23:40 26.10.2019
5513 Clear 31 1009 66 10000 2.6 100 23:21 26.10.2019
5514 Clear 31 1009 66 10000 3.1 90 22:57 26.10.2019
5515 Clear 31 1009 66 10000 3.1 80 22:38 26.10.2019
5516 Clear 31 1009 66 10000 3.1 80 22:19 26.10.2019
5517 Clear 31 1010 66 10000 2.1 80 21:55 26.10.2019
5518 Clear 31 1010 66 10000 2.1 80 21:37 26.10.2019
5519 Clear 31 1010 66 10000 3.1 80 21:19 26.10.2019
5520 Clear 31 1010 62 10000 3.1 80 20:42 26.10.2019
5521 Clear 31 1010 66 10000 3.6 80 20:19 26.10.2019
5522 Clear 31 1010 66 10000 3.6 80 19:43 26.10.2019
5523 Clear 31 1010 66 10000 3.6 60 19:21 26.10.2019
5524 Clear 31 1010 66 10000 3.6 60 19:21 26.10.2019
5525 Clear 31 1010 66 10000 3.6 80 18:59 26.10.2019
5526 Clear 31 1010 66 10000 3.6 80 18:40 26.10.2019
5527 Haze 32 1010 58 9000 4.1 80 18:20 26.10.2019
5528 Clear 32 1010 62 10000 3.6 70 17:59 26.10.2019
5529 Clear 32 1010 62 10000 3.6 70 17:39 26.10.2019
5530 Clear 32 1009 62 10000 3.1 70 17:20 26.10.2019
5531 Clear 32 1009 62 10000 3.1 70 17:20 26.10.2019
5532 Clear 32 1009 62 10000 3.6 70 16:57 26.10.2019
5533 Clear 32 1009 62 10000 4.1 70 16:38 26.10.2019
5534 Clear 32 1009 62 10000 4.1 70 16:20 26.10.2019
5535 Clear 33 1009 66 10000 4.6 60 15:40 26.10.2019
5536 Clear 33 1009 66 10000 4.6 60 15:40 26.10.2019
5537 Haze 33 1009 49 9000 6.7 50 15:18 26.10.2019
5538 Clouds 34 1009 66 10000 5.1 60 14:40 26.10.2019
5539 Clouds 34 1009 63 10000 4.6 70 14:20 26.10.2019
5540 Clear 32 1009 52 0 5.41 58 13:59 26.10.2019
5541 Clouds 35 1009 66 10000 5.7 30 13:39 26.10.2019
5542 Haze 36 1009 13 9000 3.1 330 13:20 26.10.2019
5543 Clear 32 1009 52 0 5.41 58 12:46 26.10.2019
5544 Clouds 37 1010 25 10000 3.1 200 12:22 26.10.2019
5545 Clouds 37 1010 25 10000 3.1 200 11:48 26.10.2019
5546 Clouds 37 1010 25 10000 3.1 200 11:27 26.10.2019
5547 Clouds 37 1010 25 10000 3.1 200 11:27 26.10.2019
5548 Clouds 37 1010 37 10000 3.6 180 10:47 26.10.2019
5549 Clear 36 1011 39 10000 3.6 210 10:27 26.10.2019
5550 Clear 34 1011 53 10000 3.1 180 09:59 26.10.2019
5551 Clear 34 1011 53 10000 3.1 180 09:41 26.10.2019
5552 Clear 34 1012 50 10000 4.1 170 09:22 26.10.2019
5553 Clear 33 1012 56 10000 4.1 170 08:43 26.10.2019
5554 Clear 33 1012 44 10000 4.1 180 08:25 26.10.2019
5555 Clear 31 1012 55 10000 4.1 180 07:44 26.10.2019
5556 Clear 31 1012 55 10000 4.1 180 07:44 26.10.2019
5557 Clear 31 1011 66 10000 4.6 160 07:25 26.10.2019
5558 Clear 30 1011 66 10000 2.6 160 06:42 26.10.2019
5559 Mist 29 1012 70 4000 3.98 181 06:23 26.10.2019
5560 Clear 28 1011 70 10000 2.1 190 05:19 26.10.2019
5561 Mist 29 1011 74 6000 1.5 160 04:23 26.10.2019
5562 Clouds 29 1010 74 10000 2.1 160 02:45 26.10.2019
5563 Clouds 29 1010 74 10000 2.1 130 01:51 26.10.2019
5564 Clouds 30 1010 66 10000 1 0 01:20 26.10.2019
5565 Clouds 30 1010 70 10000 2.1 100 00:23 26.10.2019
5566 Clouds 30 1010 70 10000 2.1 100 23:41 25.10.2019
5567 Clouds 30 1010 66 10000 2.1 110 23:20 25.10.2019
5568 Clouds 30 1010 70 10000 1.5 90 22:40 25.10.2019
5569 Clouds 31 1011 66 10000 1.5 90 22:22 25.10.2019
5570 Clouds 31 1011 66 10000 2.1 80 21:57 25.10.2019
5571 Clouds 31 1011 66 10000 2.1 80 21:39 25.10.2019
5572 Clear 31 1011 66 10000 2.1 70 21:19 25.10.2019
5573 Clear 31 1011 66 10000 3.1 80 20:55 25.10.2019
5574 Clear 31 1011 66 10000 2.6 60 20:37 25.10.2019
5575 Clear 31 1011 66 10000 2.6 60 20:18 25.10.2019
5576 Clear 31 1011 66 10000 2.6 80 19:41 25.10.2019
5577 Clear 31 1011 66 10000 2.1 50 19:23 25.10.2019
5578 Clear 31 1011 66 10000 2.1 90 18:44 25.10.2019
5579 Clear 31 1010 66 10000 2.6 90 18:22 25.10.2019
5580 Clear 32 1010 62 10000 3.1 100 17:41 25.10.2019
5581 Haze 32 1011 55 9000 3.6 60 17:21 25.10.2019
5582 Clouds 33 1010 62 10000 4.1 90 16:54 25.10.2019
5583 Clouds 33 1010 62 10000 4.6 90 16:36 25.10.2019
5584 Clouds 33 1010 62 10000 4.6 90 16:18 25.10.2019
5585 Clouds 33 1009 66 10000 4.6 90 15:40 25.10.2019
5586 Clouds 34 1009 59 10000 5.1 100 15:21 25.10.2019
5587 Clouds 34 1009 59 10000 5.1 100 14:57 25.10.2019
5588 Clouds 34 1009 59 10000 5.1 100 14:39 25.10.2019
5589 Clouds 35 1009 56 10000 5.1 120 14:20 25.10.2019
5590 Clouds 35 1009 56 10000 6.2 110 13:41 25.10.2019
5591 Haze 35 1010 22 9000 3.1 0 13:23 25.10.2019
5592 Clouds 35 1009 56 9000 6.2 110 12:55 25.10.2019
5593 Clouds 35 1010 59 10000 6.2 120 12:37 25.10.2019
5594 Clouds 35 1010 59 10000 6.2 120 12:19 25.10.2019
5595 Clouds 34 1010 59 10000 5.7 100 11:40 25.10.2019
5596 Clouds 35 1010 56 10000 4.6 120 11:22 25.10.2019
5597 Clouds 34 1011 56 10000 4.6 120 10:57 25.10.2019
5598 Clouds 34 1011 56 10000 4.6 120 10:38 25.10.2019
5599 Clear 34 1011 53 10000 3.6 140 10:19 25.10.2019
5600 Clear 33 1012 56 10000 3.1 150 09:42 25.10.2019
5601 Clouds 33 1012 52 10000 3.1 160 09:21 25.10.2019
5602 Clouds 32 1012 59 10000 4.6 130 08:59 25.10.2019
5603 Clouds 32 1012 59 10000 4.6 130 08:41 25.10.2019
5604 Clouds 32 1012 59 10000 4.1 130 08:22 25.10.2019
5605 Clouds 31 1012 63 10000 3.1 150 07:47 25.10.2019
5606 Clouds 31 1012 66 9000 2.1 150 07:28 25.10.2019
5607 Clouds 29 1012 74 7000 1.5 140 06:38 25.10.2019
5608 Clouds 27 1011 79 7000 1 0 05:49 25.10.2019
5609 Haze 27 1011 83 5000 1.5 150 05:30 25.10.2019
5610 Clouds 27 1011 83 6000 1.5 150 04:37 25.10.2019
5611 Clear 27 1010 83 8000 1.79 106 02:42 25.10.2019
5612 Clear 28 1010 79 9000 1 140 01:53 25.10.2019
5613 Clear 29 1010 78 9000 1.78 110 00:36 25.10.2019
5614 Clear 29 1010 74 10000 1 130 23:56 24.10.2019
5615 Clear 29 1011 74 10000 1 120 23:37 24.10.2019
5616 Clear 29 1011 74 10000 1 120 23:19 24.10.2019
5617 Clear 29 1011 74 10000 1 80 22:39 24.10.2019
5618 Clear 29 1011 74 10000 1 50 22:19 24.10.2019
5619 Clear 30 1011 70 10000 1 50 21:58 24.10.2019
5620 Clear 30 1011 70 10000 1 50 21:40 24.10.2019
5621 Clear 30 1012 70 10000 1 50 21:20 24.10.2019
5622 Clear 30 1012 70 10000 1.5 70 20:59 24.10.2019
5623 Clear 30 1012 70 10000 1.5 70 20:40 24.10.2019
5624 Clear 30 1012 70 10000 1.5 70 20:40 24.10.2019
5625 Haze 30 1013 66 9000 2.6 80 20:22 24.10.2019
5626 Clear 30 1012 70 10000 1.5 70 19:58 24.10.2019
5627 Clear 30 1012 70 10000 1.5 70 19:40 24.10.2019
5628 Haze 31 1012 66 9000 2.1 80 19:22 24.10.2019
5629 Clear 31 1011 66 10000 2.6 70 18:57 24.10.2019
5630 Clear 31 1011 66 10000 2.6 70 18:38 24.10.2019
5631 Clear 31 1011 66 10000 1.5 50 18:19 24.10.2019
5632 Clear 31 1011 66 10000 2.6 50 17:42 24.10.2019
5633 Clear 31 1011 66 10000 2.6 40 17:21 24.10.2019
5634 Clouds 31 1010 62 10000 3.1 60 16:58 24.10.2019
5635 Clouds 31 1010 62 10000 3.1 60 16:40 24.10.2019
5636 Clouds 32 1010 59 10000 3.6 70 16:22 24.10.2019
5637 Clouds 32 1010 59 10000 4.1 90 15:58 24.10.2019
5638 Clouds 32 1010 59 10000 4.1 90 15:58 24.10.2019
5639 Clouds 32 1010 59 10000 4.1 90 15:40 24.10.2019
5640 Clouds 35 1010 59 10000 4.1 120 15:22 24.10.2019
5641 Clouds 35 1010 59 10000 4.1 120 15:22 24.10.2019
5642 Clouds 35 1010 59 10000 4.1 120 14:58 24.10.2019
5643 Clouds 35 1010 59 10000 4.1 120 14:40 24.10.2019
5644 Clouds 34 1010 55 10000 4.1 110 14:20 24.10.2019
5645 Clouds 35 1010 49 10000 4.1 120 13:42 24.10.2019
5646 Haze 35 1011 32 9000 2.1 120 13:20 24.10.2019
5647 Clouds 35 1010 49 10000 3.6 110 12:58 24.10.2019
5648 Clouds 35 1010 49 10000 3.6 110 12:40 24.10.2019
5649 Clouds 35 1010 50 10000 4.1 110 12:19 24.10.2019
5650 Clouds 35 1010 52 10000 4.6 110 11:57 24.10.2019
5651 Clouds 35 1011 56 10000 4.6 110 11:38 24.10.2019
5652 Clouds 35 1011 56 10000 4.6 110 11:19 24.10.2019
5653 Clouds 34 1011 56 10000 3.6 100 10:57 24.10.2019
5654 Clouds 34 1011 56 10000 3.6 100 10:38 24.10.2019
5655 Clouds 34 1011 56 10000 3.6 100 10:38 24.10.2019
5656 Clouds 34 1012 56 10000 3.6 110 10:20 24.10.2019
5657 Clear 34 1012 56 10000 3.1 120 09:38 24.10.2019
5658 Clear 34 1012 56 10000 3.1 120 09:38 24.10.2019
5659 Clear 34 1012 56 10000 3.1 120 09:18 24.10.2019
5660 Clear 33 1012 56 10000 1 0 08:54 24.10.2019
5661 Clear 32 1013 63 10000 1.5 170 08:36 24.10.2019
5662 Clear 32 1013 63 10000 1.5 170 08:36 24.10.2019
5663 Clear 32 1013 63 10000 1.5 170 08:18 24.10.2019
5664 Clear 31 1012 66 10000 1.5 180 07:42 24.10.2019
5665 Clear 31 1012 66 10000 1.5 160 07:21 24.10.2019
5666 Clear 29 1012 66 9000 1 0 06:40 24.10.2019
5667 Clear 29 1012 70 8000 1 0 06:20 24.10.2019
5668 Clear 27 1011 74 7000 1 0 05:48 24.10.2019
5669 Clear 27 1011 74 7000 1 0 05:27 24.10.2019
5670 Clear 27 1010 79 10000 1.5 240 03:37 24.10.2019
5671 Clear 28 1010 74 10000 1 0 02:55 24.10.2019
5672 Clear 28 1010 79 10000 0.5 130 02:25 24.10.2019
5673 Clear 28 1010 79 10000 0.5 130 01:49 24.10.2019
5674 Mist 28 1011 78 8000 1.63 121 01:27 24.10.2019
5675 Clear 29 1010 79 10000 0.5 80 00:41 24.10.2019
5676 Clear 29 1010 79 10000 1 0 00:18 24.10.2019
5677 Clear 28 1010 74 10000 0.5 0 23:43 23.10.2019
5678 Mist 29 1012 74 8000 0.5 150 23:23 23.10.2019
5679 Clear 30 1010 74 10000 1 70 22:57 23.10.2019
5680 Clear 30 1010 74 10000 1 70 22:57 23.10.2019
5681 Clear 30 1011 70 10000 1 80 22:38 23.10.2019
5682 Clear 30 1010 74 10000 1 70 22:38 23.10.2019
5683 Clear 30 1011 70 10000 1 80 22:19 23.10.2019
5684 Clear 30 1011 70 10000 0.5 70 21:57 23.10.2019
5685 Clear 30 1011 70 10000 0.5 70 21:38 23.10.2019
5686 Clear 30 1011 70 10000 1 30 21:19 23.10.2019
5687 Clear 31 1011 70 10000 1.5 30 20:56 23.10.2019
5688 Clear 31 1011 66 10000 2.1 40 20:38 23.10.2019
5689 Clear 31 1011 66 10000 2.1 40 20:20 23.10.2019
5690 Clear 31 1011 70 10000 2.6 20 19:55 23.10.2019
5691 Clear 31 1011 70 10000 2.6 20 19:36 23.10.2019
5692 Clear 31 1011 70 10000 2.6 30 19:18 23.10.2019
5693 Clear 31 1011 66 10000 2.6 40 18:54 23.10.2019
5694 Clear 31 1010 70 10000 2.6 30 18:36 23.10.2019
5695 Clear 31 1010 70 10000 2.6 30 18:18 23.10.2019
5696 Clear 32 1010 66 10000 3.6 40 17:41 23.10.2019
5697 Clear 32 1010 62 10000 3.1 40 17:20 23.10.2019
5698 Clear 32 1010 62 10000 3.6 40 16:55 23.10.2019
5699 Clear 32 1009 62 10000 4.6 60 16:36 23.10.2019
5700 Clear 32 1009 62 10000 4.6 60 16:36 23.10.2019
5701 Clear 32 1009 62 10000 4.6 60 16:18 23.10.2019
5702 Clear 33 1009 63 10000 4.1 60 15:41 23.10.2019
5703 Haze 34 1009 32 9000 5.1 100 15:21 23.10.2019
5704 Clouds 33 1009 52 10000 5.1 70 14:58 23.10.2019
5705 Clouds 33 1009 52 10000 5.1 70 14:38 23.10.2019
5706 Clouds 35 1009 49 10000 4.6 60 14:19 23.10.2019
5707 Clouds 35 1009 49 10000 4.6 60 14:19 23.10.2019
5708 Clouds 35 1009 39 10000 4.6 50 13:57 23.10.2019
5709 Clouds 35 1009 39 10000 4.6 50 13:38 23.10.2019
5710 Haze 36 1009 22 9000 4.1 360 13:20 23.10.2019
5711 Clouds 36 1009 34 10000 4.1 60 12:41 23.10.2019
5712 Clouds 37 1009 30 10000 3.6 50 12:20 23.10.2019
5713 Clouds 36 1010 34 10000 3.1 30 11:58 23.10.2019
5714 Clouds 36 1010 34 10000 3.1 30 11:58 23.10.2019
5715 Clouds 36 1010 34 10000 3.1 30 11:40 23.10.2019
5716 Clouds 36 1010 37 10000 2.6 0 11:22 23.10.2019
5717 Clear 36 1011 32 10000 2.1 140 10:59 23.10.2019
5718 Clear 36 1011 32 10000 2.1 140 10:41 23.10.2019
5719 Clear 36 1011 41 10000 2.1 130 10:22 23.10.2019
5720 Clear 34 1012 44 9000 2.1 100 09:41 23.10.2019
5721 Clear 34 1012 44 9000 2.1 100 09:41 23.10.2019
5722 Clear 34 1012 56 9000 1.5 0 09:23 23.10.2019
5723 Clear 33 1012 52 9000 1.5 0 08:57 23.10.2019
5724 Clear 33 1012 52 9000 1.5 0 08:39 23.10.2019
5725 Clear 31 1012 59 9000 2.1 180 08:18 23.10.2019
5726 Clear 31 1012 62 7000 2.1 210 07:45 23.10.2019
5727 Clear 31 1012 66 7000 2.6 210 07:21 23.10.2019
5728 Clear 29 1012 66 7000 2.1 210 06:45 23.10.2019
5729 Mist 28 1012 78 3200 2.6 260 06:20 23.10.2019
5730 Clear 29 1011 74 7000 1.5 220 05:23 23.10.2019
5731 Clear 27 1012 79 0 3.88 231 04:34 23.10.2019
5732 Clear 28 1010 74 10000 1.5 170 02:45 23.10.2019
5733 Mist 28 1011 78 8000 1.5 220 02:25 23.10.2019
5734 Mist 28 1011 74 8000 1.5 180 01:26 23.10.2019
5735 Mist 27 1011 74 8000 0.73 154 00:38 23.10.2019
5736 Mist 27 1011 74 8000 0.73 154 00:38 23.10.2019
5737 Mist 29 1011 74 8000 3.68 85 00:19 23.10.2019
5738 Clear 30 1010 70 10000 3.68 85 23:39 22.10.2019
5739 Clear 30 1011 66 10000 1.5 40 23:18 22.10.2019
5740 Clear 30 1011 66 10000 1.5 40 23:18 22.10.2019
5741 Clear 30 1011 66 10000 1.5 40 22:55 22.10.2019
5742 Clear 30 1011 66 10000 1.5 40 22:37 22.10.2019
5743 Clear 30 1011 66 10000 1.5 40 22:19 22.10.2019
5744 Clear 31 1011 62 10000 2.1 40 21:56 22.10.2019
5745 Clear 31 1011 62 10000 2.1 40 21:56 22.10.2019
5746 Clear 31 1011 62 10000 2.1 40 21:36 22.10.2019
5747 Clear 31 1011 62 10000 2.1 40 21:36 22.10.2019
5748 Clear 31 1011 62 10000 2.1 40 21:18 22.10.2019
5749 Clear 31 1011 62 10000 2.1 20 20:55 22.10.2019
5750 Clear 31 1011 62 10000 2.1 20 20:37 22.10.2019
5751 Clear 31 1011 62 10000 2.1 20 20:18 22.10.2019
5752 Clear 31 1011 66 10000 2.6 20 19:42 22.10.2019
5753 Clear 31 1011 66 10000 2.6 20 19:24 22.10.2019
5754 Clear 31 1011 62 10000 2.6 40 18:57 22.10.2019
5755 Clear 31 1011 62 10000 2.6 40 18:39 22.10.2019
5756 Clear 31 1011 62 10000 2.6 40 18:21 22.10.2019
5757 Clear 31 1010 74 8000 2.6 70 17:56 22.10.2019
5758 Clear 31 1010 74 8000 2.6 70 17:56 22.10.2019
5759 Clear 31 1010 74 8000 2.6 70 17:38 22.10.2019
5760 Clear 32 1010 74 8000 2.6 70 17:19 22.10.2019
5761 Haze 32 1010 70 5000 3.1 70 16:56 22.10.2019
5762 Haze 32 1010 70 5000 3.1 70 16:37 22.10.2019
5763 Haze 32 1010 70 5000 3.1 70 16:18 22.10.2019
5764 Haze 33 1009 66 5000 4.1 100 15:43 22.10.2019
5765 Haze 33 1009 41 9000 3.1 80 15:20 22.10.2019
5766 Haze 34 1009 63 5000 5.7 110 14:50 22.10.2019
5767 Haze 34 1009 63 5000 5.7 110 14:23 22.10.2019
5768 Clear 36 1009 56 9000 5.1 80 13:59 22.10.2019
5769 Clear 36 1009 56 9000 5.1 80 13:41 22.10.2019
5770 Haze 37 1009 17 9000 7.03 77 13:19 22.10.2019
5771 Clear 37 1009 27 10000 3.6 350 12:56 22.10.2019
5772 Clear 37 1009 27 10000 3.6 350 12:38 22.10.2019
5773 Clear 37 1009 27 10000 3.6 350 12:19 22.10.2019
5774 Clear 36 1010 30 10000 2.1 280 11:41 22.10.2019
5775 Clear 36 1010 30 10000 2.1 280 11:22 22.10.2019
5776 Clear 36 1011 37 10000 2.1 230 10:59 22.10.2019
5777 Clear 36 1011 37 10000 2.1 230 10:38 22.10.2019
5778 Clear 35 1011 44 10000 2.1 240 10:19 22.10.2019
5779 Clear 35 1011 44 10000 2.1 240 10:19 22.10.2019
5780 Clear 35 1011 44 10000 2.1 240 10:19 22.10.2019
5781 Clear 34 1012 52 9000 2.6 0 09:58 22.10.2019
5782 Clear 34 1012 52 9000 2.6 0 09:40 22.10.2019
5783 Clear 32 1012 62 6000 3.6 200 09:21 22.10.2019
5784 Clear 32 1012 62 6000 3.6 200 08:55 22.10.2019
5785 Clear 32 1012 62 6000 3.6 200 08:36 22.10.2019
5786 Mist 31 1013 62 8000 3.1 220 08:18 22.10.2019
5787 Mist 31 1013 62 8000 3.1 220 08:18 22.10.2019
5788 Haze 30 1012 66 5000 2.6 190 07:41 22.10.2019
5789 Mist 29 1013 70 5000 2.6 240 07:22 22.10.2019
5790 Clear 29 1011 70 6000 1.5 210 06:40 22.10.2019
5791 Mist 27 1012 74 4000 1.5 250 06:20 22.10.2019
5792 Mist 26 1012 83 4000 2.81 218 05:27 22.10.2019
5793 Mist 26 1011 78 5000 2.81 218 04:19 22.10.2019
5794 Mist 27 1011 78 6000 2.12 48 02:30 22.10.2019
5795 Clear 27 1010 74 10000 0.5 0 01:37 22.10.2019
5796 Mist 27 1011 74 8000 2.12 48 01:18 22.10.2019
5797 Clear 28 1010 74 10000 2.1 350 00:42 22.10.2019
5798 Mist 28 1011 74 8000 3.14 20 00:24 22.10.2019
5799 Clear 29 1010 74 10000 2.1 350 23:58 21.10.2019
5800 Clear 29 1010 74 10000 2.1 350 23:38 21.10.2019
5801 Haze 29 1011 65 9000 1.5 360 23:19 21.10.2019
5802 Haze 29 1011 65 9000 1.5 360 23:19 21.10.2019
5803 Clear 29 1011 70 10000 2.1 10 22:57 21.10.2019
5804 Clear 29 1011 70 10000 2.1 10 22:38 21.10.2019
5805 Haze 29 1012 62 9000 3.14 20 22:20 21.10.2019
5806 Clear 30 1011 70 10000 2.1 360 21:56 21.10.2019
5807 Clear 30 1011 70 10000 2.1 360 21:37 21.10.2019
5808 Clear 30 1011 70 10000 2.1 360 21:37 21.10.2019
5809 Haze 30 1012 58 9000 2.31 44 21:19 21.10.2019
5810 Clear 30 1011 70 10000 2.1 360 20:56 21.10.2019
5811 Clear 30 1011 70 10000 2.1 360 20:37 21.10.2019
5812 Haze 31 1012 58 9000 2.31 44 20:19 21.10.2019
5813 Clear 31 1011 62 10000 2.6 10 19:55 21.10.2019
5814 Clear 31 1011 62 10000 2.6 10 19:55 21.10.2019
5815 Clear 31 1011 62 10000 2.6 10 19:55 21.10.2019
5816 Clear 31 1011 62 10000 2.6 10 19:36 21.10.2019
5817 Haze 31 1012 55 9000 3.1 50 19:18 21.10.2019
5818 Haze 31 1012 55 9000 3.1 50 19:18 21.10.2019
5819 Clouds 31 1011 62 10000 2.6 10 18:54 21.10.2019
5820 Clouds 31 1011 62 10000 2.6 10 18:54 21.10.2019
5821 Clouds 31 1011 62 10000 2.6 10 18:54 21.10.2019
5822 -273 0 0 0 0 0 18:54 21.10.2019
5823 Clouds 31 1011 62 10000 2.6 10 18:36 21.10.2019
5824 Haze 32 1012 49 9000 2.1 60 18:18 21.10.2019
5825 Clouds 32 1011 55 10000 2.6 30 17:38 21.10.2019
5826 Haze 32 1012 59 9000 3.84 51 17:19 21.10.2019
5827 Haze 33 1011 52 9000 3.1 80 16:58 21.10.2019
5828 Haze 33 1011 52 9000 3.1 80 16:40 21.10.2019
5829 Haze 33 1011 52 9000 3.1 80 16:21 21.10.2019
5830 Clear 33 1010 59 8000 3.6 100 15:57 21.10.2019
5831 Clear 33 1010 59 8000 3.6 100 15:38 21.10.2019
5832 Haze 33 1011 44 9000 5.7 110 15:18 21.10.2019
5833 Clear 34 1010 63 8000 3.6 90 14:40 21.10.2019
5834 Haze 34 1011 17 9000 1 350 14:21 21.10.2019
5835 Clear 34 1011 63 7000 3.6 90 13:58 21.10.2019
5836 Clear 34 1011 63 7000 3.6 90 13:40 21.10.2019
5837 Haze 34 1012 19 9000 2.6 290 13:20 21.10.2019
5838 Clear 35 1011 63 7000 5.7 120 12:57 21.10.2019
5839 Clear 35 1011 63 7000 5.7 120 12:39 21.10.2019
5840 Clear 35 1011 63 7000 5.7 120 12:39 21.10.2019
5841 Haze 35 1012 56 8000 3.6 100 12:19 21.10.2019
5842 Haze 35 1012 56 8000 3.6 100 11:40 21.10.2019
5843 Haze 36 1012 20 9000 2.1 330 11:22 21.10.2019
5844 Haze 35 1013 39 8000 1.5 0 10:58 21.10.2019
5845 Haze 35 1013 39 8000 1.5 0 10:40 21.10.2019
5846 Haze 35 1013 32 9000 1.5 250 10:20 21.10.2019
5847 Haze 34 1013 36 9000 2.6 160 09:57 21.10.2019
5848 Haze 34 1013 36 9000 2.6 160 09:38 21.10.2019
5849 Haze 33 1015 41 9000 1.5 0 09:19 21.10.2019
5850 Haze 33 1014 49 10000 2.1 210 08:41 21.10.2019
5851 Haze 32 1015 55 8000 2.1 180 08:22 21.10.2019
5852 Mist 31 1014 55 8000 2.1 200 07:45 21.10.2019
5853 Mist 30 1015 66 4400 1.97 219.083 07:23 21.10.2019
5854 Mist 30 1013 74 6000 1.5 210 06:59 21.10.2019
5855 Mist 30 1013 74 6000 1.5 210 06:41 21.10.2019
5856 Mist 28 1014 70 4000 1.82 247.754 06:18 21.10.2019
5857 Mist 28 1014 74 4000 1.82 247.754 05:22 21.10.2019
5858 Mist 28 1012 74 10000 1.82 247.754 03:40 21.10.2019
5859 Mist 28 1012 74 10000 1.36 342.417 02:39 21.10.2019
5860 Mist 29 1013 69 8000 1.36 342.417 02:20 21.10.2019
5861 Mist 29 1013 69 8000 1.36 342.417 02:20 21.10.2019
5862 Mist 28 1012 79 10000 1 0 01:45 21.10.2019
5863 Mist 29 1012 74 10000 1.5 20 00:54 21.10.2019
5864 Mist 30 1013 69 8000 0.63 289.697 00:28 21.10.2019
5865 Haze 30 1012 74 10000 1 50 23:58 20.10.2019
5866 Haze 30 1012 74 10000 1 50 23:39 20.10.2019
5867 Haze 30 1013 62 9000 1.53 82.472 23:21 20.10.2019
5868 Haze 30 1013 70 10000 1.5 40 22:43 20.10.2019
5869 Haze 30 1014 58 9000 1.5 70 22:24 20.10.2019
5870 Haze 31 1013 66 10000 1.5 40 21:59 20.10.2019
5871 Haze 31 1013 66 10000 1.5 40 21:40 20.10.2019
5872 Haze 31 1013 66 10000 1.5 40 21:40 20.10.2019
5873 Haze 31 1014 58 9000 2.1 80 21:22 20.10.2019
5874 Haze 31 1014 58 9000 2.1 80 21:22 20.10.2019
5875 Haze 31 1013 62 10000 1.5 30 20:56 20.10.2019
5876 Haze 31 1013 62 10000 1.5 30 20:38 20.10.2019
5877 Haze 31 1013 62 10000 1.5 50 20:18 20.10.2019
5878 Haze 31 1013 62 10000 1.5 60 19:55 20.10.2019
5879 Haze 31 1013 62 10000 1.5 60 19:37 20.10.2019
5880 Haze 31 1013 62 10000 1.5 60 19:18 20.10.2019
5881 Haze 32 1012 59 10000 1.5 110 18:40 20.10.2019
5882 Haze 32 1012 59 10000 1.5 110 18:22 20.10.2019
5883 Haze 32 1012 59 10000 3.1 140 17:57 20.10.2019
5884 Haze 32 1012 59 10000 3.1 140 17:39 20.10.2019
5885 Haze 32 1013 26 9000 1.5 350 17:20 20.10.2019
5886 Haze 33 1012 59 9000 4.1 120 16:55 20.10.2019
5887 Haze 33 1012 59 9000 4.1 120 16:36 20.10.2019
5888 Haze 34 1012 21 9000 1.5 290 16:18 20.10.2019
5889 Haze 34 1011 52 9000 4.6 120 15:41 20.10.2019
5890 Haze 34 1012 22 9000 4.1 280 15:23 20.10.2019
5891 Haze 34 1011 63 8000 5.7 110 14:59 20.10.2019
5892 Haze 34 1011 63 8000 5.7 110 14:38 20.10.2019
5893 Haze 34 1011 63 8000 5.7 110 14:19 20.10.2019
5894 Haze 35 1011 56 8000 5.7 90 13:56 20.10.2019
5895 Haze 35 1011 56 8000 5.7 90 13:37 20.10.2019
5896 Haze 34 1012 25 9000 2.1 250 13:19 20.10.2019
5897 Haze 35 1012 59 8000 7.2 110 12:57 20.10.2019
5898 Haze 35 1012 59 8000 7.2 110 12:39 20.10.2019
5899 Haze 35 1012 59 8000 7.2 110 12:21 20.10.2019
5900 Haze 35 1013 56 9000 5.7 120 11:57 20.10.2019
5901 Haze 35 1013 56 9000 5.7 120 11:39 20.10.2019
5902 Haze 34 1013 56 9000 6.2 110 11:21 20.10.2019
5903 Haze 34 1014 56 9000 4.6 110 10:54 20.10.2019
5904 Haze 34 1014 56 9000 4.6 110 10:54 20.10.2019
5905 Haze 34 1014 56 9000 4.6 110 10:36 20.10.2019
5906 Haze 34 1014 56 9000 4.6 110 10:18 20.10.2019
5907 Haze 34 1014 52 9000 5.1 110 09:42 20.10.2019
5908 Haze 34 1015 52 8000 3.1 140 09:22 20.10.2019
5909 Haze 33 1015 55 8000 2.6 130 08:49 20.10.2019
5910 Haze 33 1015 52 8000 2.6 130 08:27 20.10.2019
5911 Mist 32 1015 55 8000 2.1 130 07:57 20.10.2019
5912 Mist 32 1015 55 8000 2.1 130 07:39 20.10.2019
5913 Mist 32 1015 55 8000 1.5 140 07:20 20.10.2019
5914 Mist 30 1014 59 7000 0.5 0 06:23 20.10.2019
5915 Mist 27 1014 83 6000 1.5 210 04:28 20.10.2019
5916 Mist 27 1014 83 6000 1.5 210 04:28 20.10.2019
5917 Mist 27 1013 69 10000 1 0 03:48 20.10.2019
5918 Mist 28 1012 66 10000 1 350 03:21 20.10.2019
5919 Mist 28 1012 66 10000 1 350 02:44 20.10.2019
5920 Mist 28 1012 66 10000 1.33 18.025 01:59 20.10.2019
5921 Mist 28 1012 66 10000 1 0 01:24 20.10.2019
5922 Mist 29 1012 66 10000 0.5 40 00:58 20.10.2019
5923 Mist 29 1012 66 10000 0.5 40 00:39 20.10.2019
5924 Mist 29 1012 66 10000 1.14 70.258 00:20 20.10.2019
5925 Mist 30 1012 66 10000 1.14 70.258 23:42 19.10.2019
5926 Mist 30 1013 62 10000 0.5 120 23:23 19.10.2019
5927 Mist 30 1013 66 10000 1.14 70.258 22:57 19.10.2019
5928 Mist 30 1013 66 10000 1.14 70.258 22:38 19.10.2019
5929 Mist 30 1013 74 10000 0.5 80 22:20 19.10.2019
5930 Mist 30 1013 74 8000 1 100 21:46 19.10.2019
5931 Mist 30 1013 74 8000 1 100 21:24 19.10.2019
5932 Mist 30 1013 74 8000 1.5 110 20:54 19.10.2019
5933 Mist 30 1013 74 8000 1.5 110 20:36 19.10.2019
5934 Mist 31 1013 70 8000 1.5 90 20:18 19.10.2019
5935 Mist 31 1013 70 8000 2.6 100 19:41 19.10.2019
5936 Mist 31 1013 66 8000 2.1 80 19:23 19.10.2019
5937 Mist 31 1013 70 8000 2.1 90 18:43 19.10.2019
5938 Mist 31 1013 66 8000 2.6 100 18:25 19.10.2019
5939 Mist 31 1012 66 9000 2.6 60 17:59 19.10.2019
5940 Mist 31 1012 66 9000 2.6 60 17:37 19.10.2019
5941 Mist 31 1013 62 8000 2.6 140 17:19 19.10.2019
5942 Haze 31 1012 62 8000 3.6 140 16:40 19.10.2019
5943 Haze 31 1012 62 7000 4.1 130 16:20 19.10.2019
5944 Haze 31 1012 59 7000 3.6 140 15:59 19.10.2019
5945 Haze 31 1012 59 7000 3.6 140 15:39 19.10.2019
5946 Rain 31 1012 66 8000 3.6 130 15:21 19.10.2019
5947 Haze 33 1012 55 9000 4.1 110 14:38 19.10.2019
5948 Haze 33 1011 55 9000 4.6 120 14:20 19.10.2019
5949 Thunderstorm 33 1012 59 9000 4.6 120 13:56 19.10.2019
5950 Thunderstorm 33 1012 59 9000 4.6 120 13:38 19.10.2019
5951 Thunderstorm 34 1012 34 10000 4.6 130 13:18 19.10.2019
5952 Haze 34 1012 49 9000 5.1 100 12:42 19.10.2019
5953 Haze 34 1012 46 9000 5.1 110 12:23 19.10.2019
5954 Haze 35 1012 46 10000 4.1 100 11:59 19.10.2019
5955 Haze 35 1012 46 10000 4.1 100 11:40 19.10.2019
5956 Haze 35 1013 49 10000 3.1 90 11:22 19.10.2019
5957 Haze 34 1013 44 10000 2.6 90 10:54 19.10.2019
5958 Haze 34 1013 46 9000 3.6 80 10:36 19.10.2019
5959 Haze 34 1013 46 9000 3.6 80 10:18 19.10.2019
5960 Haze 34 1014 49 9000 3.1 90 09:41 19.10.2019
5961 Haze 34 1014 49 9000 3.1 90 09:41 19.10.2019
5962 Haze 34 1014 49 9000 3.6 100 09:23 19.10.2019
5963 Haze 33 1014 52 8000 3.1 90 08:58 19.10.2019
5964 Haze 33 1014 52 8000 3.1 90 08:58 19.10.2019
5965 Haze 33 1014 52 8000 3.1 90 08:39 19.10.2019
5966 Haze 33 1014 55 8000 2.6 80 08:20 19.10.2019
5967 Mist 32 1014 55 8000 2.1 60 07:43 19.10.2019
5968 Mist 31 1014 70 7000 2.1 350 07:24 19.10.2019
5969 Mist 29 1014 70 7000 2.1 360 06:45 19.10.2019
5970 Haze 28 1013 79 5000 1.5 340 05:55 19.10.2019
5971 Haze 27 1013 78 5000 1.5 350 05:27 19.10.2019
5972 Haze 27 1013 78 5000 1.5 350 05:27 19.10.2019
5973 Mist 28 1012 74 7000 1 360 03:25 19.10.2019
5974 Mist 28 1012 74 7000 0.5 350 02:38 19.10.2019
5975 Mist 28 1011 70 7000 1 10 01:51 19.10.2019
5976 Mist 28 1012 69 8000 2.65 343.29 01:18 19.10.2019
5977 Mist 28 1011 70 7000 0.5 10 00:45 19.10.2019
5978 Mist 29 1011 66 8000 1 340 00:22 19.10.2019
5979 Haze 29 1011 66 8000 0.5 320 23:41 18.10.2019
5980 Haze 29 1011 66 8000 2.23 5.966 23:23 18.10.2019
5981 Haze 29 1011 66 9000 1 340 22:55 18.10.2019
5982 Haze 29 1011 66 9000 1 340 22:37 18.10.2019
5983 Haze 29 1012 66 9000 0.5 0 22:19 18.10.2019
5984 Haze 31 1012 62 10000 1 40 21:56 18.10.2019
5985 Haze 31 1012 62 10000 1 40 21:38 18.10.2019
5986 Haze 31 1012 62 10000 1 0 21:19 18.10.2019
5987 Haze 31 1012 62 10000 1 100 20:54 18.10.2019
5988 Haze 31 1012 62 10000 1 100 20:36 18.10.2019
5989 Haze 31 1012 58 10000 2.1 90 20:18 18.10.2019
5990 Haze 31 1012 62 10000 2.6 80 19:41 18.10.2019
5991 Haze 32 1012 55 10000 2.6 80 19:23 18.10.2019
5992 Haze 32 1012 55 10000 2.6 80 18:59 18.10.2019
5993 Haze 32 1012 55 10000 2.6 80 18:41 18.10.2019
5994 Haze 32 1011 52 10000 2.6 70 18:23 18.10.2019
5995 Haze 32 1011 52 10000 3.1 70 17:57 18.10.2019
5996 Haze 32 1011 52 10000 3.1 70 17:38 18.10.2019
5997 Haze 32 1011 52 10000 2.1 70 17:20 18.10.2019
5998 Haze 32 1011 55 10000 4.1 110 16:44 18.10.2019
5999 Haze 32 1011 55 10000 4.1 110 16:44 18.10.2019
6000 Haze 33 1010 49 9000 4.1 100 16:22 18.10.2019
6001 Haze 33 1010 49 9000 4.1 100 16:22 18.10.2019
6002 Haze 33 1010 49 9000 4.1 100 15:59 18.10.2019
6003 Haze 33 1010 49 9000 4.1 100 15:40 18.10.2019
6004 Haze 34 1011 36 9000 5.1 110 15:20 18.10.2019
6005 Haze 34 1010 46 9000 4.6 90 14:58 18.10.2019
6006 Haze 34 1010 46 9000 4.6 90 14:39 18.10.2019
6007 Haze 34 1010 46 10000 4.6 90 14:21 18.10.2019
6008 Haze 35 1011 41 10000 4.6 90 13:58 18.10.2019
6009 Haze 35 1011 41 10000 4.6 90 13:39 18.10.2019
6010 Haze 35 1011 23 9000 2.1 10 13:21 18.10.2019
6011 Haze 35 1011 41 10000 4.6 80 12:56 18.10.2019
6012 Haze 35 1011 41 10000 4.6 80 12:38 18.10.2019
6013 Haze 35 1011 41 9000 4.6 90 12:20 18.10.2019
6014 Haze 35 1012 44 9000 2.6 60 11:54 18.10.2019
6015 Haze 35 1012 44 9000 2.6 60 11:36 18.10.2019
6016 Haze 34 1012 49 9000 3.6 70 11:18 18.10.2019
6017 Haze 34 1012 49 9000 3.6 70 11:18 18.10.2019
6018 Haze 34 1012 44 9000 2.6 20 10:41 18.10.2019
6019 Haze 34 1013 44 9000 2.6 10 10:22 18.10.2019
6020 Haze 34 1013 44 9000 2.6 10 10:22 18.10.2019
6021 Haze 33 1014 41 9000 1.5 30 09:58 18.10.2019
6022 Haze 33 1014 41 9000 1.5 30 09:40 18.10.2019
6023 Haze 33 1014 44 9000 2.6 20 09:20 18.10.2019
6024 Mist 32 1014 44 9000 1.5 330 08:47 18.10.2019
6025 Mist 32 1014 49 9000 1.5 0 08:26 18.10.2019
6026 Mist 31 1014 59 8000 2.1 260 07:59 18.10.2019
6027 Mist 31 1014 59 8000 2.1 260 07:41 18.10.2019
6028 Mist 31 1014 59 8000 2.1 260 07:18 18.10.2019
6029 Mist 29 1014 62 8000 1.5 250 06:38 18.10.2019
6030 Mist 27 1015 83 5000 2.1 320 06:19 18.10.2019
6031 Mist 27 1013 70 7000 1.5 300 05:54 18.10.2019
6032 Mist 27 1013 70 7000 1 0 05:20 18.10.2019
6033 Mist 27 1012 70 8000 1 0 03:42 18.10.2019
6034 Mist 27 1012 70 8000 1 0 03:22 18.10.2019
6035 Haze 28 1013 83 9000 1.88 295.802 02:33 18.10.2019
6036 Haze 28 1012 70 9000 2.1 240 01:43 18.10.2019
6037 Haze 28 1012 66 9000 1.5 180 01:23 18.10.2019
6038 Haze 28 1012 66 9000 1.5 180 00:43 18.10.2019
6039 Haze 28 1012 66 10000 2.1 170 00:20 18.10.2019
6040 Haze 29 1012 66 10000 2.6 170 23:41 17.10.2019
6041 Haze 29 1013 70 10000 1.5 150 23:21 17.10.2019
6042 Haze 29 1013 74 10000 2.1 120 22:58 17.10.2019
6043 Haze 29 1013 74 10000 2.1 120 22:58 17.10.2019
6044 Haze 29 1013 74 10000 2.1 120 22:39 17.10.2019
6045 Haze 29 1013 70 10000 0.5 0 22:20 17.10.2019
6046 Mist 30 1013 70 10000 0.5 0 21:58 17.10.2019
6047 Mist 30 1013 70 10000 0.5 0 21:39 17.10.2019
6048 Mist 30 1013 70 10000 0.5 0 21:20 17.10.2019
6049 Mist 31 1014 66 10000 1 10 20:58 17.10.2019
6050 Mist 31 1014 66 10000 1 10 20:58 17.10.2019
6051 Mist 31 1014 66 10000 1 10 20:39 17.10.2019
6052 Mist 31 1014 66 10000 1 40 20:19 17.10.2019
6053 Mist 31 1014 66 10000 1 40 20:19 17.10.2019
6054 Mist 31 1014 66 10000 1 40 20:19 17.10.2019
6055 Haze 31 1014 66 10000 1.5 20 19:59 17.10.2019
6056 Haze 31 1014 66 10000 1.5 20 19:39 17.10.2019
6057 Haze 32 1014 59 10000 1.5 30 19:19 17.10.2019
6058 Haze 32 1014 62 10000 1.5 10 18:58 17.10.2019
6059 Haze 32 1014 62 10000 1.5 10 18:38 17.10.2019
6060 Haze 32 1014 62 10000 2.6 20 18:20 17.10.2019
6061 Clouds 32 1013 62 10000 3.1 20 17:42 17.10.2019
6062 Clouds 32 1013 62 10000 3.6 20 17:23 17.10.2019
6063 Clouds 32 1013 62 10000 3.1 20 16:57 17.10.2019
6064 Clouds 32 1013 62 10000 3.1 20 16:38 17.10.2019
6065 Clouds 33 1013 59 10000 3.6 10 16:18 17.10.2019
6066 Clouds 33 1013 52 8000 4.6 10 15:55 17.10.2019
6067 Clouds 33 1013 52 8000 4.6 10 15:37 17.10.2019
6068 Dust 33 1014 38 1600 10.3 20 15:19 17.10.2019
6069 Clouds 35 1013 56 6000 4.6 40 14:43 17.10.2019
6070 Clouds 35 1012 59 6000 4.6 40 14:24 17.10.2019
6071 Clouds 35 1012 59 6000 4.6 40 14:24 17.10.2019
6072 Clouds 35 1012 47 6000 4.1 50 13:57 17.10.2019
6073 Clouds 35 1012 47 6000 4.1 50 13:39 17.10.2019
6074 Haze 36 1013 18 9000 3.1 10 13:19 17.10.2019
6075 Clouds 35 1013 32 10000 4.6 360 12:41 17.10.2019
6076 Clouds 35 1013 41 10000 4.1 10 12:21 17.10.2019
6077 Clouds 34 1013 36 10000 3.6 360 11:59 17.10.2019
6078 Clouds 34 1013 36 10000 3.6 360 11:41 17.10.2019
6079 Clouds 34 1013 36 10000 3.6 360 11:41 17.10.2019
6080 Clouds 34 1013 36 10000 3.6 360 11:41 17.10.2019
6081 Clouds 34 1013 36 10000 3.6 360 11:41 17.10.2019
6082 Clear 34 1014 41 10000 3.6 10 11:20 17.10.2019
6083 Clear 34 1014 41 10000 3.6 10 10:56 17.10.2019
6084 Clear 34 1014 41 10000 3.6 10 10:56 17.10.2019
6085 Clear 34 1014 41 10000 3.6 10 10:38 17.10.2019
6086 Haze 33 1015 38 9000 2.6 340 10:18 17.10.2019
6087 Clear 33 1015 52 7000 4.1 350 09:54 17.10.2019
6088 Clouds 33 1015 52 7000 4.1 350 09:36 17.10.2019
6089 Haze 33 1016 55 9000 3.6 330 09:18 17.10.2019
6090 Mist 32 1016 70 5000 2.6 300 08:42 17.10.2019
6091 -273 0 0 0 0 0 08:24 17.10.2019
6092 Haze 31 1015 59 5000 1.5 270 07:56 17.10.2019
6093 Haze 31 1015 59 5000 1.5 270 07:37 17.10.2019
6094 Haze 30 1015 62 5000 1 0 07:18 17.10.2019
6095 Haze 28 1015 70 4500 1.5 230 06:40 17.10.2019
6096 Haze 28 1014 74 4000 1 0 06:21 17.10.2019
6097 Haze 27 1014 74 4000 1.5 250 05:54 17.10.2019
6098 Haze 27 1014 78 4000 1 0 05:32 17.10.2019
6099 Haze 27 1014 74 4000 1.5 240 04:55 17.10.2019
6100 Haze 27 1013 74 5000 1.5 230 03:55 17.10.2019
6101 Clouds 27 1013 74 7000 1 0 02:37 17.10.2019
6102 Mist 28 1014 83 6000 2.289 334 01:31 17.10.2019
6103 Clouds 28 1013 74 8000 2.289 334 00:40 17.10.2019
6104 Clouds 28 1013 70 8000 1.633 24 00:19 17.10.2019
6105 Clouds 29 1013 74 8000 1 360 23:42 16.10.2019
6106 Mist 29 1014 78 8000 1.633 24 23:21 16.10.2019
6107 Clouds 29 1013 70 8000 2.1 20 22:56 16.10.2019
6108 Clouds 29 1013 70 8000 2.1 20 22:56 16.10.2019
6109 Clouds 29 1013 70 8000 2.1 20 22:37 16.10.2019
6110 Clouds 29 1013 62 8000 2.6 40 22:19 16.10.2019
6111 Clouds 30 1014 70 8000 2.6 10 21:56 16.10.2019
6112 Clouds 30 1014 70 8000 2.6 10 21:37 16.10.2019
6113 Clouds 30 1014 74 8000 2.1 20 21:19 16.10.2019
6114 Clouds 30 1014 74 8000 2.1 20 21:19 16.10.2019
6115 Clouds 31 1014 70 8000 1.5 30 20:57 16.10.2019
6116 Clouds 31 1014 70 8000 1.5 30 20:38 16.10.2019
6117 Clouds 31 1014 70 8000 2.1 10 20:20 16.10.2019
6118 Clouds 31 1014 70 8000 2.1 10 19:57 16.10.2019
6119 Clouds 31 1014 70 8000 2.1 10 19:38 16.10.2019
6120 Clouds 29 1014 70 8000 1.5 30 19:20 16.10.2019
6121 Clouds 30 1014 70 8000 2.1 20 18:39 16.10.2019
6122 Clear 30 1014 62 8000 2.6 10 18:19 16.10.2019
6123 Clear 30 1013 66 8000 2.1 20 17:58 16.10.2019
6124 Clear 30 1013 66 8000 2.1 20 17:58 16.10.2019
6125 Clear 30 1013 66 8000 2.1 20 17:39 16.10.2019
6126 Clear 30 1013 66 8000 2.1 20 17:21 16.10.2019
6127 Rain 30 1013 66 7000 4.1 10 16:59 16.10.2019
6128 Rain 30 1013 66 7000 4.1 10 16:41 16.10.2019
6129 Rain 30 1013 66 7000 4.1 10 16:41 16.10.2019
6130 Clouds 31 1013 59 6000 3.1 30 16:20 16.10.2019
6131 Clouds 32 1013 55 7000 3.6 30 15:56 16.10.2019
6132 Clouds 32 1013 55 7000 3.6 30 15:38 16.10.2019
6133 Clouds 34 1012 56 6000 5.1 90 15:18 16.10.2019
6134 Clouds 34 1012 56 6000 5.1 90 14:56 16.10.2019
6135 Clouds 34 1012 56 6000 5.1 90 14:38 16.10.2019
6136 Clouds 34 1012 56 6000 4.6 80 14:18 16.10.2019
6137 Clouds 34 1012 56 6000 4.1 80 13:56 16.10.2019
6138 Clouds 34 1012 56 6000 4.1 80 13:37 16.10.2019
6139 Thunderstorm 35 1013 37 9000 5.1 110 13:19 16.10.2019
6140 Clouds 35 1012 56 6000 5.1 90 12:41 16.10.2019
6141 Clouds 36 1013 50 7000 4.1 70 12:19 16.10.2019
6142 Clouds 35 1013 50 7000 3.6 10 11:44 16.10.2019
6143 Clear 35 1013 52 7000 4.1 10 11:18 16.10.2019
6144 Clear 35 1014 52 7000 4.1 10 10:41 16.10.2019
6145 Clear 35 1014 56 7000 4.1 360 10:22 16.10.2019
6146 Clear 35 1014 56 7000 4.1 360 10:22 16.10.2019
6147 Clear 34 1015 56 7000 4.1 360 09:58 16.10.2019
6148 Clear 34 1015 56 7000 4.1 360 09:39 16.10.2019
6149 Clear 34 1015 52 10000 3.6 360 09:20 16.10.2019
6150 Clear 33 1015 63 10000 3.1 20 08:44 16.10.2019
6151 Clear 33 1015 59 10000 3.1 40 08:25 16.10.2019
6152 Haze 33 1016 49 9000 1.939 22 07:56 16.10.2019
6153 Haze 33 1016 49 9000 1.939 22 07:56 16.10.2019
6154 Clear 32 1015 59 10000 2.6 20 07:38 16.10.2019
6155 Clear 32 1015 66 10000 2.6 30 07:19 16.10.2019
6156 Clear 30 1014 79 10000 2.6 350 06:40 16.10.2019
6157 Clear 30 1014 79 10000 2.6 350 06:19 16.10.2019
6158 Clear 27 1013 78 10000 1.5 350 03:33 16.10.2019
6159 Clear 27 1013 74 10000 2.1 340 02:50 16.10.2019
6160 Clear 28 1013 70 10000 1.5 350 01:20 16.10.2019
6161 Clear 28 1013 70 10000 2.1 330 00:54 16.10.2019
6162 Clear 28 1013 70 10000 2.1 330 00:35 16.10.2019
6163 Clear 28 1013 70 10000 0.5 30 23:42 15.10.2019
6164 Clear 28 1013 70 10000 0.5 30 23:22 15.10.2019
6165 Clear 29 1014 66 10000 1 360 22:57 15.10.2019
6166 Clear 29 1014 66 10000 1 360 22:38 15.10.2019
6167 Clear 29 1014 66 10000 1 360 22:20 15.10.2019
6168 Clear 30 1014 62 10000 1 80 21:57 15.10.2019
6169 Clear 30 1014 62 10000 1 80 21:38 15.10.2019
6170 Clear 30 1014 62 10000 1 80 21:20 15.10.2019
6171 Clear 31 1014 62 10000 1.5 40 20:58 15.10.2019
6172 Clear 31 1014 62 10000 1.5 40 20:39 15.10.2019
6173 Clear 31 1014 62 10000 1.5 40 20:21 15.10.2019
6174 Clear 31 1014 62 10000 2.1 30 19:59 15.10.2019
6175 Clear 31 1014 62 10000 2.1 30 19:41 15.10.2019
6176 Clear 31 1014 62 10000 2.1 30 19:20 15.10.2019
6177 Clear 32 1014 59 10000 2.1 30 18:55 15.10.2019
6178 Clear 32 1014 59 10000 2.1 30 18:36 15.10.2019
6179 Clear 32 1013 55 10000 3.1 70 18:18 15.10.2019
6180 Clear 32 1013 59 10000 3.1 60 17:41 15.10.2019
6181 -273 0 0 0 0 0 17:41 15.10.2019
6182 Clear 32 1013 59 10000 3.1 60 17:21 15.10.2019
6183 Haze 33 1013 41 9000 3.6 80 16:59 15.10.2019
6184 Haze 33 1013 41 9000 3.6 80 16:41 15.10.2019
6185 Clouds 33 1013 55 10000 3.1 60 16:21 15.10.2019
6186 Clouds 34 1012 49 10000 4.1 70 15:55 15.10.2019
6187 Clouds 34 1012 49 10000 4.1 70 15:55 15.10.2019
6188 Clouds 34 1012 49 10000 4.1 70 15:37 15.10.2019
6189 Thunderstorm 34 1013 32 9000 3.6 100 15:19 15.10.2019
6190 Clouds 35 1012 49 10000 3.6 40 14:38 15.10.2019
6191 Clouds 35 1012 49 10000 3.6 40 14:20 15.10.2019
6192 Clouds 35 1013 47 10000 3.1 40 13:59 15.10.2019
6193 Clouds 35 1013 47 10000 3.1 40 13:40 15.10.2019
6194 Clouds 35 1013 47 10000 3.1 40 13:20 15.10.2019
6195 Clouds 35 1013 47 10000 3.6 90 12:44 15.10.2019
6196 Clouds 35 1013 47 10000 3.6 90 12:22 15.10.2019
6197 Clouds 35 1014 56 10000 3.6 90 11:58 15.10.2019
6198 Clouds 35 1014 56 10000 3.6 90 11:40 15.10.2019
6199 Clouds 35 1014 56 10000 3.6 90 11:19 15.10.2019
6200 Clouds 35 1015 56 10000 3.6 110 10:46 15.10.2019
6201 Haze 35 1015 56 10000 3.6 110 10:23 15.10.2019
6202 Haze 34 1015 59 10000 3.1 70 09:59 15.10.2019
6203 Haze 34 1015 59 10000 3.1 70 09:40 15.10.2019
6204 Haze 34 1015 59 10000 3.1 70 09:20 15.10.2019
6205 Haze 33 1015 59 10000 3.6 100 08:57 15.10.2019
6206 Haze 33 1015 59 10000 3.6 100 08:37 15.10.2019
6207 Haze 33 1015 59 10000 3.6 100 08:18 15.10.2019
6208 Haze 33 1015 59 10000 3.6 100 08:18 15.10.2019
6209 Haze 33 1015 59 10000 2.1 20 07:43 15.10.2019
6210 Haze 33 1015 59 10000 2.1 20 07:21 15.10.2019
6211 Mist 31 1014 62 10000 2.6 60 06:55 15.10.2019
6212 Mist 31 1014 62 10000 2.6 60 06:37 15.10.2019
6213 Mist 29 1013 66 10000 2.1 40 05:56 15.10.2019
6214 Mist 29 1013 66 10000 2.1 40 05:36 15.10.2019
6215 Mist 29 1013 70 10000 2.1 20 04:40 15.10.2019
6216 Mist 29 1014 78 8000 1.5 350 03:59 15.10.2019
6217 Mist 29 1013 74 10000 3.1 10 03:34 15.10.2019
6218 Haze 30 1013 70 10000 2.1 10 01:51 15.10.2019
6219 Haze 30 1013 70 10000 2.1 10 01:26 15.10.2019
6220 Haze 30 1013 66 10000 2.1 360 00:59 15.10.2019
6221 Haze 30 1013 66 10000 2.1 360 00:24 15.10.2019
6222 Haze 31 1013 66 10000 3.1 20 23:57 14.10.2019
6223 Haze 31 1013 66 10000 3.1 20 23:37 14.10.2019
6224 Haze 31 1013 62 10000 4.1 50 23:18 14.10.2019
6225 Haze 31 1013 66 10000 2.6 30 22:39 14.10.2019
6226 Haze 31 1013 66 10000 2.6 30 22:20 14.10.2019
6227 Haze 32 1014 66 10000 2.6 20 21:57 14.10.2019
6228 Haze 32 1014 66 10000 2.6 20 21:39 14.10.2019
6229 Haze 32 1014 66 10000 2.6 20 21:20 14.10.2019
6230 Haze 32 1014 62 10000 2.6 30 20:57 14.10.2019
6231 Haze 32 1014 62 10000 2.6 30 20:38 14.10.2019
6232 Haze 32 1014 62 10000 2.6 30 20:19 14.10.2019
6233 Clear 32 1014 62 10000 2.6 20 19:43 14.10.2019
6234 Clear 32 1014 62 10000 2.6 20 19:25 14.10.2019
6235 Haze 32 1013 62 10000 3.6 30 18:59 14.10.2019
6236 Haze 32 1013 62 10000 3.6 30 18:40 14.10.2019
6237 Haze 32 1013 62 10000 3.6 30 18:40 14.10.2019
6238 Haze 32 1013 62 10000 3.6 30 18:20 14.10.2019
6239 Haze 33 1013 59 10000 4.1 40 17:59 14.10.2019
6240 Haze 33 1013 59 10000 4.1 40 17:40 14.10.2019
6241 Haze 33 1013 59 10000 4.1 40 17:22 14.10.2019
6242 Haze 33 1012 59 10000 5.1 40 16:44 14.10.2019
6243 Thunderstorm 34 1012 59 10000 5.1 40 16:22 14.10.2019
6244 Thunderstorm 34 1012 56 10000 4.6 40 15:58 14.10.2019
6245 Thunderstorm 34 1012 56 10000 4.6 40 15:38 14.10.2019
6246 Thunderstorm 34 1012 56 10000 4.6 40 15:20 14.10.2019
6247 Thunderstorm 35 1012 47 10000 4.1 50 14:43 14.10.2019
6248 Thunderstorm 35 1012 47 10000 4.1 50 14:24 14.10.2019
6249 Haze 36 1012 41 10000 4.1 60 13:57 14.10.2019
6250 Haze 36 1012 41 10000 4.1 60 13:39 14.10.2019
6251 Haze 36 1012 41 10000 4.1 60 13:20 14.10.2019
6252 Haze 36 1013 50 10000 4.1 60 12:41 14.10.2019
6253 Haze 36 1013 50 10000 4.1 60 12:19 14.10.2019
6254 Haze 36 1014 50 10000 3.6 70 11:48 14.10.2019
6255 Haze 36 1014 22 9000 2.1 0 11:27 14.10.2019
6256 Haze 36 1014 53 10000 3.6 90 10:59 14.10.2019
6257 Haze 36 1014 53 10000 3.6 90 10:41 14.10.2019
6258 Haze 36 1014 53 10000 3.6 90 10:21 14.10.2019
6259 Haze 36 1014 53 10000 3.6 90 10:21 14.10.2019
6260 Haze 35 1015 56 10000 2.6 80 09:57 14.10.2019
6261 Haze 35 1015 56 10000 2.6 80 09:38 14.10.2019
6262 Haze 35 1015 56 10000 2.6 80 09:19 14.10.2019
6263 Haze 34 1015 59 10000 1.5 80 08:46 14.10.2019
6264 Haze 34 1015 59 10000 1.5 80 08:23 14.10.2019
6265 Clouds 33 1015 63 10000 3.1 90 07:44 14.10.2019
6266 Mist 31 1015 63 10000 3.1 90 07:21 14.10.2019
6267 Mist 30 1014 62 10000 3.1 100 06:54 14.10.2019
6268 Mist 30 1014 62 10000 3.1 100 06:27 14.10.2019
6269 Mist 28 1013 66 10000 3.1 110 05:50 14.10.2019
6270 Mist 28 1012 62 10000 2.6 100 04:50 14.10.2019
6271 Mist 29 1012 66 10000 2.1 120 03:48 14.10.2019
6272 Mist 29 1012 66 10000 2.1 120 03:21 14.10.2019
6273 Haze 30 1012 66 10000 2.6 90 01:36 14.10.2019
6274 Haze 30 1012 66 10000 2.6 90 01:18 14.10.2019
6275 Haze 30 1012 66 10000 4.1 80 00:23 14.10.2019
6276 Haze 31 1012 62 10000 5.1 70 23:46 13.10.2019
6277 Haze 32 1013 66 9000 3.1 70 23:21 13.10.2019
6278 Haze 31 1012 62 10000 6.7 60 23:00 13.10.2019
6279 Haze 31 1012 62 10000 6.7 60 22:41 13.10.2019
6280 Haze 31 1012 62 10000 6.7 60 22:22 13.10.2019
6281 Haze 31 1012 62 10000 6.7 60 22:22 13.10.2019
6282 Haze 31 1012 62 10000 7.2 50 21:58 13.10.2019
6283 Haze 31 1012 62 10000 7.2 50 21:38 13.10.2019
6284 Haze 31 1012 62 10000 7.2 50 21:19 13.10.2019
6285 Haze 32 1012 66 10000 6.2 60 20:58 13.10.2019
6286 Haze 32 1012 66 10000 6.2 60 20:58 13.10.2019
6287 Haze 32 1012 66 10000 6.2 60 20:40 13.10.2019
6288 Haze 32 1012 66 10000 6.2 60 20:21 13.10.2019
6289 Haze 32 1012 62 10000 6.2 60 19:59 13.10.2019
6290 Haze 32 1012 62 10000 6.2 60 19:39 13.10.2019
6291 Haze 32 1012 62 10000 6.2 60 19:39 13.10.2019
6292 Haze 32 1012 62 10000 6.2 60 19:39 13.10.2019
6293 Haze 32 1013 62 9000 3.6 50 19:21 13.10.2019
6294 Haze 32 1011 66 10000 6.2 50 18:59 13.10.2019
6295 Haze 32 1011 66 10000 6.2 50 18:59 13.10.2019
6296 Haze 32 1011 66 10000 6.2 50 18:58 13.10.2019
6297 Haze 32 1011 66 10000 6.2 50 18:58 13.10.2019
6298 Haze 32 1012 62 9000 3.6 50 18:38 13.10.2019
6299 Haze 32 1012 62 9000 3.6 50 18:38 13.10.2019
6300 Haze 32 1012 62 9000 3.6 50 18:19 13.10.2019
6301 Haze 33 1010 62 10000 5.1 50 17:58 13.10.2019
6302 Haze 33 1010 62 10000 5.1 50 17:39 13.10.2019
6303 Haze 33 1011 46 9000 3.6 60 17:21 13.10.2019
6304 Haze 35 1010 63 9000 4.6 50 16:43 13.10.2019
6305 Haze 35 1010 63 9000 4.6 50 16:19 13.10.2019
6306 -273 0 0 0 0 0 15:57 13.10.2019
6307 Clouds 35 1010 59 10000 4.1 50 15:57 13.10.2019
6308 Clouds 35 1010 59 10000 4.1 50 15:38 13.10.2019
6309 Clouds 35 1010 59 10000 4.1 50 15:19 13.10.2019
6310 Haze 36 1009 52 10000 3.6 60 14:57 13.10.2019
6311 Haze 36 1009 52 10000 3.6 60 14:38 13.10.2019
6312 Haze 36 1009 52 10000 3.6 60 14:19 13.10.2019
6313 Haze 36 1009 56 10000 3.6 60 13:42 13.10.2019
6314 Haze 36 1010 27 9000 2.6 110 13:23 13.10.2019
6315 Haze 37 1010 50 10000 3.1 90 12:59 13.10.2019
6316 Haze 38 1011 29 9000 2.6 0 12:39 13.10.2019
6317 Haze 36 1011 29 9000 2.6 0 12:21 13.10.2019
6318 Haze 36 1010 53 10000 3.6 100 11:59 13.10.2019
6319 Haze 36 1010 53 10000 3.6 100 11:39 13.10.2019
6320 Haze 36 1011 35 9000 2.6 70 11:21 13.10.2019
6321 Haze 36 1011 53 10000 4.1 130 10:59 13.10.2019
6322 Haze 36 1011 53 10000 4.1 130 10:39 13.10.2019
6323 Haze 36 1011 53 10000 4.1 130 10:39 13.10.2019
6324 Haze 35 1012 32 9000 4.1 120 10:20 13.10.2019
6325 Haze 35 1011 56 10000 4.6 120 09:39 13.10.2019
6326 Haze 35 1011 56 10000 4.6 120 09:21 13.10.2019
6327 Haze 35 1011 56 10000 4.6 120 09:21 13.10.2019
6328 Haze 35 1011 52 10000 4.6 130 08:51 13.10.2019
6329 Haze 34 1011 52 10000 4.6 130 08:27 13.10.2019
6330 Smoke 33 1011 63 10000 5.7 100 07:55 13.10.2019
6331 Smoke 33 1011 63 10000 5.7 100 07:35 13.10.2019
6332 Mist 32 1011 63 10000 4.1 100 06:54 13.10.2019
6333 Mist 32 1011 63 10000 4.1 100 06:24 13.10.2019
6334 Mist 30 1011 74 6000 1.5 70 05:27 13.10.2019
6335 Mist 30 1011 74 6000 1.5 70 05:27 13.10.2019
6336 Mist 30 1009 74 10000 3.6 90 04:35 13.10.2019
6337 Mist 30 1009 74 10000 2.6 90 03:35 13.10.2019
6338 Mist 30 1009 74 8000 1 80 02:32 13.10.2019
6339 Clear 31 1008 79 10000 2.1 70 01:37 13.10.2019
6340 Mist 30 1008 79 10000 2.1 70 01:18 13.10.2019
6341 Mist 30 1008 79 10000 1.5 50 00:42 13.10.2019
6342 Mist 30 1008 79 10000 1.5 50 00:42 13.10.2019
6343 Mist 30 1008 79 10000 1.5 50 00:19 13.10.2019
6344 Mist 31 1009 70 10000 2.1 60 23:42 12.10.2019
6345 Mist 31 1009 70 10000 2.1 60 23:23 12.10.2019
6346 Mist 31 1009 70 10000 2.1 50 22:59 12.10.2019
6347 Mist 31 1009 70 10000 2.1 50 22:40 12.10.2019
6348 Mist 31 1009 70 10000 2.1 50 22:22 12.10.2019
6349 Mist 31 1009 70 10000 2.1 50 21:59 12.10.2019
6350 Mist 31 1009 70 10000 2.1 50 21:40 12.10.2019
6351 Mist 31 1009 70 10000 2.1 50 21:22 12.10.2019
6352 Mist 31 1009 66 10000 3.1 50 20:56 12.10.2019
6353 Clear 31 1009 66 10000 3.1 50 20:37 12.10.2019
6354 Haze 32 1009 66 10000 3.1 50 20:19 12.10.2019
6355 Haze 32 1009 70 9000 3.6 60 19:36 12.10.2019
6356 Haze 32 1009 70 9000 3.6 60 19:18 12.10.2019
6357 Haze 32 1009 66 10000 3.6 50 18:44 12.10.2019
6358 Haze 32 1009 66 10000 3.6 50 18:26 12.10.2019
6359 Haze 32 1008 70 9000 5.1 70 17:46 12.10.2019
6360 Haze 32 1008 70 9000 5.1 70 17:25 12.10.2019
6361 Haze 33 1008 63 8000 3.6 50 16:59 12.10.2019
6362 Haze 33 1008 63 8000 3.6 50 16:40 12.10.2019
6363 Haze 33 1008 63 8000 3.6 50 16:21 12.10.2019
6364 Thunderstorm 35 1008 59 8000 4.1 100 15:57 12.10.2019
6365 Thunderstorm 35 1008 59 8000 4.1 100 15:38 12.10.2019
6366 Thunderstorm 34 1008 59 8000 4.1 100 15:18 12.10.2019
6367 Haze 35 1007 59 8000 4.1 70 14:40 12.10.2019
6368 Haze 35 1007 59 8000 4.1 70 14:20 12.10.2019
6369 Haze 36 1008 53 10000 3.6 80 13:51 12.10.2019
6370 Haze 36 1008 31 9000 6.79 89.561 13:32 12.10.2019
6371 Haze 36 1008 56 9000 2.6 120 12:56 12.10.2019
6372 Haze 36 1008 56 9000 2.6 120 12:38 12.10.2019
6373 Haze 36 1008 56 9000 2.6 120 12:38 12.10.2019
6374 Haze 36 1008 56 9000 2.6 120 12:20 12.10.2019
6375 Haze 36 1008 56 9000 2.6 120 12:20 12.10.2019
6376 Haze 35 1009 56 9000 3.1 110 11:45 12.10.2019
6377 Haze 35 1009 42 9000 2.6 130 11:24 12.10.2019
6378 Haze 34 1009 63 9000 4.1 110 10:58 12.10.2019
6379 Haze 34 1009 63 9000 4.1 110 10:39 12.10.2019
6380 Haze 34 1009 63 9000 4.1 110 10:20 12.10.2019
6381 Haze 34 1010 63 8000 1.5 0 09:57 12.10.2019
6382 Clouds 33 1010 63 8000 1.5 0 09:38 12.10.2019
6383 Mist 33 1010 63 8000 1.5 0 09:20 12.10.2019
6384 Mist 33 1010 67 8000 1.5 160 08:45 12.10.2019
6385 Mist 33 1010 67 8000 1.5 160 08:25 12.10.2019
6386 Mist 32 1010 75 7000 2.1 230 07:59 12.10.2019
6387 Mist 32 1010 75 7000 2.1 230 07:31 12.10.2019
6388 Mist 29 1009 74 6000 1.5 210 06:38 12.10.2019
6389 Mist 27 1008 78 6000 1 250 05:44 12.10.2019
6390 Mist 28 1008 74 9000 1.5 230 04:43 12.10.2019
6391 Mist 29 1008 79 10000 2.6 170 03:56 12.10.2019
6392 Mist 29 1007 74 10000 3.1 180 02:50 12.10.2019
6393 Mist 29 1007 79 10000 2.6 160 01:35 12.10.2019
6394 Mist 30 1007 74 10000 2.1 140 00:57 12.10.2019
6395 Mist 30 1007 74 10000 2.1 140 00:38 12.10.2019
6396 Mist 30 1008 70 10000 2.6 150 23:55 11.10.2019
6397 Mist 30 1008 70 10000 2.6 150 23:37 11.10.2019
6398 Mist 31 1009 79 8000 1.5 160 23:18 11.10.2019
6399 Mist 31 1008 74 10000 1.5 140 22:39 11.10.2019
6400 Mist 31 1008 74 10000 1.5 140 22:20 11.10.2019
6401 Mist 32 1008 70 10000 3.1 110 21:55 11.10.2019
6402 Mist 32 1008 70 10000 3.1 110 21:36 11.10.2019
6403 Mist 32 1008 70 10000 3.1 110 21:18 11.10.2019
6404 Mist 32 1009 75 10000 2.6 90 20:42 11.10.2019
6405 Mist 32 1009 75 10000 2.6 90 20:24 11.10.2019
6406 Haze 32 1009 75 10000 2.6 90 19:56 11.10.2019
6407 Haze 32 1009 75 10000 2.6 90 19:38 11.10.2019
6408 Haze 32 1009 75 10000 2.6 90 19:18 11.10.2019
6409 Haze 32 1009 75 10000 2.6 90 19:18 11.10.2019
6410 Haze 32 1009 70 10000 2.6 60 18:56 11.10.2019
6411 Haze 32 1009 70 10000 2.6 60 18:37 11.10.2019
6412 Haze 32 1009 70 10000 2.6 60 18:18 11.10.2019
6413 Haze 33 1008 63 9000 3.1 50 17:57 11.10.2019
6414 Haze 33 1008 63 9000 3.1 50 17:37 11.10.2019
6415 Haze 33 1008 63 9000 3.1 50 17:18 11.10.2019
6416 Haze 34 1008 66 7000 4.1 50 16:41 11.10.2019
6417 Haze 34 1008 66 7000 4.1 50 16:21 11.10.2019
6418 Haze 35 1008 59 7000 4.1 70 15:59 11.10.2019
6419 Haze 35 1008 59 7000 4.1 70 15:38 11.10.2019
6420 Haze 35 1008 59 7000 4.1 70 15:38 11.10.2019
6421 Haze 35 1008 59 7000 4.1 70 15:19 11.10.2019
6422 Haze 35 1008 47 8000 4.6 80 14:47 11.10.2019
6423 Haze 35 1008 47 8000 4.6 80 14:29 11.10.2019
6424 Haze 36 1009 44 10000 4.6 60 13:57 11.10.2019
6425 Clear 34 1009 44 10000 4.6 60 13:38 11.10.2019
6426 Haze 36 1009 44 10000 4.6 60 13:19 11.10.2019
6427 Haze 37 1009 44 10000 4.6 60 12:56 11.10.2019
6428 Haze 37 1009 44 10000 4.6 60 12:38 11.10.2019
6429 Haze 37 1009 44 10000 4.6 60 12:18 11.10.2019
6430 Haze 37 1010 50 10000 4.1 70 11:41 11.10.2019
6431 Haze 37 1010 50 10000 4.1 70 11:22 11.10.2019
6432 Haze 38 1011 27 10000 1.5 0 10:58 11.10.2019
6433 Haze 38 1011 27 10000 1.5 0 10:40 11.10.2019
6434 Haze 38 1011 27 10000 1.5 0 10:22 11.10.2019
6435 Haze 36 1011 41 10000 1.5 170 09:56 11.10.2019
6436 Haze 36 1011 41 10000 1.5 170 09:37 11.10.2019
6437 Haze 36 1011 41 10000 1.5 170 09:19 11.10.2019
6438 Haze 34 1012 52 10000 2.6 200 08:55 11.10.2019
6439 Haze 34 1012 52 10000 2.6 200 08:36 11.10.2019
6440 Haze 34 1012 52 10000 2.6 200 08:18 11.10.2019
6441 Haze 32 1012 70 7000 3.1 220 07:44 11.10.2019
6442 Haze 32 1012 70 7000 3.1 220 07:25 11.10.2019
6443 Mist 30 1011 84 6000 3.6 220 06:48 11.10.2019
6444 Mist 30 1011 84 6000 3.6 220 06:23 11.10.2019
6445 Mist 30 1010 70 6000 2.6 210 05:39 11.10.2019
6446 Mist 30 1010 70 10000 2.6 170 04:59 11.10.2019
6447 Mist 30 1010 70 10000 2.6 170 04:24 11.10.2019
6448 Mist 30 1010 74 10000 2.6 150 02:40 11.10.2019
6449 Mist 31 1010 70 10000 2.6 110 00:50 11.10.2019
6450 Mist 31 1010 70 10000 2.6 110 00:29 11.10.2019
6451 Mist 32 1010 66 10000 3.1 100 23:44 10.10.2019
6452 Mist 32 1010 66 10000 3.1 100 23:22 10.10.2019
6453 Haze 32 1011 66 10000 5.1 90 22:58 10.10.2019
6454 Haze 32 1011 66 10000 5.1 90 22:39 10.10.2019
6455 Haze 32 1011 66 10000 5.1 90 22:21 10.10.2019
6456 Mist 32 1011 66 10000 2.6 90 21:58 10.10.2019
6457 Mist 32 1011 66 10000 2.6 90 21:58 10.10.2019
6458 Mist 32 1011 66 10000 2.6 90 21:39 10.10.2019
6459 Mist 32 1011 66 10000 2.6 90 21:21 10.10.2019
6460 Mist 32 1011 66 10000 2.6 90 21:21 10.10.2019
6461 Haze 32 1011 66 10000 2.1 60 20:43 10.10.2019
6462 Haze 32 1011 66 10000 2.1 60 20:22 10.10.2019
6463 Haze 33 1011 62 10000 1.5 50 19:59 10.10.2019
6464 Haze 33 1011 62 10000 1.5 50 19:41 10.10.2019
6465 Haze 33 1011 62 10000 1.5 50 19:21 10.10.2019
6466 Haze 33 1010 59 10000 1.5 40 18:59 10.10.2019
6467 Haze 33 1010 59 10000 1.5 40 18:40 10.10.2019
6468 Haze 33 1010 59 10000 1.5 40 18:20 10.10.2019
6469 Haze 34 1009 56 10000 2.1 30 17:55 10.10.2019
6470 Haze 34 1009 56 10000 2.1 30 17:55 10.10.2019
6471 Haze 34 1009 56 10000 2.1 30 17:37 10.10.2019
6472 Haze 34 1009 56 10000 2.1 30 17:18 10.10.2019
6473 Haze 35 1009 44 10000 2.6 40 16:46 10.10.2019
6474 Haze 36 1009 50 10000 3.6 30 16:26 10.10.2019
6475 Haze 36 1009 50 10000 3.6 30 15:58 10.10.2019
6476 Haze 36 1009 50 10000 3.6 30 15:38 10.10.2019
6477 Haze 36 1009 50 10000 3.6 30 15:19 10.10.2019
6478 Haze 39 1009 37 10000 4.1 120 14:55 10.10.2019
6479 Haze 39 1010 13 9000 5.1 350 14:36 10.10.2019
6480 Haze 39 1010 13 9000 5.1 350 14:18 10.10.2019
6481 Haze 39 1009 33 10000 3.1 90 13:42 10.10.2019
6482 Haze 38 1010 16 9000 1.5 320 13:24 10.10.2019
6483 Haze 38 1010 33 10000 3.1 110 12:58 10.10.2019
6484 Haze 39 1011 17 9000 1.5 320 12:40 10.10.2019
6485 Haze 39 1011 17 9000 1.5 320 12:20 10.10.2019
6486 Haze 39 1011 17 9000 1.5 320 12:20 10.10.2019
6487 Haze 39 1010 24 10000 3.6 350 11:57 10.10.2019
6488 Haze 39 1010 24 10000 3.6 350 11:38 10.10.2019
6489 Haze 39 1010 24 10000 3.6 350 11:19 10.10.2019
6490 Haze 38 1011 27 10000 3.1 360 10:44 10.10.2019
6491 Haze 38 1011 27 10000 3.1 360 10:26 10.10.2019
6492 Haze 37 1012 37 10000 1.5 260 09:56 10.10.2019
6493 Haze 37 1012 37 10000 1.5 260 09:38 10.10.2019
6494 Haze 37 1012 37 10000 1.5 260 09:20 10.10.2019
6495 Haze 34 1012 50 10000 2.6 280 08:57 10.10.2019
6496 Haze 34 1012 50 10000 2.6 280 08:37 10.10.2019
6497 Haze 34 1012 50 10000 2.6 280 08:18 10.10.2019
6498 Mist 32 1012 63 8000 2.1 0 07:44 10.10.2019
6499 Mist 32 1012 63 8000 2.1 0 07:21 10.10.2019
6500 Mist 30 1011 74 7000 2.1 250 06:48 10.10.2019
6501 Mist 30 1011 74 7000 2.1 250 06:29 10.10.2019
6502 Mist 28 1011 79 6000 1.5 260 05:28 10.10.2019
6503 Mist 29 1010 79 10000 2.1 250 04:47 10.10.2019
6504 Mist 29 1010 79 10000 2.1 250 04:26 10.10.2019
6505 Mist 29 1010 79 10000 2.1 250 04:26 10.10.2019
6506 Mist 29 1010 70 10000 2.1 310 01:44 10.10.2019
6507 Mist 29 1011 78 8000 1.5 300 01:25 10.10.2019
6508 Mist 29 1010 74 10000 2.6 340 00:54 10.10.2019
6509 Mist 29 1010 74 10000 2.6 340 00:23 10.10.2019
6510 Mist 30 1011 70 10000 2.6 340 23:40 09.10.2019
6511 Mist 30 1011 70 10000 2.6 340 23:22 09.10.2019
6512 Mist 30 1011 70 10000 3.6 330 22:57 09.10.2019
6513 Mist 30 1011 70 10000 3.6 330 22:38 09.10.2019
6514 Mist 30 1011 70 10000 3.6 330 22:20 09.10.2019
6515 Clear 31 1011 70 10000 4.1 340 21:41 09.10.2019
6516 Haze 31 1011 70 10000 3.6 350 21:21 09.10.2019
6517 Haze 31 1011 70 10000 3.6 350 20:56 09.10.2019
6518 Clear 29 1012 78 0 3.35 340.094 20:38 09.10.2019
6519 Clear 32 1011 70 10000 4.1 350 20:19 09.10.2019
6520 Clear 32 1011 70 10000 4.1 350 20:19 09.10.2019
6521 Clear 32 1011 70 10000 4.1 350 20:19 09.10.2019
6522 Clear 32 1011 70 10000 4.1 350 19:58 09.10.2019
6523 Clear 32 1011 70 10000 4.1 350 19:40 09.10.2019
6524 Clear 32 1011 70 10000 4.1 350 19:22 09.10.2019
6525 Clear 29 1012 78 0 3.35 340.094 18:38 09.10.2019
6526 Haze 32 1011 75 10000 5.1 10 18:20 09.10.2019
6527 Haze 32 1011 75 10000 5.1 10 17:58 09.10.2019
6528 Haze 32 1011 75 10000 5.1 10 17:37 09.10.2019
6529 Haze 32 1011 75 10000 5.1 10 17:37 09.10.2019
6530 Haze 32 1011 75 10000 5.1 10 17:19 09.10.2019
6531 Haze 34 1010 70 9000 4.6 20 16:56 09.10.2019
6532 Haze 34 1010 70 9000 4.6 20 16:37 09.10.2019
6533 Haze 34 1010 70 9000 4.6 20 16:18 09.10.2019
6534 Haze 34 1010 70 9000 4.6 20 16:18 09.10.2019
6535 Haze 34 1010 63 9000 5.1 20 15:55 09.10.2019
6536 Haze 34 1010 63 9000 5.1 20 15:36 09.10.2019
6537 Haze 35 1011 44 9000 3.6 40 15:18 09.10.2019
6538 Haze 35 1011 63 10000 4.6 30 14:44 09.10.2019
6539 Haze 35 1011 63 10000 4.6 30 14:19 09.10.2019
6540 Haze 35 1011 53 10000 4.6 30 13:59 09.10.2019
6541 Haze 35 1011 53 10000 4.6 30 13:37 09.10.2019
6542 Haze 36 1012 37 9000 2.1 340 13:18 09.10.2019
6543 Haze 36 1012 47 10000 3.1 20 12:43 09.10.2019
6544 Haze 36 1012 47 10000 3.1 20 12:22 09.10.2019
6545 Haze 36 1012 50 10000 2.6 20 11:58 09.10.2019
6546 Haze 36 1012 50 10000 2.6 20 11:39 09.10.2019
6547 Haze 36 1012 50 10000 2.6 20 11:20 09.10.2019
6548 Haze 35 1013 56 10000 3.1 10 10:58 09.10.2019
6549 Haze 35 1013 56 10000 3.1 10 10:40 09.10.2019
6550 Haze 35 1013 56 10000 3.1 10 10:18 09.10.2019
6551 Haze 34 1014 52 10000 3.1 350 09:43 09.10.2019
6552 Haze 34 1015 39 9000 2.1 20 09:20 09.10.2019
6553 Haze 33 1015 55 10000 3.1 360 08:57 09.10.2019
6554 Haze 33 1015 55 10000 3.1 360 08:37 09.10.2019
6555 Haze 33 1015 55 10000 3.1 360 08:19 09.10.2019
6556 Haze 32 1015 59 10000 3.1 360 07:47 09.10.2019
6557 Haze 32 1014 63 10000 2.1 350 07:24 09.10.2019
6558 Haze 32 1014 63 10000 2.1 350 07:24 09.10.2019
6559 Haze 30 1014 62 10000 2.6 340 06:56 09.10.2019
6560 Haze 29 1014 62 10000 2.6 340 06:25 09.10.2019
6561 Haze 29 1013 74 10000 2.9 353.594 05:47 09.10.2019
6562 Haze 29 1013 70 10000 1 360 04:41 09.10.2019
6563 Haze 29 1012 70 10000 1 350 03:43 09.10.2019
6564 Haze 29 1012 70 10000 1 350 03:43 09.10.2019
6565 Haze 30 1012 66 10000 1 340 01:55 09.10.2019
6566 Haze 30 1013 62 9000 2.2 19.472 01:22 09.10.2019
6567 Haze 30 1013 62 9000 2.2 19.472 01:22 09.10.2019
6568 Haze 30 1013 66 10000 2.1 20 00:59 09.10.2019
6569 Haze 30 1013 66 10000 2.1 20 00:40 09.10.2019
6570 Haze 31 1013 66 10000 2.1 20 00:22 09.10.2019
6571 Haze 31 1013 66 10000 1.5 30 23:58 08.10.2019
6572 Clear 32 1013 66 10000 1.5 30 23:37 08.10.2019
6573 Haze 31 1013 66 10000 1.5 30 23:18 08.10.2019
6574 Haze 31 1013 62 10000 2.1 30 22:41 08.10.2019
6575 Haze 31 1013 62 10000 2.1 30 22:41 08.10.2019
6576 Haze 32 1013 62 10000 1.5 20 22:21 08.10.2019
6577 Haze 32 1013 62 10000 1.5 20 21:58 08.10.2019
6578 Haze 32 1013 62 10000 1.5 20 21:39 08.10.2019
6579 Haze 32 1013 62 10000 1.5 40 21:20 08.10.2019
6580 Haze 32 1013 62 10000 1.5 40 20:58 08.10.2019
6581 Haze 32 1013 62 10000 1.5 40 20:39 08.10.2019
6582 Haze 32 1014 52 9000 2.1 70 20:21 08.10.2019
6583 Haze 32 1013 62 10000 2.1 30 19:59 08.10.2019
6584 Haze 32 1013 62 10000 2.1 30 19:41 08.10.2019
6585 Haze 32 1013 62 10000 2.1 30 19:23 08.10.2019
6586 Haze 33 1013 62 10000 1.5 40 18:57 08.10.2019
6587 Haze 33 1014 43 9000 3.1 100 18:39 08.10.2019
6588 Haze 33 1014 43 9000 3.1 100 18:19 08.10.2019
6589 Haze 34 1012 59 10000 2.1 40 17:55 08.10.2019
6590 Haze 34 1013 36 9000 2.6 90 17:36 08.10.2019
6591 Haze 34 1013 36 9000 2.6 90 17:18 08.10.2019
6592 Haze 35 1012 52 10000 2.6 70 16:41 08.10.2019
6593 Haze 34 1012 52 10000 2.6 70 16:22 08.10.2019
6594 Haze 35 1012 52 10000 3.1 100 15:57 08.10.2019
6595 Clear 32 1013 63 0 3.31 87.942 15:38 08.10.2019
6596 Haze 35 1012 47 10000 4.1 90 15:19 08.10.2019
6597 Haze 35 1012 47 10000 4.1 90 14:42 08.10.2019
6598 Haze 35 1012 47 10000 4.1 90 14:42 08.10.2019
6599 Haze 36 1012 27 9000 4.6 110 14:21 08.10.2019
6600 Haze 36 1012 44 10000 4.6 110 13:59 08.10.2019
6601 Haze 36 1012 44 10000 4.6 110 13:39 08.10.2019
6602 Haze 36 1013 29 9000 4.1 120 13:21 08.10.2019
6603 Haze 36 1013 47 10000 4.6 120 12:59 08.10.2019
6604 Haze 36 1013 47 10000 4.6 120 12:40 08.10.2019
6605 Haze 36 1013 29 9000 5.1 100 12:20 08.10.2019
6606 Haze 36 1013 44 10000 4.6 120 11:56 08.10.2019
6607 Haze 36 1013 44 10000 5.1 110 11:37 08.10.2019
6608 Haze 36 1013 44 10000 5.1 110 11:19 08.10.2019
6609 Haze 37 1013 41 10000 4.6 120 10:40 08.10.2019
6610 Haze 36 1014 32 9000 3.6 170 10:22 08.10.2019
6611 Clouds 36 1014 47 10000 5.1 110 09:58 08.10.2019
6612 Clouds 36 1014 47 10000 5.1 110 09:40 08.10.2019
6613 Haze 36 1014 50 10000 4.6 100 09:21 08.10.2019
6614 Haze 35 1014 50 10000 4.6 100 08:45 08.10.2019
6615 Haze 35 1015 32 9000 5.1 160 08:25 08.10.2019
6616 Haze 35 1014 53 10000 5.7 120 07:47 08.10.2019
6617 Haze 34 1015 46 9000 4.1 140 07:23 08.10.2019
6618 Haze 33 1014 52 10000 5.7 120 06:57 08.10.2019
6619 Haze 33 1014 59 10000 5.1 120 06:36 08.10.2019
6620 Mist 32 1013 63 10000 4.6 120 05:59 08.10.2019
6621 Mist 32 1013 63 10000 4.6 120 05:40 08.10.2019
6622 Mist 32 1013 63 10000 4.6 120 05:40 08.10.2019
6623 Mist 32 1012 63 10000 5.7 110 04:56 08.10.2019
6624 Mist 32 1011 63 10000 4.6 110 03:30 08.10.2019
6625 Mist 33 1011 66 10000 5.7 110 02:41 08.10.2019
6626 Mist 33 1010 66 10000 6.2 100 01:56 08.10.2019
6627 Mist 33 1010 66 10000 6.2 100 01:38 08.10.2019
6628 Haze 32 1010 66 10000 6.2 100 00:55 08.10.2019
6629 Haze 33 1011 62 8000 3.6 100 00:23 08.10.2019
6630 Haze 33 1010 66 10000 6.7 90 23:44 07.10.2019
6631 Haze 33 1010 66 10000 6.7 90 23:21 07.10.2019
6632 Haze 33 1010 66 10000 6.7 90 23:21 07.10.2019
6633 Haze 33 1010 66 10000 6.7 90 23:21 07.10.2019
6634 Haze 33 1010 66 10000 6.7 90 22:59 07.10.2019
6635 Haze 33 1010 66 10000 6.7 90 22:40 07.10.2019
6636 Haze 33 1010 66 10000 5.7 90 22:21 07.10.2019
6637 Haze 33 1010 63 10000 6.7 90 21:59 07.10.2019
6638 Haze 33 1010 63 10000 6.7 90 21:40 07.10.2019
6639 Haze 34 1011 59 8000 3.6 90 21:21 07.10.2019
6640 Haze 34 1011 56 10000 6.2 90 20:59 07.10.2019
6641 Haze 34 1011 56 10000 6.2 90 20:40 07.10.2019
6642 Haze 34 1011 59 9000 6.7 80 20:21 07.10.2019
6643 Haze 33 1011 59 9000 6.7 80 19:59 07.10.2019
6644 Haze 33 1011 59 9000 6.7 80 19:41 07.10.2019
6645 Haze 33 1010 56 9000 6.7 90 19:20 07.10.2019
6646 Haze 33 1010 56 9000 6.7 90 18:59 07.10.2019
6647 Haze 33 1010 56 8000 6.2 90 18:40 07.10.2019
6648 Haze 33 1010 56 8000 6.2 90 18:19 07.10.2019
6649 Haze 33 1010 56 8000 6.2 90 18:19 07.10.2019
6650 Haze 33 1010 59 7000 6.2 80 17:55 07.10.2019
6651 Haze 33 1009 59 6000 6.2 80 17:37 07.10.2019
6652 Haze 33 1009 59 6000 6.2 80 17:18 07.10.2019
6653 Dust 34 1009 56 4000 6.7 80 16:43 07.10.2019
6654 Dust 34 1009 49 5000 6.2 80 16:25 07.10.2019
6655 Dust 34 1009 56 3500 6.7 80 15:46 07.10.2019
6656 Dust 34 1009 49 5000 7.2 90 15:26 07.10.2019
6657 Dust 35 1009 56 3500 6.2 80 14:58 07.10.2019
6658 Dust 35 1009 56 3500 6.2 80 14:40 07.10.2019
6659 Dust 36 1009 56 3500 6.7 80 14:22 07.10.2019
6660 Dust 36 1008 53 3500 6.7 90 13:44 07.10.2019
6661 Haze 36 1009 41 7000 6.7 110 13:21 07.10.2019
6662 Haze 36 1009 41 7000 6.7 110 12:57 07.10.2019
6663 Haze 36 1009 35 6000 7.2 110 12:39 07.10.2019
6664 Haze 36 1009 35 6000 7.2 110 12:19 07.10.2019
6665 Haze 36 1009 47 8000 8.2 120 11:58 07.10.2019
6666 Haze 36 1009 47 8000 8.2 120 11:39 07.10.2019
6667 Haze 36 1009 32 9000 5.1 130 11:20 07.10.2019
6668 Haze 36 1009 47 9000 7.7 120 10:42 07.10.2019
6669 Haze 36 1009 44 10000 7.7 120 10:21 07.10.2019
6670 Haze 36 1009 50 10000 7.7 120 09:56 07.10.2019
6671 Haze 36 1009 50 10000 7.7 120 09:38 07.10.2019
6672 Haze 36 1010 50 10000 6.7 100 09:19 07.10.2019
6673 Haze 35 1010 53 10000 7.2 100 08:42 07.10.2019
6674 Haze 34 1010 59 10000 5.1 90 08:20 07.10.2019
6675 Haze 34 1010 59 10000 5.1 90 07:46 07.10.2019
6676 Haze 34 1009 59 10000 6.2 80 07:27 07.10.2019
6677 Mist 33 1009 63 10000 5.7 70 06:57 07.10.2019
6678 Mist 33 1009 63 10000 5.7 70 06:38 07.10.2019
6679 Mist 31 1008 62 10000 4.1 70 05:56 07.10.2019
6680 Mist 31 1008 62 10000 4.1 70 05:25 07.10.2019
6681 Mist 31 1007 59 10000 4.1 70 04:47 07.10.2019
6682 Haze 30 1007 62 10000 3.6 80 03:45 07.10.2019
6683 Haze 30 1007 62 10000 3.6 80 03:27 07.10.2019
6684 Haze 30 1007 62 10000 4.1 40 02:37 07.10.2019
6685 Haze 30 1007 62 10000 4.1 40 02:18 07.10.2019
6686 Haze 30 1007 62 10000 3.6 40 01:23 07.10.2019
6687 Haze 30 1006 66 10000 3.6 40 00:49 07.10.2019
6688 Haze 30 1006 66 10000 3.6 40 00:23 07.10.2019
6689 Haze 31 1006 62 10000 3.6 40 23:59 06.10.2019
6690 Haze 31 1006 62 10000 3.6 40 23:39 06.10.2019
6691 Haze 31 1006 62 10000 3.6 40 23:18 06.10.2019
6692 -273 0 0 0 0 0 22:54 06.10.2019
6693 Haze 30 1007 66 10000 3.1 30 22:36 06.10.2019
6694 Haze 30 1007 66 10000 3.1 30 22:18 06.10.2019
6695 Haze 30 1007 66 10000 3.1 30 22:18 06.10.2019
6696 Haze 30 1007 62 10000 2.6 20 21:55 06.10.2019
6697 Haze 30 1007 62 10000 2.6 20 21:54 06.10.2019